<?xml version="1.0" encoding="utf-8"?>
<gpx xmlns:xsi="http://www.w3.org/2001/XMLSchema-instance" xmlns:xsd="http://www.w3.org/2001/XMLSchema" version="1.1" creator="Shapelink.com" xmlns="http://www.topografix.com/GPX/1/1" xmlns:gpxtpx="http://www.garmin.com/xmlschemas/TrackPointExtension/v1">
  <metadata>
    <name>Löpning 8.86 km, 2018-01-30</name>
    <desc></desc>
    <author><name>Bengt-Åke Forslund</name></author> 
    <time>2018-01-30T12:21:32Z</time>
  </metadata>
  <trk>
    <name>Löpning 8.86 km, 2018-01-30</name>
    <trkseg>
      <trkpt lat="62.635887229975" lon="17.967827329409">
        <ele>60</ele>
        <time>2018-01-30T12:21:32Z</time>
      </trkpt>
      <trkpt lat="62.635962499437" lon="17.968158246821">
        <ele>59.8</ele>
        <time>2018-01-30T12:21:41Z</time>
      </trkpt>
      <trkpt lat="62.63596476255" lon="17.968199066674">
        <ele>60</ele>
        <time>2018-01-30T12:21:42Z</time>
      </trkpt>
      <trkpt lat="62.635975994296" lon="17.968240557079">
        <ele>60</ele>
        <time>2018-01-30T12:21:43Z</time>
      </trkpt>
      <trkpt lat="62.635988064232" lon="17.968255895956">
        <ele>59.8</ele>
        <time>2018-01-30T12:21:44Z</time>
      </trkpt>
      <trkpt lat="62.635996362313" lon="17.968312473781">
        <ele>60</ele>
        <time>2018-01-30T12:21:45Z</time>
      </trkpt>
      <trkpt lat="62.636009605715" lon="17.968349354141">
        <ele>60</ele>
        <time>2018-01-30T12:21:46Z</time>
      </trkpt>
      <trkpt lat="62.636022932936" lon="17.968381959732">
        <ele>60.2</ele>
        <time>2018-01-30T12:21:47Z</time>
      </trkpt>
      <trkpt lat="62.636036679252" lon="17.968416576979">
        <ele>60.2</ele>
        <time>2018-01-30T12:21:48Z</time>
      </trkpt>
      <trkpt lat="62.636055706165" lon="17.968459157031">
        <ele>60.4</ele>
        <time>2018-01-30T12:21:49Z</time>
      </trkpt>
      <trkpt lat="62.636079426942" lon="17.968488158405">
        <ele>60.8</ele>
        <time>2018-01-30T12:21:50Z</time>
      </trkpt>
      <trkpt lat="62.636100800787" lon="17.968513136467">
        <ele>60.8</ele>
        <time>2018-01-30T12:21:51Z</time>
      </trkpt>
      <trkpt lat="62.636118738053" lon="17.968540461461">
        <ele>61</ele>
        <time>2018-01-30T12:21:52Z</time>
      </trkpt>
      <trkpt lat="62.636130891808" lon="17.96854138347">
        <ele>61</ele>
        <time>2018-01-30T12:21:53Z</time>
      </trkpt>
      <trkpt lat="62.63614329702" lon="17.968546580248">
        <ele>61</ele>
        <time>2018-01-30T12:21:54Z</time>
      </trkpt>
      <trkpt lat="62.636147655608" lon="17.968539120357">
        <ele>61</ele>
        <time>2018-01-30T12:21:55Z</time>
      </trkpt>
      <trkpt lat="62.636155534594" lon="17.96853132519">
        <ele>61.2</ele>
        <time>2018-01-30T12:21:56Z</time>
      </trkpt>
      <trkpt lat="62.636159977001" lon="17.968523362385">
        <ele>61.2</ele>
        <time>2018-01-30T12:21:57Z</time>
      </trkpt>
      <trkpt lat="62.636163497399" lon="17.968516992141">
        <ele>61.4</ele>
        <time>2018-01-30T12:21:58Z</time>
      </trkpt>
      <trkpt lat="62.636163245942" lon="17.96852964881">
        <ele>61.4</ele>
        <time>2018-01-30T12:21:59Z</time>
      </trkpt>
      <trkpt lat="62.636317472902" lon="17.968629309601">
        <ele>60.6</ele>
        <time>2018-01-30T12:22:49Z</time>
      </trkpt>
      <trkpt lat="62.636342702421" lon="17.968653868568">
        <ele>60.8</ele>
        <time>2018-01-30T12:22:50Z</time>
      </trkpt>
      <trkpt lat="62.636369943596" lon="17.96869225767">
        <ele>60.6</ele>
        <time>2018-01-30T12:22:51Z</time>
      </trkpt>
      <trkpt lat="62.636389305785" lon="17.96872662346">
        <ele>60.6</ele>
        <time>2018-01-30T12:22:52Z</time>
      </trkpt>
      <trkpt lat="62.636406656318" lon="17.968777417774">
        <ele>60.6</ele>
        <time>2018-01-30T12:22:53Z</time>
      </trkpt>
      <trkpt lat="62.636427275792" lon="17.968822428577">
        <ele>60.6</ele>
        <time>2018-01-30T12:22:54Z</time>
      </trkpt>
      <trkpt lat="62.636443704316" lon="17.968866433552">
        <ele>60.6</ele>
        <time>2018-01-30T12:22:55Z</time>
      </trkpt>
      <trkpt lat="62.636460719573" lon="17.96891521621">
        <ele>60.6</ele>
        <time>2018-01-30T12:22:56Z</time>
      </trkpt>
      <trkpt lat="62.636480836133" lon="17.968945558688">
        <ele>60.6</ele>
        <time>2018-01-30T12:22:57Z</time>
      </trkpt>
      <trkpt lat="62.636501371788" lon="17.969000795409">
        <ele>60.6</ele>
        <time>2018-01-30T12:22:58Z</time>
      </trkpt>
      <trkpt lat="62.636522326538" lon="17.969039435968">
        <ele>60.6</ele>
        <time>2018-01-30T12:22:59Z</time>
      </trkpt>
      <trkpt lat="62.63653976089" lon="17.969092325757">
        <ele>60.8</ele>
        <time>2018-01-30T12:23:00Z</time>
      </trkpt>
      <trkpt lat="62.636556440871" lon="17.969145215546">
        <ele>60.8</ele>
        <time>2018-01-30T12:23:01Z</time>
      </trkpt>
      <trkpt lat="62.636571360653" lon="17.969186957408">
        <ele>60.8</ele>
        <time>2018-01-30T12:23:02Z</time>
      </trkpt>
      <trkpt lat="62.636588962643" lon="17.969243535233">
        <ele>61</ele>
        <time>2018-01-30T12:23:03Z</time>
      </trkpt>
      <trkpt lat="62.636599942932" lon="17.969286031466">
        <ele>61</ele>
        <time>2018-01-30T12:23:04Z</time>
      </trkpt>
      <trkpt lat="62.636617293465" lon="17.969354511589">
        <ele>61</ele>
        <time>2018-01-30T12:23:05Z</time>
      </trkpt>
      <trkpt lat="62.636631542695" lon="17.969410418862">
        <ele>60.8</ele>
        <time>2018-01-30T12:23:06Z</time>
      </trkpt>
      <trkpt lat="62.636646797753" lon="17.969453837104">
        <ele>61</ele>
        <time>2018-01-30T12:23:07Z</time>
      </trkpt>
      <trkpt lat="62.636661801354" lon="17.969510582567">
        <ele>61</ele>
        <time>2018-01-30T12:23:08Z</time>
      </trkpt>
      <trkpt lat="62.636674374204" lon="17.969559197587">
        <ele>60.8</ele>
        <time>2018-01-30T12:23:09Z</time>
      </trkpt>
      <trkpt lat="62.636687366149" lon="17.969612925566">
        <ele>61</ele>
        <time>2018-01-30T12:23:10Z</time>
      </trkpt>
      <trkpt lat="62.636699771361" lon="17.969663636061">
        <ele>61.2</ele>
        <time>2018-01-30T12:23:11Z</time>
      </trkpt>
      <trkpt lat="62.636712092754" lon="17.969699342955">
        <ele>61</ele>
        <time>2018-01-30T12:23:12Z</time>
      </trkpt>
      <trkpt lat="62.63672164812" lon="17.969759189721">
        <ele>61.2</ele>
        <time>2018-01-30T12:23:13Z</time>
      </trkpt>
      <trkpt lat="62.636735562074" lon="17.969807720922">
        <ele>61.2</ele>
        <time>2018-01-30T12:23:14Z</time>
      </trkpt>
      <trkpt lat="62.636750481856" lon="17.969866729498">
        <ele>61.2</ele>
        <time>2018-01-30T12:23:15Z</time>
      </trkpt>
      <trkpt lat="62.636765569276" lon="17.969907130256">
        <ele>61.2</ele>
        <time>2018-01-30T12:23:16Z</time>
      </trkpt>
      <trkpt lat="62.636782249257" lon="17.969946609005">
        <ele>61.2</ele>
        <time>2018-01-30T12:23:17Z</time>
      </trkpt>
      <trkpt lat="62.63680462893" lon="17.969994218197">
        <ele>61.2</ele>
        <time>2018-01-30T12:23:18Z</time>
      </trkpt>
      <trkpt lat="62.636824661671" lon="17.970017519879">
        <ele>61.4</ele>
        <time>2018-01-30T12:23:19Z</time>
      </trkpt>
      <trkpt lat="62.636848885362" lon="17.970067559822">
        <ele>61.4</ele>
        <time>2018-01-30T12:23:20Z</time>
      </trkpt>
      <trkpt lat="62.63687252232" lon="17.970101757974">
        <ele>61.6</ele>
        <time>2018-01-30T12:23:21Z</time>
      </trkpt>
      <trkpt lat="62.636896326916" lon="17.970133273918">
        <ele>61.6</ele>
        <time>2018-01-30T12:23:22Z</time>
      </trkpt>
      <trkpt lat="62.636926501756" lon="17.970163364939">
        <ele>61.6</ele>
        <time>2018-01-30T12:23:23Z</time>
      </trkpt>
      <trkpt lat="62.636948462334" lon="17.970176524522">
        <ele>61.6</ele>
        <time>2018-01-30T12:23:24Z</time>
      </trkpt>
      <trkpt lat="62.636975871147" lon="17.970193120684">
        <ele>61.6</ele>
        <time>2018-01-30T12:23:25Z</time>
      </trkpt>
      <trkpt lat="62.637014008792" lon="17.970197060177">
        <ele>61.8</ele>
        <time>2018-01-30T12:23:26Z</time>
      </trkpt>
      <trkpt lat="62.63705189498" lon="17.970207872828">
        <ele>62</ele>
        <time>2018-01-30T12:23:27Z</time>
      </trkpt>
      <trkpt lat="62.637089864987" lon="17.970202340774">
        <ele>62</ele>
        <time>2018-01-30T12:23:28Z</time>
      </trkpt>
      <trkpt lat="62.637133618505" lon="17.970178033264">
        <ele>61.8</ele>
        <time>2018-01-30T12:23:29Z</time>
      </trkpt>
      <trkpt lat="62.637172175245" lon="17.970162107654">
        <ele>61.6</ele>
        <time>2018-01-30T12:23:30Z</time>
      </trkpt>
      <trkpt lat="62.637220622627" lon="17.97012891533">
        <ele>61.2</ele>
        <time>2018-01-30T12:23:31Z</time>
      </trkpt>
      <trkpt lat="62.637266555439" lon="17.970102679983">
        <ele>61</ele>
        <time>2018-01-30T12:23:32Z</time>
      </trkpt>
      <trkpt lat="62.637311314785" lon="17.97008281488">
        <ele>60.4</ele>
        <time>2018-01-30T12:23:33Z</time>
      </trkpt>
      <trkpt lat="62.637342914548" lon="17.970067140727">
        <ele>60</ele>
        <time>2018-01-30T12:23:34Z</time>
      </trkpt>
      <trkpt lat="62.637393457405" lon="17.970049371099">
        <ele>59.6</ele>
        <time>2018-01-30T12:23:35Z</time>
      </trkpt>
      <trkpt lat="62.637433858163" lon="17.970043503769">
        <ele>59</ele>
        <time>2018-01-30T12:23:36Z</time>
      </trkpt>
      <trkpt lat="62.637472917817" lon="17.970038893724">
        <ele>59.2</ele>
        <time>2018-01-30T12:23:37Z</time>
      </trkpt>
      <trkpt lat="62.637514072946" lon="17.97004341995">
        <ele>59.4</ele>
        <time>2018-01-30T12:23:38Z</time>
      </trkpt>
      <trkpt lat="62.637550366573" lon="17.970068649469">
        <ele>59.4</ele>
        <time>2018-01-30T12:23:39Z</time>
      </trkpt>
      <trkpt lat="62.637582888345" lon="17.970104356363">
        <ele>59.6</ele>
        <time>2018-01-30T12:23:40Z</time>
      </trkpt>
      <trkpt lat="62.637611470624" lon="17.970160598912">
        <ele>59.8</ele>
        <time>2018-01-30T12:23:41Z</time>
      </trkpt>
      <trkpt lat="62.637642399835" lon="17.970222205877">
        <ele>60</ele>
        <time>2018-01-30T12:23:42Z</time>
      </trkpt>
      <trkpt lat="62.637663522223" lon="17.970276101494">
        <ele>59.2</ele>
        <time>2018-01-30T12:23:43Z</time>
      </trkpt>
      <trkpt lat="62.637681878584" lon="17.970339636296">
        <ele>58.6</ele>
        <time>2018-01-30T12:23:44Z</time>
      </trkpt>
      <trkpt lat="62.637701995144" lon="17.970406607677">
        <ele>58.4</ele>
        <time>2018-01-30T12:23:45Z</time>
      </trkpt>
      <trkpt lat="62.63771406508" lon="17.97046838228">
        <ele>58.6</ele>
        <time>2018-01-30T12:23:46Z</time>
      </trkpt>
      <trkpt lat="62.637728817224" lon="17.970530911254">
        <ele>58.6</ele>
        <time>2018-01-30T12:23:47Z</time>
      </trkpt>
      <trkpt lat="62.637743150273" lon="17.970571144374">
        <ele>58.6</ele>
        <time>2018-01-30T12:23:48Z</time>
      </trkpt>
      <trkpt lat="62.637753962924" lon="17.970622273964">
        <ele>58.6</ele>
        <time>2018-01-30T12:23:49Z</time>
      </trkpt>
      <trkpt lat="62.637769553258" lon="17.970674493201">
        <ele>58.6</ele>
        <time>2018-01-30T12:23:50Z</time>
      </trkpt>
      <trkpt lat="62.637777180787" lon="17.970717576167">
        <ele>58.6</ele>
        <time>2018-01-30T12:23:51Z</time>
      </trkpt>
      <trkpt lat="62.637783970126" lon="17.97076677792">
        <ele>58.6</ele>
        <time>2018-01-30T12:23:52Z</time>
      </trkpt>
      <trkpt lat="62.637793944587" lon="17.970814638569">
        <ele>58.6</ele>
        <time>2018-01-30T12:23:53Z</time>
      </trkpt>
      <trkpt lat="62.637800733926" lon="17.97087155167">
        <ele>58.6</ele>
        <time>2018-01-30T12:23:54Z</time>
      </trkpt>
      <trkpt lat="62.637810624568" lon="17.970930895522">
        <ele>58.6</ele>
        <time>2018-01-30T12:23:55Z</time>
      </trkpt>
      <trkpt lat="62.637817413907" lon="17.970981689836">
        <ele>58.6</ele>
        <time>2018-01-30T12:23:56Z</time>
      </trkpt>
      <trkpt lat="62.637829232386" lon="17.971037094195">
        <ele>58.6</ele>
        <time>2018-01-30T12:23:57Z</time>
      </trkpt>
      <trkpt lat="62.637840128856" lon="17.971081853541">
        <ele>58.8</ele>
        <time>2018-01-30T12:23:58Z</time>
      </trkpt>
      <trkpt lat="62.637857730846" lon="17.971150249845">
        <ele>58.8</ele>
        <time>2018-01-30T12:23:59Z</time>
      </trkpt>
      <trkpt lat="62.637871812438" lon="17.971202049987">
        <ele>58.8</ele>
        <time>2018-01-30T12:24:00Z</time>
      </trkpt>
      <trkpt lat="62.637880529614" lon="17.971262232029">
        <ele>58.8</ele>
        <time>2018-01-30T12:24:01Z</time>
      </trkpt>
      <trkpt lat="62.637891928998" lon="17.971312691067">
        <ele>59</ele>
        <time>2018-01-30T12:24:02Z</time>
      </trkpt>
      <trkpt lat="62.637898885975" lon="17.971349236151">
        <ele>59</ele>
        <time>2018-01-30T12:24:03Z</time>
      </trkpt>
      <trkpt lat="62.637908022246" lon="17.971386535606">
        <ele>59</ele>
        <time>2018-01-30T12:24:04Z</time>
      </trkpt>
      <trkpt lat="62.637927468254" lon="17.971447639657">
        <ele>59</ele>
        <time>2018-01-30T12:24:06Z</time>
      </trkpt>
      <trkpt lat="62.637942639493" lon="17.971515784504">
        <ele>58.8</ele>
        <time>2018-01-30T12:24:07Z</time>
      </trkpt>
      <trkpt lat="62.637949428832" lon="17.971570853587">
        <ele>59</ele>
        <time>2018-01-30T12:24:08Z</time>
      </trkpt>
      <trkpt lat="62.637959068017" lon="17.971620222978">
        <ele>59</ele>
        <time>2018-01-30T12:24:09Z</time>
      </trkpt>
      <trkpt lat="62.637960409121" lon="17.97168124321">
        <ele>59</ele>
        <time>2018-01-30T12:24:10Z</time>
      </trkpt>
      <trkpt lat="62.637963175148" lon="17.971752405541">
        <ele>59.4</ele>
        <time>2018-01-30T12:24:11Z</time>
      </trkpt>
      <trkpt lat="62.637965019166" lon="17.971812587583">
        <ele>59.4</ele>
        <time>2018-01-30T12:24:12Z</time>
      </trkpt>
      <trkpt lat="62.637966024994" lon="17.97186732139">
        <ele>59.4</ele>
        <time>2018-01-30T12:24:13Z</time>
      </trkpt>
      <trkpt lat="62.637971557048" lon="17.971913086564">
        <ele>59.4</ele>
        <time>2018-01-30T12:24:14Z</time>
      </trkpt>
      <trkpt lat="62.637963678062" lon="17.971988104569">
        <ele>59.4</ele>
        <time>2018-01-30T12:24:15Z</time>
      </trkpt>
      <trkpt lat="62.637964013338" lon="17.972044011842">
        <ele>59.4</ele>
        <time>2018-01-30T12:24:16Z</time>
      </trkpt>
      <trkpt lat="62.637961498768" lon="17.972102098409">
        <ele>59.6</ele>
        <time>2018-01-30T12:24:17Z</time>
      </trkpt>
      <trkpt lat="62.637960325302" lon="17.972157921863">
        <ele>59.8</ele>
        <time>2018-01-30T12:24:18Z</time>
      </trkpt>
      <trkpt lat="62.637960995854" lon="17.972203519399">
        <ele>59.8</ele>
        <time>2018-01-30T12:24:19Z</time>
      </trkpt>
      <trkpt lat="62.637960660578" lon="17.972262276518">
        <ele>59.8</ele>
        <time>2018-01-30T12:24:20Z</time>
      </trkpt>
      <trkpt lat="62.637960828216" lon="17.972311897366">
        <ele>59.8</ele>
        <time>2018-01-30T12:24:21Z</time>
      </trkpt>
      <trkpt lat="62.637959990026" lon="17.972365876802">
        <ele>59.8</ele>
        <time>2018-01-30T12:24:22Z</time>
      </trkpt>
      <trkpt lat="62.637967366098" lon="17.972408205397">
        <ele>59.8</ele>
        <time>2018-01-30T12:24:23Z</time>
      </trkpt>
      <trkpt lat="62.637970383582" lon="17.972460256996">
        <ele>59.8</ele>
        <time>2018-01-30T12:24:24Z</time>
      </trkpt>
      <trkpt lat="62.637974993627" lon="17.972510799853">
        <ele>60</ele>
        <time>2018-01-30T12:24:25Z</time>
      </trkpt>
      <trkpt lat="62.637978011111" lon="17.972565114565">
        <ele>60.2</ele>
        <time>2018-01-30T12:24:26Z</time>
      </trkpt>
      <trkpt lat="62.63798312407" lon="17.972622362942">
        <ele>60.4</ele>
        <time>2018-01-30T12:24:27Z</time>
      </trkpt>
      <trkpt lat="62.63799234416" lon="17.972675252731">
        <ele>60.4</ele>
        <time>2018-01-30T12:24:28Z</time>
      </trkpt>
      <trkpt lat="62.637985219545" lon="17.972724035389">
        <ele>60.6</ele>
        <time>2018-01-30T12:24:29Z</time>
      </trkpt>
      <trkpt lat="62.637991757427" lon="17.972785642354">
        <ele>60.8</ele>
        <time>2018-01-30T12:24:30Z</time>
      </trkpt>
      <trkpt lat="62.637992679436" lon="17.972840711437">
        <ele>60.8</ele>
        <time>2018-01-30T12:24:31Z</time>
      </trkpt>
      <trkpt lat="62.637993936721" lon="17.97288991319">
        <ele>60.6</ele>
        <time>2018-01-30T12:24:32Z</time>
      </trkpt>
      <trkpt lat="62.637995529282" lon="17.972939785495">
        <ele>60.6</ele>
        <time>2018-01-30T12:24:33Z</time>
      </trkpt>
      <trkpt lat="62.637994271997" lon="17.972992675284">
        <ele>60.8</ele>
        <time>2018-01-30T12:24:34Z</time>
      </trkpt>
      <trkpt lat="62.63799988787" lon="17.973037602268">
        <ele>61</ele>
        <time>2018-01-30T12:24:35Z</time>
      </trkpt>
      <trkpt lat="62.637998965861" lon="17.973089318591">
        <ele>61</ele>
        <time>2018-01-30T12:24:36Z</time>
      </trkpt>
      <trkpt lat="62.638000306965" lon="17.973138604163">
        <ele>61.2</ele>
        <time>2018-01-30T12:24:37Z</time>
      </trkpt>
      <trkpt lat="62.638002150983" lon="17.973187805916">
        <ele>61.4</ele>
        <time>2018-01-30T12:24:38Z</time>
      </trkpt>
      <trkpt lat="62.638000306965" lon="17.973236756212">
        <ele>61.6</ele>
        <time>2018-01-30T12:24:39Z</time>
      </trkpt>
      <trkpt lat="62.638001815707" lon="17.973278749531">
        <ele>61.6</ele>
        <time>2018-01-30T12:24:40Z</time>
      </trkpt>
      <trkpt lat="62.638002067164" lon="17.973329879121">
        <ele>61.8</ele>
        <time>2018-01-30T12:24:41Z</time>
      </trkpt>
      <trkpt lat="62.637999301137" lon="17.973384277652">
        <ele>62</ele>
        <time>2018-01-30T12:24:42Z</time>
      </trkpt>
      <trkpt lat="62.63799569692" lon="17.973429623731">
        <ele>62</ele>
        <time>2018-01-30T12:24:43Z</time>
      </trkpt>
      <trkpt lat="62.637989578133" lon="17.973470024489">
        <ele>62</ele>
        <time>2018-01-30T12:24:44Z</time>
      </trkpt>
      <trkpt lat="62.637988739943" lon="17.973512269265">
        <ele>62.2</ele>
        <time>2018-01-30T12:24:45Z</time>
      </trkpt>
      <trkpt lat="62.637990416323" lon="17.973545964503">
        <ele>62.2</ele>
        <time>2018-01-30T12:24:46Z</time>
      </trkpt>
      <trkpt lat="62.637988237029" lon="17.973614276988">
        <ele>62.6</ele>
        <time>2018-01-30T12:24:47Z</time>
      </trkpt>
      <trkpt lat="62.637989494314" lon="17.973668675519">
        <ele>62.6</ele>
        <time>2018-01-30T12:24:48Z</time>
      </trkpt>
      <trkpt lat="62.637989494314" lon="17.973727684095">
        <ele>62.8</ele>
        <time>2018-01-30T12:24:49Z</time>
      </trkpt>
      <trkpt lat="62.637990919237" lon="17.973775796201">
        <ele>62.8</ele>
        <time>2018-01-30T12:24:50Z</time>
      </trkpt>
      <trkpt lat="62.637989242857" lon="17.973830613827">
        <ele>62.8</ele>
        <time>2018-01-30T12:24:51Z</time>
      </trkpt>
      <trkpt lat="62.637987482658" lon="17.973887024014">
        <ele>62.8</ele>
        <time>2018-01-30T12:24:52Z</time>
      </trkpt>
      <trkpt lat="62.637992260341" lon="17.973933124464">
        <ele>62.8</ele>
        <time>2018-01-30T12:24:53Z</time>
      </trkpt>
      <trkpt lat="62.637993936721" lon="17.973995988714">
        <ele>62.8</ele>
        <time>2018-01-30T12:24:54Z</time>
      </trkpt>
      <trkpt lat="62.638004246458" lon="17.974026163554">
        <ele>62.8</ele>
        <time>2018-01-30T12:24:55Z</time>
      </trkpt>
      <trkpt lat="62.638001228974" lon="17.974107551803">
        <ele>62.8</ele>
        <time>2018-01-30T12:24:56Z</time>
      </trkpt>
      <trkpt lat="62.638003575906" lon="17.974166728017">
        <ele>62.8</ele>
        <time>2018-01-30T12:24:57Z</time>
      </trkpt>
      <trkpt lat="62.638006509571" lon="17.974229927543">
        <ele>62.6</ele>
        <time>2018-01-30T12:24:58Z</time>
      </trkpt>
      <trkpt lat="62.638017238403" lon="17.974282314418">
        <ele>62.6</ele>
        <time>2018-01-30T12:24:59Z</time>
      </trkpt>
      <trkpt lat="62.63801497529" lon="17.974350375446">
        <ele>62.6</ele>
        <time>2018-01-30T12:25:00Z</time>
      </trkpt>
      <trkpt lat="62.638016986946" lon="17.974405109253">
        <ele>62.6</ele>
        <time>2018-01-30T12:25:01Z</time>
      </trkpt>
      <trkpt lat="62.638015897299" lon="17.974463447277">
        <ele>62.6</ele>
        <time>2018-01-30T12:25:02Z</time>
      </trkpt>
      <trkpt lat="62.638014891471" lon="17.974521282387">
        <ele>62.8</ele>
        <time>2018-01-30T12:25:03Z</time>
      </trkpt>
      <trkpt lat="62.638016567851" lon="17.974574926547">
        <ele>62.8</ele>
        <time>2018-01-30T12:25:04Z</time>
      </trkpt>
      <trkpt lat="62.638004497915" lon="17.974646256516">
        <ele>62.8</ele>
        <time>2018-01-30T12:25:05Z</time>
      </trkpt>
      <trkpt lat="62.637997457119" lon="17.974705516549">
        <ele>62.8</ele>
        <time>2018-01-30T12:25:06Z</time>
      </trkpt>
      <trkpt lat="62.63798563864" lon="17.974766285324">
        <ele>62.8</ele>
        <time>2018-01-30T12:25:07Z</time>
      </trkpt>
      <trkpt lat="62.637976502369" lon="17.974813810697">
        <ele>63</ele>
        <time>2018-01-30T12:25:08Z</time>
      </trkpt>
      <trkpt lat="62.637970132125" lon="17.974853373265">
        <ele>63</ele>
        <time>2018-01-30T12:25:09Z</time>
      </trkpt>
      <trkpt lat="62.637948003909" lon="17.974897964973">
        <ele>62.8</ele>
        <time>2018-01-30T12:25:10Z</time>
      </trkpt>
      <trkpt lat="62.637943226226" lon="17.974942472862">
        <ele>63</ele>
        <time>2018-01-30T12:25:11Z</time>
      </trkpt>
      <trkpt lat="62.637929731367" lon="17.974983795629">
        <ele>63</ele>
        <time>2018-01-30T12:25:12Z</time>
      </trkpt>
      <trkpt lat="62.637916739422" lon="17.975018831971">
        <ele>62.8</ele>
        <time>2018-01-30T12:25:13Z</time>
      </trkpt>
      <trkpt lat="62.637900729993" lon="17.975050431734">
        <ele>63</ele>
        <time>2018-01-30T12:25:14Z</time>
      </trkpt>
      <trkpt lat="62.637887235134" lon="17.97507339814">
        <ele>63</ele>
        <time>2018-01-30T12:25:15Z</time>
      </trkpt>
      <trkpt lat="62.637877344492" lon="17.975102902428">
        <ele>63.2</ele>
        <time>2018-01-30T12:25:16Z</time>
      </trkpt>
      <trkpt lat="62.637857060294" lon="17.975135508019">
        <ele>63.4</ele>
        <time>2018-01-30T12:25:17Z</time>
      </trkpt>
      <trkpt lat="62.637842727245" lon="17.975168448886">
        <ele>63.6</ele>
        <time>2018-01-30T12:25:18Z</time>
      </trkpt>
      <trkpt lat="62.637823951789" lon="17.975200048649">
        <ele>63.8</ele>
        <time>2018-01-30T12:25:19Z</time>
      </trkpt>
      <trkpt lat="62.637809702559" lon="17.97523097786">
        <ele>63.8</ele>
        <time>2018-01-30T12:25:20Z</time>
      </trkpt>
      <trkpt lat="62.637794363682" lon="17.975261655614">
        <ele>64</ele>
        <time>2018-01-30T12:25:21Z</time>
      </trkpt>
      <trkpt lat="62.637780449728" lon="17.975290405531">
        <ele>64</ele>
        <time>2018-01-30T12:25:22Z</time>
      </trkpt>
      <trkpt lat="62.637764021204" lon="17.975320496552">
        <ele>64.2</ele>
        <time>2018-01-30T12:25:23Z</time>
      </trkpt>
      <trkpt lat="62.637752454182" lon="17.975345390795">
        <ele>64.2</ele>
        <time>2018-01-30T12:25:24Z</time>
      </trkpt>
      <trkpt lat="62.637739965151" lon="17.975369614486">
        <ele>64.4</ele>
        <time>2018-01-30T12:25:25Z</time>
      </trkpt>
      <trkpt lat="62.637728398129" lon="17.975390150141">
        <ele>64.8</ele>
        <time>2018-01-30T12:25:26Z</time>
      </trkpt>
      <trkpt lat="62.637718339849" lon="17.975411775443">
        <ele>64.8</ele>
        <time>2018-01-30T12:25:27Z</time>
      </trkpt>
      <trkpt lat="62.637705347904" lon="17.975431808184">
        <ele>65</ele>
        <time>2018-01-30T12:25:28Z</time>
      </trkpt>
      <trkpt lat="62.637694870529" lon="17.975444381034">
        <ele>65.2</ele>
        <time>2018-01-30T12:25:29Z</time>
      </trkpt>
      <trkpt lat="62.637684057878" lon="17.975462569757">
        <ele>65.4</ele>
        <time>2018-01-30T12:25:30Z</time>
      </trkpt>
      <trkpt lat="62.63766880282" lon="17.975478327729">
        <ele>65.6</ele>
        <time>2018-01-30T12:25:31Z</time>
      </trkpt>
      <trkpt lat="62.637656313789" lon="17.975497438461">
        <ele>65.8</ele>
        <time>2018-01-30T12:25:32Z</time>
      </trkpt>
      <trkpt lat="62.637640639636" lon="17.975513699347">
        <ele>66</ele>
        <time>2018-01-30T12:25:33Z</time>
      </trkpt>
      <trkpt lat="62.6376201878" lon="17.975526691292">
        <ele>66.2</ele>
        <time>2018-01-30T12:25:34Z</time>
      </trkpt>
      <trkpt lat="62.63760677676" lon="17.975542700721">
        <ele>66.2</ele>
        <time>2018-01-30T12:25:35Z</time>
      </trkpt>
      <trkpt lat="62.637581463422" lon="17.975557201408">
        <ele>66.4</ele>
        <time>2018-01-30T12:25:36Z</time>
      </trkpt>
      <trkpt lat="62.637564112889" lon="17.975574049027">
        <ele>66.6</ele>
        <time>2018-01-30T12:25:37Z</time>
      </trkpt>
      <trkpt lat="62.637547181451" lon="17.97558972318">
        <ele>66.6</ele>
        <time>2018-01-30T12:25:38Z</time>
      </trkpt>
      <trkpt lat="62.637526729615" lon="17.975604056229">
        <ele>66.8</ele>
        <time>2018-01-30T12:25:39Z</time>
      </trkpt>
      <trkpt lat="62.637521449018" lon="17.975622244952">
        <ele>66.8</ele>
        <time>2018-01-30T12:25:40Z</time>
      </trkpt>
      <trkpt lat="62.637493034377" lon="17.975628866653">
        <ele>67</ele>
        <time>2018-01-30T12:25:41Z</time>
      </trkpt>
      <trkpt lat="62.63747685731" lon="17.975644959901">
        <ele>67.2</ele>
        <time>2018-01-30T12:25:42Z</time>
      </trkpt>
      <trkpt lat="62.6374609317" lon="17.975656610742">
        <ele>67.2</ele>
        <time>2018-01-30T12:25:43Z</time>
      </trkpt>
      <trkpt lat="62.637445257547" lon="17.975667926307">
        <ele>67.4</ele>
        <time>2018-01-30T12:25:44Z</time>
      </trkpt>
      <trkpt lat="62.637429164299" lon="17.975687120858">
        <ele>67.6</ele>
        <time>2018-01-30T12:25:45Z</time>
      </trkpt>
      <trkpt lat="62.637407036083" lon="17.975699777527">
        <ele>67.6</ele>
        <time>2018-01-30T12:25:46Z</time>
      </trkpt>
      <trkpt lat="62.63738968555" lon="17.97571042254">
        <ele>67.8</ele>
        <time>2018-01-30T12:25:47Z</time>
      </trkpt>
      <trkpt lat="62.637370658637" lon="17.975726767245">
        <ele>68</ele>
        <time>2018-01-30T12:25:48Z</time>
      </trkpt>
      <trkpt lat="62.637351296448" lon="17.975746380891">
        <ele>68.2</ele>
        <time>2018-01-30T12:25:49Z</time>
      </trkpt>
      <trkpt lat="62.6373352032" lon="17.975758534646">
        <ele>68.2</ele>
        <time>2018-01-30T12:25:50Z</time>
      </trkpt>
      <trkpt lat="62.63732011578" lon="17.975777393921">
        <ele>68.6</ele>
        <time>2018-01-30T12:25:51Z</time>
      </trkpt>
      <trkpt lat="62.637309722224" lon="17.975804802734">
        <ele>68.6</ele>
        <time>2018-01-30T12:25:52Z</time>
      </trkpt>
      <trkpt lat="62.637289438026" lon="17.975822237086">
        <ele>68.8</ele>
        <time>2018-01-30T12:25:53Z</time>
      </trkpt>
      <trkpt lat="62.637275775529" lon="17.975851489917">
        <ele>69</ele>
        <time>2018-01-30T12:25:54Z</time>
      </trkpt>
      <trkpt lat="62.637266052525" lon="17.975874875418">
        <ele>69</ele>
        <time>2018-01-30T12:25:55Z</time>
      </trkpt>
      <trkpt lat="62.637250713648" lon="17.975900607851">
        <ele>69.2</ele>
        <time>2018-01-30T12:25:56Z</time>
      </trkpt>
      <trkpt lat="62.637239733359" lon="17.975930531234">
        <ele>69.4</ele>
        <time>2018-01-30T12:25:57Z</time>
      </trkpt>
      <trkpt lat="62.637232524925" lon="17.975964561748">
        <ele>69.4</ele>
        <time>2018-01-30T12:25:58Z</time>
      </trkpt>
      <trkpt lat="62.637216012582" lon="17.975992305837">
        <ele>69.8</ele>
        <time>2018-01-30T12:25:59Z</time>
      </trkpt>
      <trkpt lat="62.637206792492" lon="17.976027928912">
        <ele>70</ele>
        <time>2018-01-30T12:26:00Z</time>
      </trkpt>
      <trkpt lat="62.637197991497" lon="17.976064893091">
        <ele>70.2</ele>
        <time>2018-01-30T12:26:01Z</time>
      </trkpt>
      <trkpt lat="62.63719187271" lon="17.976104958573">
        <ele>70.4</ele>
        <time>2018-01-30T12:26:02Z</time>
      </trkpt>
      <trkpt lat="62.637183574629" lon="17.976145610788">
        <ele>70.6</ele>
        <time>2018-01-30T12:26:03Z</time>
      </trkpt>
      <trkpt lat="62.637171169417" lon="17.976187185012">
        <ele>70.6</ele>
        <time>2018-01-30T12:26:04Z</time>
      </trkpt>
      <trkpt lat="62.637165469725" lon="17.97623429129">
        <ele>70.6</ele>
        <time>2018-01-30T12:26:05Z</time>
      </trkpt>
      <trkpt lat="62.637156920187" lon="17.976272596573">
        <ele>70.8</ele>
        <time>2018-01-30T12:26:06Z</time>
      </trkpt>
      <trkpt lat="62.637148454468" lon="17.976312410598">
        <ele>70.8</ele>
        <time>2018-01-30T12:26:07Z</time>
      </trkpt>
      <trkpt lat="62.63713822855" lon="17.976350296786">
        <ele>70.8</ele>
        <time>2018-01-30T12:26:08Z</time>
      </trkpt>
      <trkpt lat="62.637128505546" lon="17.976386925689">
        <ele>70.8</ele>
        <time>2018-01-30T12:26:09Z</time>
      </trkpt>
      <trkpt lat="62.637130349564" lon="17.976428499913">
        <ele>71</ele>
        <time>2018-01-30T12:26:10Z</time>
      </trkpt>
      <trkpt lat="62.637116016515" lon="17.976469152128">
        <ele>71.2</ele>
        <time>2018-01-30T12:26:11Z</time>
      </trkpt>
      <trkpt lat="62.637106796425" lon="17.976508966153">
        <ele>71.2</ele>
        <time>2018-01-30T12:26:12Z</time>
      </trkpt>
      <trkpt lat="62.637100845276" lon="17.976554898965">
        <ele>71.4</ele>
        <time>2018-01-30T12:26:13Z</time>
      </trkpt>
      <trkpt lat="62.637101599647" lon="17.976604938908">
        <ele>71.4</ele>
        <time>2018-01-30T12:26:14Z</time>
      </trkpt>
      <trkpt lat="62.637089529711" lon="17.976641903087">
        <ele>71.6</ele>
        <time>2018-01-30T12:26:15Z</time>
      </trkpt>
      <trkpt lat="62.637089110616" lon="17.976692948858">
        <ele>71.6</ele>
        <time>2018-01-30T12:26:16Z</time>
      </trkpt>
      <trkpt lat="62.637074693748" lon="17.976737289109">
        <ele>71.6</ele>
        <time>2018-01-30T12:26:17Z</time>
      </trkpt>
      <trkpt lat="62.637071089531" lon="17.976781796998">
        <ele>71.6</ele>
        <time>2018-01-30T12:26:18Z</time>
      </trkpt>
      <trkpt lat="62.637071508626" lon="17.976824460869">
        <ele>71.8</ele>
        <time>2018-01-30T12:26:19Z</time>
      </trkpt>
      <trkpt lat="62.63706865878" lon="17.976871567147">
        <ele>71.8</ele>
        <time>2018-01-30T12:26:20Z</time>
      </trkpt>
      <trkpt lat="62.637068491142" lon="17.976920685081">
        <ele>71.8</ele>
        <time>2018-01-30T12:26:21Z</time>
      </trkpt>
      <trkpt lat="62.637067485314" lon="17.97697776582">
        <ele>71.8</ele>
        <time>2018-01-30T12:26:22Z</time>
      </trkpt>
      <trkpt lat="62.637068742599" lon="17.977022692804">
        <ele>72</ele>
        <time>2018-01-30T12:26:23Z</time>
      </trkpt>
      <trkpt lat="62.637068742599" lon="17.977075917869">
        <ele>72</ele>
        <time>2018-01-30T12:26:24Z</time>
      </trkpt>
      <trkpt lat="62.63706782059" lon="17.977129059115">
        <ele>71.8</ele>
        <time>2018-01-30T12:26:25Z</time>
      </trkpt>
      <trkpt lat="62.637068742599" lon="17.977182367999">
        <ele>71.8</ele>
        <time>2018-01-30T12:26:26Z</time>
      </trkpt>
      <trkpt lat="62.63706865878" lon="17.977234922512">
        <ele>71.8</ele>
        <time>2018-01-30T12:26:27Z</time>
      </trkpt>
      <trkpt lat="62.637070251341" lon="17.977286806473">
        <ele>71.8</ele>
        <time>2018-01-30T12:26:28Z</time>
      </trkpt>
      <trkpt lat="62.637060360699" lon="17.97736165684">
        <ele>71.8</ele>
        <time>2018-01-30T12:26:29Z</time>
      </trkpt>
      <trkpt lat="62.637053906636" lon="17.97741446281">
        <ele>71.8</ele>
        <time>2018-01-30T12:26:30Z</time>
      </trkpt>
      <trkpt lat="62.637040579415" lon="17.97746810697">
        <ele>72</ele>
        <time>2018-01-30T12:26:31Z</time>
      </trkpt>
      <trkpt lat="62.637028174203" lon="17.977510519384">
        <ele>72.2</ele>
        <time>2018-01-30T12:26:32Z</time>
      </trkpt>
      <trkpt lat="62.637015936629" lon="17.977552177427">
        <ele>72.2</ele>
        <time>2018-01-30T12:26:33Z</time>
      </trkpt>
      <trkpt lat="62.637002609408" lon="17.977598361696">
        <ele>72.2</ele>
        <time>2018-01-30T12:26:34Z</time>
      </trkpt>
      <trkpt lat="62.636991796757" lon="17.977652927865">
        <ele>72.2</ele>
        <time>2018-01-30T12:26:35Z</time>
      </trkpt>
      <trkpt lat="62.636976793156" lon="17.977706069111">
        <ele>72</ele>
        <time>2018-01-30T12:26:36Z</time>
      </trkpt>
      <trkpt lat="62.636968746532" lon="17.977757785434">
        <ele>72</ele>
        <time>2018-01-30T12:26:37Z</time>
      </trkpt>
      <trkpt lat="62.636959526442" lon="17.977812519241">
        <ele>72</ele>
        <time>2018-01-30T12:26:38Z</time>
      </trkpt>
      <trkpt lat="62.636951228361" lon="17.977871443998">
        <ele>72</ele>
        <time>2018-01-30T12:26:39Z</time>
      </trkpt>
      <trkpt lat="62.6369580177" lon="17.977908408177">
        <ele>72</ele>
        <time>2018-01-30T12:26:40Z</time>
      </trkpt>
      <trkpt lat="62.636947540325" lon="17.97797940287">
        <ele>72.2</ele>
        <time>2018-01-30T12:26:41Z</time>
      </trkpt>
      <trkpt lat="62.63694209209" lon="17.978034891048">
        <ele>72.2</ele>
        <time>2018-01-30T12:26:42Z</time>
      </trkpt>
      <trkpt lat="62.636932620543" lon="17.978094905452">
        <ele>72.2</ele>
        <time>2018-01-30T12:26:43Z</time>
      </trkpt>
      <trkpt lat="62.636922310806" lon="17.978160032815">
        <ele>72.2</ele>
        <time>2018-01-30T12:26:44Z</time>
      </trkpt>
      <trkpt lat="62.636920382969" lon="17.978215520993">
        <ele>72.2</ele>
        <time>2018-01-30T12:26:45Z</time>
      </trkpt>
      <trkpt lat="62.636907474843" lon="17.978275786854">
        <ele>72.2</ele>
        <time>2018-01-30T12:26:46Z</time>
      </trkpt>
      <trkpt lat="62.63690269716" lon="17.978334543973">
        <ele>72.2</ele>
        <time>2018-01-30T12:26:47Z</time>
      </trkpt>
      <trkpt lat="62.636888615568" lon="17.978387852857">
        <ele>72.4</ele>
        <time>2018-01-30T12:26:48Z</time>
      </trkpt>
      <trkpt lat="62.636870426845" lon="17.978445268872">
        <ele>72.4</ele>
        <time>2018-01-30T12:26:49Z</time>
      </trkpt>
      <trkpt lat="62.636860200927" lon="17.978490112037">
        <ele>72.6</ele>
        <time>2018-01-30T12:26:50Z</time>
      </trkpt>
      <trkpt lat="62.636845197326" lon="17.978543337102">
        <ele>72.6</ele>
        <time>2018-01-30T12:26:51Z</time>
      </trkpt>
      <trkpt lat="62.636832540657" lon="17.978604524972">
        <ele>72.6</ele>
        <time>2018-01-30T12:26:52Z</time>
      </trkpt>
      <trkpt lat="62.636813178468" lon="17.978640064228">
        <ele>72.6</ele>
        <time>2018-01-30T12:26:53Z</time>
      </trkpt>
      <trkpt lat="62.636790295881" lon="17.978689265981">
        <ele>72.8</ele>
        <time>2018-01-30T12:26:54Z</time>
      </trkpt>
      <trkpt lat="62.636785015284" lon="17.978717261527">
        <ele>72.8</ele>
        <time>2018-01-30T12:26:55Z</time>
      </trkpt>
      <trkpt lat="62.636764731086" lon="17.978746514358">
        <ele>73</ele>
        <time>2018-01-30T12:26:56Z</time>
      </trkpt>
      <trkpt lat="62.636745536535" lon="17.978773084981">
        <ele>73</ele>
        <time>2018-01-30T12:26:57Z</time>
      </trkpt>
      <trkpt lat="62.636722989224" lon="17.978792866265">
        <ele>73</ele>
        <time>2018-01-30T12:26:58Z</time>
      </trkpt>
      <trkpt lat="62.636727599269" lon="17.978849947004">
        <ele>73.2</ele>
        <time>2018-01-30T12:26:59Z</time>
      </trkpt>
      <trkpt lat="62.636700861008" lon="17.978856401067">
        <ele>73.4</ele>
        <time>2018-01-30T12:27:00Z</time>
      </trkpt>
      <trkpt lat="62.636681415" lon="17.978872410496">
        <ele>73.6</ele>
        <time>2018-01-30T12:27:01Z</time>
      </trkpt>
      <trkpt lat="62.636661885173" lon="17.978876601446">
        <ele>73.6</ele>
        <time>2018-01-30T12:27:02Z</time>
      </trkpt>
      <trkpt lat="62.63664034369" lon="17.978878613102">
        <ele>73.8</ele>
        <time>2018-01-30T12:27:03Z</time>
      </trkpt>
      <trkpt lat="62.636622406424" lon="17.978887833192">
        <ele>73.8</ele>
        <time>2018-01-30T12:27:04Z</time>
      </trkpt>
      <trkpt lat="62.636592818317" lon="17.978874086876">
        <ele>74</ele>
        <time>2018-01-30T12:27:05Z</time>
      </trkpt>
      <trkpt lat="62.636570187187" lon="17.978873667781">
        <ele>74</ele>
        <time>2018-01-30T12:27:06Z</time>
      </trkpt>
      <trkpt lat="62.6365473046" lon="17.978868973917">
        <ele>74.2</ele>
        <time>2018-01-30T12:27:07Z</time>
      </trkpt>
      <trkpt lat="62.636523500004" lon="17.978862687492">
        <ele>74.4</ele>
        <time>2018-01-30T12:27:08Z</time>
      </trkpt>
      <trkpt lat="62.636505143643" lon="17.978865537338">
        <ele>74.4</ele>
        <time>2018-01-30T12:27:09Z</time>
      </trkpt>
      <trkpt lat="62.636480919952" lon="17.978854305592">
        <ele>74.6</ele>
        <time>2018-01-30T12:27:10Z</time>
      </trkpt>
      <trkpt lat="62.636457953546" lon="17.978856568705">
        <ele>74.6</ele>
        <time>2018-01-30T12:27:11Z</time>
      </trkpt>
      <trkpt lat="62.636439764823" lon="17.978858999456">
        <ele>74.8</ele>
        <time>2018-01-30T12:27:12Z</time>
      </trkpt>
      <trkpt lat="62.636422498109" lon="17.978870985573">
        <ele>74.8</ele>
        <time>2018-01-30T12:27:13Z</time>
      </trkpt>
      <trkpt lat="62.636413361838" lon="17.978894035798">
        <ele>75</ele>
        <time>2018-01-30T12:27:14Z</time>
      </trkpt>
      <trkpt lat="62.636391485079" lon="17.978883139328">
        <ele>75</ele>
        <time>2018-01-30T12:27:15Z</time>
      </trkpt>
      <trkpt lat="62.636379498962" lon="17.978890012486">
        <ele>75.2</ele>
        <time>2018-01-30T12:27:16Z</time>
      </trkpt>
      <trkpt lat="62.636368686311" lon="17.97890476463">
        <ele>75.4</ele>
        <time>2018-01-30T12:27:17Z</time>
      </trkpt>
      <trkpt lat="62.636346641914" lon="17.978910883417">
        <ele>75.4</ele>
        <time>2018-01-30T12:27:18Z</time>
      </trkpt>
      <trkpt lat="62.63633105158" lon="17.97892152843">
        <ele>75.6</ele>
        <time>2018-01-30T12:27:19Z</time>
      </trkpt>
      <trkpt lat="62.636321244757" lon="17.978938962782">
        <ele>75.8</ele>
        <time>2018-01-30T12:27:20Z</time>
      </trkpt>
      <trkpt lat="62.636296937247" lon="17.978961007179">
        <ele>76</ele>
        <time>2018-01-30T12:27:21Z</time>
      </trkpt>
      <trkpt lat="62.636279670533" lon="17.97898942182">
        <ele>76</ele>
        <time>2018-01-30T12:27:22Z</time>
      </trkpt>
      <trkpt lat="62.636258380507" lon="17.979001240299">
        <ele>76.2</ele>
        <time>2018-01-30T12:27:23Z</time>
      </trkpt>
      <trkpt lat="62.636242454897" lon="17.979030325492">
        <ele>76.4</ele>
        <time>2018-01-30T12:27:24Z</time>
      </trkpt>
      <trkpt lat="62.63623382154" lon="17.979041221962">
        <ele>76.6</ele>
        <time>2018-01-30T12:27:25Z</time>
      </trkpt>
      <trkpt lat="62.636215548998" lon="17.979058237219">
        <ele>76.8</ele>
        <time>2018-01-30T12:27:26Z</time>
      </trkpt>
      <trkpt lat="62.636208256745" lon="17.97907743177">
        <ele>77</ele>
        <time>2018-01-30T12:27:27Z</time>
      </trkpt>
      <trkpt lat="62.636199874845" lon="17.979092435371">
        <ele>77.2</ele>
        <time>2018-01-30T12:27:28Z</time>
      </trkpt>
      <trkpt lat="62.636186212348" lon="17.979104086212">
        <ele>77.6</ele>
        <time>2018-01-30T12:27:29Z</time>
      </trkpt>
      <trkpt lat="62.636171627842" lon="17.97912604679">
        <ele>78</ele>
        <time>2018-01-30T12:27:30Z</time>
      </trkpt>
      <trkpt lat="62.636158300621" lon="17.979135769794">
        <ele>78.4</ele>
        <time>2018-01-30T12:27:31Z</time>
      </trkpt>
      <trkpt lat="62.636145141038" lon="17.979154293793">
        <ele>78.6</ele>
        <time>2018-01-30T12:27:32Z</time>
      </trkpt>
      <trkpt lat="62.63613323874" lon="17.979179858588">
        <ele>79</ele>
        <time>2018-01-30T12:27:33Z</time>
      </trkpt>
      <trkpt lat="62.636115217655" lon="17.979197628216">
        <ele>79.4</ele>
        <time>2018-01-30T12:27:34Z</time>
      </trkpt>
      <trkpt lat="62.636105662289" lon="17.979217241862">
        <ele>79.6</ele>
        <time>2018-01-30T12:27:35Z</time>
      </trkpt>
      <trkpt lat="62.636096106923" lon="17.979251104738">
        <ele>80</ele>
        <time>2018-01-30T12:27:36Z</time>
      </trkpt>
      <trkpt lat="62.636081857693" lon="17.979281531035">
        <ele>80</ele>
        <time>2018-01-30T12:27:37Z</time>
      </trkpt>
      <trkpt lat="62.63607540363" lon="17.979315561549">
        <ele>80.4</ele>
        <time>2018-01-30T12:27:38Z</time>
      </trkpt>
      <trkpt lat="62.636054700337" lon="17.979347748045">
        <ele>80.6</ele>
        <time>2018-01-30T12:27:39Z</time>
      </trkpt>
      <trkpt lat="62.636043971505" lon="17.979374653944">
        <ele>80.8</ele>
        <time>2018-01-30T12:27:40Z</time>
      </trkpt>
      <trkpt lat="62.636043133315" lon="17.979406337526">
        <ele>80.8</ele>
        <time>2018-01-30T12:27:41Z</time>
      </trkpt>
      <trkpt lat="62.636031314836" lon="17.979459394953">
        <ele>80.8</ele>
        <time>2018-01-30T12:27:42Z</time>
      </trkpt>
      <trkpt lat="62.636031398655" lon="17.979494515114">
        <ele>81</ele>
        <time>2018-01-30T12:27:43Z</time>
      </trkpt>
      <trkpt lat="62.636019747814" lon="17.979568527291">
        <ele>81</ele>
        <time>2018-01-30T12:27:44Z</time>
      </trkpt>
      <trkpt lat="62.636019580176" lon="17.979632397369">
        <ele>81.2</ele>
        <time>2018-01-30T12:27:45Z</time>
      </trkpt>
      <trkpt lat="62.63600918662" lon="17.979735913834">
        <ele>81</ele>
        <time>2018-01-30T12:27:46Z</time>
      </trkpt>
      <trkpt lat="62.635999379797" lon="17.979863402533">
        <ele>81</ele>
        <time>2018-01-30T12:27:47Z</time>
      </trkpt>
      <trkpt lat="62.635999212159" lon="17.980024754108">
        <ele>80.6</ele>
        <time>2018-01-30T12:27:48Z</time>
      </trkpt>
      <trkpt lat="62.636000553263" lon="17.980156266119">
        <ele>80.2</ele>
        <time>2018-01-30T12:27:49Z</time>
      </trkpt>
      <trkpt lat="62.636013880484" lon="17.980265063181">
        <ele>79.2</ele>
        <time>2018-01-30T12:27:50Z</time>
      </trkpt>
      <trkpt lat="62.636036679252" lon="17.980385930179">
        <ele>78</ele>
        <time>2018-01-30T12:27:51Z</time>
      </trkpt>
      <trkpt lat="62.636054113604" lon="17.980501097485">
        <ele>76.8</ele>
        <time>2018-01-30T12:27:52Z</time>
      </trkpt>
      <trkpt lat="62.63607288906" lon="17.98062053956">
        <ele>75.8</ele>
        <time>2018-01-30T12:27:53Z</time>
      </trkpt>
      <trkpt lat="62.636092754163" lon="17.980735790685">
        <ele>75</ele>
        <time>2018-01-30T12:27:54Z</time>
      </trkpt>
      <trkpt lat="62.636114211827" lon="17.98083176344">
        <ele>74.8</ele>
        <time>2018-01-30T12:27:55Z</time>
      </trkpt>
      <trkpt lat="62.636133322559" lon="17.980955396465">
        <ele>74.4</ele>
        <time>2018-01-30T12:27:56Z</time>
      </trkpt>
      <trkpt lat="62.636154109671" lon="17.981054051428">
        <ele>74.2</ele>
        <time>2018-01-30T12:27:57Z</time>
      </trkpt>
      <trkpt lat="62.636176321706" lon="17.98114273193">
        <ele>74</ele>
        <time>2018-01-30T12:27:58Z</time>
      </trkpt>
      <trkpt lat="62.63618772109" lon="17.981229484595">
        <ele>73.8</ele>
        <time>2018-01-30T12:27:59Z</time>
      </trkpt>
      <trkpt lat="62.636197863189" lon="17.981330318852">
        <ele>73.8</ele>
        <time>2018-01-30T12:28:00Z</time>
      </trkpt>
      <trkpt lat="62.636205993632" lon="17.981436517525">
        <ele>73.4</ele>
        <time>2018-01-30T12:28:01Z</time>
      </trkpt>
      <trkpt lat="62.636210938953" lon="17.981522180543">
        <ele>73.4</ele>
        <time>2018-01-30T12:28:02Z</time>
      </trkpt>
      <trkpt lat="62.636213034428" lon="17.981611447778">
        <ele>73.2</ele>
        <time>2018-01-30T12:28:03Z</time>
      </trkpt>
      <trkpt lat="62.636223176527" lon="17.981694428588">
        <ele>73.2</ele>
        <time>2018-01-30T12:28:04Z</time>
      </trkpt>
      <trkpt lat="62.636237258119" lon="17.981750503499">
        <ele>73.2</ele>
        <time>2018-01-30T12:28:05Z</time>
      </trkpt>
      <trkpt lat="62.636249495693" lon="17.981836669431">
        <ele>73.4</ele>
        <time>2018-01-30T12:28:06Z</time>
      </trkpt>
      <trkpt lat="62.636263744923" lon="17.981879836216">
        <ele>73.4</ele>
        <time>2018-01-30T12:28:07Z</time>
      </trkpt>
      <trkpt lat="62.636270198986" lon="17.981962817026">
        <ele>73.6</ele>
        <time>2018-01-30T12:28:08Z</time>
      </trkpt>
      <trkpt lat="62.636290315546" lon="17.982010510037">
        <ele>73.8</ele>
        <time>2018-01-30T12:28:09Z</time>
      </trkpt>
      <trkpt lat="62.636293835944" lon="17.982099190539">
        <ele>74</ele>
        <time>2018-01-30T12:28:10Z</time>
      </trkpt>
      <trkpt lat="62.636305570604" lon="17.982165407549">
        <ele>74.2</ele>
        <time>2018-01-30T12:28:11Z</time>
      </trkpt>
      <trkpt lat="62.636313868685" lon="17.982226260143">
        <ele>74</ele>
        <time>2018-01-30T12:28:12Z</time>
      </trkpt>
      <trkpt lat="62.636313952504" lon="17.982308318944">
        <ele>74</ele>
        <time>2018-01-30T12:28:13Z</time>
      </trkpt>
      <trkpt lat="62.636317137626" lon="17.982384426596">
        <ele>74</ele>
        <time>2018-01-30T12:28:14Z</time>
      </trkpt>
      <trkpt lat="62.636313365771" lon="17.982448296674">
        <ele>74</ele>
        <time>2018-01-30T12:28:15Z</time>
      </trkpt>
      <trkpt lat="62.636310013011" lon="17.98251820172">
        <ele>74</ele>
        <time>2018-01-30T12:28:16Z</time>
      </trkpt>
      <trkpt lat="62.636315712703" lon="17.98255508208">
        <ele>74</ele>
        <time>2018-01-30T12:28:17Z</time>
      </trkpt>
      <trkpt lat="62.636309426278" lon="17.982650468102">
        <ele>74</ele>
        <time>2018-01-30T12:28:18Z</time>
      </trkpt>
      <trkpt lat="62.636315042151" lon="17.982696400914">
        <ele>74</ele>
        <time>2018-01-30T12:28:19Z</time>
      </trkpt>
      <trkpt lat="62.636303139853" lon="17.982770748367">
        <ele>74</ele>
        <time>2018-01-30T12:28:20Z</time>
      </trkpt>
      <trkpt lat="62.636303726586" lon="17.982838725576">
        <ele>74.2</ele>
        <time>2018-01-30T12:28:21Z</time>
      </trkpt>
      <trkpt lat="62.636302636939" lon="17.982887927329">
        <ele>74.2</ele>
        <time>2018-01-30T12:28:22Z</time>
      </trkpt>
      <trkpt lat="62.636303056034" lon="17.982937799634">
        <ele>74.2</ele>
        <time>2018-01-30T12:28:23Z</time>
      </trkpt>
      <trkpt lat="62.636311689391" lon="17.982989767414">
        <ele>74.2</ele>
        <time>2018-01-30T12:28:24Z</time>
      </trkpt>
      <trkpt lat="62.636304648595" lon="17.983070652749">
        <ele>74.2</ele>
        <time>2018-01-30T12:28:25Z</time>
      </trkpt>
      <trkpt lat="62.636306995527" lon="17.983116250285">
        <ele>74.4</ele>
        <time>2018-01-30T12:28:26Z</time>
      </trkpt>
      <trkpt lat="62.63630758226" lon="17.983191184471">
        <ele>74.2</ele>
        <time>2018-01-30T12:28:27Z</time>
      </trkpt>
      <trkpt lat="62.636305822061" lon="17.98324575064">
        <ele>74.4</ele>
        <time>2018-01-30T12:28:28Z</time>
      </trkpt>
      <trkpt lat="62.636308923364" lon="17.983284894113">
        <ele>74.4</ele>
        <time>2018-01-30T12:28:29Z</time>
      </trkpt>
      <trkpt lat="62.636298194532" lon="17.983358571014">
        <ele>74.4</ele>
        <time>2018-01-30T12:28:30Z</time>
      </trkpt>
      <trkpt lat="62.636292159564" lon="17.983433169924">
        <ele>74.4</ele>
        <time>2018-01-30T12:28:31Z</time>
      </trkpt>
      <trkpt lat="62.63628830389" lon="17.983443228204">
        <ele>74.4</ele>
        <time>2018-01-30T12:28:32Z</time>
      </trkpt>
      <trkpt lat="62.636270618081" lon="17.983548001954">
        <ele>74.4</ele>
        <time>2018-01-30T12:28:33Z</time>
      </trkpt>
      <trkpt lat="62.63626651095" lon="17.983589743816">
        <ele>74.4</ele>
        <time>2018-01-30T12:28:34Z</time>
      </trkpt>
      <trkpt lat="62.636250501521" lon="17.983650931686">
        <ele>74.4</ele>
        <time>2018-01-30T12:28:35Z</time>
      </trkpt>
      <trkpt lat="62.636240778517" lon="17.983702648009">
        <ele>74.8</ele>
        <time>2018-01-30T12:28:36Z</time>
      </trkpt>
      <trkpt lat="62.636230804056" lon="17.983755705436">
        <ele>74.8</ele>
        <time>2018-01-30T12:28:37Z</time>
      </trkpt>
      <trkpt lat="62.636221919242" lon="17.983810271605">
        <ele>75.2</ele>
        <time>2018-01-30T12:28:38Z</time>
      </trkpt>
      <trkpt lat="62.63621789593" lon="17.983861736471">
        <ele>75.2</ele>
        <time>2018-01-30T12:28:39Z</time>
      </trkpt>
      <trkpt lat="62.636213872618" lon="17.983891324578">
        <ele>75.2</ele>
        <time>2018-01-30T12:28:40Z</time>
      </trkpt>
      <trkpt lat="62.636201886501" lon="17.983964163289">
        <ele>75.4</ele>
        <time>2018-01-30T12:28:41Z</time>
      </trkpt>
      <trkpt lat="62.636190906212" lon="17.984020657295">
        <ele>75.4</ele>
        <time>2018-01-30T12:28:42Z</time>
      </trkpt>
      <trkpt lat="62.636182105217" lon="17.984069104677">
        <ele>75.4</ele>
        <time>2018-01-30T12:28:43Z</time>
      </trkpt>
      <trkpt lat="62.636175734973" lon="17.984106236494">
        <ele>75.4</ele>
        <time>2018-01-30T12:28:44Z</time>
      </trkpt>
      <trkpt lat="62.636177495172" lon="17.984158288093">
        <ele>75.6</ele>
        <time>2018-01-30T12:28:45Z</time>
      </trkpt>
      <trkpt lat="62.636181602303" lon="17.98421050733">
        <ele>75.6</ele>
        <time>2018-01-30T12:28:46Z</time>
      </trkpt>
      <trkpt lat="62.636176992258" lon="17.984267252793">
        <ele>75.6</ele>
        <time>2018-01-30T12:28:47Z</time>
      </trkpt>
      <trkpt lat="62.636174058593" lon="17.984319304392">
        <ele>75.6</ele>
        <time>2018-01-30T12:28:48Z</time>
      </trkpt>
      <trkpt lat="62.636170035281" lon="17.984365907756">
        <ele>75.6</ele>
        <time>2018-01-30T12:28:49Z</time>
      </trkpt>
      <trkpt lat="62.63616341358" lon="17.984431705671">
        <ele>75.8</ele>
        <time>2018-01-30T12:28:50Z</time>
      </trkpt>
      <trkpt lat="62.636162910666" lon="17.984487361487">
        <ele>75.8</ele>
        <time>2018-01-30T12:28:51Z</time>
      </trkpt>
      <trkpt lat="62.636161653381" lon="17.984540167457">
        <ele>76</ele>
        <time>2018-01-30T12:28:52Z</time>
      </trkpt>
      <trkpt lat="62.636157797707" lon="17.984589620667">
        <ele>76.2</ele>
        <time>2018-01-30T12:28:53Z</time>
      </trkpt>
      <trkpt lat="62.636151008368" lon="17.984638906239">
        <ele>76.2</ele>
        <time>2018-01-30T12:28:54Z</time>
      </trkpt>
      <trkpt lat="62.636146733599" lon="17.984689700553">
        <ele>76.4</ele>
        <time>2018-01-30T12:28:55Z</time>
      </trkpt>
      <trkpt lat="62.636140447174" lon="17.984738315573">
        <ele>76.4</ele>
        <time>2018-01-30T12:28:56Z</time>
      </trkpt>
      <trkpt lat="62.636136842957" lon="17.984779470702">
        <ele>76.4</ele>
        <time>2018-01-30T12:28:57Z</time>
      </trkpt>
      <trkpt lat="62.636135920948" lon="17.984813082121">
        <ele>76.6</ele>
        <time>2018-01-30T12:28:58Z</time>
      </trkpt>
      <trkpt lat="62.636139022251" lon="17.984868318842">
        <ele>76.6</ele>
        <time>2018-01-30T12:28:59Z</time>
      </trkpt>
      <trkpt lat="62.636128377238" lon="17.984915508939">
        <ele>76.6</ele>
        <time>2018-01-30T12:29:00Z</time>
      </trkpt>
      <trkpt lat="62.636125192116" lon="17.984962782855">
        <ele>76.8</ele>
        <time>2018-01-30T12:29:01Z</time>
      </trkpt>
      <trkpt lat="62.636121420261" lon="17.985012319884">
        <ele>76.8</ele>
        <time>2018-01-30T12:29:02Z</time>
      </trkpt>
      <trkpt lat="62.636118235139" lon="17.985062611284">
        <ele>77</ele>
        <time>2018-01-30T12:29:03Z</time>
      </trkpt>
      <trkpt lat="62.636121755537" lon="17.985109130829">
        <ele>77</ele>
        <time>2018-01-30T12:29:04Z</time>
      </trkpt>
      <trkpt lat="62.636114044189" lon="17.98516604393">
        <ele>77.4</ele>
        <time>2018-01-30T12:29:05Z</time>
      </trkpt>
      <trkpt lat="62.636112786904" lon="17.985213485484">
        <ele>77.6</ele>
        <time>2018-01-30T12:29:06Z</time>
      </trkpt>
      <trkpt lat="62.6361114458" lon="17.98526411216">
        <ele>77.6</ele>
        <time>2018-01-30T12:29:07Z</time>
      </trkpt>
      <trkpt lat="62.636110859067" lon="17.98531356537">
        <ele>77.6</ele>
        <time>2018-01-30T12:29:08Z</time>
      </trkpt>
      <trkpt lat="62.636110272334" lon="17.98535798944">
        <ele>77.8</ele>
        <time>2018-01-30T12:29:09Z</time>
      </trkpt>
      <trkpt lat="62.636107338669" lon="17.985416830378">
        <ele>77.6</ele>
        <time>2018-01-30T12:29:10Z</time>
      </trkpt>
      <trkpt lat="62.636105494651" lon="17.985473324384">
        <ele>77.6</ele>
        <time>2018-01-30T12:29:11Z</time>
      </trkpt>
      <trkpt lat="62.636100716968" lon="17.98553149477">
        <ele>77.6</ele>
        <time>2018-01-30T12:29:12Z</time>
      </trkpt>
      <trkpt lat="62.636092754163" lon="17.985585809482">
        <ele>77.8</ele>
        <time>2018-01-30T12:29:13Z</time>
      </trkpt>
      <trkpt lat="62.636080097494" lon="17.985637441986">
        <ele>77.8</ele>
        <time>2018-01-30T12:29:14Z</time>
      </trkpt>
      <trkpt lat="62.636074649259" lon="17.985685805549">
        <ele>77.8</ele>
        <time>2018-01-30T12:29:15Z</time>
      </trkpt>
      <trkpt lat="62.63606450716" lon="17.985734588207">
        <ele>77.8</ele>
        <time>2018-01-30T12:29:16Z</time>
      </trkpt>
      <trkpt lat="62.636058472192" lon="17.985783370865">
        <ele>77.8</ele>
        <time>2018-01-30T12:29:17Z</time>
      </trkpt>
      <trkpt lat="62.636046569894" lon="17.985828716944">
        <ele>78</ele>
        <time>2018-01-30T12:29:18Z</time>
      </trkpt>
      <trkpt lat="62.63603517051" lon="17.985873979204">
        <ele>78</ele>
        <time>2018-01-30T12:29:19Z</time>
      </trkpt>
      <trkpt lat="62.636022178565" lon="17.985915804885">
        <ele>78.2</ele>
        <time>2018-01-30T12:29:20Z</time>
      </trkpt>
      <trkpt lat="62.636000888539" lon="17.985950003037">
        <ele>78.2</ele>
        <time>2018-01-30T12:29:21Z</time>
      </trkpt>
      <trkpt lat="62.635978927961" lon="17.985981267524">
        <ele>78.4</ele>
        <time>2018-01-30T12:29:22Z</time>
      </trkpt>
      <trkpt lat="62.635967360939" lon="17.986020494816">
        <ele>78.6</ele>
        <time>2018-01-30T12:29:23Z</time>
      </trkpt>
      <trkpt lat="62.635945651818" lon="17.986044215593">
        <ele>78.8</ele>
        <time>2018-01-30T12:29:24Z</time>
      </trkpt>
      <trkpt lat="62.635928552742" lon="17.986072378777">
        <ele>78.8</ele>
        <time>2018-01-30T12:29:25Z</time>
      </trkpt>
      <trkpt lat="62.635902233576" lon="17.986096770106">
        <ele>78.8</ele>
        <time>2018-01-30T12:29:26Z</time>
      </trkpt>
      <trkpt lat="62.635878680437" lon="17.986115126467">
        <ele>78.8</ele>
        <time>2018-01-30T12:29:27Z</time>
      </trkpt>
      <trkpt lat="62.635860156438" lon="17.986125687661">
        <ele>78.8</ele>
        <time>2018-01-30T12:29:28Z</time>
      </trkpt>
      <trkpt lat="62.635840961887" lon="17.986136751769">
        <ele>78.8</ele>
        <time>2018-01-30T12:29:29Z</time>
      </trkpt>
      <trkpt lat="62.635823527535" lon="17.98615343175">
        <ele>79</ele>
        <time>2018-01-30T12:29:30Z</time>
      </trkpt>
      <trkpt lat="62.635809781219" lon="17.98617103374">
        <ele>79</ele>
        <time>2018-01-30T12:29:31Z</time>
      </trkpt>
      <trkpt lat="62.635794442342" lon="17.986191569395">
        <ele>79.2</ele>
        <time>2018-01-30T12:29:32Z</time>
      </trkpt>
      <trkpt lat="62.635780528388" lon="17.986221576597">
        <ele>79.2</ele>
        <time>2018-01-30T12:29:33Z</time>
      </trkpt>
      <trkpt lat="62.635770889203" lon="17.98625904369">
        <ele>79.2</ele>
        <time>2018-01-30T12:29:34Z</time>
      </trkpt>
      <trkpt lat="62.63574934772" lon="17.98627413111">
        <ele>79.4</ele>
        <time>2018-01-30T12:29:35Z</time>
      </trkpt>
      <trkpt lat="62.635736607232" lon="17.986301456104">
        <ele>79.6</ele>
        <time>2018-01-30T12:29:36Z</time>
      </trkpt>
      <trkpt lat="62.635724788753" lon="17.986331379487">
        <ele>79.6</ele>
        <time>2018-01-30T12:29:37Z</time>
      </trkpt>
      <trkpt lat="62.63571079098" lon="17.986363985078">
        <ele>79.8</ele>
        <time>2018-01-30T12:29:38Z</time>
      </trkpt>
      <trkpt lat="62.635696709388" lon="17.98639399228">
        <ele>80</ele>
        <time>2018-01-30T12:29:39Z</time>
      </trkpt>
      <trkpt lat="62.635691093515" lon="17.986427352242">
        <ele>80.2</ele>
        <time>2018-01-30T12:29:40Z</time>
      </trkpt>
      <trkpt lat="62.63566888148" lon="17.986466747172">
        <ele>80.4</ele>
        <time>2018-01-30T12:29:41Z</time>
      </trkpt>
      <trkpt lat="62.635654045517" lon="17.986510752147">
        <ele>80.6</ele>
        <time>2018-01-30T12:29:42Z</time>
      </trkpt>
      <trkpt lat="62.635637365536" lon="17.986547548688">
        <ele>80.6</ele>
        <time>2018-01-30T12:29:43Z</time>
      </trkpt>
      <trkpt lat="62.635623451582" lon="17.986578310261">
        <ele>80.6</ele>
        <time>2018-01-30T12:29:44Z</time>
      </trkpt>
      <trkpt lat="62.63560517904" lon="17.986623907797">
        <ele>80.6</ele>
        <time>2018-01-30T12:29:45Z</time>
      </trkpt>
      <trkpt lat="62.635591516543" lon="17.986655004646">
        <ele>80.6</ele>
        <time>2018-01-30T12:29:46Z</time>
      </trkpt>
      <trkpt lat="62.635562012255" lon="17.986689789531">
        <ele>80.6</ele>
        <time>2018-01-30T12:29:47Z</time>
      </trkpt>
      <trkpt lat="62.635547511568" lon="17.986732369583">
        <ele>80.8</ele>
        <time>2018-01-30T12:29:48Z</time>
      </trkpt>
      <trkpt lat="62.635536196003" lon="17.986773357074">
        <ele>80.8</ele>
        <time>2018-01-30T12:29:49Z</time>
      </trkpt>
      <trkpt lat="62.6355247128" lon="17.986799508602">
        <ele>81</ele>
        <time>2018-01-30T12:29:50Z</time>
      </trkpt>
      <trkpt lat="62.635511553217" lon="17.986831024546">
        <ele>81</ele>
        <time>2018-01-30T12:29:51Z</time>
      </trkpt>
      <trkpt lat="62.635503087498" lon="17.986867821087">
        <ele>81.2</ele>
        <time>2018-01-30T12:29:52Z</time>
      </trkpt>
      <trkpt lat="62.635488167716" lon="17.986904198533">
        <ele>81.2</ele>
        <time>2018-01-30T12:29:53Z</time>
      </trkpt>
      <trkpt lat="62.635481294558" lon="17.986951640087">
        <ele>81.2</ele>
        <time>2018-01-30T12:29:54Z</time>
      </trkpt>
      <trkpt lat="62.635460507446" lon="17.986992208483">
        <ele>81.6</ele>
        <time>2018-01-30T12:29:55Z</time>
      </trkpt>
      <trkpt lat="62.635443995103" lon="17.987033615069">
        <ele>81.6</ele>
        <time>2018-01-30T12:29:56Z</time>
      </trkpt>
      <trkpt lat="62.635423040353" lon="17.987074351103">
        <ele>81.6</ele>
        <time>2018-01-30T12:29:57Z</time>
      </trkpt>
      <trkpt lat="62.635405438363" lon="17.987123301399">
        <ele>81.6</ele>
        <time>2018-01-30T12:29:58Z</time>
      </trkpt>
      <trkpt lat="62.635390267124" lon="17.987132186213">
        <ele>81.8</ele>
        <time>2018-01-30T12:29:59Z</time>
      </trkpt>
      <trkpt lat="62.635376856084" lon="17.987180801233">
        <ele>81.8</ele>
        <time>2018-01-30T12:30:00Z</time>
      </trkpt>
      <trkpt lat="62.635359254094" lon="17.987212149539">
        <ele>82</ele>
        <time>2018-01-30T12:30:01Z</time>
      </trkpt>
      <trkpt lat="62.635344585769" lon="17.987249029899">
        <ele>82</ele>
        <time>2018-01-30T12:30:02Z</time>
      </trkpt>
      <trkpt lat="62.63532689996" lon="17.987280881119">
        <ele>82.2</ele>
        <time>2018-01-30T12:30:03Z</time>
      </trkpt>
      <trkpt lat="62.635305190839" lon="17.987307870837">
        <ele>82.2</ele>
        <time>2018-01-30T12:30:04Z</time>
      </trkpt>
      <trkpt lat="62.635292198894" lon="17.987355480029">
        <ele>82.4</ele>
        <time>2018-01-30T12:30:05Z</time>
      </trkpt>
      <trkpt lat="62.635279877501" lon="17.987388337077">
        <ele>82.4</ele>
        <time>2018-01-30T12:30:06Z</time>
      </trkpt>
      <trkpt lat="62.635263951891" lon="17.987417003175">
        <ele>82.4</ele>
        <time>2018-01-30T12:30:07Z</time>
      </trkpt>
      <trkpt lat="62.635246936634" lon="17.987452123336">
        <ele>82.6</ele>
        <time>2018-01-30T12:30:08Z</time>
      </trkpt>
      <trkpt lat="62.635235956345" lon="17.987494200474">
        <ele>82.4</ele>
        <time>2018-01-30T12:30:09Z</time>
      </trkpt>
      <trkpt lat="62.635214498681" lon="17.987512053921">
        <ele>82.6</ele>
        <time>2018-01-30T12:30:10Z</time>
      </trkpt>
      <trkpt lat="62.635197651062" lon="17.987556310353">
        <ele>82.6</ele>
        <time>2018-01-30T12:30:11Z</time>
      </trkpt>
      <trkpt lat="62.635179127063" lon="17.987588496849">
        <ele>82.6</ele>
        <time>2018-01-30T12:30:12Z</time>
      </trkpt>
      <trkpt lat="62.635158507589" lon="17.987625041933">
        <ele>82.8</ele>
        <time>2018-01-30T12:30:13Z</time>
      </trkpt>
      <trkpt lat="62.635143420169" lon="17.987673237858">
        <ele>82.8</ele>
        <time>2018-01-30T12:30:14Z</time>
      </trkpt>
      <trkpt lat="62.63513160169" lon="17.987706262544">
        <ele>83</ele>
        <time>2018-01-30T12:30:15Z</time>
      </trkpt>
      <trkpt lat="62.635124309437" lon="17.987750602795">
        <ele>83</ele>
        <time>2018-01-30T12:30:16Z</time>
      </trkpt>
      <trkpt lat="62.635119364116" lon="17.987793434304">
        <ele>83.4</ele>
        <time>2018-01-30T12:30:17Z</time>
      </trkpt>
      <trkpt lat="62.635114083519" lon="17.987837858374">
        <ele>83.4</ele>
        <time>2018-01-30T12:30:18Z</time>
      </trkpt>
      <trkpt lat="62.635111988044" lon="17.987883372091">
        <ele>83.6</ele>
        <time>2018-01-30T12:30:19Z</time>
      </trkpt>
      <trkpt lat="62.635086171792" lon="17.987911032361">
        <ele>83.8</ele>
        <time>2018-01-30T12:30:20Z</time>
      </trkpt>
      <trkpt lat="62.635073012209" lon="17.987947577445">
        <ele>84</ele>
        <time>2018-01-30T12:30:21Z</time>
      </trkpt>
      <trkpt lat="62.635067480155" lon="17.987989570764">
        <ele>84</ele>
        <time>2018-01-30T12:30:22Z</time>
      </trkpt>
      <trkpt lat="62.635056835142" lon="17.9880267864">
        <ele>84</ele>
        <time>2018-01-30T12:30:23Z</time>
      </trkpt>
      <trkpt lat="62.63505700278" lon="17.988058134706">
        <ele>84.2</ele>
        <time>2018-01-30T12:30:24Z</time>
      </trkpt>
      <trkpt lat="62.635042250636" lon="17.988092249039">
        <ele>84.2</ele>
        <time>2018-01-30T12:30:25Z</time>
      </trkpt>
      <trkpt lat="62.635032527632" lon="17.988126782467">
        <ele>84.2</ele>
        <time>2018-01-30T12:30:26Z</time>
      </trkpt>
      <trkpt lat="62.635018948954" lon="17.988165674483">
        <ele>84.2</ele>
        <time>2018-01-30T12:30:27Z</time>
      </trkpt>
      <trkpt lat="62.635007381932" lon="17.988206494336">
        <ele>84.2</ele>
        <time>2018-01-30T12:30:28Z</time>
      </trkpt>
      <trkpt lat="62.634993635616" lon="17.988234322244">
        <ele>84.4</ele>
        <time>2018-01-30T12:30:29Z</time>
      </trkpt>
      <trkpt lat="62.634975027798" lon="17.988275309735">
        <ele>84.4</ele>
        <time>2018-01-30T12:30:30Z</time>
      </trkpt>
      <trkpt lat="62.634959102188" lon="17.988302634729">
        <ele>84.6</ele>
        <time>2018-01-30T12:30:31Z</time>
      </trkpt>
      <trkpt lat="62.63494049437" lon="17.988333480121">
        <ele>84.6</ele>
        <time>2018-01-30T12:30:32Z</time>
      </trkpt>
      <trkpt lat="62.634921132181" lon="17.988360637477">
        <ele>85</ele>
        <time>2018-01-30T12:30:33Z</time>
      </trkpt>
      <trkpt lat="62.634900345069" lon="17.988379915847">
        <ele>85</ele>
        <time>2018-01-30T12:30:34Z</time>
      </trkpt>
      <trkpt lat="62.634880228509" lon="17.988412940533">
        <ele>85</ele>
        <time>2018-01-30T12:30:35Z</time>
      </trkpt>
      <trkpt lat="62.634861033958" lon="17.988431129256">
        <ele>85.2</ele>
        <time>2018-01-30T12:30:36Z</time>
      </trkpt>
      <trkpt lat="62.63484242614" lon="17.988445797581">
        <ele>85.2</ele>
        <time>2018-01-30T12:30:37Z</time>
      </trkpt>
      <trkpt lat="62.634827757815" lon="17.988461555553">
        <ele>85.4</ele>
        <time>2018-01-30T12:30:38Z</time>
      </trkpt>
      <trkpt lat="62.634811916024" lon="17.988472619661">
        <ele>85.4</ele>
        <time>2018-01-30T12:30:39Z</time>
      </trkpt>
      <trkpt lat="62.63480135483" lon="17.988505644347">
        <ele>85.4</ele>
        <time>2018-01-30T12:30:40Z</time>
      </trkpt>
      <trkpt lat="62.634769168334" lon="17.988518049559">
        <ele>85.6</ele>
        <time>2018-01-30T12:30:41Z</time>
      </trkpt>
      <trkpt lat="62.634748045946" lon="17.988529113667">
        <ele>85.8</ele>
        <time>2018-01-30T12:30:42Z</time>
      </trkpt>
      <trkpt lat="62.634730276318" lon="17.988545123096">
        <ele>85.8</ele>
        <time>2018-01-30T12:30:43Z</time>
      </trkpt>
      <trkpt lat="62.634717703468" lon="17.988574040651">
        <ele>85.8</ele>
        <time>2018-01-30T12:30:44Z</time>
      </trkpt>
      <trkpt lat="62.634694988519" lon="17.98857077171">
        <ele>86</ele>
        <time>2018-01-30T12:30:45Z</time>
      </trkpt>
      <trkpt lat="62.634683086221" lon="17.98859088827">
        <ele>86</ele>
        <time>2018-01-30T12:30:46Z</time>
      </trkpt>
      <trkpt lat="62.634654587761" lon="17.988602036197">
        <ele>86</ele>
        <time>2018-01-30T12:30:47Z</time>
      </trkpt>
      <trkpt lat="62.634637237228" lon="17.988614944323">
        <ele>86</ele>
        <time>2018-01-30T12:30:48Z</time>
      </trkpt>
      <trkpt lat="62.634617875039" lon="17.988623074766">
        <ele>86.2</ele>
        <time>2018-01-30T12:30:49Z</time>
      </trkpt>
      <trkpt lat="62.634607062388" lon="17.98864872338">
        <ele>86.2</ele>
        <time>2018-01-30T12:30:50Z</time>
      </trkpt>
      <trkpt lat="62.634593148434" lon="17.98866297261">
        <ele>86.4</ele>
        <time>2018-01-30T12:30:51Z</time>
      </trkpt>
      <trkpt lat="62.634578144833" lon="17.988668504664">
        <ele>86.4</ele>
        <time>2018-01-30T12:30:52Z</time>
      </trkpt>
      <trkpt lat="62.634556016617" lon="17.988701445531">
        <ele>86.6</ele>
        <time>2018-01-30T12:30:53Z</time>
      </trkpt>
      <trkpt lat="62.634536402971" lon="17.988715359485">
        <ele>86.8</ele>
        <time>2018-01-30T12:30:54Z</time>
      </trkpt>
      <trkpt lat="62.634520142085" lon="17.988742516841">
        <ele>86.8</ele>
        <time>2018-01-30T12:30:55Z</time>
      </trkpt>
      <trkpt lat="62.634503462104" lon="17.988776212079">
        <ele>87</ele>
        <time>2018-01-30T12:30:56Z</time>
      </trkpt>
      <trkpt lat="62.634484938105" lon="17.988814098267">
        <ele>87.4</ele>
        <time>2018-01-30T12:30:57Z</time>
      </trkpt>
      <trkpt lat="62.634471359427" lon="17.988858857613">
        <ele>87.4</ele>
        <time>2018-01-30T12:30:58Z</time>
      </trkpt>
      <trkpt lat="62.634448141564" lon="17.98887000554">
        <ele>87.6</ele>
        <time>2018-01-30T12:30:59Z</time>
      </trkpt>
      <trkpt lat="62.634429114651" lon="17.988902024398">
        <ele>87.8</ele>
        <time>2018-01-30T12:31:00Z</time>
      </trkpt>
      <trkpt lat="62.634414027231" lon="17.988932366876">
        <ele>87.8</ele>
        <time>2018-01-30T12:31:01Z</time>
      </trkpt>
      <trkpt lat="62.63439986182" lon="17.988962457897">
        <ele>88</ele>
        <time>2018-01-30T12:31:02Z</time>
      </trkpt>
      <trkpt lat="62.634384522943" lon="17.98899321947">
        <ele>88.2</ele>
        <time>2018-01-30T12:31:03Z</time>
      </trkpt>
      <trkpt lat="62.634367675324" lon="17.989024986871">
        <ele>88.2</ele>
        <time>2018-01-30T12:31:04Z</time>
      </trkpt>
      <trkpt lat="62.634349989515" lon="17.989063375973">
        <ele>88.4</ele>
        <time>2018-01-30T12:31:05Z</time>
      </trkpt>
      <trkpt lat="62.634330124412" lon="17.989092712623">
        <ele>88.4</ele>
        <time>2018-01-30T12:31:06Z</time>
      </trkpt>
      <trkpt lat="62.634314198802" lon="17.989124982938">
        <ele>88.6</ele>
        <time>2018-01-30T12:31:07Z</time>
      </trkpt>
      <trkpt lat="62.634298776106" lon="17.98916588661">
        <ele>88.6</ele>
        <time>2018-01-30T12:31:08Z</time>
      </trkpt>
      <trkpt lat="62.634280503564" lon="17.989210226861">
        <ele>88.6</ele>
        <time>2018-01-30T12:31:09Z</time>
      </trkpt>
      <trkpt lat="62.634275725881" lon="17.989237216579">
        <ele>88.8</ele>
        <time>2018-01-30T12:31:10Z</time>
      </trkpt>
      <trkpt lat="62.634250664" lon="17.989280048088">
        <ele>88.8</ele>
        <time>2018-01-30T12:31:11Z</time>
      </trkpt>
      <trkpt lat="62.634227949051" lon="17.98931173167">
        <ele>88.6</ele>
        <time>2018-01-30T12:31:12Z</time>
      </trkpt>
      <trkpt lat="62.634205234102" lon="17.989341152139">
        <ele>88.8</ele>
        <time>2018-01-30T12:31:13Z</time>
      </trkpt>
      <trkpt lat="62.634185955732" lon="17.98936537583">
        <ele>88.6</ele>
        <time>2018-01-30T12:31:14Z</time>
      </trkpt>
      <trkpt lat="62.634163324602" lon="17.989395634489">
        <ele>88.8</ele>
        <time>2018-01-30T12:31:15Z</time>
      </trkpt>
      <trkpt lat="62.63414337568" lon="17.989424384406">
        <ele>88.8</ele>
        <time>2018-01-30T12:31:16Z</time>
      </trkpt>
      <trkpt lat="62.634131221925" lon="17.989431928116">
        <ele>88.8</ele>
        <time>2018-01-30T12:31:17Z</time>
      </trkpt>
      <trkpt lat="62.634109764261" lon="17.989452966685">
        <ele>88.8</ele>
        <time>2018-01-30T12:31:18Z</time>
      </trkpt>
      <trkpt lat="62.634083696552" lon="17.989473083245">
        <ele>89</ele>
        <time>2018-01-30T12:31:19Z</time>
      </trkpt>
      <trkpt lat="62.634071961892" lon="17.98951708822">
        <ele>89</ele>
        <time>2018-01-30T12:31:20Z</time>
      </trkpt>
      <trkpt lat="62.634055868644" lon="17.989538545884">
        <ele>89.2</ele>
        <time>2018-01-30T12:31:21Z</time>
      </trkpt>
      <trkpt lat="62.634043882527" lon="17.989559500634">
        <ele>89.2</ele>
        <time>2018-01-30T12:31:22Z</time>
      </trkpt>
      <trkpt lat="62.634025023252" lon="17.989576515891">
        <ele>89.4</ele>
        <time>2018-01-30T12:31:23Z</time>
      </trkpt>
      <trkpt lat="62.634013623868" lon="17.989593028234">
        <ele>89.4</ele>
        <time>2018-01-30T12:31:24Z</time>
      </trkpt>
      <trkpt lat="62.633986466512" lon="17.989608283292">
        <ele>89.6</ele>
        <time>2018-01-30T12:31:25Z</time>
      </trkpt>
      <trkpt lat="62.633970289445" lon="17.989623454531">
        <ele>89.8</ele>
        <time>2018-01-30T12:31:26Z</time>
      </trkpt>
      <trkpt lat="62.633953693283" lon="17.989646085661">
        <ele>90</ele>
        <time>2018-01-30T12:31:27Z</time>
      </trkpt>
      <trkpt lat="62.63393634275" lon="17.989671650456">
        <ele>90</ele>
        <time>2018-01-30T12:31:28Z</time>
      </trkpt>
      <trkpt lat="62.633926787384" lon="17.98969394631">
        <ele>90.2</ele>
        <time>2018-01-30T12:31:29Z</time>
      </trkpt>
      <trkpt lat="62.633895187621" lon="17.989715823069">
        <ele>90.2</ele>
        <time>2018-01-30T12:31:30Z</time>
      </trkpt>
      <trkpt lat="62.633878591459" lon="17.989745578814">
        <ele>90.2</ele>
        <time>2018-01-30T12:31:31Z</time>
      </trkpt>
      <trkpt lat="62.633859480727" lon="17.989782710631">
        <ele>90.2</ele>
        <time>2018-01-30T12:31:32Z</time>
      </trkpt>
      <trkpt lat="62.633838777434" lon="17.989819088077">
        <ele>90.2</ele>
        <time>2018-01-30T12:31:33Z</time>
      </trkpt>
      <trkpt lat="62.633819499064" lon="17.989853705324">
        <ele>90.4</ele>
        <time>2018-01-30T12:31:34Z</time>
      </trkpt>
      <trkpt lat="62.633795778287" lon="17.98990014105">
        <ele>90.2</ele>
        <time>2018-01-30T12:31:35Z</time>
      </trkpt>
      <trkpt lat="62.633776751374" lon="17.989951186821">
        <ele>90.4</ele>
        <time>2018-01-30T12:31:36Z</time>
      </trkpt>
      <trkpt lat="62.633755712805" lon="17.989996868176">
        <ele>90.4</ele>
        <time>2018-01-30T12:31:37Z</time>
      </trkpt>
      <trkpt lat="62.633734841874" lon="17.990035005821">
        <ele>90.4</ele>
        <time>2018-01-30T12:31:38Z</time>
      </trkpt>
      <trkpt lat="62.633719167721" lon="17.990073562561">
        <ele>90.4</ele>
        <time>2018-01-30T12:31:39Z</time>
      </trkpt>
      <trkpt lat="62.633711121097" lon="17.990090996913">
        <ele>90.2</ele>
        <time>2018-01-30T12:31:40Z</time>
      </trkpt>
      <trkpt lat="62.633695279306" lon="17.990133409327">
        <ele>90.4</ele>
        <time>2018-01-30T12:31:41Z</time>
      </trkpt>
      <trkpt lat="62.633678515506" lon="17.990171127877">
        <ele>90.4</ele>
        <time>2018-01-30T12:31:42Z</time>
      </trkpt>
      <trkpt lat="62.633658566584" lon="17.990210690445">
        <ele>90.2</ele>
        <time>2018-01-30T12:31:43Z</time>
      </trkpt>
      <trkpt lat="62.633643395345" lon="17.990254946877">
        <ele>90.4</ele>
        <time>2018-01-30T12:31:44Z</time>
      </trkpt>
      <trkpt lat="62.633615902713" lon="17.990263496415">
        <ele>90.4</ele>
        <time>2018-01-30T12:31:45Z</time>
      </trkpt>
      <trkpt lat="62.633596708162" lon="17.990291324323">
        <ele>90.4</ele>
        <time>2018-01-30T12:31:46Z</time>
      </trkpt>
      <trkpt lat="62.633589080633" lon="17.990298113662">
        <ele>90.6</ele>
        <time>2018-01-30T12:31:47Z</time>
      </trkpt>
      <trkpt lat="62.633574496127" lon="17.990318649317">
        <ele>90.8</ele>
        <time>2018-01-30T12:31:48Z</time>
      </trkpt>
      <trkpt lat="62.633558570517" lon="17.990335664574">
        <ele>90.8</ele>
        <time>2018-01-30T12:31:49Z</time>
      </trkpt>
      <trkpt lat="62.63353484974" lon="17.990362402835">
        <ele>90.8</ele>
        <time>2018-01-30T12:31:50Z</time>
      </trkpt>
      <trkpt lat="62.633511715696" lon="17.990372712572">
        <ele>91</ele>
        <time>2018-01-30T12:31:51Z</time>
      </trkpt>
      <trkpt lat="62.633487324367" lon="17.990381429748">
        <ele>91.2</ele>
        <time>2018-01-30T12:31:52Z</time>
      </trkpt>
      <trkpt lat="62.633462430124" lon="17.990408838561">
        <ele>91.4</ele>
        <time>2018-01-30T12:31:53Z</time>
      </trkpt>
      <trkpt lat="62.633436362415" lon="17.990420154126">
        <ele>91.6</ele>
        <time>2018-01-30T12:31:54Z</time>
      </trkpt>
      <trkpt lat="62.633413228371" lon="17.990435409184">
        <ele>91.6</ele>
        <time>2018-01-30T12:31:55Z</time>
      </trkpt>
      <trkpt lat="62.633385400463" lon="17.990450748061">
        <ele>91.6</ele>
        <time>2018-01-30T12:31:56Z</time>
      </trkpt>
      <trkpt lat="62.633354219795" lon="17.99046508111">
        <ele>91.8</ele>
        <time>2018-01-30T12:31:57Z</time>
      </trkpt>
      <trkpt lat="62.633325972792" lon="17.990482766919">
        <ele>91.6</ele>
        <time>2018-01-30T12:31:58Z</time>
      </trkpt>
      <trkpt lat="62.633293031925" lon="17.990506655334">
        <ele>91.6</ele>
        <time>2018-01-30T12:31:59Z</time>
      </trkpt>
      <trkpt lat="62.633267550949" lon="17.990524424962">
        <ele>91.6</ele>
        <time>2018-01-30T12:32:00Z</time>
      </trkpt>
      <trkpt lat="62.633247015294" lon="17.990541691676">
        <ele>91.6</ele>
        <time>2018-01-30T12:32:01Z</time>
      </trkpt>
      <trkpt lat="62.63322388125" lon="17.990566334462">
        <ele>91.4</ele>
        <time>2018-01-30T12:32:02Z</time>
      </trkpt>
      <trkpt lat="62.633205105794" lon="17.990596509302">
        <ele>91.4</ele>
        <time>2018-01-30T12:32:03Z</time>
      </trkpt>
      <trkpt lat="62.633193035858" lon="17.990621152088">
        <ele>91.4</ele>
        <time>2018-01-30T12:32:04Z</time>
      </trkpt>
      <trkpt lat="62.63316604614" lon="17.990684435433">
        <ele>91.2</ele>
        <time>2018-01-30T12:32:05Z</time>
      </trkpt>
      <trkpt lat="62.633152216005" lon="17.990728021313">
        <ele>91.4</ele>
        <time>2018-01-30T12:32:06Z</time>
      </trkpt>
      <trkpt lat="62.633134111101" lon="17.990773451211">
        <ele>91.2</ele>
        <time>2018-01-30T12:32:07Z</time>
      </trkpt>
      <trkpt lat="62.633118772224" lon="17.990822569145">
        <ele>91.2</ele>
        <time>2018-01-30T12:32:08Z</time>
      </trkpt>
      <trkpt lat="62.633114413636" lon="17.990867496129">
        <ele>91.2</ele>
        <time>2018-01-30T12:32:09Z</time>
      </trkpt>
      <trkpt lat="62.633088345927" lon="17.99090513086">
        <ele>91.2</ele>
        <time>2018-01-30T12:32:10Z</time>
      </trkpt>
      <trkpt lat="62.633075102525" lon="17.990979562132">
        <ele>91.2</ele>
        <time>2018-01-30T12:32:11Z</time>
      </trkpt>
      <trkpt lat="62.633059847467" lon="17.991029099161">
        <ele>91.2</ele>
        <time>2018-01-30T12:32:12Z</time>
      </trkpt>
      <trkpt lat="62.633046352608" lon="17.991076456896">
        <ele>91.2</ele>
        <time>2018-01-30T12:32:13Z</time>
      </trkpt>
      <trkpt lat="62.633039227993" lon="17.991119120767">
        <ele>91.2</ele>
        <time>2018-01-30T12:32:14Z</time>
      </trkpt>
      <trkpt lat="62.63302355384" lon="17.991172429651">
        <ele>91.2</ele>
        <time>2018-01-30T12:32:15Z</time>
      </trkpt>
      <trkpt lat="62.633016429225" lon="17.991218027187">
        <ele>91.4</ele>
        <time>2018-01-30T12:32:16Z</time>
      </trkpt>
      <trkpt lat="62.632996480303" lon="17.991272593356">
        <ele>91.4</ele>
        <time>2018-01-30T12:32:17Z</time>
      </trkpt>
      <trkpt lat="62.632981225245" lon="17.991321962747">
        <ele>91.4</ele>
        <time>2018-01-30T12:32:18Z</time>
      </trkpt>
      <trkpt lat="62.632965048178" lon="17.991367895559">
        <ele>91.4</ele>
        <time>2018-01-30T12:32:19Z</time>
      </trkpt>
      <trkpt lat="62.632932442587" lon="17.991430843628">
        <ele>91.2</ele>
        <time>2018-01-30T12:32:20Z</time>
      </trkpt>
      <trkpt lat="62.632908386534" lon="17.991484739245">
        <ele>91.4</ele>
        <time>2018-01-30T12:32:21Z</time>
      </trkpt>
      <trkpt lat="62.632891203639" lon="17.991537461396">
        <ele>91.4</ele>
        <time>2018-01-30T12:32:22Z</time>
      </trkpt>
      <trkpt lat="62.632859520057" lon="17.991583980941">
        <ele>91.4</ele>
        <time>2018-01-30T12:32:23Z</time>
      </trkpt>
      <trkpt lat="62.632842001886" lon="17.99163016521">
        <ele>91.4</ele>
        <time>2018-01-30T12:32:24Z</time>
      </trkpt>
      <trkpt lat="62.632825657181" lon="17.991676600936">
        <ele>91.4</ele>
        <time>2018-01-30T12:32:25Z</time>
      </trkpt>
      <trkpt lat="62.632806714087" lon="17.991732927304">
        <ele>91.4</ele>
        <time>2018-01-30T12:32:26Z</time>
      </trkpt>
      <trkpt lat="62.632787687174" lon="17.99179109769">
        <ele>91.6</ele>
        <time>2018-01-30T12:32:27Z</time>
      </trkpt>
      <trkpt lat="62.632776371609" lon="17.991844909488">
        <ele>91.4</ele>
        <time>2018-01-30T12:32:28Z</time>
      </trkpt>
      <trkpt lat="62.632764469311" lon="17.991897883096">
        <ele>91.4</ele>
        <time>2018-01-30T12:32:29Z</time>
      </trkpt>
      <trkpt lat="62.63276622951" lon="17.991946917211">
        <ele>91.6</ele>
        <time>2018-01-30T12:32:30Z</time>
      </trkpt>
      <trkpt lat="62.632769079356" lon="17.991986898874">
        <ele>91.6</ele>
        <time>2018-01-30T12:32:31Z</time>
      </trkpt>
      <trkpt lat="62.632784082957" lon="17.992012715126">
        <ele>91.8</ele>
        <time>2018-01-30T12:32:32Z</time>
      </trkpt>
      <trkpt lat="62.632806797906" lon="17.992029814202">
        <ele>91.8</ele>
        <time>2018-01-30T12:32:33Z</time>
      </trkpt>
      <trkpt lat="62.632835296366" lon="17.992048505839">
        <ele>91.8</ele>
        <time>2018-01-30T12:32:34Z</time>
      </trkpt>
      <trkpt lat="62.632852730718" lon="17.992049511667">
        <ele>91.8</ele>
        <time>2018-01-30T12:32:35Z</time>
      </trkpt>
      <trkpt lat="62.632879133703" lon="17.992064012354">
        <ele>91.8</ele>
        <time>2018-01-30T12:32:36Z</time>
      </trkpt>
      <trkpt lat="62.6329011781" lon="17.99207608229">
        <ele>91.6</ele>
        <time>2018-01-30T12:32:37Z</time>
      </trkpt>
      <trkpt lat="62.632920037375" lon="17.992084212733">
        <ele>91.6</ele>
        <time>2018-01-30T12:32:38Z</time>
      </trkpt>
      <trkpt lat="62.632943841971" lon="17.992092510814">
        <ele>91.8</ele>
        <time>2018-01-30T12:32:39Z</time>
      </trkpt>
      <trkpt lat="62.632955492812" lon="17.992084045095">
        <ele>91.8</ele>
        <time>2018-01-30T12:32:40Z</time>
      </trkpt>
      <trkpt lat="62.632982063435" lon="17.99208530238">
        <ele>91.8</ele>
        <time>2018-01-30T12:32:41Z</time>
      </trkpt>
      <trkpt lat="62.633006873859" lon="17.992090834434">
        <ele>91.8</ele>
        <time>2018-01-30T12:32:42Z</time>
      </trkpt>
      <trkpt lat="62.633033276844" lon="17.992103491103">
        <ele>91.6</ele>
        <time>2018-01-30T12:32:43Z</time>
      </trkpt>
      <trkpt lat="62.633064708969" lon="17.992120757817">
        <ele>91.6</ele>
        <time>2018-01-30T12:32:44Z</time>
      </trkpt>
      <trkpt lat="62.633081891864" lon="17.992135761418">
        <ele>91.4</ele>
        <time>2018-01-30T12:32:45Z</time>
      </trkpt>
      <trkpt lat="62.633109300677" lon="17.992156045616">
        <ele>91.4</ele>
        <time>2018-01-30T12:32:46Z</time>
      </trkpt>
      <trkpt lat="62.633133440549" lon="17.992180185488">
        <ele>91.2</ele>
        <time>2018-01-30T12:32:47Z</time>
      </trkpt>
      <trkpt lat="62.633161603733" lon="17.992203738627">
        <ele>91.2</ele>
        <time>2018-01-30T12:32:48Z</time>
      </trkpt>
      <trkpt lat="62.633191946211" lon="17.992226285938">
        <ele>91.2</ele>
        <time>2018-01-30T12:32:49Z</time>
      </trkpt>
      <trkpt lat="62.633217427187" lon="17.992237433865">
        <ele>91.4</ele>
        <time>2018-01-30T12:32:50Z</time>
      </trkpt>
      <trkpt lat="62.633244081629" lon="17.992240116073">
        <ele>91.6</ele>
        <time>2018-01-30T12:32:51Z</time>
      </trkpt>
      <trkpt lat="62.633270065519" lon="17.992236511856">
        <ele>91.6</ele>
        <time>2018-01-30T12:32:52Z</time>
      </trkpt>
      <trkpt lat="62.633298228703" lon="17.992245480489">
        <ele>91.4</ele>
        <time>2018-01-30T12:32:53Z</time>
      </trkpt>
      <trkpt lat="62.633328990276" lon="17.992230728345">
        <ele>91.4</ele>
        <time>2018-01-30T12:32:54Z</time>
      </trkpt>
      <trkpt lat="62.633366122093" lon="17.992251096362">
        <ele>91.4</ele>
        <time>2018-01-30T12:32:55Z</time>
      </trkpt>
      <trkpt lat="62.633400487883" lon="17.992265345592">
        <ele>91</ele>
        <time>2018-01-30T12:32:56Z</time>
      </trkpt>
      <trkpt lat="62.633436194777" lon="17.992282109392">
        <ele>90.6</ele>
        <time>2018-01-30T12:32:57Z</time>
      </trkpt>
      <trkpt lat="62.633473829508" lon="17.992296610079">
        <ele>90.4</ele>
        <time>2018-01-30T12:32:58Z</time>
      </trkpt>
      <trkpt lat="62.63349964576" lon="17.992329886222">
        <ele>90.2</ele>
        <time>2018-01-30T12:32:59Z</time>
      </trkpt>
      <trkpt lat="62.633536023206" lon="17.992373723559">
        <ele>89.6</ele>
        <time>2018-01-30T12:33:00Z</time>
      </trkpt>
      <trkpt lat="62.633563934933" lon="17.992417644715">
        <ele>89.4</ele>
        <time>2018-01-30T12:33:01Z</time>
      </trkpt>
      <trkpt lat="62.633590254099" lon="17.992468103753">
        <ele>89.6</ele>
        <time>2018-01-30T12:33:02Z</time>
      </trkpt>
      <trkpt lat="62.63361699236" lon="17.992523256655">
        <ele>89.6</ele>
        <time>2018-01-30T12:33:03Z</time>
      </trkpt>
      <trkpt lat="62.633644065897" lon="17.992577822824">
        <ele>89.6</ele>
        <time>2018-01-30T12:33:04Z</time>
      </trkpt>
      <trkpt lat="62.633672564357" lon="17.992633562459">
        <ele>89.4</ele>
        <time>2018-01-30T12:33:05Z</time>
      </trkpt>
      <trkpt lat="62.633699386437" lon="17.992692822492">
        <ele>89.4</ele>
        <time>2018-01-30T12:33:06Z</time>
      </trkpt>
      <trkpt lat="62.633723777766" lon="17.992758955683">
        <ele>89</ele>
        <time>2018-01-30T12:33:07Z</time>
      </trkpt>
      <trkpt lat="62.633750432208" lon="17.992826681435">
        <ele>89</ele>
        <time>2018-01-30T12:33:08Z</time>
      </trkpt>
      <trkpt lat="62.633778176297" lon="17.992890132418">
        <ele>88.8</ele>
        <time>2018-01-30T12:33:09Z</time>
      </trkpt>
      <trkpt lat="62.633812206811" lon="17.992950733555">
        <ele>88.8</ele>
        <time>2018-01-30T12:33:10Z</time>
      </trkpt>
      <trkpt lat="62.633866186247" lon="17.993026338293">
        <ele>88.4</ele>
        <time>2018-01-30T12:33:11Z</time>
      </trkpt>
      <trkpt lat="62.633904742987" lon="17.993068415431">
        <ele>88.4</ele>
        <time>2018-01-30T12:33:12Z</time>
      </trkpt>
      <trkpt lat="62.633941958623" lon="17.993114515881">
        <ele>87.8</ele>
        <time>2018-01-30T12:33:13Z</time>
      </trkpt>
      <trkpt lat="62.633979509535" lon="17.993163298539">
        <ele>87.6</ele>
        <time>2018-01-30T12:33:14Z</time>
      </trkpt>
      <trkpt lat="62.634011528393" lon="17.993231275748">
        <ele>87</ele>
        <time>2018-01-30T12:33:15Z</time>
      </trkpt>
      <trkpt lat="62.634048073477" lon="17.993283494985">
        <ele>86.6</ele>
        <time>2018-01-30T12:33:16Z</time>
      </trkpt>
      <trkpt lat="62.634088558054" lon="17.993350550185">
        <ele>86</ele>
        <time>2018-01-30T12:33:17Z</time>
      </trkpt>
      <trkpt lat="62.634129377907" lon="17.993402601784">
        <ele>86</ele>
        <time>2018-01-30T12:33:18Z</time>
      </trkpt>
      <trkpt lat="62.634170449217" lon="17.993446187664">
        <ele>86</ele>
        <time>2018-01-30T12:33:19Z</time>
      </trkpt>
      <trkpt lat="62.634229876888" lon="17.99346999226">
        <ele>86</ele>
        <time>2018-01-30T12:33:20Z</time>
      </trkpt>
      <trkpt lat="62.634283604867" lon="17.993494048313">
        <ele>85.6</ele>
        <time>2018-01-30T12:33:21Z</time>
      </trkpt>
      <trkpt lat="62.63433867395" lon="17.99351525452">
        <ele>85.2</ele>
        <time>2018-01-30T12:33:22Z</time>
      </trkpt>
      <trkpt lat="62.634401873476" lon="17.993546686645">
        <ele>84.4</ele>
        <time>2018-01-30T12:33:23Z</time>
      </trkpt>
      <trkpt lat="62.6344602115" lon="17.993574933648">
        <ele>84.2</ele>
        <time>2018-01-30T12:33:24Z</time>
      </trkpt>
      <trkpt lat="62.63453145765" lon="17.993595217846">
        <ele>83.4</ele>
        <time>2018-01-30T12:33:25Z</time>
      </trkpt>
      <trkpt lat="62.634594489538" lon="17.993620279727">
        <ele>83</ele>
        <time>2018-01-30T12:33:26Z</time>
      </trkpt>
      <trkpt lat="62.63465886253" lon="17.99364349759">
        <ele>82.6</ele>
        <time>2018-01-30T12:33:27Z</time>
      </trkpt>
      <trkpt lat="62.634726169187" lon="17.993664284702">
        <ele>82.2</ele>
        <time>2018-01-30T12:33:28Z</time>
      </trkpt>
      <trkpt lat="62.63478878198" lon="17.993665625806">
        <ele>81.6</ele>
        <time>2018-01-30T12:33:29Z</time>
      </trkpt>
      <trkpt lat="62.634855082809" lon="17.993672163688">
        <ele>81</ele>
        <time>2018-01-30T12:33:30Z</time>
      </trkpt>
      <trkpt lat="62.634915097213" lon="17.993684987995">
        <ele>80.4</ele>
        <time>2018-01-30T12:33:31Z</time>
      </trkpt>
      <trkpt lat="62.634968657554" lon="17.993701919433">
        <ele>79.8</ele>
        <time>2018-01-30T12:33:32Z</time>
      </trkpt>
      <trkpt lat="62.635019870963" lon="17.993715833387">
        <ele>79.2</ele>
        <time>2018-01-30T12:33:33Z</time>
      </trkpt>
      <trkpt lat="62.63506957563" lon="17.993728657694">
        <ele>79</ele>
        <time>2018-01-30T12:33:34Z</time>
      </trkpt>
      <trkpt lat="62.635132523699" lon="17.993748690435">
        <ele>78.4</ele>
        <time>2018-01-30T12:33:35Z</time>
      </trkpt>
      <trkpt lat="62.635191280818" lon="17.993762101475">
        <ele>78</ele>
        <time>2018-01-30T12:33:36Z</time>
      </trkpt>
      <trkpt lat="62.635251714317" lon="17.993774087592">
        <ele>78</ele>
        <time>2018-01-30T12:33:37Z</time>
      </trkpt>
      <trkpt lat="62.635310471436" lon="17.993783391501">
        <ele>77.8</ele>
        <time>2018-01-30T12:33:38Z</time>
      </trkpt>
      <trkpt lat="62.63535958937" lon="17.993789677926">
        <ele>77.2</ele>
        <time>2018-01-30T12:33:39Z</time>
      </trkpt>
      <trkpt lat="62.635409126399" lon="17.993795796713">
        <ele>77</ele>
        <time>2018-01-30T12:33:40Z</time>
      </trkpt>
      <trkpt lat="62.635457154686" lon="17.993807866649">
        <ele>76.6</ele>
        <time>2018-01-30T12:33:41Z</time>
      </trkpt>
      <trkpt lat="62.635513229597" lon="17.993816751463">
        <ele>76</ele>
        <time>2018-01-30T12:33:42Z</time>
      </trkpt>
      <trkpt lat="62.63556997506" lon="17.993825301001">
        <ele>75.4</ele>
        <time>2018-01-30T12:33:43Z</time>
      </trkpt>
      <trkpt lat="62.635625211781" lon="17.993833934358">
        <ele>75.4</ele>
        <time>2018-01-30T12:33:44Z</time>
      </trkpt>
      <trkpt lat="62.635672904792" lon="17.993849021778">
        <ele>75</ele>
        <time>2018-01-30T12:33:45Z</time>
      </trkpt>
      <trkpt lat="62.6357258784" lon="17.993869054519">
        <ele>74.6</ele>
        <time>2018-01-30T12:33:46Z</time>
      </trkpt>
      <trkpt lat="62.635772900859" lon="17.993893194391">
        <ele>74</ele>
        <time>2018-01-30T12:33:47Z</time>
      </trkpt>
      <trkpt lat="62.63582227025" lon="17.993906940707">
        <ele>73.4</ele>
        <time>2018-01-30T12:33:48Z</time>
      </trkpt>
      <trkpt lat="62.635873316021" lon="17.993915825521">
        <ele>73.2</ele>
        <time>2018-01-30T12:33:49Z</time>
      </trkpt>
      <trkpt lat="62.635918494462" lon="17.993896044237">
        <ele>73</ele>
        <time>2018-01-30T12:33:50Z</time>
      </trkpt>
      <trkpt lat="62.635961661247" lon="17.993886069776">
        <ele>73.2</ele>
        <time>2018-01-30T12:33:51Z</time>
      </trkpt>
      <trkpt lat="62.63600583386" lon="17.99387316165">
        <ele>73</ele>
        <time>2018-01-30T12:33:52Z</time>
      </trkpt>
      <trkpt lat="62.63605947802" lon="17.993846674846">
        <ele>72.6</ele>
        <time>2018-01-30T12:33:53Z</time>
      </trkpt>
      <trkpt lat="62.636114547103" lon="17.993820942413">
        <ele>72.2</ele>
        <time>2018-01-30T12:33:54Z</time>
      </trkpt>
      <trkpt lat="62.636159138811" lon="17.99377425523">
        <ele>71</ele>
        <time>2018-01-30T12:33:55Z</time>
      </trkpt>
      <trkpt lat="62.636201886501" lon="17.993732681006">
        <ele>70.2</ele>
        <time>2018-01-30T12:33:56Z</time>
      </trkpt>
      <trkpt lat="62.636245304743" lon="17.993687167289">
        <ele>69.6</ele>
        <time>2018-01-30T12:33:57Z</time>
      </trkpt>
      <trkpt lat="62.636289225899" lon="17.993640228649">
        <ele>69.4</ele>
        <time>2018-01-30T12:33:58Z</time>
      </trkpt>
      <trkpt lat="62.636325938621" lon="17.993587506498">
        <ele>69.2</ele>
        <time>2018-01-30T12:33:59Z</time>
      </trkpt>
      <trkpt lat="62.636361896972" lon="17.993537550374">
        <ele>69.2</ele>
        <time>2018-01-30T12:34:00Z</time>
      </trkpt>
      <trkpt lat="62.636397100952" lon="17.993488600078">
        <ele>69.4</ele>
        <time>2018-01-30T12:34:01Z</time>
      </trkpt>
      <trkpt lat="62.636435238597" lon="17.993439230687">
        <ele>69.4</ele>
        <time>2018-01-30T12:34:02Z</time>
      </trkpt>
      <trkpt lat="62.636480836133" lon="17.993380892663">
        <ele>69.4</ele>
        <time>2018-01-30T12:34:03Z</time>
      </trkpt>
      <trkpt lat="62.636528193868" lon="17.993322889915">
        <ele>69.2</ele>
        <time>2018-01-30T12:34:04Z</time>
      </trkpt>
      <trkpt lat="62.636585945159" lon="17.993260528579">
        <ele>68.6</ele>
        <time>2018-01-30T12:34:05Z</time>
      </trkpt>
      <trkpt lat="62.636642439165" lon="17.993194060112">
        <ele>68</ele>
        <time>2018-01-30T12:34:06Z</time>
      </trkpt>
      <trkpt lat="62.636692898203" lon="17.993122394867">
        <ele>67.4</ele>
        <time>2018-01-30T12:34:07Z</time>
      </trkpt>
      <trkpt lat="62.636731957857" lon="17.993043521188">
        <ele>66.6</ele>
        <time>2018-01-30T12:34:08Z</time>
      </trkpt>
      <trkpt lat="62.636764311991" lon="17.992963390224">
        <ele>65.8</ele>
        <time>2018-01-30T12:34:09Z</time>
      </trkpt>
      <trkpt lat="62.636772023339" lon="17.992917876507">
        <ele>64.8</ele>
        <time>2018-01-30T12:34:10Z</time>
      </trkpt>
      <trkpt lat="62.636781578705" lon="17.992812599843">
        <ele>64.6</ele>
        <time>2018-01-30T12:34:11Z</time>
      </trkpt>
      <trkpt lat="62.636799180695" lon="17.99274076696">
        <ele>64.6</ele>
        <time>2018-01-30T12:34:12Z</time>
      </trkpt>
      <trkpt lat="62.636812005002" lon="17.992670442819">
        <ele>65</ele>
        <time>2018-01-30T12:34:13Z</time>
      </trkpt>
      <trkpt lat="62.636821728006" lon="17.992604225809">
        <ele>65.4</ele>
        <time>2018-01-30T12:34:14Z</time>
      </trkpt>
      <trkpt lat="62.636829690811" lon="17.99252954308">
        <ele>66.2</ele>
        <time>2018-01-30T12:34:15Z</time>
      </trkpt>
      <trkpt lat="62.636845029688" lon="17.992462068785">
        <ele>66.2</ele>
        <time>2018-01-30T12:34:16Z</time>
      </trkpt>
      <trkpt lat="62.636842850394" lon="17.992383195106">
        <ele>66.6</ele>
        <time>2018-01-30T12:34:17Z</time>
      </trkpt>
      <trkpt lat="62.636849472095" lon="17.992326282005">
        <ele>66.4</ele>
        <time>2018-01-30T12:34:18Z</time>
      </trkpt>
      <trkpt lat="62.636859362737" lon="17.992275320053">
        <ele>66.8</ele>
        <time>2018-01-30T12:34:19Z</time>
      </trkpt>
      <trkpt lat="62.63686665499" lon="17.992205415007">
        <ele>66.8</ele>
        <time>2018-01-30T12:34:20Z</time>
      </trkpt>
      <trkpt lat="62.636879144021" lon="17.992152609037">
        <ele>66.6</ele>
        <time>2018-01-30T12:34:21Z</time>
      </trkpt>
      <trkpt lat="62.63689431526" lon="17.992105251302">
        <ele>66.6</ele>
        <time>2018-01-30T12:34:22Z</time>
      </trkpt>
      <trkpt lat="62.636906301377" lon="17.992049930762">
        <ele>66.6</ele>
        <time>2018-01-30T12:34:23Z</time>
      </trkpt>
      <trkpt lat="62.63692197553" lon="17.991991592738">
        <ele>66.6</ele>
        <time>2018-01-30T12:34:24Z</time>
      </trkpt>
      <trkpt lat="62.636945025755" lon="17.991934092904">
        <ele>66.6</ele>
        <time>2018-01-30T12:34:25Z</time>
      </trkpt>
      <trkpt lat="62.636963968849" lon="17.991871899206">
        <ele>66.6</ele>
        <time>2018-01-30T12:34:26Z</time>
      </trkpt>
      <trkpt lat="62.636986767617" lon="17.991814734648">
        <ele>66.6</ele>
        <time>2018-01-30T12:34:27Z</time>
      </trkpt>
      <trkpt lat="62.637012080955" lon="17.991764191791">
        <ele>67</ele>
        <time>2018-01-30T12:34:28Z</time>
      </trkpt>
      <trkpt lat="62.637036975198" lon="17.99172655706">
        <ele>67</ele>
        <time>2018-01-30T12:34:29Z</time>
      </trkpt>
      <trkpt lat="62.637051475885" lon="17.991669811597">
        <ele>67</ele>
        <time>2018-01-30T12:34:30Z</time>
      </trkpt>
      <trkpt lat="62.637077627413" lon="17.991617424722">
        <ele>67.2</ele>
        <time>2018-01-30T12:34:31Z</time>
      </trkpt>
      <trkpt lat="62.637104533312" lon="17.991559338155">
        <ele>67.4</ele>
        <time>2018-01-30T12:34:32Z</time>
      </trkpt>
      <trkpt lat="62.637130349564" lon="17.991503514701">
        <ele>67.4</ele>
        <time>2018-01-30T12:34:33Z</time>
      </trkpt>
      <trkpt lat="62.637158764205" lon="17.991455654052">
        <ele>67.4</ele>
        <time>2018-01-30T12:34:34Z</time>
      </trkpt>
      <trkpt lat="62.637170163589" lon="17.991405949385">
        <ele>67.6</ele>
        <time>2018-01-30T12:34:35Z</time>
      </trkpt>
      <trkpt lat="62.637189441959" lon="17.991353813967">
        <ele>67.6</ele>
        <time>2018-01-30T12:34:36Z</time>
      </trkpt>
      <trkpt lat="62.637213330374" lon="17.991289440975">
        <ele>67.4</ele>
        <time>2018-01-30T12:34:37Z</time>
      </trkpt>
      <trkpt lat="62.637238476074" lon="17.991220793214">
        <ele>67.2</ele>
        <time>2018-01-30T12:34:38Z</time>
      </trkpt>
      <trkpt lat="62.63726479524" lon="17.991160359715">
        <ele>67.2</ele>
        <time>2018-01-30T12:34:39Z</time>
      </trkpt>
      <trkpt lat="62.637288935112" lon="17.991099423302">
        <ele>67</ele>
        <time>2018-01-30T12:34:40Z</time>
      </trkpt>
      <trkpt lat="62.637305950369" lon="17.991041252916">
        <ele>66.8</ele>
        <time>2018-01-30T12:34:41Z</time>
      </trkpt>
      <trkpt lat="62.63731927759" lon="17.990985094186">
        <ele>66.8</ele>
        <time>2018-01-30T12:34:42Z</time>
      </trkpt>
      <trkpt lat="62.63733017406" lon="17.990922900488">
        <ele>66.8</ele>
        <time>2018-01-30T12:34:43Z</time>
      </trkpt>
      <trkpt lat="62.637344255652" lon="17.990868753414">
        <ele>66.8</ele>
        <time>2018-01-30T12:34:44Z</time>
      </trkpt>
      <trkpt lat="62.637355235941" lon="17.990803039318">
        <ele>67</ele>
        <time>2018-01-30T12:34:45Z</time>
      </trkpt>
      <trkpt lat="62.637368814619" lon="17.990733050453">
        <ele>67</ele>
        <time>2018-01-30T12:34:46Z</time>
      </trkpt>
      <trkpt lat="62.63737375994" lon="17.990643783218">
        <ele>67</ele>
        <time>2018-01-30T12:34:47Z</time>
      </trkpt>
      <trkpt lat="62.637379711089" lon="17.990557198191">
        <ele>67.2</ele>
        <time>2018-01-30T12:34:48Z</time>
      </trkpt>
      <trkpt lat="62.637382393297" lon="17.990470277888">
        <ele>67</ele>
        <time>2018-01-30T12:34:49Z</time>
      </trkpt>
      <trkpt lat="62.63739555288" lon="17.990384950146">
        <ele>67</ele>
        <time>2018-01-30T12:34:50Z</time>
      </trkpt>
      <trkpt lat="62.637407455178" lon="17.990308842494">
        <ele>67</ele>
        <time>2018-01-30T12:34:51Z</time>
      </trkpt>
      <trkpt lat="62.637423129331" lon="17.990239943276">
        <ele>66.8</ele>
        <time>2018-01-30T12:34:52Z</time>
      </trkpt>
      <trkpt lat="62.637431762688" lon="17.990178587768">
        <ele>66.8</ele>
        <time>2018-01-30T12:34:53Z</time>
      </trkpt>
      <trkpt lat="62.637446431013" lon="17.990116645527">
        <ele>66.8</ele>
        <time>2018-01-30T12:34:54Z</time>
      </trkpt>
      <trkpt lat="62.637454561456" lon="17.990065348299">
        <ele>66.8</ele>
        <time>2018-01-30T12:34:55Z</time>
      </trkpt>
      <trkpt lat="62.637474426559" lon="17.990009189569">
        <ele>66.8</ele>
        <time>2018-01-30T12:34:56Z</time>
      </trkpt>
      <trkpt lat="62.637498231155" lon="17.989957054151">
        <ele>67</ele>
        <time>2018-01-30T12:34:57Z</time>
      </trkpt>
      <trkpt lat="62.637524801778" lon="17.989914474099">
        <ele>67</ele>
        <time>2018-01-30T12:34:58Z</time>
      </trkpt>
      <trkpt lat="62.637541733216" lon="17.989866697269">
        <ele>67.2</ele>
        <time>2018-01-30T12:34:59Z</time>
      </trkpt>
      <trkpt lat="62.637565286355" lon="17.989802743372">
        <ele>67</ele>
        <time>2018-01-30T12:35:00Z</time>
      </trkpt>
      <trkpt lat="62.637586827838" lon="17.989748261022">
        <ele>67.2</ele>
        <time>2018-01-30T12:35:01Z</time>
      </trkpt>
      <trkpt lat="62.637608788416" lon="17.989680954365">
        <ele>67</ele>
        <time>2018-01-30T12:35:02Z</time>
      </trkpt>
      <trkpt lat="62.637632593012" lon="17.98961348007">
        <ele>66.8</ele>
        <time>2018-01-30T12:35:03Z</time>
      </trkpt>
      <trkpt lat="62.637659247454" lon="17.989553633304">
        <ele>66.8</ele>
        <time>2018-01-30T12:35:04Z</time>
      </trkpt>
      <trkpt lat="62.637679028738" lon="17.989466210087">
        <ele>66.6</ele>
        <time>2018-01-30T12:35:05Z</time>
      </trkpt>
      <trkpt lat="62.637709706492" lon="17.98939806524">
        <ele>66.4</ele>
        <time>2018-01-30T12:35:06Z</time>
      </trkpt>
      <trkpt lat="62.637742479721" lon="17.989318185733">
        <ele>66.4</ele>
        <time>2018-01-30T12:35:07Z</time>
      </trkpt>
      <trkpt lat="62.637774079484" lon="17.989225230462">
        <ele>66</ele>
        <time>2018-01-30T12:35:08Z</time>
      </trkpt>
      <trkpt lat="62.637805260152" lon="17.989137136693">
        <ele>65.6</ele>
        <time>2018-01-30T12:35:09Z</time>
      </trkpt>
      <trkpt lat="62.637825711988" lon="17.989063543611">
        <ele>65</ele>
        <time>2018-01-30T12:35:10Z</time>
      </trkpt>
      <trkpt lat="62.637837195191" lon="17.989010989098">
        <ele>64</ele>
        <time>2018-01-30T12:35:11Z</time>
      </trkpt>
      <trkpt lat="62.637850438593" lon="17.988954159816">
        <ele>63.4</ele>
        <time>2018-01-30T12:35:12Z</time>
      </trkpt>
      <trkpt lat="62.637853288439" lon="17.988881153467">
        <ele>63.4</ele>
        <time>2018-01-30T12:35:13Z</time>
      </trkpt>
      <trkpt lat="62.637855467733" lon="17.988812338068">
        <ele>63.4</ele>
        <time>2018-01-30T12:35:14Z</time>
      </trkpt>
      <trkpt lat="62.637875332836" lon="17.988745785782">
        <ele>64</ele>
        <time>2018-01-30T12:35:15Z</time>
      </trkpt>
      <trkpt lat="62.637890001161" lon="17.988673785261">
        <ele>64.2</ele>
        <time>2018-01-30T12:35:16Z</time>
      </trkpt>
      <trkpt lat="62.637901568183" lon="17.988598683437">
        <ele>64.6</ele>
        <time>2018-01-30T12:35:17Z</time>
      </trkpt>
      <trkpt lat="62.637917996707" lon="17.988488377633">
        <ele>64.6</ele>
        <time>2018-01-30T12:35:18Z</time>
      </trkpt>
      <trkpt lat="62.637935011964" lon="17.988411683248">
        <ele>64.6</ele>
        <time>2018-01-30T12:35:19Z</time>
      </trkpt>
      <trkpt lat="62.637946830443" lon="17.988320739633">
        <ele>64.2</ele>
        <time>2018-01-30T12:35:20Z</time>
      </trkpt>
      <trkpt lat="62.637968707202" lon="17.988234154606">
        <ele>64</ele>
        <time>2018-01-30T12:35:21Z</time>
      </trkpt>
      <trkpt lat="62.63799150597" lon="17.988144468276">
        <ele>63.8</ele>
        <time>2018-01-30T12:35:22Z</time>
      </trkpt>
      <trkpt lat="62.638010281426" lon="17.988013291541">
        <ele>63.2</ele>
        <time>2018-01-30T12:35:23Z</time>
      </trkpt>
      <trkpt lat="62.638031906728" lon="17.987893262733">
        <ele>62.8</ele>
        <time>2018-01-30T12:35:24Z</time>
      </trkpt>
      <trkpt lat="62.63805101746" lon="17.987786477327">
        <ele>62</ele>
        <time>2018-01-30T12:35:25Z</time>
      </trkpt>
      <trkpt lat="62.638068703269" lon="17.987686984174">
        <ele>61.4</ele>
        <time>2018-01-30T12:35:26Z</time>
      </trkpt>
      <trkpt lat="62.638086053802" lon="17.987595286188">
        <ele>61.4</ele>
        <time>2018-01-30T12:35:27Z</time>
      </trkpt>
      <trkpt lat="62.638105248353" lon="17.987511718645">
        <ele>61</ele>
        <time>2018-01-30T12:35:28Z</time>
      </trkpt>
      <trkpt lat="62.638122095972" lon="17.987437622649">
        <ele>60.6</ele>
        <time>2018-01-30T12:35:29Z</time>
      </trkpt>
      <trkpt lat="62.638145481473" lon="17.987343577731">
        <ele>60.2</ele>
        <time>2018-01-30T12:35:30Z</time>
      </trkpt>
      <trkpt lat="62.638165095119" lon="17.987254310496">
        <ele>60.2</ele>
        <time>2018-01-30T12:35:31Z</time>
      </trkpt>
      <trkpt lat="62.638184122032" lon="17.987167893107">
        <ele>60</ele>
        <time>2018-01-30T12:35:32Z</time>
      </trkpt>
      <trkpt lat="62.638203316583" lon="17.987081559537">
        <ele>60</ele>
        <time>2018-01-30T12:35:33Z</time>
      </trkpt>
      <trkpt lat="62.6382236846" lon="17.987000087469">
        <ele>59.8</ele>
        <time>2018-01-30T12:35:34Z</time>
      </trkpt>
      <trkpt lat="62.638227540274" lon="17.986926913482">
        <ele>59.4</ele>
        <time>2018-01-30T12:35:35Z</time>
      </trkpt>
      <trkpt lat="62.63823290469" lon="17.986840160817">
        <ele>59.4</ele>
        <time>2018-01-30T12:35:36Z</time>
      </trkpt>
      <trkpt lat="62.638231982681" lon="17.986752234686">
        <ele>59.4</ele>
        <time>2018-01-30T12:35:37Z</time>
      </trkpt>
      <trkpt lat="62.638229719568" lon="17.986678222509">
        <ele>59.4</ele>
        <time>2018-01-30T12:35:38Z</time>
      </trkpt>
      <trkpt lat="62.638234161975" lon="17.986620974132">
        <ele>59.8</ele>
        <time>2018-01-30T12:35:39Z</time>
      </trkpt>
      <trkpt lat="62.638241789504" lon="17.986543525376">
        <ele>60</ele>
        <time>2018-01-30T12:35:40Z</time>
      </trkpt>
      <trkpt lat="62.638236676545" lon="17.986471357217">
        <ele>60.2</ele>
        <time>2018-01-30T12:35:41Z</time>
      </trkpt>
      <trkpt lat="62.638234161975" lon="17.986395836298">
        <ele>60.4</ele>
        <time>2018-01-30T12:35:42Z</time>
      </trkpt>
      <trkpt lat="62.638234497251" lon="17.986319309551">
        <ele>60.2</ele>
        <time>2018-01-30T12:35:43Z</time>
      </trkpt>
      <trkpt lat="62.638243717341" lon="17.986254098369">
        <ele>60</ele>
        <time>2018-01-30T12:35:44Z</time>
      </trkpt>
      <trkpt lat="62.638240532219" lon="17.986168183894">
        <ele>60.2</ele>
        <time>2018-01-30T12:35:45Z</time>
      </trkpt>
      <trkpt lat="62.638250422861" lon="17.986108253309">
        <ele>60</ele>
        <time>2018-01-30T12:35:46Z</time>
      </trkpt>
      <trkpt lat="62.638250925775" lon="17.98604530524">
        <ele>60</ele>
        <time>2018-01-30T12:35:47Z</time>
      </trkpt>
      <trkpt lat="62.638260816417" lon="17.9859899847">
        <ele>60</ele>
        <time>2018-01-30T12:35:48Z</time>
      </trkpt>
      <trkpt lat="62.638275149466" lon="17.985945476811">
        <ele>60</ele>
        <time>2018-01-30T12:35:49Z</time>
      </trkpt>
      <trkpt lat="62.638284956289" lon="17.98589526923">
        <ele>59.8</ele>
        <time>2018-01-30T12:35:50Z</time>
      </trkpt>
      <trkpt lat="62.638295349845" lon="17.985852186264">
        <ele>59.8</ele>
        <time>2018-01-30T12:35:51Z</time>
      </trkpt>
      <trkpt lat="62.638307000686" lon="17.98581731756">
        <ele>59.6</ele>
        <time>2018-01-30T12:35:52Z</time>
      </trkpt>
      <trkpt lat="62.638308509428" lon="17.985794267335">
        <ele>59.6</ele>
        <time>2018-01-30T12:35:53Z</time>
      </trkpt>
      <trkpt lat="62.638316136957" lon="17.985768451083">
        <ele>59.8</ele>
        <time>2018-01-30T12:35:54Z</time>
      </trkpt>
      <trkpt lat="62.638320998459" lon="17.98572930761">
        <ele>60</ele>
        <time>2018-01-30T12:35:55Z</time>
      </trkpt>
      <trkpt lat="62.638327452522" lon="17.985699551865">
        <ele>60.2</ele>
        <time>2018-01-30T12:35:56Z</time>
      </trkpt>
      <trkpt lat="62.638336337336" lon="17.985668035921">
        <ele>60.2</ele>
        <time>2018-01-30T12:35:57Z</time>
      </trkpt>
      <trkpt lat="62.638347820539" lon="17.985638280176">
        <ele>60.2</ele>
        <time>2018-01-30T12:35:58Z</time>
      </trkpt>
      <trkpt lat="62.638355783344" lon="17.985602238006">
        <ele>60.2</ele>
        <time>2018-01-30T12:35:59Z</time>
      </trkpt>
      <trkpt lat="62.638363746149" lon="17.985562172524">
        <ele>60.2</ele>
        <time>2018-01-30T12:36:00Z</time>
      </trkpt>
      <trkpt lat="62.638373552972" lon="17.985526130354">
        <ele>60.2</ele>
        <time>2018-01-30T12:36:01Z</time>
      </trkpt>
      <trkpt lat="62.638388137478" lon="17.985486903062">
        <ele>60</ele>
        <time>2018-01-30T12:36:02Z</time>
      </trkpt>
      <trkpt lat="62.63840389545" lon="17.985439210051">
        <ele>60</ele>
        <time>2018-01-30T12:36:03Z</time>
      </trkpt>
      <trkpt lat="62.638422922363" lon="17.985388583375">
        <ele>60</ele>
        <time>2018-01-30T12:36:04Z</time>
      </trkpt>
      <trkpt lat="62.638445721131" lon="17.985343404934">
        <ele>59.8</ele>
        <time>2018-01-30T12:36:05Z</time>
      </trkpt>
      <trkpt lat="62.63846592151" lon="17.985293700267">
        <ele>59.6</ele>
        <time>2018-01-30T12:36:06Z</time>
      </trkpt>
      <trkpt lat="62.63848939083" lon="17.985236870985">
        <ele>59.6</ele>
        <time>2018-01-30T12:36:07Z</time>
      </trkpt>
      <trkpt lat="62.63851788929" lon="17.985184400291">
        <ele>59.6</ele>
        <time>2018-01-30T12:36:08Z</time>
      </trkpt>
      <trkpt lat="62.638546806845" lon="17.985141233506">
        <ele>59.4</ele>
        <time>2018-01-30T12:36:09Z</time>
      </trkpt>
      <trkpt lat="62.638570276165" lon="17.985091109744">
        <ele>59.2</ele>
        <time>2018-01-30T12:36:10Z</time>
      </trkpt>
      <trkpt lat="62.638598606987" lon="17.985010559685">
        <ele>58.6</ele>
        <time>2018-01-30T12:36:11Z</time>
      </trkpt>
      <trkpt lat="62.638630458207" lon="17.984943672123">
        <ele>58.2</ele>
        <time>2018-01-30T12:36:12Z</time>
      </trkpt>
      <trkpt lat="62.638663482893" lon="17.984882484253">
        <ele>58</ele>
        <time>2018-01-30T12:36:13Z</time>
      </trkpt>
      <trkpt lat="62.638694579742" lon="17.984821128745">
        <ele>58</ele>
        <time>2018-01-30T12:36:14Z</time>
      </trkpt>
      <trkpt lat="62.638726850057" lon="17.984749379681">
        <ele>58</ele>
        <time>2018-01-30T12:36:15Z</time>
      </trkpt>
      <trkpt lat="62.638755264698" lon="17.984681653929">
        <ele>57.8</ele>
        <time>2018-01-30T12:36:16Z</time>
      </trkpt>
      <trkpt lat="62.638779991303" lon="17.984595739454">
        <ele>57.4</ele>
        <time>2018-01-30T12:36:17Z</time>
      </trkpt>
      <trkpt lat="62.638799102035" lon="17.984510830807">
        <ele>57</ele>
        <time>2018-01-30T12:36:18Z</time>
      </trkpt>
      <trkpt lat="62.638814860007" lon="17.984426173617">
        <ele>56.6</ele>
        <time>2018-01-30T12:36:19Z</time>
      </trkpt>
      <trkpt lat="62.638830198884" lon="17.984325171722">
        <ele>55.6</ele>
        <time>2018-01-30T12:36:20Z</time>
      </trkpt>
      <trkpt lat="62.638846711227" lon="17.984233557555">
        <ele>55.2</ele>
        <time>2018-01-30T12:36:21Z</time>
      </trkpt>
      <trkpt lat="62.638867582158" lon="17.984149906193">
        <ele>55.2</ele>
        <time>2018-01-30T12:36:22Z</time>
      </trkpt>
      <trkpt lat="62.638847381779" lon="17.984084108278">
        <ele>55.2</ele>
        <time>2018-01-30T12:36:23Z</time>
      </trkpt>
      <trkpt lat="62.638829612151" lon="17.984017220716">
        <ele>55.2</ele>
        <time>2018-01-30T12:36:24Z</time>
      </trkpt>
      <trkpt lat="62.638838999879" lon="17.983921918513">
        <ele>55.4</ele>
        <time>2018-01-30T12:36:25Z</time>
      </trkpt>
      <trkpt lat="62.638838329327" lon="17.983830555803">
        <ele>55.6</ele>
        <time>2018-01-30T12:36:26Z</time>
      </trkpt>
      <trkpt lat="62.638831539988" lon="17.98374195912">
        <ele>55.6</ele>
        <time>2018-01-30T12:36:27Z</time>
      </trkpt>
      <trkpt lat="62.638825253563" lon="17.983660235595">
        <ele>55.6</ele>
        <time>2018-01-30T12:36:28Z</time>
      </trkpt>
      <trkpt lat="62.638822738993" lon="17.983602400485">
        <ele>55.4</ele>
        <time>2018-01-30T12:36:29Z</time>
      </trkpt>
      <trkpt lat="62.638821984622" lon="17.983501985323">
        <ele>55.4</ele>
        <time>2018-01-30T12:36:30Z</time>
      </trkpt>
      <trkpt lat="62.638828187228" lon="17.983438031426">
        <ele>55.4</ele>
        <time>2018-01-30T12:36:31Z</time>
      </trkpt>
      <trkpt lat="62.638836485309" lon="17.983377011194">
        <ele>55.6</ele>
        <time>2018-01-30T12:36:32Z</time>
      </trkpt>
      <trkpt lat="62.638843190829" lon="17.983307441424">
        <ele>55.8</ele>
        <time>2018-01-30T12:36:33Z</time>
      </trkpt>
      <trkpt lat="62.63885316529" lon="17.983246002097">
        <ele>55.8</ele>
        <time>2018-01-30T12:36:34Z</time>
      </trkpt>
      <trkpt lat="62.638846962684" lon="17.983160841993">
        <ele>56</ele>
        <time>2018-01-30T12:36:35Z</time>
      </trkpt>
      <trkpt lat="62.638845453942" lon="17.983079202287">
        <ele>56</ele>
        <time>2018-01-30T12:36:36Z</time>
      </trkpt>
      <trkpt lat="62.638849141978" lon="17.983006950309">
        <ele>56</ele>
        <time>2018-01-30T12:36:37Z</time>
      </trkpt>
      <trkpt lat="62.638857272421" lon="17.982930339743">
        <ele>56</ele>
        <time>2018-01-30T12:36:38Z</time>
      </trkpt>
      <trkpt lat="62.638864732312" lon="17.982854064453">
        <ele>56</ele>
        <time>2018-01-30T12:36:39Z</time>
      </trkpt>
      <trkpt lat="62.638862050104" lon="17.982801677578">
        <ele>56</ele>
        <time>2018-01-30T12:36:40Z</time>
      </trkpt>
      <trkpt lat="62.638866073416" lon="17.982724312641">
        <ele>56</ele>
        <time>2018-01-30T12:36:41Z</time>
      </trkpt>
      <trkpt lat="62.638870180547" lon="17.98266656135">
        <ele>56.2</ele>
        <time>2018-01-30T12:36:42Z</time>
      </trkpt>
      <trkpt lat="62.638876718429" lon="17.982603445643">
        <ele>56.2</ele>
        <time>2018-01-30T12:36:43Z</time>
      </trkpt>
      <trkpt lat="62.638885351786" lon="17.982541251945">
        <ele>56.4</ele>
        <time>2018-01-30T12:36:44Z</time>
      </trkpt>
      <trkpt lat="62.638904378699" lon="17.982475956944">
        <ele>56.2</ele>
        <time>2018-01-30T12:36:45Z</time>
      </trkpt>
      <trkpt lat="62.638916532454" lon="17.982421642232">
        <ele>56.2</ele>
        <time>2018-01-30T12:36:46Z</time>
      </trkpt>
      <trkpt lat="62.638921980689" lon="17.982334889567">
        <ele>56.2</ele>
        <time>2018-01-30T12:36:47Z</time>
      </trkpt>
      <trkpt lat="62.638940420869" lon="17.982266157987">
        <ele>56.2</ele>
        <time>2018-01-30T12:36:48Z</time>
      </trkpt>
      <trkpt lat="62.638962297628" lon="17.982204802479">
        <ele>56.2</ele>
        <time>2018-01-30T12:36:49Z</time>
      </trkpt>
      <trkpt lat="62.638986018405" lon="17.982133807786">
        <ele>56.2</ele>
        <time>2018-01-30T12:36:50Z</time>
      </trkpt>
      <trkpt lat="62.639008398078" lon="17.982058286867">
        <ele>56.2</ele>
        <time>2018-01-30T12:36:51Z</time>
      </trkpt>
      <trkpt lat="62.63903086157" lon="17.981983101224">
        <ele>56</ele>
        <time>2018-01-30T12:36:52Z</time>
      </trkpt>
      <trkpt lat="62.639055420537" lon="17.981912777083">
        <ele>55.8</ele>
        <time>2018-01-30T12:36:53Z</time>
      </trkpt>
      <trkpt lat="62.639082913169" lon="17.981835663603">
        <ele>55.6</ele>
        <time>2018-01-30T12:36:54Z</time>
      </trkpt>
      <trkpt lat="62.639099928426" lon="17.981755365001">
        <ele>55.4</ele>
        <time>2018-01-30T12:36:55Z</time>
      </trkpt>
      <trkpt lat="62.639113423285" lon="17.981672048915">
        <ele>55.4</ele>
        <time>2018-01-30T12:36:56Z</time>
      </trkpt>
      <trkpt lat="62.639124655031" lon="17.981587643182">
        <ele>55.4</ele>
        <time>2018-01-30T12:36:57Z</time>
      </trkpt>
      <trkpt lat="62.639134461854" lon="17.981509440055">
        <ele>55.2</ele>
        <time>2018-01-30T12:36:58Z</time>
      </trkpt>
      <trkpt lat="62.639163798504" lon="17.981450766755">
        <ele>55.2</ele>
        <time>2018-01-30T12:36:59Z</time>
      </trkpt>
      <trkpt lat="62.639203109615" lon="17.981373988551">
        <ele>55.2</ele>
        <time>2018-01-30T12:37:00Z</time>
      </trkpt>
      <trkpt lat="62.639232949179" lon="17.98130617898">
        <ele>55</ele>
        <time>2018-01-30T12:37:01Z</time>
      </trkpt>
      <trkpt lat="62.639262285829" lon="17.98123325645">
        <ele>54.8</ele>
        <time>2018-01-30T12:37:02Z</time>
      </trkpt>
      <trkpt lat="62.639293047402" lon="17.981161842662">
        <ele>54.4</ele>
        <time>2018-01-30T12:37:03Z</time>
      </trkpt>
      <trkpt lat="62.639318696016" lon="17.981096212385">
        <ele>54</ele>
        <time>2018-01-30T12:37:04Z</time>
      </trkpt>
      <trkpt lat="62.639360102602" lon="17.981017171068">
        <ele>53.6</ele>
        <time>2018-01-30T12:37:05Z</time>
      </trkpt>
      <trkpt lat="62.639393630202" lon="17.980947936574">
        <ele>53.4</ele>
        <time>2018-01-30T12:37:06Z</time>
      </trkpt>
      <trkpt lat="62.639413579124" lon="17.980918180829">
        <ele>53.2</ele>
        <time>2018-01-30T12:37:07Z</time>
      </trkpt>
      <trkpt lat="62.639449872751" lon="17.980818855314">
        <ele>53.2</ele>
        <time>2018-01-30T12:37:08Z</time>
      </trkpt>
      <trkpt lat="62.639470324587" lon="17.980735120133">
        <ele>53</ele>
        <time>2018-01-30T12:37:09Z</time>
      </trkpt>
      <trkpt lat="62.639493374812" lon="17.980652642237">
        <ele>53</ele>
        <time>2018-01-30T12:37:10Z</time>
      </trkpt>
      <trkpt lat="62.639509132784" lon="17.980552981446">
        <ele>53</ele>
        <time>2018-01-30T12:37:11Z</time>
      </trkpt>
      <trkpt lat="62.639532350647" lon="17.980462289288">
        <ele>52.8</ele>
        <time>2018-01-30T12:37:12Z</time>
      </trkpt>
      <trkpt lat="62.639554646501" lon="17.980349133638">
        <ele>53</ele>
        <time>2018-01-30T12:37:13Z</time>
      </trkpt>
      <trkpt lat="62.639574260147" lon="17.980261458964">
        <ele>52.8</ele>
        <time>2018-01-30T12:37:14Z</time>
      </trkpt>
      <trkpt lat="62.63958825792" lon="17.980178645792">
        <ele>52.2</ele>
        <time>2018-01-30T12:37:15Z</time>
      </trkpt>
      <trkpt lat="62.639603429159" lon="17.980092982774">
        <ele>51.8</ele>
        <time>2018-01-30T12:37:16Z</time>
      </trkpt>
      <trkpt lat="62.639602758607" lon="17.980007655032">
        <ele>51.8</ele>
        <time>2018-01-30T12:37:17Z</time>
      </trkpt>
      <trkpt lat="62.639614828543" lon="17.979895421391">
        <ele>51.6</ele>
        <time>2018-01-30T12:37:18Z</time>
      </trkpt>
      <trkpt lat="62.639622875167" lon="17.97981168621">
        <ele>51.6</ele>
        <time>2018-01-30T12:37:19Z</time>
      </trkpt>
      <trkpt lat="62.639640141881" lon="17.979751420349">
        <ele>51.8</ele>
        <time>2018-01-30T12:37:20Z</time>
      </trkpt>
      <trkpt lat="62.639659755527" lon="17.979670199738">
        <ele>52</ele>
        <time>2018-01-30T12:37:21Z</time>
      </trkpt>
      <trkpt lat="62.639669227074" lon="17.979617477587">
        <ele>52</ele>
        <time>2018-01-30T12:37:22Z</time>
      </trkpt>
      <trkpt lat="62.639704011959" lon="17.979538603908">
        <ele>51.8</ele>
        <time>2018-01-30T12:37:23Z</time>
      </trkpt>
      <trkpt lat="62.639734270618" lon="17.97948143935">
        <ele>51.6</ele>
        <time>2018-01-30T12:37:24Z</time>
      </trkpt>
      <trkpt lat="62.639751369694" lon="17.979423520421">
        <ele>51.6</ele>
        <time>2018-01-30T12:37:25Z</time>
      </trkpt>
      <trkpt lat="62.639779784335" lon="17.979341964534">
        <ele>51.4</ele>
        <time>2018-01-30T12:37:26Z</time>
      </trkpt>
      <trkpt lat="62.639819095446" lon="17.979268203814">
        <ele>51.4</ele>
        <time>2018-01-30T12:37:27Z</time>
      </trkpt>
      <trkpt lat="62.639844324965" lon="17.979183127529">
        <ele>51.4</ele>
        <time>2018-01-30T12:37:28Z</time>
      </trkpt>
      <trkpt lat="62.639869303027" lon="17.979129231912">
        <ele>51.2</ele>
        <time>2018-01-30T12:37:29Z</time>
      </trkpt>
      <trkpt lat="62.639894951641" lon="17.979071145345">
        <ele>51.2</ele>
        <time>2018-01-30T12:37:30Z</time>
      </trkpt>
      <trkpt lat="62.63993107763" lon="17.978995121512">
        <ele>51.2</ele>
        <time>2018-01-30T12:37:31Z</time>
      </trkpt>
      <trkpt lat="62.639956055692" lon="17.978932089624">
        <ele>51.2</ele>
        <time>2018-01-30T12:37:32Z</time>
      </trkpt>
      <trkpt lat="62.639989834749" lon="17.978883642242">
        <ele>51</ele>
        <time>2018-01-30T12:37:33Z</time>
      </trkpt>
      <trkpt lat="62.640020009589" lon="17.978845420778">
        <ele>50.6</ele>
        <time>2018-01-30T12:37:34Z</time>
      </trkpt>
      <trkpt lat="62.640065523306" lon="17.978804852382">
        <ele>50.2</ele>
        <time>2018-01-30T12:37:35Z</time>
      </trkpt>
      <trkpt lat="62.640118245457" lon="17.978734779698">
        <ele>50</ele>
        <time>2018-01-30T12:37:36Z</time>
      </trkpt>
      <trkpt lat="62.640160657871" lon="17.978690858542">
        <ele>49.6</ele>
        <time>2018-01-30T12:37:37Z</time>
      </trkpt>
      <trkpt lat="62.640191000349" lon="17.978632939613">
        <ele>49</ele>
        <time>2018-01-30T12:37:38Z</time>
      </trkpt>
      <trkpt lat="62.640232909849" lon="17.97857367958">
        <ele>48.4</ele>
        <time>2018-01-30T12:37:39Z</time>
      </trkpt>
      <trkpt lat="62.640267108001" lon="17.97850830076">
        <ele>48</ele>
        <time>2018-01-30T12:37:40Z</time>
      </trkpt>
      <trkpt lat="62.640308346949" lon="17.978445017415">
        <ele>47.4</ele>
        <time>2018-01-30T12:37:41Z</time>
      </trkpt>
      <trkpt lat="62.640349753535" lon="17.978381817889">
        <ele>47</ele>
        <time>2018-01-30T12:37:42Z</time>
      </trkpt>
      <trkpt lat="62.64038872937" lon="17.978332616136">
        <ele>46.6</ele>
        <time>2018-01-30T12:37:43Z</time>
      </trkpt>
      <trkpt lat="62.640426028825" lon="17.978271512085">
        <ele>46.6</ele>
        <time>2018-01-30T12:37:44Z</time>
      </trkpt>
      <trkpt lat="62.640461484262" lon="17.97822415435">
        <ele>46.6</ele>
        <time>2018-01-30T12:37:45Z</time>
      </trkpt>
      <trkpt lat="62.640505153961" lon="17.978179143547">
        <ele>46.8</ele>
        <time>2018-01-30T12:37:46Z</time>
      </trkpt>
      <trkpt lat="62.640533652421" lon="17.978134803296">
        <ele>47</ele>
        <time>2018-01-30T12:37:47Z</time>
      </trkpt>
      <trkpt lat="62.640580423423" lon="17.978082584059">
        <ele>47</ele>
        <time>2018-01-30T12:37:48Z</time>
      </trkpt>
      <trkpt lat="62.640621243276" lon="17.978018378705">
        <ele>47</ele>
        <time>2018-01-30T12:37:49Z</time>
      </trkpt>
      <trkpt lat="62.640646137519" lon="17.977969428409">
        <ele>46.8</ele>
        <time>2018-01-30T12:37:50Z</time>
      </trkpt>
      <trkpt lat="62.640692657064" lon="17.977899188087">
        <ele>46.6</ele>
        <time>2018-01-30T12:37:51Z</time>
      </trkpt>
      <trkpt lat="62.640722915723" lon="17.977832384344">
        <ele>46.4</ele>
        <time>2018-01-30T12:37:52Z</time>
      </trkpt>
      <trkpt lat="62.640758203522" lon="17.977763233669">
        <ele>46</ele>
        <time>2018-01-30T12:37:53Z</time>
      </trkpt>
      <trkpt lat="62.640794748606" lon="17.977680001402">
        <ele>45.4</ele>
        <time>2018-01-30T12:37:54Z</time>
      </trkpt>
      <trkpt lat="62.640827018921" lon="17.977621747197">
        <ele>44.8</ele>
        <time>2018-01-30T12:37:55Z</time>
      </trkpt>
      <trkpt lat="62.640865408023" lon="17.977547148287">
        <ele>44.4</ele>
        <time>2018-01-30T12:37:56Z</time>
      </trkpt>
      <trkpt lat="62.640901617831" lon="17.977478919621">
        <ele>43.6</ele>
        <time>2018-01-30T12:37:57Z</time>
      </trkpt>
      <trkpt lat="62.640939755476" lon="17.97740188996">
        <ele>43</ele>
        <time>2018-01-30T12:37:58Z</time>
      </trkpt>
      <trkpt lat="62.640970600868" lon="17.977327374869">
        <ele>42.8</ele>
        <time>2018-01-30T12:37:59Z</time>
      </trkpt>
      <trkpt lat="62.64100312264" lon="17.97724850119">
        <ele>42.4</ele>
        <time>2018-01-30T12:38:00Z</time>
      </trkpt>
      <trkpt lat="62.641038997172" lon="17.97716132943">
        <ele>42.2</ele>
        <time>2018-01-30T12:38:01Z</time>
      </trkpt>
      <trkpt lat="62.641069591107" lon="17.977080611733">
        <ele>42</ele>
        <time>2018-01-30T12:38:02Z</time>
      </trkpt>
      <trkpt lat="62.641106471467" lon="17.977012299248">
        <ele>41.8</ele>
        <time>2018-01-30T12:38:03Z</time>
      </trkpt>
      <trkpt lat="62.641141004895" lon="17.976944741134">
        <ele>41.6</ele>
        <time>2018-01-30T12:38:04Z</time>
      </trkpt>
      <trkpt lat="62.641177298522" lon="17.976905513842">
        <ele>41.8</ele>
        <time>2018-01-30T12:38:05Z</time>
      </trkpt>
      <trkpt lat="62.641231697053" lon="17.976850863854">
        <ele>41.6</ele>
        <time>2018-01-30T12:38:06Z</time>
      </trkpt>
      <trkpt lat="62.641281988453" lon="17.976826137249">
        <ele>41.4</ele>
        <time>2018-01-30T12:38:07Z</time>
      </trkpt>
      <trkpt lat="62.641335632613" lon="17.976807864707">
        <ele>41</ele>
        <time>2018-01-30T12:38:08Z</time>
      </trkpt>
      <trkpt lat="62.641392797171" lon="17.976789592165">
        <ele>40.4</ele>
        <time>2018-01-30T12:38:09Z</time>
      </trkpt>
      <trkpt lat="62.641446692788" lon="17.976765452293">
        <ele>40.2</ele>
        <time>2018-01-30T12:38:10Z</time>
      </trkpt>
      <trkpt lat="62.641499917853" lon="17.97673552891">
        <ele>39.8</ele>
        <time>2018-01-30T12:38:11Z</time>
      </trkpt>
      <trkpt lat="62.64155884261" lon="17.976696217799">
        <ele>39.6</ele>
        <time>2018-01-30T12:38:12Z</time>
      </trkpt>
      <trkpt lat="62.641613576417" lon="17.97665338629">
        <ele>39.4</ele>
        <time>2018-01-30T12:38:13Z</time>
      </trkpt>
      <trkpt lat="62.641665879473" lon="17.976606363831">
        <ele>39</ele>
        <time>2018-01-30T12:38:14Z</time>
      </trkpt>
      <trkpt lat="62.641715416502" lon="17.976546600884">
        <ele>38.6</ele>
        <time>2018-01-30T12:38:15Z</time>
      </trkpt>
      <trkpt lat="62.641771407594" lon="17.976488179041">
        <ele>38.2</ele>
        <time>2018-01-30T12:38:16Z</time>
      </trkpt>
      <trkpt lat="62.641832176369" lon="17.976398827987">
        <ele>37.6</ele>
        <time>2018-01-30T12:38:17Z</time>
      </trkpt>
      <trkpt lat="62.641887245452" lon="17.976322049783">
        <ele>37</ele>
        <time>2018-01-30T12:38:18Z</time>
      </trkpt>
      <trkpt lat="62.64194105725" lon="17.976245606855">
        <ele>36.2</ele>
        <time>2018-01-30T12:38:19Z</time>
      </trkpt>
      <trkpt lat="62.641987660614" lon="17.976171259402">
        <ele>35.6</ele>
        <time>2018-01-30T12:38:20Z</time>
      </trkpt>
      <trkpt lat="62.642046082457" lon="17.976077382122">
        <ele>35</ele>
        <time>2018-01-30T12:38:21Z</time>
      </trkpt>
      <trkpt lat="62.642095116572" lon="17.975991886742">
        <ele>34.4</ele>
        <time>2018-01-30T12:38:22Z</time>
      </trkpt>
      <trkpt lat="62.642141552298" lon="17.975906307543">
        <ele>33.8</ele>
        <time>2018-01-30T12:38:23Z</time>
      </trkpt>
      <trkpt lat="62.642190921689" lon="17.97583196009">
        <ele>33.4</ele>
        <time>2018-01-30T12:38:24Z</time>
      </trkpt>
      <trkpt lat="62.642234926664" lon="17.975780662862">
        <ele>32.8</ele>
        <time>2018-01-30T12:38:25Z</time>
      </trkpt>
      <trkpt lat="62.642287900272" lon="17.975722408657">
        <ele>32.4</ele>
        <time>2018-01-30T12:38:26Z</time>
      </trkpt>
      <trkpt lat="62.642336766749" lon="17.975657784208">
        <ele>31.8</ele>
        <time>2018-01-30T12:38:27Z</time>
      </trkpt>
      <trkpt lat="62.642392506384" lon="17.975574887217">
        <ele>31</ele>
        <time>2018-01-30T12:38:28Z</time>
      </trkpt>
      <trkpt lat="62.642432823323" lon="17.975476399892">
        <ele>30.6</ele>
        <time>2018-01-30T12:38:29Z</time>
      </trkpt>
      <trkpt lat="62.642477750307" lon="17.975377242015">
        <ele>30</ele>
        <time>2018-01-30T12:38:30Z</time>
      </trkpt>
      <trkpt lat="62.642511194088" lon="17.975257464664">
        <ele>29.2</ele>
        <time>2018-01-30T12:38:31Z</time>
      </trkpt>
      <trkpt lat="62.64254623043" lon="17.975159228796">
        <ele>28.6</ele>
        <time>2018-01-30T12:38:32Z</time>
      </trkpt>
      <trkpt lat="62.642582775514" lon="17.975049593544">
        <ele>27.8</ele>
        <time>2018-01-30T12:38:33Z</time>
      </trkpt>
      <trkpt lat="62.642613956182" lon="17.974948424011">
        <ele>27.2</ele>
        <time>2018-01-30T12:38:34Z</time>
      </trkpt>
      <trkpt lat="62.642633988923" lon="17.974865443201">
        <ele>26.8</ele>
        <time>2018-01-30T12:38:35Z</time>
      </trkpt>
      <trkpt lat="62.642672042749" lon="17.974748515696">
        <ele>26.6</ele>
        <time>2018-01-30T12:38:36Z</time>
      </trkpt>
      <trkpt lat="62.642701547037" lon="17.974646507973">
        <ele>26.2</ele>
        <time>2018-01-30T12:38:37Z</time>
      </trkpt>
      <trkpt lat="62.642725435452" lon="17.974537291816">
        <ele>26</ele>
        <time>2018-01-30T12:38:38Z</time>
      </trkpt>
      <trkpt lat="62.642746390202" lon="17.97443302098">
        <ele>25.8</ele>
        <time>2018-01-30T12:38:39Z</time>
      </trkpt>
      <trkpt lat="62.642763908373" lon="17.974342747917">
        <ele>25.4</ele>
        <time>2018-01-30T12:38:40Z</time>
      </trkpt>
      <trkpt lat="62.642783354381" lon="17.97426957393">
        <ele>25</ele>
        <time>2018-01-30T12:38:41Z</time>
      </trkpt>
      <trkpt lat="62.642806320787" lon="17.974161866515">
        <ele>24.8</ele>
        <time>2018-01-30T12:38:42Z</time>
      </trkpt>
      <trkpt lat="62.642817468714" lon="17.974082238465">
        <ele>24.8</ele>
        <time>2018-01-30T12:38:43Z</time>
      </trkpt>
      <trkpt lat="62.642819312732" lon="17.973977632353">
        <ele>25</ele>
        <time>2018-01-30T12:38:44Z</time>
      </trkpt>
      <trkpt lat="62.642842279138" lon="17.973876211363">
        <ele>25.2</ele>
        <time>2018-01-30T12:38:45Z</time>
      </trkpt>
      <trkpt lat="62.642860803137" lon="17.973762301342">
        <ele>25.4</ele>
        <time>2018-01-30T12:38:46Z</time>
      </trkpt>
      <trkpt lat="62.642859294395" lon="17.973651911719">
        <ele>25.2</ele>
        <time>2018-01-30T12:38:47Z</time>
      </trkpt>
      <trkpt lat="62.642884523914" lon="17.97354370139">
        <ele>25</ele>
        <time>2018-01-30T12:38:48Z</time>
      </trkpt>
      <trkpt lat="62.642882512258" lon="17.97344311859">
        <ele>24.8</ele>
        <time>2018-01-30T12:38:49Z</time>
      </trkpt>
      <trkpt lat="62.642884691552" lon="17.973358796676">
        <ele>24.8</ele>
        <time>2018-01-30T12:38:50Z</time>
      </trkpt>
      <trkpt lat="62.642895420384" lon="17.973265087034">
        <ele>24.6</ele>
        <time>2018-01-30T12:38:51Z</time>
      </trkpt>
      <trkpt lat="62.642878237489" lon="17.973153775402">
        <ele>24.8</ele>
        <time>2018-01-30T12:38:52Z</time>
      </trkpt>
      <trkpt lat="62.642858120929" lon="17.973087223116">
        <ele>24.6</ele>
        <time>2018-01-30T12:38:53Z</time>
      </trkpt>
      <trkpt lat="62.642851247771" lon="17.973005164315">
        <ele>24.6</ele>
        <time>2018-01-30T12:38:54Z</time>
      </trkpt>
      <trkpt lat="62.642837166179" lon="17.972936684192">
        <ele>24.8</ele>
        <time>2018-01-30T12:38:55Z</time>
      </trkpt>
      <trkpt lat="62.642826940261" lon="17.972876753607">
        <ele>24.4</ele>
        <time>2018-01-30T12:38:56Z</time>
      </trkpt>
      <trkpt lat="62.642817971628" lon="17.972837861591">
        <ele>24.6</ele>
        <time>2018-01-30T12:38:57Z</time>
      </trkpt>
      <trkpt lat="62.642804225312" lon="17.972783379241">
        <ele>24.6</ele>
        <time>2018-01-30T12:38:58Z</time>
      </trkpt>
      <trkpt lat="62.642796430145" lon="17.972740128637">
        <ele>24.6</ele>
        <time>2018-01-30T12:38:59Z</time>
      </trkpt>
      <trkpt lat="62.642780504535" lon="17.972699727879">
        <ele>24.8</ele>
        <time>2018-01-30T12:39:00Z</time>
      </trkpt>
      <trkpt lat="62.642766087667" lon="17.972647424823">
        <ele>25</ele>
        <time>2018-01-30T12:39:01Z</time>
      </trkpt>
      <trkpt lat="62.642753179541" lon="17.972588248609">
        <ele>25.2</ele>
        <time>2018-01-30T12:39:02Z</time>
      </trkpt>
      <trkpt lat="62.642742618347" lon="17.97255128443">
        <ele>25.4</ele>
        <time>2018-01-30T12:39:03Z</time>
      </trkpt>
      <trkpt lat="62.642730883687" lon="17.972474506226">
        <ele>25.6</ele>
        <time>2018-01-30T12:39:04Z</time>
      </trkpt>
      <trkpt lat="62.642723172339" lon="17.97242555593">
        <ele>25.6</ele>
        <time>2018-01-30T12:39:05Z</time>
      </trkpt>
      <trkpt lat="62.642710348032" lon="17.972369145743">
        <ele>25.8</ele>
        <time>2018-01-30T12:39:06Z</time>
      </trkpt>
      <trkpt lat="62.642695344431" lon="17.972285326743">
        <ele>25.8</ele>
        <time>2018-01-30T12:39:07Z</time>
      </trkpt>
      <trkpt lat="62.642682352486" lon="17.972224893244">
        <ele>25.8</ele>
        <time>2018-01-30T12:39:08Z</time>
      </trkpt>
      <trkpt lat="62.642671372197" lon="17.972171081446">
        <ele>25.8</ele>
        <time>2018-01-30T12:39:09Z</time>
      </trkpt>
      <trkpt lat="62.642660308089" lon="17.972104361522">
        <ele>25.8</ele>
        <time>2018-01-30T12:39:10Z</time>
      </trkpt>
      <trkpt lat="62.642642957556" lon="17.972046777869">
        <ele>26</ele>
        <time>2018-01-30T12:39:11Z</time>
      </trkpt>
      <trkpt lat="62.642634156561" lon="17.971957510634">
        <ele>26</ele>
        <time>2018-01-30T12:39:12Z</time>
      </trkpt>
      <trkpt lat="62.64262334391" lon="17.971895065479">
        <ele>26</ele>
        <time>2018-01-30T12:39:13Z</time>
      </trkpt>
      <trkpt lat="62.642632480181" lon="17.971845696088">
        <ele>26</ele>
        <time>2018-01-30T12:39:14Z</time>
      </trkpt>
      <trkpt lat="62.642649914533" lon="17.971819963655">
        <ele>26</ele>
        <time>2018-01-30T12:39:15Z</time>
      </trkpt>
      <trkpt lat="62.642672880939" lon="17.97180613352">
        <ele>26</ele>
        <time>2018-01-30T12:39:16Z</time>
      </trkpt>
      <trkpt lat="62.642698529553" lon="17.971825747166">
        <ele>26.2</ele>
        <time>2018-01-30T12:39:17Z</time>
      </trkpt>
      <trkpt lat="62.642723759072" lon="17.971885007199">
        <ele>26</ele>
        <time>2018-01-30T12:39:18Z</time>
      </trkpt>
      <trkpt lat="62.642741863976" lon="17.971945021603">
        <ele>26</ele>
        <time>2018-01-30T12:39:19Z</time>
      </trkpt>
      <trkpt lat="62.642760136518" lon="17.972000761238">
        <ele>26</ele>
        <time>2018-01-30T12:39:20Z</time>
      </trkpt>
      <trkpt lat="62.642779917802" lon="17.972062703479">
        <ele>26</ele>
        <time>2018-01-30T12:39:21Z</time>
      </trkpt>
      <trkpt lat="62.64279768743" lon="17.972142499167">
        <ele>26</ele>
        <time>2018-01-30T12:39:22Z</time>
      </trkpt>
      <trkpt lat="62.64281528942" lon="17.972202932666">
        <ele>25.8</ele>
        <time>2018-01-30T12:39:23Z</time>
      </trkpt>
      <trkpt lat="62.642827191718" lon="17.972263701441">
        <ele>25.6</ele>
        <time>2018-01-30T12:39:24Z</time>
      </trkpt>
      <trkpt lat="62.642838842559" lon="17.972334277039">
        <ele>25.2</ele>
        <time>2018-01-30T12:39:25Z</time>
      </trkpt>
      <trkpt lat="62.642864826449" lon="17.97238532281">
        <ele>25.2</ele>
        <time>2018-01-30T12:39:26Z</time>
      </trkpt>
      <trkpt lat="62.642875555281" lon="17.972476350244">
        <ele>25</ele>
        <time>2018-01-30T12:39:27Z</time>
      </trkpt>
      <trkpt lat="62.642893324909" lon="17.972534772087">
        <ele>24.8</ele>
        <time>2018-01-30T12:39:28Z</time>
      </trkpt>
      <trkpt lat="62.642900281886" lon="17.972616160336">
        <ele>24.8</ele>
        <time>2018-01-30T12:39:29Z</time>
      </trkpt>
      <trkpt lat="62.642919727894" lon="17.972709283245">
        <ele>24.8</ele>
        <time>2018-01-30T12:39:30Z</time>
      </trkpt>
      <trkpt lat="62.642930289088" lon="17.972801987059">
        <ele>24.6</ele>
        <time>2018-01-30T12:39:31Z</time>
      </trkpt>
      <trkpt lat="62.642944286861" lon="17.972888655905">
        <ele>24.4</ele>
        <time>2018-01-30T12:39:32Z</time>
      </trkpt>
      <trkpt lat="62.642951830571" lon="17.972972894">
        <ele>24.4</ele>
        <time>2018-01-30T12:39:33Z</time>
      </trkpt>
      <trkpt lat="62.642963732869" lon="17.973059143751">
        <ele>24.4</ele>
        <time>2018-01-30T12:39:34Z</time>
      </trkpt>
      <trkpt lat="62.64296784" lon="17.973119828707">
        <ele>24.2</ele>
        <time>2018-01-30T12:39:35Z</time>
      </trkpt>
      <trkpt lat="62.642985609628" lon="17.973225943561">
        <ele>24.2</ele>
        <time>2018-01-30T12:39:36Z</time>
      </trkpt>
      <trkpt lat="62.642999858858" lon="17.973281934653">
        <ele>24</ele>
        <time>2018-01-30T12:39:37Z</time>
      </trkpt>
      <trkpt lat="62.642999942677" lon="17.973373381182">
        <ele>24</ele>
        <time>2018-01-30T12:39:38Z</time>
      </trkpt>
      <trkpt lat="62.643008240758" lon="17.97344479497">
        <ele>24</ele>
        <time>2018-01-30T12:39:39Z</time>
      </trkpt>
      <trkpt lat="62.643022741445" lon="17.97350263008">
        <ele>24</ele>
        <time>2018-01-30T12:39:40Z</time>
      </trkpt>
      <trkpt lat="62.643033302639" lon="17.973577731904">
        <ele>24</ele>
        <time>2018-01-30T12:39:41Z</time>
      </trkpt>
      <trkpt lat="62.643043193281" lon="17.973644200371">
        <ele>23.8</ele>
        <time>2018-01-30T12:39:42Z</time>
      </trkpt>
      <trkpt lat="62.643043109462" lon="17.973720810937">
        <ele>23.8</ele>
        <time>2018-01-30T12:39:43Z</time>
      </trkpt>
      <trkpt lat="62.643055766131" lon="17.973796499494">
        <ele>23.8</ele>
        <time>2018-01-30T12:39:44Z</time>
      </trkpt>
      <trkpt lat="62.643056939597" lon="17.973861878314">
        <ele>23.8</ele>
        <time>2018-01-30T12:39:45Z</time>
      </trkpt>
      <trkpt lat="62.643063812755" lon="17.973936309586">
        <ele>23.4</ele>
        <time>2018-01-30T12:39:46Z</time>
      </trkpt>
      <trkpt lat="62.643067333153" lon="17.973989869927">
        <ele>23.6</ele>
        <time>2018-01-30T12:39:47Z</time>
      </trkpt>
      <trkpt lat="62.643073032845" lon="17.974071258176">
        <ele>23.4</ele>
        <time>2018-01-30T12:39:48Z</time>
      </trkpt>
      <trkpt lat="62.643077726709" lon="17.974104618138">
        <ele>23.4</ele>
        <time>2018-01-30T12:39:49Z</time>
      </trkpt>
      <trkpt lat="62.643068255162" lon="17.974177289211">
        <ele>23.4</ele>
        <time>2018-01-30T12:39:50Z</time>
      </trkpt>
      <trkpt lat="62.643061465823" lon="17.974266807903">
        <ele>23.4</ele>
        <time>2018-01-30T12:39:51Z</time>
      </trkpt>
      <trkpt lat="62.64305249719" lon="17.974327911954">
        <ele>23.4</ele>
        <time>2018-01-30T12:39:52Z</time>
      </trkpt>
      <trkpt lat="62.643043696195" lon="17.974389518919">
        <ele>23.2</ele>
        <time>2018-01-30T12:39:53Z</time>
      </trkpt>
      <trkpt lat="62.643049814982" lon="17.97445900487">
        <ele>23.4</ele>
        <time>2018-01-30T12:39:54Z</time>
      </trkpt>
      <trkpt lat="62.643039337607" lon="17.974521198568">
        <ele>23.2</ele>
        <time>2018-01-30T12:39:55Z</time>
      </trkpt>
      <trkpt lat="62.643045037299" lon="17.97458054242">
        <ele>23.2</ele>
        <time>2018-01-30T12:39:56Z</time>
      </trkpt>
      <trkpt lat="62.64303154244" lon="17.974653632588">
        <ele>23.2</ele>
        <time>2018-01-30T12:39:57Z</time>
      </trkpt>
      <trkpt lat="62.643030033698" lon="17.97471213825">
        <ele>23.4</ele>
        <time>2018-01-30T12:39:58Z</time>
      </trkpt>
      <trkpt lat="62.643026680938" lon="17.974769302808">
        <ele>23.4</ele>
        <time>2018-01-30T12:39:59Z</time>
      </trkpt>
      <trkpt lat="62.643026597119" lon="17.974833005248">
        <ele>23.4</ele>
        <time>2018-01-30T12:40:00Z</time>
      </trkpt>
      <trkpt lat="62.643033554096" lon="17.97489067272">
        <ele>23.2</ele>
        <time>2018-01-30T12:40:01Z</time>
      </trkpt>
      <trkpt lat="62.643028441137" lon="17.974994692099">
        <ele>23.2</ele>
        <time>2018-01-30T12:40:02Z</time>
      </trkpt>
      <trkpt lat="62.643028692594" lon="17.975062250213">
        <ele>23.2</ele>
        <time>2018-01-30T12:40:03Z</time>
      </trkpt>
      <trkpt lat="62.643022070893" lon="17.97512536592">
        <ele>23.2</ele>
        <time>2018-01-30T12:40:04Z</time>
      </trkpt>
      <trkpt lat="62.643009917138" lon="17.975199378097">
        <ele>23.2</ele>
        <time>2018-01-30T12:40:05Z</time>
      </trkpt>
      <trkpt lat="62.64300555855" lon="17.975283951468">
        <ele>23</ele>
        <time>2018-01-30T12:40:06Z</time>
      </trkpt>
      <trkpt lat="62.642981502497" lon="17.975341870397">
        <ele>23</ele>
        <time>2018-01-30T12:40:07Z</time>
      </trkpt>
      <trkpt lat="62.642964319602" lon="17.975397945308">
        <ele>23.2</ele>
        <time>2018-01-30T12:40:08Z</time>
      </trkpt>
      <trkpt lat="62.642957697901" lon="17.975426862863">
        <ele>23.4</ele>
        <time>2018-01-30T12:40:09Z</time>
      </trkpt>
      <trkpt lat="62.642941604653" lon="17.975467682716">
        <ele>23.2</ele>
        <time>2018-01-30T12:40:10Z</time>
      </trkpt>
      <trkpt lat="62.642923080654" lon="17.975516213917">
        <ele>23.2</ele>
        <time>2018-01-30T12:40:11Z</time>
      </trkpt>
      <trkpt lat="62.642910759261" lon="17.975571618276">
        <ele>23.4</ele>
        <time>2018-01-30T12:40:12Z</time>
      </trkpt>
      <trkpt lat="62.642907993234" lon="17.97561822164">
        <ele>23.4</ele>
        <time>2018-01-30T12:40:13Z</time>
      </trkpt>
      <trkpt lat="62.642896174755" lon="17.975673625999">
        <ele>23.4</ele>
        <time>2018-01-30T12:40:14Z</time>
      </trkpt>
      <trkpt lat="62.642895671841" lon="17.975711596006">
        <ele>23.6</ele>
        <time>2018-01-30T12:40:15Z</time>
      </trkpt>
      <trkpt lat="62.642890558882" lon="17.975761887406">
        <ele>23.6</ele>
        <time>2018-01-30T12:40:16Z</time>
      </trkpt>
      <trkpt lat="62.642883098991" lon="17.975834307022">
        <ele>23.6</ele>
        <time>2018-01-30T12:40:17Z</time>
      </trkpt>
      <trkpt lat="62.642893911642" lon="17.975889459924">
        <ele>23.8</ele>
        <time>2018-01-30T12:40:18Z</time>
      </trkpt>
      <trkpt lat="62.642883266629" lon="17.975963304463">
        <ele>23.8</ele>
        <time>2018-01-30T12:40:19Z</time>
      </trkpt>
      <trkpt lat="62.642888547226" lon="17.97600546542">
        <ele>23.8</ele>
        <time>2018-01-30T12:40:20Z</time>
      </trkpt>
      <trkpt lat="62.642878572765" lon="17.976089871153">
        <ele>23.8</ele>
        <time>2018-01-30T12:40:21Z</time>
      </trkpt>
      <trkpt lat="62.642871867245" lon="17.976163631873">
        <ele>23.8</ele>
        <time>2018-01-30T12:40:22Z</time>
      </trkpt>
      <trkpt lat="62.642866586648" lon="17.97622004206">
        <ele>24</ele>
        <time>2018-01-30T12:40:23Z</time>
      </trkpt>
      <trkpt lat="62.642860384042" lon="17.97629715554">
        <ele>24</ele>
        <time>2018-01-30T12:40:24Z</time>
      </trkpt>
      <trkpt lat="62.64285468435" lon="17.976342250162">
        <ele>23.8</ele>
        <time>2018-01-30T12:40:25Z</time>
      </trkpt>
      <trkpt lat="62.642852588875" lon="17.976411065561">
        <ele>23.8</ele>
        <time>2018-01-30T12:40:26Z</time>
      </trkpt>
      <trkpt lat="62.642857366558" lon="17.976448784111">
        <ele>23.8</ele>
        <time>2018-01-30T12:40:27Z</time>
      </trkpt>
      <trkpt lat="62.642853427065" lon="17.976524472668">
        <ele>23.8</ele>
        <time>2018-01-30T12:40:28Z</time>
      </trkpt>
      <trkpt lat="62.642847727373" lon="17.976593371886">
        <ele>23.8</ele>
        <time>2018-01-30T12:40:29Z</time>
      </trkpt>
      <trkpt lat="62.64284714064" lon="17.976658331611">
        <ele>24</ele>
        <time>2018-01-30T12:40:30Z</time>
      </trkpt>
      <trkpt lat="62.642830041564" lon="17.976732846702">
        <ele>24</ele>
        <time>2018-01-30T12:40:31Z</time>
      </trkpt>
      <trkpt lat="62.642817636352" lon="17.976793028744">
        <ele>24</ele>
        <time>2018-01-30T12:40:32Z</time>
      </trkpt>
      <trkpt lat="62.642804057674" lon="17.976847930189">
        <ele>24</ele>
        <time>2018-01-30T12:40:33Z</time>
      </trkpt>
      <trkpt lat="62.642793077385" lon="17.976902663996">
        <ele>24</ele>
        <time>2018-01-30T12:40:34Z</time>
      </trkpt>
      <trkpt lat="62.642788551159" lon="17.976948596808">
        <ele>24</ele>
        <time>2018-01-30T12:40:35Z</time>
      </trkpt>
      <trkpt lat="62.642783186743" lon="17.976997714742">
        <ele>24.2</ele>
        <time>2018-01-30T12:40:36Z</time>
      </trkpt>
      <trkpt lat="62.642770697712" lon="17.977058148241">
        <ele>24.2</ele>
        <time>2018-01-30T12:40:37Z</time>
      </trkpt>
      <trkpt lat="62.642774301929" lon="17.977100476836">
        <ele>24.4</ele>
        <time>2018-01-30T12:40:38Z</time>
      </trkpt>
      <trkpt lat="62.642756448482" lon="17.977166861484">
        <ele>24.4</ele>
        <time>2018-01-30T12:40:39Z</time>
      </trkpt>
      <trkpt lat="62.642762902545" lon="17.97722503187">
        <ele>24.6</ele>
        <time>2018-01-30T12:40:40Z</time>
      </trkpt>
      <trkpt lat="62.642746390202" lon="17.97728538155">
        <ele>24.6</ele>
        <time>2018-01-30T12:40:41Z</time>
      </trkpt>
      <trkpt lat="62.642742785985" lon="17.977331733457">
        <ele>24.6</ele>
        <time>2018-01-30T12:40:42Z</time>
      </trkpt>
      <trkpt lat="62.642733649714" lon="17.977383952694">
        <ele>24.4</ele>
        <time>2018-01-30T12:40:43Z</time>
      </trkpt>
      <trkpt lat="62.642717807923" lon="17.977443967098">
        <ele>24.6</ele>
        <time>2018-01-30T12:40:44Z</time>
      </trkpt>
      <trkpt lat="62.642720490131" lon="17.977480260725">
        <ele>24.4</ele>
        <time>2018-01-30T12:40:45Z</time>
      </trkpt>
      <trkpt lat="62.642703223417" lon="17.977533401971">
        <ele>24.6</ele>
        <time>2018-01-30T12:40:46Z</time>
      </trkpt>
      <trkpt lat="62.642692410766" lon="17.977564415001">
        <ele>24.6</ele>
        <time>2018-01-30T12:40:47Z</time>
      </trkpt>
      <trkpt lat="62.642688219816" lon="17.977598696972">
        <ele>24.8</ele>
        <time>2018-01-30T12:40:48Z</time>
      </trkpt>
      <trkpt lat="62.642666762152" lon="17.977618645894">
        <ele>25</ele>
        <time>2018-01-30T12:40:49Z</time>
      </trkpt>
      <trkpt lat="62.642661984469" lon="17.977648234001">
        <ele>25.2</ele>
        <time>2018-01-30T12:40:50Z</time>
      </trkpt>
      <trkpt lat="62.642641951728" lon="17.977683689438">
        <ele>25.4</ele>
        <time>2018-01-30T12:40:51Z</time>
      </trkpt>
      <trkpt lat="62.642631139077" lon="17.977718390504">
        <ele>25.6</ele>
        <time>2018-01-30T12:40:52Z</time>
      </trkpt>
      <trkpt lat="62.642624433557" lon="17.977749906448">
        <ele>25.6</ele>
        <time>2018-01-30T12:40:53Z</time>
      </trkpt>
      <trkpt lat="62.642601215694" lon="17.977775303605">
        <ele>25.8</ele>
        <time>2018-01-30T12:40:54Z</time>
      </trkpt>
      <trkpt lat="62.642585038627" lon="17.977791061577">
        <ele>26</ele>
        <time>2018-01-30T12:40:55Z</time>
      </trkpt>
      <trkpt lat="62.642574980347" lon="17.977825846462">
        <ele>26</ele>
        <time>2018-01-30T12:40:56Z</time>
      </trkpt>
      <trkpt lat="62.642556037253" lon="17.977842945538">
        <ele>26.2</ele>
        <time>2018-01-30T12:40:57Z</time>
      </trkpt>
      <trkpt lat="62.642542290937" lon="17.977893823671">
        <ele>26.2</ele>
        <time>2018-01-30T12:40:58Z</time>
      </trkpt>
      <trkpt lat="62.642525191861" lon="17.977915113697">
        <ele>26.4</ele>
        <time>2018-01-30T12:40:59Z</time>
      </trkpt>
      <trkpt lat="62.642509601527" lon="17.977949982401">
        <ele>26.6</ele>
        <time>2018-01-30T12:41:00Z</time>
      </trkpt>
      <trkpt lat="62.642495184659" lon="17.977983510001">
        <ele>26.6</ele>
        <time>2018-01-30T12:41:01Z</time>
      </trkpt>
      <trkpt lat="62.642472804986" lon="17.978017456696">
        <ele>26.8</ele>
        <time>2018-01-30T12:41:02Z</time>
      </trkpt>
      <trkpt lat="62.642468111122" lon="17.978040087826">
        <ele>27</ele>
        <time>2018-01-30T12:41:03Z</time>
      </trkpt>
      <trkpt lat="62.642451263503" lon="17.97805735454">
        <ele>27</ele>
        <time>2018-01-30T12:41:04Z</time>
      </trkpt>
      <trkpt lat="62.642443719793" lon="17.97806741282">
        <ele>27</ele>
        <time>2018-01-30T12:41:05Z</time>
      </trkpt>
      <trkpt lat="62.642430057296" lon="17.978116698392">
        <ele>27</ele>
        <time>2018-01-30T12:41:06Z</time>
      </trkpt>
      <trkpt lat="62.642410108374" lon="17.978148298155">
        <ele>27</ele>
        <time>2018-01-30T12:41:07Z</time>
      </trkpt>
      <trkpt lat="62.642405917424" lon="17.978199511564">
        <ele>27.2</ele>
        <time>2018-01-30T12:41:08Z</time>
      </trkpt>
      <trkpt lat="62.6423894889" lon="17.978225495454">
        <ele>27.4</ele>
        <time>2018-01-30T12:41:09Z</time>
      </trkpt>
      <trkpt lat="62.642371719272" lon="17.978256173208">
        <ele>27.6</ele>
        <time>2018-01-30T12:41:10Z</time>
      </trkpt>
      <trkpt lat="62.642365768123" lon="17.978282157098">
        <ele>27.8</ele>
        <time>2018-01-30T12:41:11Z</time>
      </trkpt>
      <trkpt lat="62.64235428492" lon="17.978326832625">
        <ele>28</ele>
        <time>2018-01-30T12:41:12Z</time>
      </trkpt>
      <trkpt lat="62.642332994894" lon="17.97833982457">
        <ele>28.2</ele>
        <time>2018-01-30T12:41:13Z</time>
      </trkpt>
      <trkpt lat="62.642334671274" lon="17.978380392966">
        <ele>28.2</ele>
        <time>2018-01-30T12:41:14Z</time>
      </trkpt>
      <trkpt lat="62.642316231094" lon="17.978397743499">
        <ele>28.4</ele>
        <time>2018-01-30T12:41:15Z</time>
      </trkpt>
      <trkpt lat="62.642314470895" lon="17.978429427081">
        <ele>28.4</ele>
        <time>2018-01-30T12:41:16Z</time>
      </trkpt>
      <trkpt lat="62.642287481177" lon="17.978463792871">
        <ele>28.6</ele>
        <time>2018-01-30T12:41:17Z</time>
      </trkpt>
      <trkpt lat="62.642288151729" lon="17.97850243343">
        <ele>28.6</ele>
        <time>2018-01-30T12:41:18Z</time>
      </trkpt>
      <trkpt lat="62.642270046825" lon="17.9785384756">
        <ele>28.6</ele>
        <time>2018-01-30T12:41:19Z</time>
      </trkpt>
      <trkpt lat="62.642254037396" lon="17.978556496685">
        <ele>28.6</ele>
        <time>2018-01-30T12:41:20Z</time>
      </trkpt>
      <trkpt lat="62.642242889469" lon="17.978587844991">
        <ele>28.8</ele>
        <time>2018-01-30T12:41:21Z</time>
      </trkpt>
      <trkpt lat="62.642225287479" lon="17.978618606564">
        <ele>28.8</ele>
        <time>2018-01-30T12:41:22Z</time>
      </trkpt>
      <trkpt lat="62.642205757652" lon="17.97864073478">
        <ele>28.8</ele>
        <time>2018-01-30T12:41:23Z</time>
      </trkpt>
      <trkpt lat="62.642202069616" lon="17.978687421963">
        <ele>29</ele>
        <time>2018-01-30T12:41:24Z</time>
      </trkpt>
      <trkpt lat="62.642183377979" lon="17.978711561835">
        <ele>29</ele>
        <time>2018-01-30T12:41:25Z</time>
      </trkpt>
      <trkpt lat="62.642165440713" lon="17.978729247644">
        <ele>29.2</ele>
        <time>2018-01-30T12:41:26Z</time>
      </trkpt>
      <trkpt lat="62.64215647208" lon="17.978749280385">
        <ele>29.4</ele>
        <time>2018-01-30T12:41:27Z</time>
      </trkpt>
      <trkpt lat="62.642130991104" lon="17.978756991733">
        <ele>29.6</ele>
        <time>2018-01-30T12:41:28Z</time>
      </trkpt>
      <trkpt lat="62.642109868716" lon="17.978782137433">
        <ele>29.8</ele>
        <time>2018-01-30T12:41:29Z</time>
      </trkpt>
      <trkpt lat="62.642089919794" lon="17.978790267876">
        <ele>30</ele>
        <time>2018-01-30T12:41:30Z</time>
      </trkpt>
      <trkpt lat="62.642069048863" lon="17.978805522934">
        <ele>30.2</ele>
        <time>2018-01-30T12:41:31Z</time>
      </trkpt>
      <trkpt lat="62.642066534293" lon="17.978802421631">
        <ele>30.4</ele>
        <time>2018-01-30T12:41:32Z</time>
      </trkpt>
      <trkpt lat="62.642058822945" lon="17.978809546246">
        <ele>30.6</ele>
        <time>2018-01-30T12:41:33Z</time>
      </trkpt>
      <trkpt lat="62.642037030005" lon="17.978815413576">
        <ele>30.8</ele>
        <time>2018-01-30T12:41:34Z</time>
      </trkpt>
      <trkpt lat="62.642022194042" lon="17.978815162119">
        <ele>30.8</ele>
        <time>2018-01-30T12:41:35Z</time>
      </trkpt>
      <trkpt lat="62.642004424414" lon="17.978842822389">
        <ele>31</ele>
        <time>2018-01-30T12:41:36Z</time>
      </trkpt>
      <trkpt lat="62.641974668669" lon="17.978847600072">
        <ele>31.2</ele>
        <time>2018-01-30T12:41:37Z</time>
      </trkpt>
      <trkpt lat="62.641958156326" lon="17.978853467402">
        <ele>31.2</ele>
        <time>2018-01-30T12:41:38Z</time>
      </trkpt>
      <trkpt lat="62.641944829105" lon="17.978867548994">
        <ele>31.6</ele>
        <time>2018-01-30T12:41:39Z</time>
      </trkpt>
      <trkpt lat="62.641923874355" lon="17.978878277826">
        <ele>31.6</ele>
        <time>2018-01-30T12:41:40Z</time>
      </trkpt>
      <trkpt lat="62.641912223514" lon="17.978902166241">
        <ele>31.8</ele>
        <time>2018-01-30T12:41:41Z</time>
      </trkpt>
      <trkpt lat="62.641892945144" lon="17.978902752974">
        <ele>32</ele>
        <time>2018-01-30T12:41:42Z</time>
      </trkpt>
      <trkpt lat="62.641874253507" lon="17.978897388558">
        <ele>32</ele>
        <time>2018-01-30T12:41:43Z</time>
      </trkpt>
      <trkpt lat="62.641865117236" lon="17.978921863706">
        <ele>32.2</ele>
        <time>2018-01-30T12:41:44Z</time>
      </trkpt>
      <trkpt lat="62.641851622377" lon="17.97892320481">
        <ele>32.4</ele>
        <time>2018-01-30T12:41:45Z</time>
      </trkpt>
      <trkpt lat="62.641841731735" lon="17.978923540086">
        <ele>32.4</ele>
        <time>2018-01-30T12:41:46Z</time>
      </trkpt>
      <trkpt lat="62.641820860804" lon="17.978938459868">
        <ele>32.6</ele>
        <time>2018-01-30T12:41:47Z</time>
      </trkpt>
      <trkpt lat="62.641802923538" lon="17.978930664701">
        <ele>32.8</ele>
        <time>2018-01-30T12:41:48Z</time>
      </trkpt>
      <trkpt lat="62.641790518326" lon="17.978954553116">
        <ele>33</ele>
        <time>2018-01-30T12:41:49Z</time>
      </trkpt>
      <trkpt lat="62.641765791721" lon="17.978944411017">
        <ele>33.2</ele>
        <time>2018-01-30T12:41:50Z</time>
      </trkpt>
      <trkpt lat="62.641754308518" lon="17.978961845369">
        <ele>33.4</ele>
        <time>2018-01-30T12:41:51Z</time>
      </trkpt>
      <trkpt lat="62.641741903306" lon="17.97897098164">
        <ele>33.6</ele>
        <time>2018-01-30T12:41:52Z</time>
      </trkpt>
      <trkpt lat="62.641724888049" lon="17.97896846707">
        <ele>34</ele>
        <time>2018-01-30T12:41:53Z</time>
      </trkpt>
      <trkpt lat="62.641712650475" lon="17.978968718527">
        <ele>34.2</ele>
        <time>2018-01-30T12:41:54Z</time>
      </trkpt>
      <trkpt lat="62.641697479236" lon="17.978975675504">
        <ele>34.6</ele>
        <time>2018-01-30T12:41:55Z</time>
      </trkpt>
      <trkpt lat="62.641678619961" lon="17.97897265802">
        <ele>34.8</ele>
        <time>2018-01-30T12:41:56Z</time>
      </trkpt>
      <trkpt lat="62.641667304396" lon="17.978968802346">
        <ele>35</ele>
        <time>2018-01-30T12:41:57Z</time>
      </trkpt>
      <trkpt lat="62.641648948035" lon="17.978980369368">
        <ele>35.2</ele>
        <time>2018-01-30T12:41:58Z</time>
      </trkpt>
      <trkpt lat="62.641641069049" lon="17.978963186473">
        <ele>35.4</ele>
        <time>2018-01-30T12:41:59Z</time>
      </trkpt>
      <trkpt lat="62.641629502027" lon="17.978971987468">
        <ele>35.6</ele>
        <time>2018-01-30T12:42:00Z</time>
      </trkpt>
      <trkpt lat="62.641603099042" lon="17.978958157333">
        <ele>36</ele>
        <time>2018-01-30T12:42:01Z</time>
      </trkpt>
      <trkpt lat="62.641591029106" lon="17.978944411017">
        <ele>36.2</ele>
        <time>2018-01-30T12:42:02Z</time>
      </trkpt>
      <trkpt lat="62.641574684401" lon="17.978951284175">
        <ele>36.4</ele>
        <time>2018-01-30T12:42:03Z</time>
      </trkpt>
      <trkpt lat="62.641554903117" lon="17.978937873135">
        <ele>36.6</ele>
        <time>2018-01-30T12:42:04Z</time>
      </trkpt>
      <trkpt lat="62.641540318611" lon="17.978957319143">
        <ele>36.6</ele>
        <time>2018-01-30T12:42:05Z</time>
      </trkpt>
      <trkpt lat="62.641523135716" lon="17.978929239778">
        <ele>36.6</ele>
        <time>2018-01-30T12:42:06Z</time>
      </trkpt>
      <trkpt lat="62.641499079663" lon="17.978925300285">
        <ele>36.8</ele>
        <time>2018-01-30T12:42:07Z</time>
      </trkpt>
      <trkpt lat="62.641477035266" lon="17.9789156611">
        <ele>37</ele>
        <time>2018-01-30T12:42:08Z</time>
      </trkpt>
      <trkpt lat="62.641467731357" lon="17.978909039399">
        <ele>37.2</ele>
        <time>2018-01-30T12:42:09Z</time>
      </trkpt>
      <trkpt lat="62.641452811575" lon="17.978914403815">
        <ele>37.4</ele>
        <time>2018-01-30T12:42:10Z</time>
      </trkpt>
      <trkpt lat="62.641424564572" lon="17.978896634187">
        <ele>37.6</ele>
        <time>2018-01-30T12:42:11Z</time>
      </trkpt>
      <trkpt lat="62.641406124392" lon="17.978886911183">
        <ele>37.8</ele>
        <time>2018-01-30T12:42:12Z</time>
      </trkpt>
      <trkpt lat="62.641394725008" lon="17.978901914784">
        <ele>38</ele>
        <time>2018-01-30T12:42:13Z</time>
      </trkpt>
      <trkpt lat="62.64137863176" lon="17.97888716264">
        <ele>38.2</ele>
        <time>2018-01-30T12:42:14Z</time>
      </trkpt>
      <trkpt lat="62.641359269571" lon="17.97891482291">
        <ele>38.4</ele>
        <time>2018-01-30T12:42:15Z</time>
      </trkpt>
      <trkpt lat="62.641338650097" lon="17.978913565625">
        <ele>38.8</ele>
        <time>2018-01-30T12:42:16Z</time>
      </trkpt>
      <trkpt lat="62.64132414941" lon="17.978942315542">
        <ele>39</ele>
        <time>2018-01-30T12:42:17Z</time>
      </trkpt>
      <trkpt lat="62.641300763909" lon="17.978941561171">
        <ele>39.2</ele>
        <time>2018-01-30T12:42:18Z</time>
      </trkpt>
      <trkpt lat="62.641282994281" lon="17.978941896447">
        <ele>39.2</ele>
        <time>2018-01-30T12:42:19Z</time>
      </trkpt>
      <trkpt lat="62.641267823042" lon="17.978961342455">
        <ele>39.4</ele>
        <time>2018-01-30T12:42:20Z</time>
      </trkpt>
      <trkpt lat="62.641245024274" lon="17.978952122365">
        <ele>39.4</ele>
        <time>2018-01-30T12:42:21Z</time>
      </trkpt>
      <trkpt lat="62.641230020673" lon="17.978955391306">
        <ele>39.6</ele>
        <time>2018-01-30T12:42:22Z</time>
      </trkpt>
      <trkpt lat="62.641213256873" lon="17.978961510093">
        <ele>39.8</ele>
        <time>2018-01-30T12:42:23Z</time>
      </trkpt>
      <trkpt lat="62.641190458105" lon="17.978941477352">
        <ele>39.8</ele>
        <time>2018-01-30T12:42:24Z</time>
      </trkpt>
      <trkpt lat="62.641179477816" lon="17.978963354111">
        <ele>40</ele>
        <time>2018-01-30T12:42:25Z</time>
      </trkpt>
      <trkpt lat="62.641161792007" lon="17.978954972211">
        <ele>40.2</ele>
        <time>2018-01-30T12:42:26Z</time>
      </trkpt>
      <trkpt lat="62.641141340171" lon="17.978969975812">
        <ele>40.4</ele>
        <time>2018-01-30T12:42:27Z</time>
      </trkpt>
      <trkpt lat="62.641120301602" lon="17.978973160934">
        <ele>40.4</ele>
        <time>2018-01-30T12:42:28Z</time>
      </trkpt>
      <trkpt lat="62.641100520318" lon="17.97899193639">
        <ele>40.4</ele>
        <time>2018-01-30T12:42:29Z</time>
      </trkpt>
      <trkpt lat="62.641083505061" lon="17.979014399882">
        <ele>40.6</ele>
        <time>2018-01-30T12:42:30Z</time>
      </trkpt>
      <trkpt lat="62.641070010202" lon="17.979032923881">
        <ele>40.6</ele>
        <time>2018-01-30T12:42:31Z</time>
      </trkpt>
      <trkpt lat="62.641061209207" lon="17.979059243047">
        <ele>40.8</ele>
        <time>2018-01-30T12:42:32Z</time>
      </trkpt>
      <trkpt lat="62.641039919181" lon="17.979104756764">
        <ele>41</ele>
        <time>2018-01-30T12:42:33Z</time>
      </trkpt>
      <trkpt lat="62.641031704919" lon="17.979166699005">
        <ele>41.2</ele>
        <time>2018-01-30T12:42:34Z</time>
      </trkpt>
      <trkpt lat="62.641020305535" lon="17.979197628216">
        <ele>41.4</ele>
        <time>2018-01-30T12:42:35Z</time>
      </trkpt>
      <trkpt lat="62.641012845644" lon="17.979251272376">
        <ele>41.6</ele>
        <time>2018-01-30T12:42:36Z</time>
      </trkpt>
      <trkpt lat="62.641010582531" lon="17.979295612627">
        <ele>41.6</ele>
        <time>2018-01-30T12:42:37Z</time>
      </trkpt>
      <trkpt lat="62.641001027165" lon="17.979351855176">
        <ele>41.8</ele>
        <time>2018-01-30T12:42:38Z</time>
      </trkpt>
      <trkpt lat="62.640992812903" lon="17.979392088296">
        <ele>42</ele>
        <time>2018-01-30T12:42:39Z</time>
      </trkpt>
      <trkpt lat="62.640988957229" lon="17.979421592584">
        <ele>42</ele>
        <time>2018-01-30T12:42:40Z</time>
      </trkpt>
      <trkpt lat="62.640985772107" lon="17.979471716346">
        <ele>42</ele>
        <time>2018-01-30T12:42:41Z</time>
      </trkpt>
      <trkpt lat="62.640978479854" lon="17.97951748152">
        <ele>42</ele>
        <time>2018-01-30T12:42:42Z</time>
      </trkpt>
      <trkpt lat="62.640973702171" lon="17.979553858966">
        <ele>42</ele>
        <time>2018-01-30T12:42:43Z</time>
      </trkpt>
      <trkpt lat="62.640974959456" lon="17.979589901136">
        <ele>41.8</ele>
        <time>2018-01-30T12:42:44Z</time>
      </trkpt>
      <trkpt lat="62.64097797694" lon="17.979632565007">
        <ele>42</ele>
        <time>2018-01-30T12:42:45Z</time>
      </trkpt>
      <trkpt lat="62.6409645659" lon="17.979700374578">
        <ele>41.8</ele>
        <time>2018-01-30T12:42:46Z</time>
      </trkpt>
      <trkpt lat="62.640959201484" lon="17.979740775336">
        <ele>42</ele>
        <time>2018-01-30T12:42:47Z</time>
      </trkpt>
      <trkpt lat="62.640953334154" lon="17.979781595189">
        <ele>41.8</ele>
        <time>2018-01-30T12:42:48Z</time>
      </trkpt>
      <trkpt lat="62.640947299186" lon="17.979845632905">
        <ele>42</ele>
        <time>2018-01-30T12:42:49Z</time>
      </trkpt>
      <trkpt lat="62.640940761304" lon="17.979897935961">
        <ele>42</ele>
        <time>2018-01-30T12:42:50Z</time>
      </trkpt>
      <trkpt lat="62.640930535386" lon="17.979941857117">
        <ele>42</ele>
        <time>2018-01-30T12:42:51Z</time>
      </trkpt>
      <trkpt lat="62.640923746047" lon="17.980003464082">
        <ele>42</ele>
        <time>2018-01-30T12:42:52Z</time>
      </trkpt>
      <trkpt lat="62.640921650572" lon="17.980044954487">
        <ele>42.2</ele>
        <time>2018-01-30T12:42:53Z</time>
      </trkpt>
      <trkpt lat="62.640914525957" lon="17.980107399642">
        <ele>42.2</ele>
        <time>2018-01-30T12:42:54Z</time>
      </trkpt>
      <trkpt lat="62.64091511269" lon="17.980158277775">
        <ele>42.2</ele>
        <time>2018-01-30T12:42:55Z</time>
      </trkpt>
      <trkpt lat="62.640917878717" lon="17.980208485356">
        <ele>42.2</ele>
        <time>2018-01-30T12:42:56Z</time>
      </trkpt>
      <trkpt lat="62.640916453794" lon="17.980269673226">
        <ele>42.2</ele>
        <time>2018-01-30T12:42:57Z</time>
      </trkpt>
      <trkpt lat="62.640921399115" lon="17.98033806953">
        <ele>42.4</ele>
        <time>2018-01-30T12:42:58Z</time>
      </trkpt>
      <trkpt lat="62.640922824038" lon="17.980408309852">
        <ele>42.4</ele>
        <time>2018-01-30T12:42:59Z</time>
      </trkpt>
      <trkpt lat="62.640933888146" lon="17.980451979551">
        <ele>42.4</ele>
        <time>2018-01-30T12:43:00Z</time>
      </trkpt>
      <trkpt lat="62.640933469051" lon="17.980526075547">
        <ele>42.4</ele>
        <time>2018-01-30T12:43:01Z</time>
      </trkpt>
      <trkpt lat="62.640926679712" lon="17.980586844322">
        <ele>42.4</ele>
        <time>2018-01-30T12:43:02Z</time>
      </trkpt>
      <trkpt lat="62.640928188454" lon="17.980636968084">
        <ele>42</ele>
        <time>2018-01-30T12:43:03Z</time>
      </trkpt>
      <trkpt lat="62.640932798499" lon="17.980692707719">
        <ele>41.6</ele>
        <time>2018-01-30T12:43:04Z</time>
      </trkpt>
      <trkpt lat="62.640933049956" lon="17.980731683554">
        <ele>41.4</ele>
        <time>2018-01-30T12:43:05Z</time>
      </trkpt>
      <trkpt lat="62.64094696391" lon="17.980803851713">
        <ele>41.2</ele>
        <time>2018-01-30T12:43:06Z</time>
      </trkpt>
      <trkpt lat="62.640960458769" lon="17.980852215276">
        <ele>41.2</ele>
        <time>2018-01-30T12:43:07Z</time>
      </trkpt>
      <trkpt lat="62.64097630056" lon="17.980926898005">
        <ele>41</ele>
        <time>2018-01-30T12:43:08Z</time>
      </trkpt>
      <trkpt lat="62.641002703545" lon="17.981017422525">
        <ele>41</ele>
        <time>2018-01-30T12:43:09Z</time>
      </trkpt>
      <trkpt lat="62.641023406838" lon="17.981099565145">
        <ele>40.8</ele>
        <time>2018-01-30T12:43:10Z</time>
      </trkpt>
      <trkpt lat="62.641049809823" lon="17.981196795185">
        <ele>40.6</ele>
        <time>2018-01-30T12:43:11Z</time>
      </trkpt>
      <trkpt lat="62.641067160356" lon="17.981304586419">
        <ele>40.4</ele>
        <time>2018-01-30T12:43:12Z</time>
      </trkpt>
      <trkpt lat="62.641067327994" lon="17.981414221671">
        <ele>40</ele>
        <time>2018-01-30T12:43:13Z</time>
      </trkpt>
      <trkpt lat="62.641056347705" lon="17.981499046499">
        <ele>39.2</ele>
        <time>2018-01-30T12:43:14Z</time>
      </trkpt>
      <trkpt lat="62.641052659669" lon="17.981584709517">
        <ele>38.6</ele>
        <time>2018-01-30T12:43:15Z</time>
      </trkpt>
      <trkpt lat="62.641067076537" lon="17.981657799685">
        <ele>38.2</ele>
        <time>2018-01-30T12:43:16Z</time>
      </trkpt>
      <trkpt lat="62.641061712121" lon="17.981757795752">
        <ele>38.2</ele>
        <time>2018-01-30T12:43:17Z</time>
      </trkpt>
      <trkpt lat="62.641057269714" lon="17.981852427403">
        <ele>38.2</ele>
        <time>2018-01-30T12:43:18Z</time>
      </trkpt>
      <trkpt lat="62.641062466492" lon="17.981922332449">
        <ele>38.4</ele>
        <time>2018-01-30T12:43:19Z</time>
      </trkpt>
      <trkpt lat="62.641063807596" lon="17.981992237495">
        <ele>38.6</ele>
        <time>2018-01-30T12:43:20Z</time>
      </trkpt>
      <trkpt lat="62.641074955523" lon="17.982078571065">
        <ele>38.8</ele>
        <time>2018-01-30T12:43:21Z</time>
      </trkpt>
      <trkpt lat="62.641075123161" lon="17.98216197097">
        <ele>38.8</ele>
        <time>2018-01-30T12:43:22Z</time>
      </trkpt>
      <trkpt lat="62.641078224464" lon="17.98223405531">
        <ele>39</ele>
        <time>2018-01-30T12:43:23Z</time>
      </trkpt>
      <trkpt lat="62.641090210581" lon="17.982287783289">
        <ele>39</ele>
        <time>2018-01-30T12:43:24Z</time>
      </trkpt>
      <trkpt lat="62.641093563341" lon="17.982371434651">
        <ele>39</ele>
        <time>2018-01-30T12:43:25Z</time>
      </trkpt>
      <trkpt lat="62.641104124535" lon="17.982448464312">
        <ele>39</ele>
        <time>2018-01-30T12:43:26Z</time>
      </trkpt>
      <trkpt lat="62.641113428444" lon="17.982512418209">
        <ele>39</ele>
        <time>2018-01-30T12:43:27Z</time>
      </trkpt>
      <trkpt lat="62.641125833656" lon="17.982592884449">
        <ele>39</ele>
        <time>2018-01-30T12:43:28Z</time>
      </trkpt>
      <trkpt lat="62.641139412334" lon="17.982679218019">
        <ele>38.8</ele>
        <time>2018-01-30T12:43:29Z</time>
      </trkpt>
      <trkpt lat="62.641153745383" lon="17.982742501364">
        <ele>38.6</ele>
        <time>2018-01-30T12:43:30Z</time>
      </trkpt>
      <trkpt lat="62.641156846686" lon="17.982828918753">
        <ele>38.6</ele>
        <time>2018-01-30T12:43:31Z</time>
      </trkpt>
      <trkpt lat="62.641161289093" lon="17.982855573195">
        <ele>38.6</ele>
        <time>2018-01-30T12:43:32Z</time>
      </trkpt>
      <trkpt lat="62.641172017925" lon="17.983001753531">
        <ele>38.4</ele>
        <time>2018-01-30T12:43:33Z</time>
      </trkpt>
      <trkpt lat="62.641185093689" lon="17.983080040477">
        <ele>38.2</ele>
        <time>2018-01-30T12:43:34Z</time>
      </trkpt>
      <trkpt lat="62.641184926051" lon="17.983188334625">
        <ele>38.2</ele>
        <time>2018-01-30T12:43:35Z</time>
      </trkpt>
      <trkpt lat="62.641192721218" lon="17.983270980159">
        <ele>37.8</ele>
        <time>2018-01-30T12:43:36Z</time>
      </trkpt>
      <trkpt lat="62.641205461706" lon="17.983351194942">
        <ele>38</ele>
        <time>2018-01-30T12:43:37Z</time>
      </trkpt>
      <trkpt lat="62.641217950737" lon="17.98343518158">
        <ele>37.6</ele>
        <time>2018-01-30T12:43:38Z</time>
      </trkpt>
      <trkpt lat="62.641232283786" lon="17.983509445214">
        <ele>37.2</ele>
        <time>2018-01-30T12:43:39Z</time>
      </trkpt>
      <trkpt lat="62.641234630718" lon="17.983604579779">
        <ele>37</ele>
        <time>2018-01-30T12:43:40Z</time>
      </trkpt>
      <trkpt lat="62.641233121976" lon="17.983729553908">
        <ele>36.2</ele>
        <time>2018-01-30T12:43:41Z</time>
      </trkpt>
      <trkpt lat="62.641232116148" lon="17.983834411477">
        <ele>35.4</ele>
        <time>2018-01-30T12:43:42Z</time>
      </trkpt>
      <trkpt lat="62.641228931026" lon="17.983940107236">
        <ele>35</ele>
        <time>2018-01-30T12:43:43Z</time>
      </trkpt>
      <trkpt lat="62.641227338465" lon="17.984035241801">
        <ele>34.6</ele>
        <time>2018-01-30T12:43:44Z</time>
      </trkpt>
      <trkpt lat="62.641225578266" lon="17.984156108799">
        <ele>34.2</ele>
        <time>2018-01-30T12:43:45Z</time>
      </trkpt>
      <trkpt lat="62.641226416456" lon="17.984257613608">
        <ele>34</ele>
        <time>2018-01-30T12:43:46Z</time>
      </trkpt>
      <trkpt lat="62.641221554954" lon="17.984378061511">
        <ele>33.8</ele>
        <time>2018-01-30T12:43:47Z</time>
      </trkpt>
      <trkpt lat="62.641223231334" lon="17.984475123913">
        <ele>33.4</ele>
        <time>2018-01-30T12:43:48Z</time>
      </trkpt>
      <trkpt lat="62.641226332637" lon="17.984555757791">
        <ele>33.2</ele>
        <time>2018-01-30T12:43:49Z</time>
      </trkpt>
      <trkpt lat="62.641219962393" lon="17.984675618961">
        <ele>33</ele>
        <time>2018-01-30T12:43:50Z</time>
      </trkpt>
      <trkpt lat="62.641213173054" lon="17.984792965561">
        <ele>32.8</ele>
        <time>2018-01-30T12:43:51Z</time>
      </trkpt>
      <trkpt lat="62.641204791154" lon="17.984907210858">
        <ele>32.6</ele>
        <time>2018-01-30T12:43:52Z</time>
      </trkpt>
      <trkpt lat="62.64119590634" lon="17.984989940211">
        <ele>32.6</ele>
        <time>2018-01-30T12:43:53Z</time>
      </trkpt>
      <trkpt lat="62.641172604658" lon="17.985109549924">
        <ele>32.6</ele>
        <time>2018-01-30T12:43:54Z</time>
      </trkpt>
      <trkpt lat="62.64116070236" lon="17.985197727512">
        <ele>32.8</ele>
        <time>2018-01-30T12:43:55Z</time>
      </trkpt>
      <trkpt lat="62.641155421763" lon="17.985287832937">
        <ele>33</ele>
        <time>2018-01-30T12:43:56Z</time>
      </trkpt>
      <trkpt lat="62.64115148227" lon="17.985377519267">
        <ele>33</ele>
        <time>2018-01-30T12:43:57Z</time>
      </trkpt>
      <trkpt lat="62.641147542777" lon="17.985461002991">
        <ele>33.2</ele>
        <time>2018-01-30T12:43:58Z</time>
      </trkpt>
      <trkpt lat="62.64112885114" lon="17.985554544995">
        <ele>33</ele>
        <time>2018-01-30T12:43:59Z</time>
      </trkpt>
      <trkpt lat="62.641111752064" lon="17.985668538835">
        <ele>32.6</ele>
        <time>2018-01-30T12:44:00Z</time>
      </trkpt>
      <trkpt lat="62.641100017404" lon="17.985781862123">
        <ele>32.6</ele>
        <time>2018-01-30T12:44:01Z</time>
      </trkpt>
      <trkpt lat="62.641098592481" lon="17.985889234262">
        <ele>32.4</ele>
        <time>2018-01-30T12:44:02Z</time>
      </trkpt>
      <trkpt lat="62.64108777983" lon="17.98597573547">
        <ele>32.2</ele>
        <time>2018-01-30T12:44:03Z</time>
      </trkpt>
      <trkpt lat="62.641076128989" lon="17.986051759303">
        <ele>32.4</ele>
        <time>2018-01-30T12:44:04Z</time>
      </trkpt>
      <trkpt lat="62.641052911126" lon="17.986131806448">
        <ele>32.6</ele>
        <time>2018-01-30T12:44:05Z</time>
      </trkpt>
      <trkpt lat="62.641044613045" lon="17.98622132514">
        <ele>32.6</ele>
        <time>2018-01-30T12:44:06Z</time>
      </trkpt>
      <trkpt lat="62.641040757371" lon="17.986311933479">
        <ele>32.6</ele>
        <time>2018-01-30T12:44:07Z</time>
      </trkpt>
      <trkpt lat="62.641029860901" lon="17.986379826869">
        <ele>32.6</ele>
        <time>2018-01-30T12:44:08Z</time>
      </trkpt>
      <trkpt lat="62.641019802621" lon="17.986447133526">
        <ele>32.6</ele>
        <time>2018-01-30T12:44:09Z</time>
      </trkpt>
      <trkpt lat="62.641017707146" lon="17.986507650844">
        <ele>32.6</ele>
        <time>2018-01-30T12:44:10Z</time>
      </trkpt>
      <trkpt lat="62.641002535907" lon="17.98657420313">
        <ele>32.6</ele>
        <time>2018-01-30T12:44:11Z</time>
      </trkpt>
      <trkpt lat="62.640993986369" lon="17.986632624973">
        <ele>32.6</ele>
        <time>2018-01-30T12:44:12Z</time>
      </trkpt>
      <trkpt lat="62.640987364668" lon="17.986691885006">
        <ele>32.6</ele>
        <time>2018-01-30T12:44:13Z</time>
      </trkpt>
      <trkpt lat="62.640984598641" lon="17.986758102016">
        <ele>32.6</ele>
        <time>2018-01-30T12:44:14Z</time>
      </trkpt>
      <trkpt lat="62.640976468198" lon="17.986827839424">
        <ele>32.4</ele>
        <time>2018-01-30T12:44:15Z</time>
      </trkpt>
      <trkpt lat="62.640971606696" lon="17.986903695619">
        <ele>32.4</ele>
        <time>2018-01-30T12:44:16Z</time>
      </trkpt>
      <trkpt lat="62.640962554244" lon="17.986970667">
        <ele>32.4</ele>
        <time>2018-01-30T12:44:17Z</time>
      </trkpt>
      <trkpt lat="62.640956100181" lon="17.987034537078">
        <ele>32.2</ele>
        <time>2018-01-30T12:44:18Z</time>
      </trkpt>
      <trkpt lat="62.640953250335" lon="17.98709555731">
        <ele>32.4</ele>
        <time>2018-01-30T12:44:19Z</time>
      </trkpt>
      <trkpt lat="62.640941012761" lon="17.987175939731">
        <ele>32.4</ele>
        <time>2018-01-30T12:44:20Z</time>
      </trkpt>
      <trkpt lat="62.640933971965" lon="17.987249700451">
        <ele>32.4</ele>
        <time>2018-01-30T12:44:21Z</time>
      </trkpt>
      <trkpt lat="62.640934139603" lon="17.987323461171">
        <ele>32.4</ele>
        <time>2018-01-30T12:44:22Z</time>
      </trkpt>
      <trkpt lat="62.640930032472" lon="17.987397557167">
        <ele>32.4</ele>
        <time>2018-01-30T12:44:23Z</time>
      </trkpt>
      <trkpt lat="62.64093355287" lon="17.987481795262">
        <ele>32.4</ele>
        <time>2018-01-30T12:44:24Z</time>
      </trkpt>
      <trkpt lat="62.640922824038" lon="17.987546419711">
        <ele>32.4</ele>
        <time>2018-01-30T12:44:25Z</time>
      </trkpt>
      <trkpt lat="62.640918884545" lon="17.987620850983">
        <ele>32.4</ele>
        <time>2018-01-30T12:44:26Z</time>
      </trkpt>
      <trkpt lat="62.640909496817" lon="17.987696371902">
        <ele>32.2</ele>
        <time>2018-01-30T12:44:27Z</time>
      </trkpt>
      <trkpt lat="62.640903629487" lon="17.987770803174">
        <ele>32.2</ele>
        <time>2018-01-30T12:44:28Z</time>
      </trkpt>
      <trkpt lat="62.640889380257" lon="17.98787004487">
        <ele>32</ele>
        <time>2018-01-30T12:44:29Z</time>
      </trkpt>
      <trkpt lat="62.640860127426" lon="17.987943302676">
        <ele>32</ele>
        <time>2018-01-30T12:44:30Z</time>
      </trkpt>
      <trkpt lat="62.640843112169" lon="17.988016225206">
        <ele>32</ele>
        <time>2018-01-30T12:44:31Z</time>
      </trkpt>
      <trkpt lat="62.640828360025" lon="17.988086716985">
        <ele>32</ele>
        <time>2018-01-30T12:44:32Z</time>
      </trkpt>
      <trkpt lat="62.640812266777" lon="17.988157627859">
        <ele>32</ele>
        <time>2018-01-30T12:44:33Z</time>
      </trkpt>
      <trkpt lat="62.640800532117" lon="17.988224766878">
        <ele>31.8</ele>
        <time>2018-01-30T12:44:34Z</time>
      </trkpt>
      <trkpt lat="62.640790138561" lon="17.988271454061">
        <ele>31.8</ele>
        <time>2018-01-30T12:44:35Z</time>
      </trkpt>
      <trkpt lat="62.640773290942" lon="17.988356111251">
        <ele>31.8</ele>
        <time>2018-01-30T12:44:36Z</time>
      </trkpt>
      <trkpt lat="62.640748480518" lon="17.988408414307">
        <ele>32</ele>
        <time>2018-01-30T12:44:37Z</time>
      </trkpt>
      <trkpt lat="62.640727441949" lon="17.988469183082">
        <ele>31.8</ele>
        <time>2018-01-30T12:44:38Z</time>
      </trkpt>
      <trkpt lat="62.640710007597" lon="17.988527353468">
        <ele>31.8</ele>
        <time>2018-01-30T12:44:39Z</time>
      </trkpt>
      <trkpt lat="62.640684861897" lon="17.98857328628">
        <ele>31.8</ele>
        <time>2018-01-30T12:44:40Z</time>
      </trkpt>
      <trkpt lat="62.640659800016" lon="17.988631037571">
        <ele>32</ele>
        <time>2018-01-30T12:44:41Z</time>
      </trkpt>
      <trkpt lat="62.640646221338" lon="17.988676048374">
        <ele>32</ele>
        <time>2018-01-30T12:44:42Z</time>
      </trkpt>
      <trkpt lat="62.640614789213" lon="17.988735224588">
        <ele>32.2</ele>
        <time>2018-01-30T12:44:43Z</time>
      </trkpt>
      <trkpt lat="62.640602384001" lon="17.988769338921">
        <ele>32.2</ele>
        <time>2018-01-30T12:44:44Z</time>
      </trkpt>
      <trkpt lat="62.640580171966" lon="17.988820300873">
        <ele>32.2</ele>
        <time>2018-01-30T12:44:45Z</time>
      </trkpt>
      <trkpt lat="62.640560474501" lon="17.988871179006">
        <ele>32.2</ele>
        <time>2018-01-30T12:44:46Z</time>
      </trkpt>
      <trkpt lat="62.640542872511" lon="17.988900264199">
        <ele>32.2</ele>
        <time>2018-01-30T12:44:47Z</time>
      </trkpt>
      <trkpt lat="62.640525019064" lon="17.988938485663">
        <ele>32.4</ele>
        <time>2018-01-30T12:44:48Z</time>
      </trkpt>
      <trkpt lat="62.640516385707" lon="17.988983496466">
        <ele>32.6</ele>
        <time>2018-01-30T12:44:49Z</time>
      </trkpt>
      <trkpt lat="62.640501549744" lon="17.989009061261">
        <ele>32.6</ele>
        <time>2018-01-30T12:44:50Z</time>
      </trkpt>
      <trkpt lat="62.640482690469" lon="17.989068153656">
        <ele>32.8</ele>
        <time>2018-01-30T12:44:51Z</time>
      </trkpt>
      <trkpt lat="62.640475230578" lon="17.989088856949">
        <ele>33</ele>
        <time>2018-01-30T12:44:52Z</time>
      </trkpt>
      <trkpt lat="62.640447654127" lon="17.989143758394">
        <ele>33.2</ele>
        <time>2018-01-30T12:44:53Z</time>
      </trkpt>
      <trkpt lat="62.640440026598" lon="17.989178710917">
        <ele>33.2</ele>
        <time>2018-01-30T12:44:54Z</time>
      </trkpt>
      <trkpt lat="62.640423262798" lon="17.989220536598">
        <ele>33.2</ele>
        <time>2018-01-30T12:44:55Z</time>
      </trkpt>
      <trkpt lat="62.640407672464" lon="17.989264038659">
        <ele>33.4</ele>
        <time>2018-01-30T12:44:56Z</time>
      </trkpt>
      <trkpt lat="62.640390238112" lon="17.989305612883">
        <ele>33.4</ele>
        <time>2018-01-30T12:44:57Z</time>
      </trkpt>
      <trkpt lat="62.640379844556" lon="17.989350623686">
        <ele>33.6</ele>
        <time>2018-01-30T12:44:58Z</time>
      </trkpt>
      <trkpt lat="62.640357381064" lon="17.989379457422">
        <ele>33.6</ele>
        <time>2018-01-30T12:44:59Z</time>
      </trkpt>
      <trkpt lat="62.640337515961" lon="17.989416673058">
        <ele>33.8</ele>
        <time>2018-01-30T12:45:00Z</time>
      </trkpt>
      <trkpt lat="62.640317315582" lon="17.9894517094">
        <ele>33.8</ele>
        <time>2018-01-30T12:45:01Z</time>
      </trkpt>
      <trkpt lat="62.64030407218" lon="17.989496301108">
        <ele>33.8</ele>
        <time>2018-01-30T12:45:02Z</time>
      </trkpt>
      <trkpt lat="62.640289487674" lon="17.989538797341">
        <ele>33.8</ele>
        <time>2018-01-30T12:45:03Z</time>
      </trkpt>
      <trkpt lat="62.640274903168" lon="17.989575174787">
        <ele>34</ele>
        <time>2018-01-30T12:45:04Z</time>
      </trkpt>
      <trkpt lat="62.640256965902" lon="17.98962018559">
        <ele>34</ele>
        <time>2018-01-30T12:45:05Z</time>
      </trkpt>
      <trkpt lat="62.640243135767" lon="17.989663939108">
        <ele>34.2</ele>
        <time>2018-01-30T12:45:06Z</time>
      </trkpt>
      <trkpt lat="62.640230227641" lon="17.989705932427">
        <ele>34.2</ele>
        <time>2018-01-30T12:45:07Z</time>
      </trkpt>
      <trkpt lat="62.640215391678" lon="17.98973920857">
        <ele>34.2</ele>
        <time>2018-01-30T12:45:08Z</time>
      </trkpt>
      <trkpt lat="62.640200555715" lon="17.989772400894">
        <ele>34.4</ele>
        <time>2018-01-30T12:45:09Z</time>
      </trkpt>
      <trkpt lat="62.640188653417" lon="17.989815819136">
        <ele>34.4</ele>
        <time>2018-01-30T12:45:10Z</time>
      </trkpt>
      <trkpt lat="62.640179014232" lon="17.989851358392">
        <ele>34.6</ele>
        <time>2018-01-30T12:45:11Z</time>
      </trkpt>
      <trkpt lat="62.640160238776" lon="17.989896620652">
        <ele>34.8</ele>
        <time>2018-01-30T12:45:12Z</time>
      </trkpt>
      <trkpt lat="62.640158730034" lon="17.989955880685">
        <ele>34.8</ele>
        <time>2018-01-30T12:45:13Z</time>
      </trkpt>
      <trkpt lat="62.640137607646" lon="17.989994269787">
        <ele>35</ele>
        <time>2018-01-30T12:45:14Z</time>
      </trkpt>
      <trkpt lat="62.640135931266" lon="17.990042381893">
        <ele>35</ele>
        <time>2018-01-30T12:45:15Z</time>
      </trkpt>
      <trkpt lat="62.64012218495" lon="17.990083872298">
        <ele>35.2</ele>
        <time>2018-01-30T12:45:16Z</time>
      </trkpt>
      <trkpt lat="62.640113300136" lon="17.990147071824">
        <ele>35.2</ele>
        <time>2018-01-30T12:45:17Z</time>
      </trkpt>
      <trkpt lat="62.640093937947" lon="17.990181521433">
        <ele>35.4</ele>
        <time>2018-01-30T12:45:18Z</time>
      </trkpt>
      <trkpt lat="62.640083712029" lon="17.99022703515">
        <ele>35.4</ele>
        <time>2018-01-30T12:45:19Z</time>
      </trkpt>
      <trkpt lat="62.640073989025" lon="17.990252767583">
        <ele>35.6</ele>
        <time>2018-01-30T12:45:20Z</time>
      </trkpt>
      <trkpt lat="62.640062086727" lon="17.990284618803">
        <ele>35.6</ele>
        <time>2018-01-30T12:45:21Z</time>
      </trkpt>
      <trkpt lat="62.640054878293" lon="17.990330467796">
        <ele>35.8</ele>
        <time>2018-01-30T12:45:22Z</time>
      </trkpt>
      <trkpt lat="62.640033588267" lon="17.990360474998">
        <ele>35.8</ele>
        <time>2018-01-30T12:45:23Z</time>
      </trkpt>
      <trkpt lat="62.640026715109" lon="17.99040305505">
        <ele>36</ele>
        <time>2018-01-30T12:45:24Z</time>
      </trkpt>
      <trkpt lat="62.640004586893" lon="17.990447143844">
        <ele>36.2</ele>
        <time>2018-01-30T12:45:25Z</time>
      </trkpt>
      <trkpt lat="62.639996875545" lon="17.990505062773">
        <ele>36.2</ele>
        <time>2018-01-30T12:45:26Z</time>
      </trkpt>
      <trkpt lat="62.639969718189" lon="17.990525682247">
        <ele>36.4</ele>
        <time>2018-01-30T12:45:27Z</time>
      </trkpt>
      <trkpt lat="62.639953876398" lon="17.990567424109">
        <ele>36.4</ele>
        <time>2018-01-30T12:45:28Z</time>
      </trkpt>
      <trkpt lat="62.63993778315" lon="17.990599778243">
        <ele>36.6</ele>
        <time>2018-01-30T12:45:29Z</time>
      </trkpt>
      <trkpt lat="62.639918169504" lon="17.990645040503">
        <ele>36.6</ele>
        <time>2018-01-30T12:45:30Z</time>
      </trkpt>
      <trkpt lat="62.639900818971" lon="17.990681669406">
        <ele>36.6</ele>
        <time>2018-01-30T12:45:31Z</time>
      </trkpt>
      <trkpt lat="62.639884558085" lon="17.990718298309">
        <ele>36.6</ele>
        <time>2018-01-30T12:45:32Z</time>
      </trkpt>
      <trkpt lat="62.639866034086" lon="17.990759872533">
        <ele>36.6</ele>
        <time>2018-01-30T12:45:33Z</time>
      </trkpt>
      <trkpt lat="62.639844995517" lon="17.990800692386">
        <ele>36.6</ele>
        <time>2018-01-30T12:45:34Z</time>
      </trkpt>
      <trkpt lat="62.639821526197" lon="17.990850480872">
        <ele>36.8</ele>
        <time>2018-01-30T12:45:35Z</time>
      </trkpt>
      <trkpt lat="62.639803086017" lon="17.990889037612">
        <ele>36.8</ele>
        <time>2018-01-30T12:45:36Z</time>
      </trkpt>
      <trkpt lat="62.639789842615" lon="17.990923990135">
        <ele>37</ele>
        <time>2018-01-30T12:45:37Z</time>
      </trkpt>
      <trkpt lat="62.639777521222" lon="17.990957769192">
        <ele>37</ele>
        <time>2018-01-30T12:45:38Z</time>
      </trkpt>
      <trkpt lat="62.639763020535" lon="17.99099146443">
        <ele>37</ele>
        <time>2018-01-30T12:45:39Z</time>
      </trkpt>
      <trkpt lat="62.639759919232" lon="17.991033709206">
        <ele>37.2</ele>
        <time>2018-01-30T12:45:40Z</time>
      </trkpt>
      <trkpt lat="62.639742065785" lon="17.99107528343">
        <ele>37.4</ele>
        <time>2018-01-30T12:45:41Z</time>
      </trkpt>
      <trkpt lat="62.639735444084" lon="17.991122976441">
        <ele>37.6</ele>
        <time>2018-01-30T12:45:42Z</time>
      </trkpt>
      <trkpt lat="62.639719183198" lon="17.991159772982">
        <ele>37.8</ele>
        <time>2018-01-30T12:45:43Z</time>
      </trkpt>
      <trkpt lat="62.639716081895" lon="17.991209310011">
        <ele>37.8</ele>
        <time>2018-01-30T12:45:44Z</time>
      </trkpt>
      <trkpt lat="62.639698731362" lon="17.991257254479">
        <ele>38</ele>
        <time>2018-01-30T12:45:45Z</time>
      </trkpt>
      <trkpt lat="62.639706945624" lon="17.991313580847">
        <ele>38</ele>
        <time>2018-01-30T12:45:46Z</time>
      </trkpt>
      <trkpt lat="62.639692109661" lon="17.991354568338">
        <ele>38.2</ele>
        <time>2018-01-30T12:45:47Z</time>
      </trkpt>
      <trkpt lat="62.639686745245" lon="17.991402261349">
        <ele>38.2</ele>
        <time>2018-01-30T12:45:48Z</time>
      </trkpt>
      <trkpt lat="62.639678195707" lon="17.991449451446">
        <ele>38.4</ele>
        <time>2018-01-30T12:45:49Z</time>
      </trkpt>
      <trkpt lat="62.639666293409" lon="17.991502592692">
        <ele>38.2</ele>
        <time>2018-01-30T12:45:50Z</time>
      </trkpt>
      <trkpt lat="62.639659336432" lon="17.991545256563">
        <ele>38.4</ele>
        <time>2018-01-30T12:45:51Z</time>
      </trkpt>
      <trkpt lat="62.639655145482" lon="17.991593201031">
        <ele>38.4</ele>
        <time>2018-01-30T12:45:52Z</time>
      </trkpt>
      <trkpt lat="62.639648691419" lon="17.991628991744">
        <ele>38.6</ele>
        <time>2018-01-30T12:45:53Z</time>
      </trkpt>
      <trkpt lat="62.639644249012" lon="17.991676852393">
        <ele>38.6</ele>
        <time>2018-01-30T12:45:54Z</time>
      </trkpt>
      <trkpt lat="62.639647350315" lon="17.99171314602">
        <ele>38.8</ele>
        <time>2018-01-30T12:45:55Z</time>
      </trkpt>
      <trkpt lat="62.639637627311" lon="17.991765281438">
        <ele>38.8</ele>
        <time>2018-01-30T12:45:56Z</time>
      </trkpt>
      <trkpt lat="62.639629161592" lon="17.99181624339">
        <ele>39</ele>
        <time>2018-01-30T12:45:57Z</time>
      </trkpt>
      <trkpt lat="62.639624719185" lon="17.991862176202">
        <ele>39.2</ele>
        <time>2018-01-30T12:45:58Z</time>
      </trkpt>
      <trkpt lat="62.639615415276" lon="17.991917245285">
        <ele>39.2</ele>
        <time>2018-01-30T12:45:59Z</time>
      </trkpt>
      <trkpt lat="62.63961340362" lon="17.991990419272">
        <ele>39.4</ele>
        <time>2018-01-30T12:46:00Z</time>
      </trkpt>
      <trkpt lat="62.639600495494" lon="17.992047164735">
        <ele>39.6</ele>
        <time>2018-01-30T12:46:01Z</time>
      </trkpt>
      <trkpt lat="62.639594628164" lon="17.992103239646">
        <ele>39.6</ele>
        <time>2018-01-30T12:46:02Z</time>
      </trkpt>
      <trkpt lat="62.639582139133" lon="17.992144478594">
        <ele>39.8</ele>
        <time>2018-01-30T12:46:03Z</time>
      </trkpt>
      <trkpt lat="62.639575517432" lon="17.992202397523">
        <ele>39.6</ele>
        <time>2018-01-30T12:46:04Z</time>
      </trkpt>
      <trkpt lat="62.639560681469" lon="17.992248833249">
        <ele>39.6</ele>
        <time>2018-01-30T12:46:05Z</time>
      </trkpt>
      <trkpt lat="62.639550036456" lon="17.992304572884">
        <ele>39.6</ele>
        <time>2018-01-30T12:46:06Z</time>
      </trkpt>
      <trkpt lat="62.6395396429" lon="17.99234011214">
        <ele>39.8</ele>
        <time>2018-01-30T12:46:07Z</time>
      </trkpt>
      <trkpt lat="62.639527824421" lon="17.992376238129">
        <ele>39.8</ele>
        <time>2018-01-30T12:46:08Z</time>
      </trkpt>
      <trkpt lat="62.639528243516" lon="17.992420410742">
        <ele>39.8</ele>
        <time>2018-01-30T12:46:09Z</time>
      </trkpt>
      <trkpt lat="62.639515503028" lon="17.992470534504">
        <ele>39.8</ele>
        <time>2018-01-30T12:46:10Z</time>
      </trkpt>
      <trkpt lat="62.639512653182" lon="17.992515210031">
        <ele>39.8</ele>
        <time>2018-01-30T12:46:11Z</time>
      </trkpt>
      <trkpt lat="62.639503768368" lon="17.992570195295">
        <ele>40</ele>
        <time>2018-01-30T12:46:12Z</time>
      </trkpt>
      <trkpt lat="62.639497146667" lon="17.992642363454">
        <ele>40</ele>
        <time>2018-01-30T12:46:13Z</time>
      </trkpt>
      <trkpt lat="62.639495386468" lon="17.992698522184">
        <ele>40</ele>
        <time>2018-01-30T12:46:14Z</time>
      </trkpt>
      <trkpt lat="62.639493207174" lon="17.992741353693">
        <ele>40</ele>
        <time>2018-01-30T12:46:15Z</time>
      </trkpt>
      <trkpt lat="62.639495554106" lon="17.992790387808">
        <ele>40</ele>
        <time>2018-01-30T12:46:16Z</time>
      </trkpt>
      <trkpt lat="62.639495554106" lon="17.992834141326">
        <ele>40.2</ele>
        <time>2018-01-30T12:46:17Z</time>
      </trkpt>
      <trkpt lat="62.639499493599" lon="17.992904297829">
        <ele>40.2</ele>
        <time>2018-01-30T12:46:18Z</time>
      </trkpt>
      <trkpt lat="62.639517347046" lon="17.992956684704">
        <ele>40.2</ele>
        <time>2018-01-30T12:46:19Z</time>
      </trkpt>
      <trkpt lat="62.639511731173" lon="17.99301317871">
        <ele>40.2</ele>
        <time>2018-01-30T12:46:20Z</time>
      </trkpt>
      <trkpt lat="62.639515167752" lon="17.993078473711">
        <ele>40.4</ele>
        <time>2018-01-30T12:46:21Z</time>
      </trkpt>
      <trkpt lat="62.639515167752" lon="17.993133626613">
        <ele>40.4</ele>
        <time>2018-01-30T12:46:22Z</time>
      </trkpt>
      <trkpt lat="62.639519358702" lon="17.993194814483">
        <ele>40.2</ele>
        <time>2018-01-30T12:46:23Z</time>
      </trkpt>
      <trkpt lat="62.639524723118" lon="17.993237729811">
        <ele>40.4</ele>
        <time>2018-01-30T12:46:24Z</time>
      </trkpt>
      <trkpt lat="62.639516760313" lon="17.993289278496">
        <ele>40.6</ele>
        <time>2018-01-30T12:46:25Z</time>
      </trkpt>
      <trkpt lat="62.639520196892" lon="17.993341246276">
        <ele>40.4</ele>
        <time>2018-01-30T12:46:26Z</time>
      </trkpt>
      <trkpt lat="62.639504355101" lon="17.993391789133">
        <ele>40.6</ele>
        <time>2018-01-30T12:46:27Z</time>
      </trkpt>
      <trkpt lat="62.639501505255" lon="17.993453563736">
        <ele>40.8</ele>
        <time>2018-01-30T12:46:28Z</time>
      </trkpt>
      <trkpt lat="62.639499493599" lon="17.993499161272">
        <ele>40.8</ele>
        <time>2018-01-30T12:46:29Z</time>
      </trkpt>
      <trkpt lat="62.63948516055" lon="17.993557666934">
        <ele>40.8</ele>
        <time>2018-01-30T12:46:30Z</time>
      </trkpt>
      <trkpt lat="62.639481221057" lon="17.993618687166">
        <ele>41</ele>
        <time>2018-01-30T12:46:31Z</time>
      </trkpt>
      <trkpt lat="62.63947510227" lon="17.993675516448">
        <ele>41</ele>
        <time>2018-01-30T12:46:32Z</time>
      </trkpt>
      <trkpt lat="62.63946001485" lon="17.993727568047">
        <ele>41</ele>
        <time>2018-01-30T12:46:33Z</time>
      </trkpt>
      <trkpt lat="62.639437802815" lon="17.993792024858">
        <ele>41.2</ele>
        <time>2018-01-30T12:46:34Z</time>
      </trkpt>
      <trkpt lat="62.639423888861" lon="17.993852625995">
        <ele>41.2</ele>
        <time>2018-01-30T12:46:35Z</time>
      </trkpt>
      <trkpt lat="62.639404275215" lon="17.99391004201">
        <ele>41</ele>
        <time>2018-01-30T12:46:36Z</time>
      </trkpt>
      <trkpt lat="62.639397402057" lon="17.993944994533">
        <ele>41</ele>
        <time>2018-01-30T12:46:37Z</time>
      </trkpt>
      <trkpt lat="62.639371334348" lon="17.993971313699">
        <ele>41</ele>
        <time>2018-01-30T12:46:38Z</time>
      </trkpt>
      <trkpt lat="62.639354654367" lon="17.994006769136">
        <ele>41.2</ele>
        <time>2018-01-30T12:46:39Z</time>
      </trkpt>
      <trkpt lat="62.639336717101" lon="17.994037363071">
        <ele>41.2</ele>
        <time>2018-01-30T12:46:40Z</time>
      </trkpt>
      <trkpt lat="62.639315929989" lon="17.994082625331">
        <ele>41.2</ele>
        <time>2018-01-30T12:46:41Z</time>
      </trkpt>
      <trkpt lat="62.63930075875" lon="17.994117326397">
        <ele>41.4</ele>
        <time>2018-01-30T12:46:42Z</time>
      </trkpt>
      <trkpt lat="62.639287934443" lon="17.994156386051">
        <ele>41.6</ele>
        <time>2018-01-30T12:46:43Z</time>
      </trkpt>
      <trkpt lat="62.63927896581" lon="17.99419837937">
        <ele>41.8</ele>
        <time>2018-01-30T12:46:44Z</time>
      </trkpt>
      <trkpt lat="62.639269829539" lon="17.994229643857">
        <ele>41.8</ele>
        <time>2018-01-30T12:46:45Z</time>
      </trkpt>
      <trkpt lat="62.639250383531" lon="17.994274570841">
        <ele>42.2</ele>
        <time>2018-01-30T12:46:46Z</time>
      </trkpt>
      <trkpt lat="62.639238565052" lon="17.99431488778">
        <ele>42.4</ele>
        <time>2018-01-30T12:46:47Z</time>
      </trkpt>
      <trkpt lat="62.63922699803" lon="17.994352773968">
        <ele>42.6</ele>
        <time>2018-01-30T12:46:48Z</time>
      </trkpt>
      <trkpt lat="62.639217442664" lon="17.994400634617">
        <ele>42.8</ele>
        <time>2018-01-30T12:46:49Z</time>
      </trkpt>
      <trkpt lat="62.639210150411" lon="17.994430390362">
        <ele>42.8</ele>
        <time>2018-01-30T12:46:50Z</time>
      </trkpt>
      <trkpt lat="62.639190788222" lon="17.994478586287">
        <ele>42.8</ele>
        <time>2018-01-30T12:46:51Z</time>
      </trkpt>
      <trkpt lat="62.639183160693" lon="17.99451856795">
        <ele>42.8</ele>
        <time>2018-01-30T12:46:52Z</time>
      </trkpt>
      <trkpt lat="62.639165642522" lon="17.994556035043">
        <ele>42.8</ele>
        <time>2018-01-30T12:46:53Z</time>
      </trkpt>
      <trkpt lat="62.63915826645" lon="17.994603476597">
        <ele>43</ele>
        <time>2018-01-30T12:46:54Z</time>
      </trkpt>
      <trkpt lat="62.639137646976" lon="17.994623006424">
        <ele>43</ele>
        <time>2018-01-30T12:46:55Z</time>
      </trkpt>
      <trkpt lat="62.639122475737" lon="17.994678913697">
        <ele>43</ele>
        <time>2018-01-30T12:46:56Z</time>
      </trkpt>
      <trkpt lat="62.639104454652" lon="17.994713279487">
        <ele>43.2</ele>
        <time>2018-01-30T12:46:57Z</time>
      </trkpt>
      <trkpt lat="62.6390954022" lon="17.99476164305">
        <ele>43.2</ele>
        <time>2018-01-30T12:46:58Z</time>
      </trkpt>
      <trkpt lat="62.639077297296" lon="17.994794500098">
        <ele>43.4</ele>
        <time>2018-01-30T12:46:59Z</time>
      </trkpt>
      <trkpt lat="62.639056761641" lon="17.994838337435">
        <ele>43.4</ele>
        <time>2018-01-30T12:47:00Z</time>
      </trkpt>
      <trkpt lat="62.639049972302" lon="17.994869518103">
        <ele>43.4</ele>
        <time>2018-01-30T12:47:01Z</time>
      </trkpt>
      <trkpt lat="62.639024826602" lon="17.994917294933">
        <ele>43.6</ele>
        <time>2018-01-30T12:47:02Z</time>
      </trkpt>
      <trkpt lat="62.639013594856" lon="17.994941937719">
        <ele>43.8</ele>
        <time>2018-01-30T12:47:03Z</time>
      </trkpt>
      <trkpt lat="62.63899398121" lon="17.994980075364">
        <ele>43.8</ele>
        <time>2018-01-30T12:47:04Z</time>
      </trkpt>
      <trkpt lat="62.63897973198" lon="17.995003628503">
        <ele>43.8</ele>
        <time>2018-01-30T12:47:05Z</time>
      </trkpt>
      <trkpt lat="62.638965398931" lon="17.995037323741">
        <ele>43.8</ele>
        <time>2018-01-30T12:47:06Z</time>
      </trkpt>
      <trkpt lat="62.638952155529" lon="17.995065235468">
        <ele>43.8</ele>
        <time>2018-01-30T12:47:07Z</time>
      </trkpt>
      <trkpt lat="62.638934721177" lon="17.995091638453">
        <ele>44</ele>
        <time>2018-01-30T12:47:08Z</time>
      </trkpt>
      <trkpt lat="62.638931452236" lon="17.995129859917">
        <ele>44</ele>
        <time>2018-01-30T12:47:09Z</time>
      </trkpt>
      <trkpt lat="62.638913263513" lon="17.995158526015">
        <ele>44.2</ele>
        <time>2018-01-30T12:47:10Z</time>
      </trkpt>
      <trkpt lat="62.638895996799" lon="17.995201608981">
        <ele>44.4</ele>
        <time>2018-01-30T12:47:11Z</time>
      </trkpt>
      <trkpt lat="62.638876886067" lon="17.995236561504">
        <ele>44.6</ele>
        <time>2018-01-30T12:47:12Z</time>
      </trkpt>
      <trkpt lat="62.638860289905" lon="17.995268999457">
        <ele>44.8</ele>
        <time>2018-01-30T12:47:13Z</time>
      </trkpt>
      <trkpt lat="62.638850063987" lon="17.99530562836">
        <ele>44.8</ele>
        <time>2018-01-30T12:47:14Z</time>
      </trkpt>
      <trkpt lat="62.638820140604" lon="17.995322140703">
        <ele>44.8</ele>
        <time>2018-01-30T12:47:15Z</time>
      </trkpt>
      <trkpt lat="62.638813602722" lon="17.995377125967">
        <ele>45</ele>
        <time>2018-01-30T12:47:16Z</time>
      </trkpt>
      <trkpt lat="62.63878611009" lon="17.99540788754">
        <ele>45</ele>
        <time>2018-01-30T12:47:17Z</time>
      </trkpt>
      <trkpt lat="62.638765574435" lon="17.99546069351">
        <ele>45</ele>
        <time>2018-01-30T12:47:18Z</time>
      </trkpt>
      <trkpt lat="62.638747469531" lon="17.995486090667">
        <ele>45</ele>
        <time>2018-01-30T12:47:19Z</time>
      </trkpt>
      <trkpt lat="62.638725592772" lon="17.995523976855">
        <ele>45.2</ele>
        <time>2018-01-30T12:47:20Z</time>
      </trkpt>
      <trkpt lat="62.638710840628" lon="17.995558175007">
        <ele>45.2</ele>
        <time>2018-01-30T12:47:21Z</time>
      </trkpt>
      <trkpt lat="62.638683767091" lon="17.99561408228">
        <ele>45.4</ele>
        <time>2018-01-30T12:47:22Z</time>
      </trkpt>
      <trkpt lat="62.638677732123" lon="17.995642161645">
        <ele>45.4</ele>
        <time>2018-01-30T12:47:23Z</time>
      </trkpt>
      <trkpt lat="62.638658537572" lon="17.995697985099">
        <ele>45.4</ele>
        <time>2018-01-30T12:47:24Z</time>
      </trkpt>
      <trkpt lat="62.638638756288" lon="17.995736038925">
        <ele>45.6</ele>
        <time>2018-01-30T12:47:25Z</time>
      </trkpt>
      <trkpt lat="62.638620483746" lon="17.995772751647">
        <ele>45.6</ele>
        <time>2018-01-30T12:47:26Z</time>
      </trkpt>
      <trkpt lat="62.638603971403" lon="17.995806698342">
        <ele>45.6</ele>
        <time>2018-01-30T12:47:27Z</time>
      </trkpt>
      <trkpt lat="62.638587542879" lon="17.995844835987">
        <ele>45.8</ele>
        <time>2018-01-30T12:47:28Z</time>
      </trkpt>
      <trkpt lat="62.638569940889" lon="17.995884901469">
        <ele>46</ele>
        <time>2018-01-30T12:47:29Z</time>
      </trkpt>
      <trkpt lat="62.638549069958" lon="17.995925721322">
        <ele>46</ele>
        <time>2018-01-30T12:47:30Z</time>
      </trkpt>
      <trkpt lat="62.638533228167" lon="17.995963356053">
        <ele>46.2</ele>
        <time>2018-01-30T12:47:31Z</time>
      </trkpt>
      <trkpt lat="62.638517805471" lon="17.995999817318">
        <ele>46.2</ele>
        <time>2018-01-30T12:47:32Z</time>
      </trkpt>
      <trkpt lat="62.638501796042" lon="17.996038541696">
        <ele>46.2</ele>
        <time>2018-01-30T12:47:33Z</time>
      </trkpt>
      <trkpt lat="62.638486121889" lon="17.996069554726">
        <ele>46.2</ele>
        <time>2018-01-30T12:47:34Z</time>
      </trkpt>
      <trkpt lat="62.63848017074" lon="17.99609352696">
        <ele>46.4</ele>
        <time>2018-01-30T12:47:35Z</time>
      </trkpt>
      <trkpt lat="62.638446978416" lon="17.996135939374">
        <ele>46.4</ele>
        <time>2018-01-30T12:47:36Z</time>
      </trkpt>
      <trkpt lat="62.638434740842" lon="17.996174328476">
        <ele>46.6</ele>
        <time>2018-01-30T12:47:37Z</time>
      </trkpt>
      <trkpt lat="62.638413366997" lon="17.996208861904">
        <ele>46.8</ele>
        <time>2018-01-30T12:47:38Z</time>
      </trkpt>
      <trkpt lat="62.63839551355" lon="17.996240294029">
        <ele>47</ele>
        <time>2018-01-30T12:47:39Z</time>
      </trkpt>
      <trkpt lat="62.638393250437" lon="17.996280527149">
        <ele>47</ele>
        <time>2018-01-30T12:47:40Z</time>
      </trkpt>
      <trkpt lat="62.638368775289" lon="17.996319083889">
        <ele>47.2</ele>
        <time>2018-01-30T12:47:41Z</time>
      </trkpt>
      <trkpt lat="62.638351340937" lon="17.996349426367">
        <ele>47.2</ele>
        <time>2018-01-30T12:47:42Z</time>
      </trkpt>
      <trkpt lat="62.638335415327" lon="17.996379685026">
        <ele>47.2</ele>
        <time>2018-01-30T12:47:43Z</time>
      </trkpt>
      <trkpt lat="62.638331056739" lon="17.996408434943">
        <ele>47.2</ele>
        <time>2018-01-30T12:47:44Z</time>
      </trkpt>
      <trkpt lat="62.6383075036" lon="17.996430227883">
        <ele>47.2</ele>
        <time>2018-01-30T12:47:45Z</time>
      </trkpt>
      <trkpt lat="62.638298451148" lon="17.996463587845">
        <ele>47.4</ele>
        <time>2018-01-30T12:47:46Z</time>
      </trkpt>
      <trkpt lat="62.63827229962" lon="17.996503066594">
        <ele>47.4</ele>
        <time>2018-01-30T12:47:47Z</time>
      </trkpt>
      <trkpt lat="62.638257463657" lon="17.996553525632">
        <ele>47.4</ele>
        <time>2018-01-30T12:47:48Z</time>
      </trkpt>
      <trkpt lat="62.638237263278" lon="17.99657548621">
        <ele>47.6</ele>
        <time>2018-01-30T12:47:49Z</time>
      </trkpt>
      <trkpt lat="62.638214799786" lon="17.996610438733">
        <ele>47.8</ele>
        <time>2018-01-30T12:47:50Z</time>
      </trkpt>
      <trkpt lat="62.638199209452" lon="17.996643882514">
        <ele>47.8</ele>
        <time>2018-01-30T12:47:51Z</time>
      </trkpt>
      <trkpt lat="62.638167609689" lon="17.996675314639">
        <ele>48</ele>
        <time>2018-01-30T12:47:52Z</time>
      </trkpt>
      <trkpt lat="62.638164927481" lon="17.996720828356">
        <ele>48</ele>
        <time>2018-01-30T12:47:53Z</time>
      </trkpt>
      <trkpt lat="62.638132908623" lon="17.99674563878">
        <ele>48.2</ele>
        <time>2018-01-30T12:47:54Z</time>
      </trkpt>
      <trkpt lat="62.638116228642" lon="17.996776903267">
        <ele>48.2</ele>
        <time>2018-01-30T12:47:55Z</time>
      </trkpt>
      <trkpt lat="62.638098459014" lon="17.996811352876">
        <ele>48.4</ele>
        <time>2018-01-30T12:47:56Z</time>
      </trkpt>
      <trkpt lat="62.638082198128" lon="17.996847730322">
        <ele>48.6</ele>
        <time>2018-01-30T12:47:57Z</time>
      </trkpt>
      <trkpt lat="62.638069122364" lon="17.996884862139">
        <ele>48.6</ele>
        <time>2018-01-30T12:47:58Z</time>
      </trkpt>
      <trkpt lat="62.638043557569" lon="17.996901374482">
        <ele>48.6</ele>
        <time>2018-01-30T12:47:59Z</time>
      </trkpt>
      <trkpt lat="62.638027129045" lon="17.996932052236">
        <ele>49</ele>
        <time>2018-01-30T12:48:00Z</time>
      </trkpt>
      <trkpt lat="62.638006174295" lon="17.996954431909">
        <ele>49.2</ele>
        <time>2018-01-30T12:48:01Z</time>
      </trkpt>
      <trkpt lat="62.637984632812" lon="17.996976643944">
        <ele>49.2</ele>
        <time>2018-01-30T12:48:02Z</time>
      </trkpt>
      <trkpt lat="62.637966108813" lon="17.996999694169">
        <ele>49.2</ele>
        <time>2018-01-30T12:48:03Z</time>
      </trkpt>
      <trkpt lat="62.637945070244" lon="17.997030958656">
        <ele>49.4</ele>
        <time>2018-01-30T12:48:04Z</time>
      </trkpt>
      <trkpt lat="62.63793115629" lon="17.997073119613">
        <ele>49.6</ele>
        <time>2018-01-30T12:48:05Z</time>
      </trkpt>
      <trkpt lat="62.637915901232" lon="17.997102288625">
        <ele>49.6</ele>
        <time>2018-01-30T12:48:06Z</time>
      </trkpt>
      <trkpt lat="62.637898969794" lon="17.997150652188">
        <ele>49.8</ele>
        <time>2018-01-30T12:48:07Z</time>
      </trkpt>
      <trkpt lat="62.637878517958" lon="17.99718065939">
        <ele>49.8</ele>
        <time>2018-01-30T12:48:08Z</time>
      </trkpt>
      <trkpt lat="62.637855551552" lon="17.997217372112">
        <ele>50</ele>
        <time>2018-01-30T12:48:09Z</time>
      </trkpt>
      <trkpt lat="62.637846331462" lon="17.997265400399">
        <ele>50</ele>
        <time>2018-01-30T12:48:10Z</time>
      </trkpt>
      <trkpt lat="62.637820012296" lon="17.997294904687">
        <ele>50</ele>
        <time>2018-01-30T12:48:11Z</time>
      </trkpt>
      <trkpt lat="62.637801907392" lon="17.997333964341">
        <ele>50.2</ele>
        <time>2018-01-30T12:48:12Z</time>
      </trkpt>
      <trkpt lat="62.637781287918" lon="17.99737428128">
        <ele>50.2</ele>
        <time>2018-01-30T12:48:13Z</time>
      </trkpt>
      <trkpt lat="62.637763183014" lon="17.997417531884">
        <ele>50.2</ele>
        <time>2018-01-30T12:48:14Z</time>
      </trkpt>
      <trkpt lat="62.637743569368" lon="17.997460698669">
        <ele>50.4</ele>
        <time>2018-01-30T12:48:15Z</time>
      </trkpt>
      <trkpt lat="62.637725967378" lon="17.997512917906">
        <ele>50.2</ele>
        <time>2018-01-30T12:48:16Z</time>
      </trkpt>
      <trkpt lat="62.637715154727" lon="17.997557928709">
        <ele>50.4</ele>
        <time>2018-01-30T12:48:17Z</time>
      </trkpt>
      <trkpt lat="62.637704593533" lon="17.997609393575">
        <ele>50.4</ele>
        <time>2018-01-30T12:48:18Z</time>
      </trkpt>
      <trkpt lat="62.637695205805" lon="17.997654404378">
        <ele>50.6</ele>
        <time>2018-01-30T12:48:19Z</time>
      </trkpt>
      <trkpt lat="62.637676262711" lon="17.997707629443">
        <ele>50.6</ele>
        <time>2018-01-30T12:48:20Z</time>
      </trkpt>
      <trkpt lat="62.637668299906" lon="17.997751634418">
        <ele>50.6</ele>
        <time>2018-01-30T12:48:21Z</time>
      </trkpt>
      <trkpt lat="62.637655056504" lon="17.997800584714">
        <ele>50.6</ele>
        <time>2018-01-30T12:48:22Z</time>
      </trkpt>
      <trkpt lat="62.637640807274" lon="17.997848780639">
        <ele>50.6</ele>
        <time>2018-01-30T12:48:23Z</time>
      </trkpt>
      <trkpt lat="62.637629240252" lon="17.997897647116">
        <ele>50.6</ele>
        <time>2018-01-30T12:48:24Z</time>
      </trkpt>
      <trkpt lat="62.637612979366" lon="17.997950536905">
        <ele>50.6</ele>
        <time>2018-01-30T12:48:25Z</time>
      </trkpt>
      <trkpt lat="62.637599065412" lon="17.997998229916">
        <ele>50.6</ele>
        <time>2018-01-30T12:48:26Z</time>
      </trkpt>
      <trkpt lat="62.637587079295" lon="17.998040558511">
        <ele>50.6</ele>
        <time>2018-01-30T12:48:27Z</time>
      </trkpt>
      <trkpt lat="62.63756822002" lon="17.998082300373">
        <ele>50.8</ele>
        <time>2018-01-30T12:48:28Z</time>
      </trkpt>
      <trkpt lat="62.637560592491" lon="17.998134687248">
        <ele>50.6</ele>
        <time>2018-01-30T12:48:29Z</time>
      </trkpt>
      <trkpt lat="62.637515330231" lon="17.998187577037">
        <ele>50.6</ele>
        <time>2018-01-30T12:48:30Z</time>
      </trkpt>
      <trkpt lat="62.637481970269" lon="17.998232923116">
        <ele>50.6</ele>
        <time>2018-01-30T12:48:31Z</time>
      </trkpt>
      <trkpt lat="62.637460009691" lon="17.998260499567">
        <ele>50.6</ele>
        <time>2018-01-30T12:48:32Z</time>
      </trkpt>
      <trkpt lat="62.637441318054" lon="17.998296625556">
        <ele>50.6</ele>
        <time>2018-01-30T12:48:33Z</time>
      </trkpt>
      <trkpt lat="62.637420866218" lon="17.998316658297">
        <ele>50.6</ele>
        <time>2018-01-30T12:48:34Z</time>
      </trkpt>
      <trkpt lat="62.6373938765" lon="17.99834993444">
        <ele>50.8</ele>
        <time>2018-01-30T12:48:35Z</time>
      </trkpt>
      <trkpt lat="62.637377447976" lon="17.998382875307">
        <ele>51</ele>
        <time>2018-01-30T12:48:36Z</time>
      </trkpt>
      <trkpt lat="62.637356241769" lon="17.998419755667">
        <ele>51.2</ele>
        <time>2018-01-30T12:48:37Z</time>
      </trkpt>
      <trkpt lat="62.637341405806" lon="17.998470885257">
        <ele>51.6</ele>
        <time>2018-01-30T12:48:38Z</time>
      </trkpt>
      <trkpt lat="62.63732263035" lon="17.998513465309">
        <ele>51.6</ele>
        <time>2018-01-30T12:48:39Z</time>
      </trkpt>
      <trkpt lat="62.637305363636" lon="17.998558308474">
        <ele>51.8</ele>
        <time>2018-01-30T12:48:40Z</time>
      </trkpt>
      <trkpt lat="62.637291114406" lon="17.99860893515">
        <ele>51.8</ele>
        <time>2018-01-30T12:48:41Z</time>
      </trkpt>
      <trkpt lat="62.637273680054" lon="17.998658555998">
        <ele>51.8</ele>
        <time>2018-01-30T12:48:42Z</time>
      </trkpt>
      <trkpt lat="62.637252557666" lon="17.998707506294">
        <ele>51.8</ele>
        <time>2018-01-30T12:48:43Z</time>
      </trkpt>
      <trkpt lat="62.637230094174" lon="17.998747487957">
        <ele>52</ele>
        <time>2018-01-30T12:48:44Z</time>
      </trkpt>
      <trkpt lat="62.637208468872" lon="17.998800629203">
        <ele>51.8</ele>
        <time>2018-01-30T12:48:45Z</time>
      </trkpt>
      <trkpt lat="62.637189609597" lon="17.998833905346">
        <ele>51.8</ele>
        <time>2018-01-30T12:48:46Z</time>
      </trkpt>
      <trkpt lat="62.637164799173" lon="17.998864080186">
        <ele>51.8</ele>
        <time>2018-01-30T12:48:47Z</time>
      </trkpt>
      <trkpt lat="62.637149292658" lon="17.998898697433">
        <ele>51.8</ele>
        <time>2018-01-30T12:48:48Z</time>
      </trkpt>
      <trkpt lat="62.637124566053" lon="17.99892241821">
        <ele>51.6</ele>
        <time>2018-01-30T12:48:49Z</time>
      </trkpt>
      <trkpt lat="62.637103108389" lon="17.99894924029">
        <ele>51.6</ele>
        <time>2018-01-30T12:48:50Z</time>
      </trkpt>
      <trkpt lat="62.637081818363" lon="17.998963405701">
        <ele>51.8</ele>
        <time>2018-01-30T12:48:51Z</time>
      </trkpt>
      <trkpt lat="62.637063964916" lon="17.999001459527">
        <ele>51.8</ele>
        <time>2018-01-30T12:48:52Z</time>
      </trkpt>
      <trkpt lat="62.6370418367" lon="17.999029035978">
        <ele>52</ele>
        <time>2018-01-30T12:48:53Z</time>
      </trkpt>
      <trkpt lat="62.63702088195" lon="17.999051415651">
        <ele>52.2</ele>
        <time>2018-01-30T12:48:54Z</time>
      </trkpt>
      <trkpt lat="62.637001016847" lon="17.999079411197">
        <ele>52.4</ele>
        <time>2018-01-30T12:48:55Z</time>
      </trkpt>
      <trkpt lat="62.636977044613" lon="17.999101204137">
        <ele>52.6</ele>
        <time>2018-01-30T12:48:56Z</time>
      </trkpt>
      <trkpt lat="62.636959023528" lon="17.999132636262">
        <ele>52.8</ele>
        <time>2018-01-30T12:48:57Z</time>
      </trkpt>
      <trkpt lat="62.636941589176" lon="17.99915375865">
        <ele>52.8</ele>
        <time>2018-01-30T12:48:58Z</time>
      </trkpt>
      <trkpt lat="62.636919796236" lon="17.999181921834">
        <ele>52.8</ele>
        <time>2018-01-30T12:48:59Z</time>
      </trkpt>
      <trkpt lat="62.636906552834" lon="17.999216036167">
        <ele>53</ele>
        <time>2018-01-30T12:49:00Z</time>
      </trkpt>
      <trkpt lat="62.636881574772" lon="17.999236488003">
        <ele>53.2</ele>
        <time>2018-01-30T12:49:01Z</time>
      </trkpt>
      <trkpt lat="62.636866319714" lon="17.999266998119">
        <ele>53.4</ele>
        <time>2018-01-30T12:49:02Z</time>
      </trkpt>
      <trkpt lat="62.636840838738" lon="17.999299436072">
        <ele>53.4</ele>
        <time>2018-01-30T12:49:03Z</time>
      </trkpt>
      <trkpt lat="62.636828433526" lon="17.999323743582">
        <ele>53.6</ele>
        <time>2018-01-30T12:49:04Z</time>
      </trkpt>
      <trkpt lat="62.636805131844" lon="17.999364814892">
        <ele>53.6</ele>
        <time>2018-01-30T12:49:05Z</time>
      </trkpt>
      <trkpt lat="62.636787446035" lon="17.999389625316">
        <ele>53.6</ele>
        <time>2018-01-30T12:49:06Z</time>
      </trkpt>
      <trkpt lat="62.636765485457" lon="17.999436647775">
        <ele>53.8</ele>
        <time>2018-01-30T12:49:07Z</time>
      </trkpt>
      <trkpt lat="62.636742938146" lon="17.999466654977">
        <ele>53.8</ele>
        <time>2018-01-30T12:49:08Z</time>
      </trkpt>
      <trkpt lat="62.636719720283" lon="17.999500517853">
        <ele>53.8</ele>
        <time>2018-01-30T12:49:09Z</time>
      </trkpt>
      <trkpt lat="62.636703627035" lon="17.999542259715">
        <ele>53.8</ele>
        <time>2018-01-30T12:49:10Z</time>
      </trkpt>
      <trkpt lat="62.63668057681" lon="17.999580481179">
        <ele>53.8</ele>
        <time>2018-01-30T12:49:11Z</time>
      </trkpt>
      <trkpt lat="62.636658364775" lon="17.999621720127">
        <ele>54</ele>
        <time>2018-01-30T12:49:12Z</time>
      </trkpt>
      <trkpt lat="62.636641098061" lon="17.999663713446">
        <ele>54.2</ele>
        <time>2018-01-30T12:49:13Z</time>
      </trkpt>
      <trkpt lat="62.636626429736" lon="17.999707383145">
        <ele>54.4</ele>
        <time>2018-01-30T12:49:14Z</time>
      </trkpt>
      <trkpt lat="62.636608660108" lon="17.999767565187">
        <ele>54.6</ele>
        <time>2018-01-30T12:49:15Z</time>
      </trkpt>
      <trkpt lat="62.636595751982" lon="17.999809977601">
        <ele>54.4</ele>
        <time>2018-01-30T12:49:16Z</time>
      </trkpt>
      <trkpt lat="62.636582676218" lon="17.999857419155">
        <ele>54.4</ele>
        <time>2018-01-30T12:49:17Z</time>
      </trkpt>
      <trkpt lat="62.636569348997" lon="17.999902681415">
        <ele>54.2</ele>
        <time>2018-01-30T12:49:18Z</time>
      </trkpt>
      <trkpt lat="62.636557279061" lon="17.999946770209">
        <ele>54.2</ele>
        <time>2018-01-30T12:49:19Z</time>
      </trkpt>
      <trkpt lat="62.636543784202" lon="18.000016423798">
        <ele>54.2</ele>
        <time>2018-01-30T12:49:20Z</time>
      </trkpt>
      <trkpt lat="62.636527607135" lon="18.000069648863">
        <ele>54.2</ele>
        <time>2018-01-30T12:49:21Z</time>
      </trkpt>
      <trkpt lat="62.636519560511" lon="18.000116084589">
        <ele>54.4</ele>
        <time>2018-01-30T12:49:22Z</time>
      </trkpt>
      <trkpt lat="62.636509166955" lon="18.00016713036">
        <ele>54.4</ele>
        <time>2018-01-30T12:49:23Z</time>
      </trkpt>
      <trkpt lat="62.636499695408" lon="18.000216415932">
        <ele>54.4</ele>
        <time>2018-01-30T12:49:24Z</time>
      </trkpt>
      <trkpt lat="62.636493073707" lon="18.000262097287">
        <ele>54.4</ele>
        <time>2018-01-30T12:49:25Z</time>
      </trkpt>
      <trkpt lat="62.636482931608" lon="18.000311466678">
        <ele>54.4</ele>
        <time>2018-01-30T12:49:26Z</time>
      </trkpt>
      <trkpt lat="62.636472957147" lon="18.000368631236">
        <ele>54.4</ele>
        <time>2018-01-30T12:49:27Z</time>
      </trkpt>
      <trkpt lat="62.636454936062" lon="18.000424370871">
        <ele>54.4</ele>
        <time>2018-01-30T12:49:28Z</time>
      </trkpt>
      <trkpt lat="62.6364383399" lon="18.000475500461">
        <ele>54.4</ele>
        <time>2018-01-30T12:49:29Z</time>
      </trkpt>
      <trkpt lat="62.636420486453" lon="18.000521936187">
        <ele>54.4</ele>
        <time>2018-01-30T12:49:30Z</time>
      </trkpt>
      <trkpt lat="62.636402130092" lon="18.000575077433">
        <ele>54.4</ele>
        <time>2018-01-30T12:49:31Z</time>
      </trkpt>
      <trkpt lat="62.636384360464" lon="18.000620172055">
        <ele>54.4</ele>
        <time>2018-01-30T12:49:32Z</time>
      </trkpt>
      <trkpt lat="62.636363070438" lon="18.000673900034">
        <ele>54.6</ele>
        <time>2018-01-30T12:49:33Z</time>
      </trkpt>
      <trkpt lat="62.636349072665" lon="18.00070273377">
        <ele>54.4</ele>
        <time>2018-01-30T12:49:34Z</time>
      </trkpt>
      <trkpt lat="62.636323004956" lon="18.000756210292">
        <ele>54.6</ele>
        <time>2018-01-30T12:49:35Z</time>
      </trkpt>
      <trkpt lat="62.636310683563" lon="18.000800047629">
        <ele>54.6</ele>
        <time>2018-01-30T12:49:36Z</time>
      </trkpt>
      <trkpt lat="62.636297356342" lon="18.000848327373">
        <ele>54.6</ele>
        <time>2018-01-30T12:49:37Z</time>
      </trkpt>
      <trkpt lat="62.636278077972" lon="18.000906916854">
        <ele>54.6</ele>
        <time>2018-01-30T12:49:38Z</time>
      </trkpt>
      <trkpt lat="62.636266343312" lon="18.000952849666">
        <ele>54.6</ele>
        <time>2018-01-30T12:49:39Z</time>
      </trkpt>
      <trkpt lat="62.636241784345" lon="18.001001213229">
        <ele>54.6</ele>
        <time>2018-01-30T12:49:40Z</time>
      </trkpt>
      <trkpt lat="62.636218398844" lon="18.001062820194">
        <ele>54.6</ele>
        <time>2018-01-30T12:49:41Z</time>
      </trkpt>
      <trkpt lat="62.636197024999" lon="18.001111016119">
        <ele>54.6</ele>
        <time>2018-01-30T12:49:42Z</time>
      </trkpt>
      <trkpt lat="62.636175651154" lon="18.001155524008">
        <ele>54.6</ele>
        <time>2018-01-30T12:49:43Z</time>
      </trkpt>
      <trkpt lat="62.636163832675" lon="18.00119307492">
        <ele>54.6</ele>
        <time>2018-01-30T12:49:44Z</time>
      </trkpt>
      <trkpt lat="62.63613826788" lon="18.001246216166">
        <ele>54.6</ele>
        <time>2018-01-30T12:49:45Z</time>
      </trkpt>
      <trkpt lat="62.636116055845" lon="18.001292987168">
        <ele>54.6</ele>
        <time>2018-01-30T12:49:46Z</time>
      </trkpt>
      <trkpt lat="62.636099459683" lon="18.00134227274">
        <ele>54.6</ele>
        <time>2018-01-30T12:49:47Z</time>
      </trkpt>
      <trkpt lat="62.636078672571" lon="18.001392312683">
        <ele>54.6</ele>
        <time>2018-01-30T12:49:48Z</time>
      </trkpt>
      <trkpt lat="62.636070709766" lon="18.001431791432">
        <ele>54.6</ele>
        <time>2018-01-30T12:49:49Z</time>
      </trkpt>
      <trkpt lat="62.636051431396" lon="18.001484848859">
        <ele>54.6</ele>
        <time>2018-01-30T12:49:50Z</time>
      </trkpt>
      <trkpt lat="62.636034499958" lon="18.001538995933">
        <ele>54.6</ele>
        <time>2018-01-30T12:49:51Z</time>
      </trkpt>
      <trkpt lat="62.636012790837" lon="18.001594484111">
        <ele>54.6</ele>
        <time>2018-01-30T12:49:52Z</time>
      </trkpt>
      <trkpt lat="62.635986387852" lon="18.001648547366">
        <ele>54.6</ele>
        <time>2018-01-30T12:49:53Z</time>
      </trkpt>
      <trkpt lat="62.635965181645" lon="18.001692133246">
        <ele>54.6</ele>
        <time>2018-01-30T12:49:54Z</time>
      </trkpt>
      <trkpt lat="62.635946070913" lon="18.001743598112">
        <ele>54.6</ele>
        <time>2018-01-30T12:49:55Z</time>
      </trkpt>
      <trkpt lat="62.635921428127" lon="18.001795230616">
        <ele>54.6</ele>
        <time>2018-01-30T12:49:56Z</time>
      </trkpt>
      <trkpt lat="62.635901646843" lon="18.001849964423">
        <ele>54.8</ele>
        <time>2018-01-30T12:49:57Z</time>
      </trkpt>
      <trkpt lat="62.635885637414" lon="18.00189296357">
        <ele>54.8</ele>
        <time>2018-01-30T12:49:58Z</time>
      </trkpt>
      <trkpt lat="62.635867113415" lon="18.001946104816">
        <ele>54.8</ele>
        <time>2018-01-30T12:49:59Z</time>
      </trkpt>
      <trkpt lat="62.635848505597" lon="18.002003437012">
        <ele>54.8</ele>
        <time>2018-01-30T12:50:00Z</time>
      </trkpt>
      <trkpt lat="62.635825958286" lon="18.002056075344">
        <ele>54.8</ele>
        <time>2018-01-30T12:50:01Z</time>
      </trkpt>
      <trkpt lat="62.635803746251" lon="18.002106366744">
        <ele>54.8</ele>
        <time>2018-01-30T12:50:02Z</time>
      </trkpt>
      <trkpt lat="62.6357845517" lon="18.002153053927">
        <ele>54.8</ele>
        <time>2018-01-30T12:50:03Z</time>
      </trkpt>
      <trkpt lat="62.635769296642" lon="18.002186665346">
        <ele>54.8</ele>
        <time>2018-01-30T12:50:04Z</time>
      </trkpt>
      <trkpt lat="62.63574180401" lon="18.00226092898">
        <ele>54.6</ele>
        <time>2018-01-30T12:50:05Z</time>
      </trkpt>
      <trkpt lat="62.635720094889" lon="18.002308789629">
        <ele>54.6</ele>
        <time>2018-01-30T12:50:06Z</time>
      </trkpt>
      <trkpt lat="62.63569067442" lon="18.002365535092">
        <ele>54.6</ele>
        <time>2018-01-30T12:50:07Z</time>
      </trkpt>
      <trkpt lat="62.635669803489" lon="18.002423705478">
        <ele>54.6</ele>
        <time>2018-01-30T12:50:08Z</time>
      </trkpt>
      <trkpt lat="62.635656811544" lon="18.002480283303">
        <ele>54.6</ele>
        <time>2018-01-30T12:50:09Z</time>
      </trkpt>
      <trkpt lat="62.635643149047" lon="18.002549350159">
        <ele>54.6</ele>
        <time>2018-01-30T12:50:10Z</time>
      </trkpt>
      <trkpt lat="62.635627223437" lon="18.002612046771">
        <ele>54.6</ele>
        <time>2018-01-30T12:50:11Z</time>
      </trkpt>
      <trkpt lat="62.635614063854" lon="18.002687064776">
        <ele>54.6</ele>
        <time>2018-01-30T12:50:12Z</time>
      </trkpt>
      <trkpt lat="62.635598222063" lon="18.002766189912">
        <ele>54.4</ele>
        <time>2018-01-30T12:50:13Z</time>
      </trkpt>
      <trkpt lat="62.635581793539" lon="18.00285101474">
        <ele>54.2</ele>
        <time>2018-01-30T12:50:14Z</time>
      </trkpt>
      <trkpt lat="62.635559162409" lon="18.002940784889">
        <ele>53.8</ele>
        <time>2018-01-30T12:50:15Z</time>
      </trkpt>
      <trkpt lat="62.63553980022" lon="18.00301194722">
        <ele>53.4</ele>
        <time>2018-01-30T12:50:16Z</time>
      </trkpt>
      <trkpt lat="62.635518594013" lon="18.003085372664">
        <ele>53</ele>
        <time>2018-01-30T12:50:17Z</time>
      </trkpt>
      <trkpt lat="62.63549705253" lon="18.003157959918">
        <ele>52.4</ele>
        <time>2018-01-30T12:50:18Z</time>
      </trkpt>
      <trkpt lat="62.635477438884" lon="18.003238174701">
        <ele>52.2</ele>
        <time>2018-01-30T12:50:19Z</time>
      </trkpt>
      <trkpt lat="62.635456400315" lon="18.003327441936">
        <ele>51.8</ele>
        <time>2018-01-30T12:50:20Z</time>
      </trkpt>
      <trkpt lat="62.635439971791" lon="18.003405812701">
        <ele>51.8</ele>
        <time>2018-01-30T12:50:21Z</time>
      </trkpt>
      <trkpt lat="62.635426560751" lon="18.003475382471">
        <ele>51.8</ele>
        <time>2018-01-30T12:50:22Z</time>
      </trkpt>
      <trkpt lat="62.635412730616" lon="18.003573115425">
        <ele>52</ele>
        <time>2018-01-30T12:50:23Z</time>
      </trkpt>
      <trkpt lat="62.635395380083" lon="18.003652659656">
        <ele>52.2</ele>
        <time>2018-01-30T12:50:24Z</time>
      </trkpt>
      <trkpt lat="62.635377526636" lon="18.003743603271">
        <ele>52</ele>
        <time>2018-01-30T12:50:25Z</time>
      </trkpt>
      <trkpt lat="62.635357661533" lon="18.003837229094">
        <ele>51.4</ele>
        <time>2018-01-30T12:50:26Z</time>
      </trkpt>
      <trkpt lat="62.635345256321" lon="18.003943511586">
        <ele>51</ele>
        <time>2018-01-30T12:50:27Z</time>
      </trkpt>
      <trkpt lat="62.635326145589" lon="18.004039819617">
        <ele>50.6</ele>
        <time>2018-01-30T12:50:28Z</time>
      </trkpt>
      <trkpt lat="62.635305190839" lon="18.004126823739">
        <ele>50.6</ele>
        <time>2018-01-30T12:50:29Z</time>
      </trkpt>
      <trkpt lat="62.635287085935" lon="18.004213324947">
        <ele>50.8</ele>
        <time>2018-01-30T12:50:30Z</time>
      </trkpt>
      <trkpt lat="62.635272166153" lon="18.004284906373">
        <ele>51.2</ele>
        <time>2018-01-30T12:50:31Z</time>
      </trkpt>
      <trkpt lat="62.635251379041" lon="18.004371407581">
        <ele>51.2</ele>
        <time>2018-01-30T12:50:32Z</time>
      </trkpt>
      <trkpt lat="62.635235872526" lon="18.004448437242">
        <ele>51.4</ele>
        <time>2018-01-30T12:50:33Z</time>
      </trkpt>
      <trkpt lat="62.63521625888" lon="18.004500153565">
        <ele>51.2</ele>
        <time>2018-01-30T12:50:34Z</time>
      </trkpt>
      <trkpt lat="62.635188850067" lon="18.004578691968">
        <ele>51.2</ele>
        <time>2018-01-30T12:50:35Z</time>
      </trkpt>
      <trkpt lat="62.635169236421" lon="18.004626720255">
        <ele>51.2</ele>
        <time>2018-01-30T12:50:36Z</time>
      </trkpt>
      <trkpt lat="62.635142246703" lon="18.004678771854">
        <ele>51.2</ele>
        <time>2018-01-30T12:50:37Z</time>
      </trkpt>
      <trkpt lat="62.635117687736" lon="18.004724117933">
        <ele>51</ele>
        <time>2018-01-30T12:50:38Z</time>
      </trkpt>
      <trkpt lat="62.635091536208" lon="18.004764686329">
        <ele>51</ele>
        <time>2018-01-30T12:50:39Z</time>
      </trkpt>
      <trkpt lat="62.635065049404" lon="18.004809445675">
        <ele>51</ele>
        <time>2018-01-30T12:50:40Z</time>
      </trkpt>
      <trkpt lat="62.635040909532" lon="18.004845823121">
        <ele>51</ele>
        <time>2018-01-30T12:50:41Z</time>
      </trkpt>
      <trkpt lat="62.6350134169" lon="18.004893180856">
        <ele>51</ele>
        <time>2018-01-30T12:50:42Z</time>
      </trkpt>
      <trkpt lat="62.634995563453" lon="18.004927630465">
        <ele>51</ele>
        <time>2018-01-30T12:50:43Z</time>
      </trkpt>
      <trkpt lat="62.634970333934" lon="18.004967612128">
        <ele>51</ele>
        <time>2018-01-30T12:50:44Z</time>
      </trkpt>
      <trkpt lat="62.634940662008" lon="18.005020585736">
        <ele>51</ele>
        <time>2018-01-30T12:50:45Z</time>
      </trkpt>
      <trkpt lat="62.634924484941" lon="18.005050509119">
        <ele>51.2</ele>
        <time>2018-01-30T12:50:46Z</time>
      </trkpt>
      <trkpt lat="62.634901183259" lon="18.005094933189">
        <ele>51</ele>
        <time>2018-01-30T12:50:47Z</time>
      </trkpt>
      <trkpt lat="62.634882743079" lon="18.005133741386">
        <ele>51</ele>
        <time>2018-01-30T12:50:48Z</time>
      </trkpt>
      <trkpt lat="62.634864135261" lon="18.005176237619">
        <ele>51</ele>
        <time>2018-01-30T12:50:49Z</time>
      </trkpt>
      <trkpt lat="62.634840665941" lon="18.005232061073">
        <ele>51.2</ele>
        <time>2018-01-30T12:50:50Z</time>
      </trkpt>
      <trkpt lat="62.63482650053" lon="18.00527170746">
        <ele>51.2</ele>
        <time>2018-01-30T12:50:51Z</time>
      </trkpt>
      <trkpt lat="62.634803953219" lon="18.005315628616">
        <ele>51.2</ele>
        <time>2018-01-30T12:50:52Z</time>
      </trkpt>
      <trkpt lat="62.634784507211" lon="18.00536139379">
        <ele>51.2</ele>
        <time>2018-01-30T12:50:53Z</time>
      </trkpt>
      <trkpt lat="62.634759864425" lon="18.005396262494">
        <ele>51.2</ele>
        <time>2018-01-30T12:50:54Z</time>
      </trkpt>
      <trkpt lat="62.634733126164" lon="18.005427862257">
        <ele>51.4</ele>
        <time>2018-01-30T12:50:55Z</time>
      </trkpt>
      <trkpt lat="62.634713428699" lon="18.005448900826">
        <ele>51.4</ele>
        <time>2018-01-30T12:50:56Z</time>
      </trkpt>
      <trkpt lat="62.634685852248" lon="18.005472370146">
        <ele>51.2</ele>
        <time>2018-01-30T12:50:57Z</time>
      </trkpt>
      <trkpt lat="62.634669591362" lon="18.005483015159">
        <ele>51.2</ele>
        <time>2018-01-30T12:50:58Z</time>
      </trkpt>
      <trkpt lat="62.634647463146" lon="18.005497348208">
        <ele>51.2</ele>
        <time>2018-01-30T12:50:59Z</time>
      </trkpt>
      <trkpt lat="62.634627430405" lon="18.00551562075">
        <ele>51.2</ele>
        <time>2018-01-30T12:51:00Z</time>
      </trkpt>
      <trkpt lat="62.63461443846" lon="18.005532636007">
        <ele>51.2</ele>
        <time>2018-01-30T12:51:01Z</time>
      </trkpt>
      <trkpt lat="62.634595495366" lon="18.005554680404">
        <ele>51.4</ele>
        <time>2018-01-30T12:51:02Z</time>
      </trkpt>
      <trkpt lat="62.634578815385" lon="18.005577479172">
        <ele>51.6</ele>
        <time>2018-01-30T12:51:03Z</time>
      </trkpt>
      <trkpt lat="62.634567332182" lon="18.005599020655">
        <ele>51.6</ele>
        <time>2018-01-30T12:51:04Z</time>
      </trkpt>
      <trkpt lat="62.634547886174" lon="18.005638918499">
        <ele>51.8</ele>
        <time>2018-01-30T12:51:05Z</time>
      </trkpt>
      <trkpt lat="62.634531876745" lon="18.005674457755">
        <ele>52</ele>
        <time>2018-01-30T12:51:06Z</time>
      </trkpt>
      <trkpt lat="62.63452139937" lon="18.005704129681">
        <ele>52.2</ele>
        <time>2018-01-30T12:51:07Z</time>
      </trkpt>
      <trkpt lat="62.634502288638" lon="18.005736232358">
        <ele>52.2</ele>
        <time>2018-01-30T12:51:08Z</time>
      </trkpt>
      <trkpt lat="62.634489967245" lon="18.005775711107">
        <ele>52.4</ele>
        <time>2018-01-30T12:51:09Z</time>
      </trkpt>
      <trkpt lat="62.634470605056" lon="18.005816950055">
        <ele>52.4</ele>
        <time>2018-01-30T12:51:10Z</time>
      </trkpt>
      <trkpt lat="62.63445099141" lon="18.005864056333">
        <ele>52.4</ele>
        <time>2018-01-30T12:51:11Z</time>
      </trkpt>
      <trkpt lat="62.634432383592" lon="18.005906804023">
        <ele>52.6</ele>
        <time>2018-01-30T12:51:12Z</time>
      </trkpt>
      <trkpt lat="62.63441243467" lon="18.005951982464">
        <ele>52.6</ele>
        <time>2018-01-30T12:51:13Z</time>
      </trkpt>
      <trkpt lat="62.634397011974" lon="18.005992047946">
        <ele>52.6</ele>
        <time>2018-01-30T12:51:14Z</time>
      </trkpt>
      <trkpt lat="62.634374213206" lon="18.006048206676">
        <ele>52.6</ele>
        <time>2018-01-30T12:51:15Z</time>
      </trkpt>
      <trkpt lat="62.634357784682" lon="18.006090535271">
        <ele>52.6</ele>
        <time>2018-01-30T12:51:16Z</time>
      </trkpt>
      <trkpt lat="62.634336829932" lon="18.006141664861">
        <ele>52.6</ele>
        <time>2018-01-30T12:51:17Z</time>
      </trkpt>
      <trkpt lat="62.634319060304" lon="18.006201846903">
        <ele>52.6</ele>
        <time>2018-01-30T12:51:18Z</time>
      </trkpt>
      <trkpt lat="62.634297770278" lon="18.006253647045">
        <ele>52.6</ele>
        <time>2018-01-30T12:51:19Z</time>
      </trkpt>
      <trkpt lat="62.634272289302" lon="18.006308883766">
        <ele>52.6</ele>
        <time>2018-01-30T12:51:20Z</time>
      </trkpt>
      <trkpt lat="62.634252088923" lon="18.006346434678">
        <ele>52.6</ele>
        <time>2018-01-30T12:51:21Z</time>
      </trkpt>
      <trkpt lat="62.634233564924" lon="18.006387003074">
        <ele>52.6</ele>
        <time>2018-01-30T12:51:22Z</time>
      </trkpt>
      <trkpt lat="62.634214454192" lon="18.006435618094">
        <ele>52.6</ele>
        <time>2018-01-30T12:51:23Z</time>
      </trkpt>
      <trkpt lat="62.634185955732" lon="18.006476773223">
        <ele>52.6</ele>
        <time>2018-01-30T12:51:24Z</time>
      </trkpt>
      <trkpt lat="62.634172628511" lon="18.0065172578">
        <ele>52.6</ele>
        <time>2018-01-30T12:51:25Z</time>
      </trkpt>
      <trkpt lat="62.634148237182" lon="18.006569057942">
        <ele>52.6</ele>
        <time>2018-01-30T12:51:26Z</time>
      </trkpt>
      <trkpt lat="62.634126779518" lon="18.006613146736">
        <ele>52.6</ele>
        <time>2018-01-30T12:51:27Z</time>
      </trkpt>
      <trkpt lat="62.634106914415" lon="18.006657403168">
        <ele>52.6</ele>
        <time>2018-01-30T12:51:28Z</time>
      </trkpt>
      <trkpt lat="62.634103729293" lon="18.006662097032">
        <ele>52.6</ele>
        <time>2018-01-30T12:51:29Z</time>
      </trkpt>
      <trkpt lat="62.634070201693" lon="18.006752705371">
        <ele>52.6</ele>
        <time>2018-01-30T12:51:30Z</time>
      </trkpt>
      <trkpt lat="62.634050671866" lon="18.006803248228">
        <ele>52.6</ele>
        <time>2018-01-30T12:51:31Z</time>
      </trkpt>
      <trkpt lat="62.634036171179" lon="18.006841553511">
        <ele>52.6</ele>
        <time>2018-01-30T12:51:32Z</time>
      </trkpt>
      <trkpt lat="62.634014964972" lon="18.006888743608">
        <ele>52.6</ele>
        <time>2018-01-30T12:51:33Z</time>
      </trkpt>
      <trkpt lat="62.634006499253" lon="18.00692294176">
        <ele>52.6</ele>
        <time>2018-01-30T12:51:34Z</time>
      </trkpt>
      <trkpt lat="62.633983197571" lon="18.006981950336">
        <ele>52.6</ele>
        <time>2018-01-30T12:51:35Z</time>
      </trkpt>
      <trkpt lat="62.633970876178" lon="18.007030649175">
        <ele>52.6</ele>
        <time>2018-01-30T12:51:36Z</time>
      </trkpt>
      <trkpt lat="62.633952938912" lon="18.007077503996">
        <ele>52.8</ele>
        <time>2018-01-30T12:51:37Z</time>
      </trkpt>
      <trkpt lat="62.633935588379" lon="18.007117150383">
        <ele>52.8</ele>
        <time>2018-01-30T12:51:38Z</time>
      </trkpt>
      <trkpt lat="62.633920165683" lon="18.007157718779">
        <ele>52.8</ele>
        <time>2018-01-30T12:51:39Z</time>
      </trkpt>
      <trkpt lat="62.633899127114" lon="18.007210105654">
        <ele>52.8</ele>
        <time>2018-01-30T12:51:40Z</time>
      </trkpt>
      <trkpt lat="62.633881357486" lon="18.007262911624">
        <ele>52.8</ele>
        <time>2018-01-30T12:51:41Z</time>
      </trkpt>
      <trkpt lat="62.633858474899" lon="18.007315298499">
        <ele>52.8</ele>
        <time>2018-01-30T12:51:42Z</time>
      </trkpt>
      <trkpt lat="62.633838358339" lon="18.007355699257">
        <ele>52.8</ele>
        <time>2018-01-30T12:51:43Z</time>
      </trkpt>
      <trkpt lat="62.633815727209" lon="18.00738981359">
        <ele>52.6</ele>
        <time>2018-01-30T12:51:44Z</time>
      </trkpt>
      <trkpt lat="62.633794856278" lon="18.007414288738">
        <ele>52.6</ele>
        <time>2018-01-30T12:51:45Z</time>
      </trkpt>
      <trkpt lat="62.633770213492" lon="18.007424514656">
        <ele>52.6</ele>
        <time>2018-01-30T12:51:46Z</time>
      </trkpt>
      <trkpt lat="62.633745151611" lon="18.007422670638">
        <ele>52.6</ele>
        <time>2018-01-30T12:51:47Z</time>
      </trkpt>
      <trkpt lat="62.633717491341" lon="18.007431303995">
        <ele>52.6</ele>
        <time>2018-01-30T12:51:48Z</time>
      </trkpt>
      <trkpt lat="62.633695027849" lon="18.00742166481">
        <ele>52.6</ele>
        <time>2018-01-30T12:51:49Z</time>
      </trkpt>
      <trkpt lat="62.633670049787" lon="18.007416216575">
        <ele>52.6</ele>
        <time>2018-01-30T12:51:50Z</time>
      </trkpt>
      <trkpt lat="62.633649430313" lon="18.007397105843">
        <ele>52.6</ele>
        <time>2018-01-30T12:51:51Z</time>
      </trkpt>
      <trkpt lat="62.633634259074" lon="18.007379168577">
        <ele>52.4</ele>
        <time>2018-01-30T12:51:52Z</time>
      </trkpt>
      <trkpt lat="62.633616489446" lon="18.007361398949">
        <ele>52.6</ele>
        <time>2018-01-30T12:51:53Z</time>
      </trkpt>
      <trkpt lat="62.633602491673" lon="18.007351424488">
        <ele>52.6</ele>
        <time>2018-01-30T12:51:54Z</time>
      </trkpt>
      <trkpt lat="62.633584219131" lon="18.007331643204">
        <ele>52.8</ele>
        <time>2018-01-30T12:51:55Z</time>
      </trkpt>
      <trkpt lat="62.633569383168" lon="18.007310772273">
        <ele>53</ele>
        <time>2018-01-30T12:51:56Z</time>
      </trkpt>
      <trkpt lat="62.633553122282" lon="18.007305910771">
        <ele>53.2</ele>
        <time>2018-01-30T12:51:57Z</time>
      </trkpt>
      <trkpt lat="62.633537196672" lon="18.007290655713">
        <ele>53.4</ele>
        <time>2018-01-30T12:51:58Z</time>
      </trkpt>
      <trkpt lat="62.633519175587" lon="18.007275065379">
        <ele>53.4</ele>
        <time>2018-01-30T12:51:59Z</time>
      </trkpt>
      <trkpt lat="62.633498891389" lon="18.007260899968">
        <ele>53.6</ele>
        <time>2018-01-30T12:52:00Z</time>
      </trkpt>
      <trkpt lat="62.633479110105" lon="18.007237514467">
        <ele>53.8</ele>
        <time>2018-01-30T12:52:01Z</time>
      </trkpt>
      <trkpt lat="62.633456814251" lon="18.007225444531">
        <ele>53.8</ele>
        <time>2018-01-30T12:52:02Z</time>
      </trkpt>
      <trkpt lat="62.633433764026" lon="18.00719702989">
        <ele>54</ele>
        <time>2018-01-30T12:52:03Z</time>
      </trkpt>
      <trkpt lat="62.633417754597" lon="18.007185127592">
        <ele>54.2</ele>
        <time>2018-01-30T12:52:04Z</time>
      </trkpt>
      <trkpt lat="62.633392022164" lon="18.007154617476">
        <ele>54.2</ele>
        <time>2018-01-30T12:52:05Z</time>
      </trkpt>
      <trkpt lat="62.633372911432" lon="18.007119245858">
        <ele>54.4</ele>
        <time>2018-01-30T12:52:06Z</time>
      </trkpt>
      <trkpt lat="62.633355057985" lon="18.007094351615">
        <ele>54.4</ele>
        <time>2018-01-30T12:52:07Z</time>
      </trkpt>
      <trkpt lat="62.633335779615" lon="18.007040791274">
        <ele>54.6</ele>
        <time>2018-01-30T12:52:08Z</time>
      </trkpt>
      <trkpt lat="62.63331859672" lon="18.006997792127">
        <ele>54.6</ele>
        <time>2018-01-30T12:52:09Z</time>
      </trkpt>
      <trkpt lat="62.633306107689" lon="18.006962839604">
        <ele>54.6</ele>
        <time>2018-01-30T12:52:10Z</time>
      </trkpt>
      <trkpt lat="62.633293702477" lon="18.006902657562">
        <ele>54.8</ele>
        <time>2018-01-30T12:52:11Z</time>
      </trkpt>
      <trkpt lat="62.633286410224" lon="18.006850186868">
        <ele>55</ele>
        <time>2018-01-30T12:52:12Z</time>
      </trkpt>
      <trkpt lat="62.633278531238" lon="18.006808780282">
        <ele>55</ele>
        <time>2018-01-30T12:52:13Z</time>
      </trkpt>
      <trkpt lat="62.633278279781" lon="18.006754968484">
        <ele>55</ele>
        <time>2018-01-30T12:52:14Z</time>
      </trkpt>
      <trkpt lat="62.633274843202" lon="18.006700989048">
        <ele>55</ele>
        <time>2018-01-30T12:52:15Z</time>
      </trkpt>
      <trkpt lat="62.633270987528" lon="18.006653463675">
        <ele>55</ele>
        <time>2018-01-30T12:52:16Z</time>
      </trkpt>
      <trkpt lat="62.63327165808" lon="18.006603507551">
        <ele>55.2</ele>
        <time>2018-01-30T12:52:17Z</time>
      </trkpt>
      <trkpt lat="62.633268808234" lon="18.006555479264">
        <ele>55.2</ele>
        <time>2018-01-30T12:52:18Z</time>
      </trkpt>
      <trkpt lat="62.633265371655" lon="18.006521029655">
        <ele>55.4</ele>
        <time>2018-01-30T12:52:19Z</time>
      </trkpt>
      <trkpt lat="62.63326495256" lon="18.006466798762">
        <ele>55.4</ele>
        <time>2018-01-30T12:52:20Z</time>
      </trkpt>
      <trkpt lat="62.633265287836" lon="18.006419776303">
        <ele>55.6</ele>
        <time>2018-01-30T12:52:21Z</time>
      </trkpt>
      <trkpt lat="62.633260593972" lon="18.006380800468">
        <ele>55.6</ele>
        <time>2018-01-30T12:52:22Z</time>
      </trkpt>
      <trkpt lat="62.633260426334" lon="18.006322294806">
        <ele>55.8</ele>
        <time>2018-01-30T12:52:23Z</time>
      </trkpt>
      <trkpt lat="62.633260174877" lon="18.006274015062">
        <ele>55.8</ele>
        <time>2018-01-30T12:52:24Z</time>
      </trkpt>
      <trkpt lat="62.633255229556" lon="18.006233781942">
        <ele>56</ele>
        <time>2018-01-30T12:52:25Z</time>
      </trkpt>
      <trkpt lat="62.633256319203" lon="18.006190112243">
        <ele>56.2</ele>
        <time>2018-01-30T12:52:26Z</time>
      </trkpt>
      <trkpt lat="62.633258163221" lon="18.006151723141">
        <ele>56.2</ele>
        <time>2018-01-30T12:52:27Z</time>
      </trkpt>
      <trkpt lat="62.633254475185" lon="18.006119033731">
        <ele>56.4</ele>
        <time>2018-01-30T12:52:28Z</time>
      </trkpt>
      <trkpt lat="62.633253972271" lon="18.006077375688">
        <ele>56.6</ele>
        <time>2018-01-30T12:52:29Z</time>
      </trkpt>
      <trkpt lat="62.63325489428" lon="18.006034879455">
        <ele>57</ele>
        <time>2018-01-30T12:52:30Z</time>
      </trkpt>
      <trkpt lat="62.633251960615" lon="18.005991125937">
        <ele>57.2</ele>
        <time>2018-01-30T12:52:31Z</time>
      </trkpt>
      <trkpt lat="62.63325237971" lon="18.005959274717">
        <ele>57.4</ele>
        <time>2018-01-30T12:52:32Z</time>
      </trkpt>
      <trkpt lat="62.633249110769" lon="18.005933290827">
        <ele>57.8</ele>
        <time>2018-01-30T12:52:33Z</time>
      </trkpt>
      <trkpt lat="62.633250032778" lon="18.005910911154">
        <ele>58</ele>
        <time>2018-01-30T12:52:34Z</time>
      </trkpt>
      <trkpt lat="62.633249781321" lon="18.005880736314">
        <ele>58.2</ele>
        <time>2018-01-30T12:52:35Z</time>
      </trkpt>
      <trkpt lat="62.633250032778" lon="18.00586598417">
        <ele>58.2</ele>
        <time>2018-01-30T12:52:36Z</time>
      </trkpt>
      <trkpt lat="62.633250954787" lon="18.005852321673">
        <ele>58.2</ele>
        <time>2018-01-30T12:52:37Z</time>
      </trkpt>
      <trkpt lat="62.63324986514" lon="18.005845951429">
        <ele>58.6</ele>
        <time>2018-01-30T12:52:38Z</time>
      </trkpt>
      <trkpt lat="62.633249194588" lon="18.005817201512">
        <ele>58.8</ele>
        <time>2018-01-30T12:52:39Z</time>
      </trkpt>
      <trkpt lat="62.633247266751" lon="18.005802114092">
        <ele>58.8</ele>
        <time>2018-01-30T12:52:40Z</time>
      </trkpt>
      <trkpt lat="62.633248943131" lon="18.005792726364">
        <ele>59</ele>
        <time>2018-01-30T12:52:41Z</time>
      </trkpt>
      <trkpt lat="62.63324986514" lon="18.005780824066">
        <ele>59.2</ele>
        <time>2018-01-30T12:52:42Z</time>
      </trkpt>
      <trkpt lat="62.633242489068" lon="18.005753499072">
        <ele>59.4</ele>
        <time>2018-01-30T12:52:43Z</time>
      </trkpt>
      <trkpt lat="62.633237711385" lon="18.005730532666">
        <ele>59.8</ele>
        <time>2018-01-30T12:52:44Z</time>
      </trkpt>
      <trkpt lat="62.633236873195" lon="18.005708907364">
        <ele>59.8</ele>
        <time>2018-01-30T12:52:45Z</time>
      </trkpt>
      <trkpt lat="62.633236370281" lon="18.005696418333">
        <ele>60</ele>
        <time>2018-01-30T12:52:46Z</time>
      </trkpt>
      <trkpt lat="62.633236537919" lon="18.005673703384">
        <ele>60.2</ele>
        <time>2018-01-30T12:52:47Z</time>
      </trkpt>
      <trkpt lat="62.633231844055" lon="18.005649228236">
        <ele>60.6</ele>
        <time>2018-01-30T12:52:48Z</time>
      </trkpt>
      <trkpt lat="62.633230167675" lon="18.005627519115">
        <ele>61</ele>
        <time>2018-01-30T12:52:49Z</time>
      </trkpt>
      <trkpt lat="62.633229664761" lon="18.005594745886">
        <ele>61.2</ele>
        <time>2018-01-30T12:52:50Z</time>
      </trkpt>
      <trkpt lat="62.633230922046" lon="18.00557597043">
        <ele>61.6</ele>
        <time>2018-01-30T12:52:51Z</time>
      </trkpt>
      <trkpt lat="62.633230083856" lon="18.005563313761">
        <ele>61.8</ele>
        <time>2018-01-30T12:52:52Z</time>
      </trkpt>
      <trkpt lat="62.63323058677" lon="18.005546047047">
        <ele>62</ele>
        <time>2018-01-30T12:52:53Z</time>
      </trkpt>
      <trkpt lat="62.633228658933" lon="18.00551897351">
        <ele>62.4</ele>
        <time>2018-01-30T12:52:54Z</time>
      </trkpt>
      <trkpt lat="62.633227653105" lon="18.005493073439">
        <ele>62.6</ele>
        <time>2018-01-30T12:52:55Z</time>
      </trkpt>
      <trkpt lat="62.633227569286" lon="18.005474968535">
        <ele>63</ele>
        <time>2018-01-30T12:52:56Z</time>
      </trkpt>
      <trkpt lat="62.633228742752" lon="18.005464155884">
        <ele>63.2</ele>
        <time>2018-01-30T12:52:57Z</time>
      </trkpt>
      <trkpt lat="62.63322974858" lon="18.005444039324">
        <ele>63.4</ele>
        <time>2018-01-30T12:52:58Z</time>
      </trkpt>
      <trkpt lat="62.633230000037" lon="18.005419396538">
        <ele>63.6</ele>
        <time>2018-01-30T12:52:59Z</time>
      </trkpt>
      <trkpt lat="62.63322891039" lon="18.00539575958">
        <ele>64</ele>
        <time>2018-01-30T12:53:00Z</time>
      </trkpt>
      <trkpt lat="62.6332280722" lon="18.005374721011">
        <ele>64</ele>
        <time>2018-01-30T12:53:01Z</time>
      </trkpt>
      <trkpt lat="62.633226228182" lon="18.005362399618">
        <ele>64.4</ele>
        <time>2018-01-30T12:53:02Z</time>
      </trkpt>
      <trkpt lat="62.63322723401" lon="18.005342366877">
        <ele>64.6</ele>
        <time>2018-01-30T12:53:03Z</time>
      </trkpt>
      <trkpt lat="62.633227485467" lon="18.005327698552">
        <ele>64.6</ele>
        <time>2018-01-30T12:53:04Z</time>
      </trkpt>
      <trkpt lat="62.633228826571" lon="18.005298697178">
        <ele>64.8</ele>
        <time>2018-01-30T12:53:05Z</time>
      </trkpt>
      <trkpt lat="62.633227066372" lon="18.005278999713">
        <ele>64.8</ele>
        <time>2018-01-30T12:53:06Z</time>
      </trkpt>
      <trkpt lat="62.63322723401" lon="18.005264331388">
        <ele>65</ele>
        <time>2018-01-30T12:53:07Z</time>
      </trkpt>
      <trkpt lat="62.633227736924" lon="18.005246310303">
        <ele>65.2</ele>
        <time>2018-01-30T12:53:08Z</time>
      </trkpt>
      <trkpt lat="62.633227401648" lon="18.005227199571">
        <ele>65.4</ele>
        <time>2018-01-30T12:53:09Z</time>
      </trkpt>
      <trkpt lat="62.633224635621" lon="18.005198365835">
        <ele>65.6</ele>
        <time>2018-01-30T12:53:10Z</time>
      </trkpt>
      <trkpt lat="62.633224384164" lon="18.005175231791">
        <ele>65.8</ele>
        <time>2018-01-30T12:53:11Z</time>
      </trkpt>
      <trkpt lat="62.63322388125" lon="18.005153103575">
        <ele>66</ele>
        <time>2018-01-30T12:53:12Z</time>
      </trkpt>
      <trkpt lat="62.63322220487" lon="18.005143045295">
        <ele>66.2</ele>
        <time>2018-01-30T12:53:13Z</time>
      </trkpt>
      <trkpt lat="62.633219774119" lon="18.005117229043">
        <ele>66.4</ele>
        <time>2018-01-30T12:53:14Z</time>
      </trkpt>
      <trkpt lat="62.633218097739" lon="18.005090490782">
        <ele>66.8</ele>
        <time>2018-01-30T12:53:15Z</time>
      </trkpt>
      <trkpt lat="62.633217008092" lon="18.005067440557">
        <ele>67</ele>
        <time>2018-01-30T12:53:16Z</time>
      </trkpt>
      <trkpt lat="62.633215583169" lon="18.005041037572">
        <ele>67.2</ele>
        <time>2018-01-30T12:53:17Z</time>
      </trkpt>
      <trkpt lat="62.633215164074" lon="18.005024189953">
        <ele>67.2</ele>
        <time>2018-01-30T12:53:18Z</time>
      </trkpt>
      <trkpt lat="62.633214074427" lon="18.005012203836">
        <ele>67.4</ele>
        <time>2018-01-30T12:53:19Z</time>
      </trkpt>
      <trkpt lat="62.633213236237" lon="18.004989153611">
        <ele>67.4</ele>
        <time>2018-01-30T12:53:20Z</time>
      </trkpt>
      <trkpt lat="62.633211811314" lon="18.004963840273">
        <ele>67.8</ele>
        <time>2018-01-30T12:53:21Z</time>
      </trkpt>
      <trkpt lat="62.633207788002" lon="18.004941209143">
        <ele>68</ele>
        <time>2018-01-30T12:53:22Z</time>
      </trkpt>
      <trkpt lat="62.633201836853" lon="18.004920002936">
        <ele>68</ele>
        <time>2018-01-30T12:53:23Z</time>
      </trkpt>
      <trkpt lat="62.633197562084" lon="18.004906172801">
        <ele>68.2</ele>
        <time>2018-01-30T12:53:24Z</time>
      </trkpt>
      <trkpt lat="62.633192113849" lon="18.004890917743">
        <ele>68.4</ele>
        <time>2018-01-30T12:53:25Z</time>
      </trkpt>
      <trkpt lat="62.633189180184" lon="18.004879937454">
        <ele>68.4</ele>
        <time>2018-01-30T12:53:26Z</time>
      </trkpt>
      <trkpt lat="62.633186833252" lon="18.004865101491">
        <ele>68.6</ele>
        <time>2018-01-30T12:53:27Z</time>
      </trkpt>
      <trkpt lat="62.633177864619" lon="18.004851103718">
        <ele>69</ele>
        <time>2018-01-30T12:53:28Z</time>
      </trkpt>
      <trkpt lat="62.633166968149" lon="18.004840961619">
        <ele>69.2</ele>
        <time>2018-01-30T12:53:29Z</time>
      </trkpt>
      <trkpt lat="62.633158250973" lon="18.004828724045">
        <ele>69.4</ele>
        <time>2018-01-30T12:53:30Z</time>
      </trkpt>
      <trkpt lat="62.633149030883" lon="18.004820593602">
        <ele>69.6</ele>
        <time>2018-01-30T12:53:31Z</time>
      </trkpt>
      <trkpt lat="62.633141570992" lon="18.004817911394">
        <ele>70</ele>
        <time>2018-01-30T12:53:32Z</time>
      </trkpt>
      <trkpt lat="62.63313670949" lon="18.004813049892">
        <ele>70.2</ele>
        <time>2018-01-30T12:53:33Z</time>
      </trkpt>
      <trkpt lat="62.633130925979" lon="18.004810870598">
        <ele>70.2</ele>
        <time>2018-01-30T12:53:34Z</time>
      </trkpt>
      <trkpt lat="62.63311826931" lon="18.004807853114">
        <ele>70.4</ele>
        <time>2018-01-30T12:53:35Z</time>
      </trkpt>
      <trkpt lat="62.6331023437" lon="18.00481321753">
        <ele>70.8</ele>
        <time>2018-01-30T12:53:36Z</time>
      </trkpt>
      <trkpt lat="62.633084574072" lon="18.00481321753">
        <ele>71</ele>
        <time>2018-01-30T12:53:37Z</time>
      </trkpt>
      <trkpt lat="62.633068648462" lon="18.004819420136">
        <ele>71.2</ele>
        <time>2018-01-30T12:53:38Z</time>
      </trkpt>
      <trkpt lat="62.633047945169" lon="18.004828975502">
        <ele>71.2</ele>
        <time>2018-01-30T12:53:39Z</time>
      </trkpt>
      <trkpt lat="62.633026403686" lon="18.004842721818">
        <ele>71.4</ele>
        <time>2018-01-30T12:53:40Z</time>
      </trkpt>
      <trkpt lat="62.633007041497" lon="18.004870298269">
        <ele>71.4</ele>
        <time>2018-01-30T12:53:41Z</time>
      </trkpt>
      <trkpt lat="62.632990277697" lon="18.004900221652">
        <ele>71.6</ele>
        <time>2018-01-30T12:53:42Z</time>
      </trkpt>
      <trkpt lat="62.632972088974" lon="18.004925451171">
        <ele>71.8</ele>
        <time>2018-01-30T12:53:43Z</time>
      </trkpt>
      <trkpt lat="62.632955408993" lon="18.004950429233">
        <ele>71.8</ele>
        <time>2018-01-30T12:53:44Z</time>
      </trkpt>
      <trkpt lat="62.632944847799" lon="18.004989740344">
        <ele>72.2</ele>
        <time>2018-01-30T12:53:45Z</time>
      </trkpt>
      <trkpt lat="62.632933951329" lon="18.005014718406">
        <ele>72.2</ele>
        <time>2018-01-30T12:53:46Z</time>
      </trkpt>
      <trkpt lat="62.632908805629" lon="18.00507724738">
        <ele>72.2</ele>
        <time>2018-01-30T12:53:47Z</time>
      </trkpt>
      <trkpt lat="62.632892712381" lon="18.00512837697">
        <ele>72.2</ele>
        <time>2018-01-30T12:53:48Z</time>
      </trkpt>
      <trkpt lat="62.632876954409" lon="18.005171795212">
        <ele>72.2</ele>
        <time>2018-01-30T12:53:49Z</time>
      </trkpt>
      <trkpt lat="62.632851221976" lon="18.005223846811">
        <ele>72.4</ele>
        <time>2018-01-30T12:53:50Z</time>
      </trkpt>
      <trkpt lat="62.632826495371" lon="18.005262906465">
        <ele>72.4</ele>
        <time>2018-01-30T12:53:51Z</time>
      </trkpt>
      <trkpt lat="62.632802523137" lon="18.005298780997">
        <ele>72.4</ele>
        <time>2018-01-30T12:53:52Z</time>
      </trkpt>
      <trkpt lat="62.632766313329" lon="18.005317975548">
        <ele>72.4</ele>
        <time>2018-01-30T12:53:53Z</time>
      </trkpt>
      <trkpt lat="62.632739239792" lon="18.005336583366">
        <ele>72.4</ele>
        <time>2018-01-30T12:53:54Z</time>
      </trkpt>
      <trkpt lat="62.632718117404" lon="18.005351084053">
        <ele>72.4</ele>
        <time>2018-01-30T12:53:55Z</time>
      </trkpt>
      <trkpt lat="62.632703029984" lon="18.005346893103">
        <ele>72.2</ele>
        <time>2018-01-30T12:53:56Z</time>
      </trkpt>
      <trkpt lat="62.632686182365" lon="18.005350078225">
        <ele>72.4</ele>
        <time>2018-01-30T12:53:57Z</time>
      </trkpt>
      <trkpt lat="62.632666903995" lon="18.005353514804">
        <ele>72.4</ele>
        <time>2018-01-30T12:53:58Z</time>
      </trkpt>
      <trkpt lat="62.632648631453" lon="18.005361896704">
        <ele>72.6</ele>
        <time>2018-01-30T12:53:59Z</time>
      </trkpt>
      <trkpt lat="62.632622815201" lon="18.005362399618">
        <ele>72.8</ele>
        <time>2018-01-30T12:54:00Z</time>
      </trkpt>
      <trkpt lat="62.632598088596" lon="18.005357119021">
        <ele>73.2</ele>
        <time>2018-01-30T12:54:01Z</time>
      </trkpt>
      <trkpt lat="62.63257763676" lon="18.005344546171">
        <ele>73.6</ele>
        <time>2018-01-30T12:54:02Z</time>
      </trkpt>
      <trkpt lat="62.6325575202" lon="18.005330716036">
        <ele>73.8</ele>
        <time>2018-01-30T12:54:03Z</time>
      </trkpt>
      <trkpt lat="62.632543606246" lon="18.005324010516">
        <ele>74</ele>
        <time>2018-01-30T12:54:04Z</time>
      </trkpt>
      <trkpt lat="62.632528435007" lon="18.005323926697">
        <ele>74.2</ele>
        <time>2018-01-30T12:54:05Z</time>
      </trkpt>
      <trkpt lat="62.632518879641" lon="18.00532367524">
        <ele>74.4</ele>
        <time>2018-01-30T12:54:06Z</time>
      </trkpt>
      <trkpt lat="62.632499936547" lon="18.005326105991">
        <ele>74.6</ele>
        <time>2018-01-30T12:54:07Z</time>
      </trkpt>
      <trkpt lat="62.632479233254" lon="18.005322501774">
        <ele>74.8</ele>
        <time>2018-01-30T12:54:08Z</time>
      </trkpt>
      <trkpt lat="62.632463056187" lon="18.005322250317">
        <ele>74.8</ele>
        <time>2018-01-30T12:54:09Z</time>
      </trkpt>
      <trkpt lat="62.632443610179" lon="18.005328788199">
        <ele>74.8</ele>
        <time>2018-01-30T12:54:10Z</time>
      </trkpt>
      <trkpt lat="62.632423493619" lon="18.005327279457">
        <ele>74.4</ele>
        <time>2018-01-30T12:54:11Z</time>
      </trkpt>
      <trkpt lat="62.632399772842" lon="18.005348401845">
        <ele>74.4</ele>
        <time>2018-01-30T12:54:12Z</time>
      </trkpt>
      <trkpt lat="62.632378231359" lon="18.005363992179">
        <ele>74.4</ele>
        <time>2018-01-30T12:54:13Z</time>
      </trkpt>
      <trkpt lat="62.632356270781" lon="18.005371284432">
        <ele>74.4</ele>
        <time>2018-01-30T12:54:14Z</time>
      </trkpt>
      <trkpt lat="62.632334058746" lon="18.005393915562">
        <ele>74.4</ele>
        <time>2018-01-30T12:54:15Z</time>
      </trkpt>
      <trkpt lat="62.632309667417" lon="18.005397016865">
        <ele>74.8</ele>
        <time>2018-01-30T12:54:16Z</time>
      </trkpt>
      <trkpt lat="62.632282090966" lon="18.005412271923">
        <ele>74.8</ele>
        <time>2018-01-30T12:54:17Z</time>
      </trkpt>
      <trkpt lat="62.632260465664" lon="18.00540749424">
        <ele>75</ele>
        <time>2018-01-30T12:54:18Z</time>
      </trkpt>
      <trkpt lat="62.632242025484" lon="18.005407913335">
        <ele>75</ele>
        <time>2018-01-30T12:54:19Z</time>
      </trkpt>
      <trkpt lat="62.63221889144" lon="18.005420570004">
        <ele>75.2</ele>
        <time>2018-01-30T12:54:20Z</time>
      </trkpt>
      <trkpt lat="62.632192656093" lon="18.00542677261">
        <ele>75.4</ele>
        <time>2018-01-30T12:54:21Z</time>
      </trkpt>
      <trkpt lat="62.632171449886" lon="18.005429370999">
        <ele>75.2</ele>
        <time>2018-01-30T12:54:22Z</time>
      </trkpt>
      <trkpt lat="62.632155608095" lon="18.005439932193">
        <ele>75.2</ele>
        <time>2018-01-30T12:54:23Z</time>
      </trkpt>
      <trkpt lat="62.632129624205" lon="18.005450996301">
        <ele>75.2</ele>
        <time>2018-01-30T12:54:24Z</time>
      </trkpt>
      <trkpt lat="62.632101712478" lon="18.005468598291">
        <ele>75.2</ele>
        <time>2018-01-30T12:54:25Z</time>
      </trkpt>
      <trkpt lat="62.632079668081" lon="18.005475219992">
        <ele>75.2</ele>
        <time>2018-01-30T12:54:26Z</time>
      </trkpt>
      <trkpt lat="62.632052594544" lon="18.005492821982">
        <ele>75.4</ele>
        <time>2018-01-30T12:54:27Z</time>
      </trkpt>
      <trkpt lat="62.632036585115" lon="18.005502461167">
        <ele>75.6</ele>
        <time>2018-01-30T12:54:28Z</time>
      </trkpt>
      <trkpt lat="62.632006913189" lon="18.005509166687">
        <ele>75.6</ele>
        <time>2018-01-30T12:54:29Z</time>
      </trkpt>
      <trkpt lat="62.631981851308" lon="18.005530624351">
        <ele>75.6</ele>
        <time>2018-01-30T12:54:30Z</time>
      </trkpt>
      <trkpt lat="62.631953855762" lon="18.00553825188">
        <ele>75.6</ele>
        <time>2018-01-30T12:54:31Z</time>
      </trkpt>
      <trkpt lat="62.631927871872" lon="18.005546717599">
        <ele>75.6</ele>
        <time>2018-01-30T12:54:32Z</time>
      </trkpt>
      <trkpt lat="62.631906078932" lon="18.00554998654">
        <ele>75.6</ele>
        <time>2018-01-30T12:54:33Z</time>
      </trkpt>
      <trkpt lat="62.631879843585" lon="18.005548980712">
        <ele>75.6</ele>
        <time>2018-01-30T12:54:34Z</time>
      </trkpt>
      <trkpt lat="62.63185427879" lon="18.005540934088">
        <ele>75.8</ele>
        <time>2018-01-30T12:54:35Z</time>
      </trkpt>
      <trkpt lat="62.631829552185" lon="18.005517632406">
        <ele>75.8</ele>
        <time>2018-01-30T12:54:36Z</time>
      </trkpt>
      <trkpt lat="62.631810525272" lon="18.005493241077">
        <ele>75.8</ele>
        <time>2018-01-30T12:54:37Z</time>
      </trkpt>
      <trkpt lat="62.631790660169" lon="18.005472621603">
        <ele>75.8</ele>
        <time>2018-01-30T12:54:38Z</time>
      </trkpt>
      <trkpt lat="62.63177045979" lon="18.005444793695">
        <ele>76</ele>
        <time>2018-01-30T12:54:39Z</time>
      </trkpt>
      <trkpt lat="62.63175369599" lon="18.005410176448">
        <ele>76</ele>
        <time>2018-01-30T12:54:40Z</time>
      </trkpt>
      <trkpt lat="62.631734082344" lon="18.005380169246">
        <ele>76</ele>
        <time>2018-01-30T12:54:41Z</time>
      </trkpt>
      <trkpt lat="62.631713295232" lon="18.005330296941">
        <ele>76.2</ele>
        <time>2018-01-30T12:54:42Z</time>
      </trkpt>
      <trkpt lat="62.631693011034" lon="18.005282017197">
        <ele>76.2</ele>
        <time>2018-01-30T12:54:43Z</time>
      </trkpt>
      <trkpt lat="62.631674151759" lon="18.005258547877">
        <ele>76.2</ele>
        <time>2018-01-30T12:54:44Z</time>
      </trkpt>
      <trkpt lat="62.631654705751" lon="18.00521638692">
        <ele>76.2</ele>
        <time>2018-01-30T12:54:45Z</time>
      </trkpt>
      <trkpt lat="62.631637606675" lon="18.005175734705">
        <ele>76.4</ele>
        <time>2018-01-30T12:54:46Z</time>
      </trkpt>
      <trkpt lat="62.631616987201" lon="18.005133992843">
        <ele>76.4</ele>
        <time>2018-01-30T12:54:47Z</time>
      </trkpt>
      <trkpt lat="62.631599133754" lon="18.005085713099">
        <ele>76.4</ele>
        <time>2018-01-30T12:54:48Z</time>
      </trkpt>
      <trkpt lat="62.631581615583" lon="18.00505796901">
        <ele>76.6</ele>
        <time>2018-01-30T12:54:49Z</time>
      </trkpt>
      <trkpt lat="62.631558649177" lon="18.005014466949">
        <ele>76.6</ele>
        <time>2018-01-30T12:54:50Z</time>
      </trkpt>
      <trkpt lat="62.631540963368" lon="18.004974066191">
        <ele>76.8</ele>
        <time>2018-01-30T12:54:51Z</time>
      </trkpt>
      <trkpt lat="62.631523109921" lon="18.004951854156">
        <ele>76.8</ele>
        <time>2018-01-30T12:54:52Z</time>
      </trkpt>
      <trkpt lat="62.631500311153" lon="18.004913129778">
        <ele>76.8</ele>
        <time>2018-01-30T12:54:53Z</time>
      </trkpt>
      <trkpt lat="62.631485139914" lon="18.004878512531">
        <ele>77</ele>
        <time>2018-01-30T12:54:54Z</time>
      </trkpt>
      <trkpt lat="62.631464268983" lon="18.004850349347">
        <ele>77.4</ele>
        <time>2018-01-30T12:54:55Z</time>
      </trkpt>
      <trkpt lat="62.631438788007" lon="18.004824030181">
        <ele>77.6</ele>
        <time>2018-01-30T12:54:56Z</time>
      </trkpt>
      <trkpt lat="62.631416408334" lon="18.004792178961">
        <ele>77.6</ele>
        <time>2018-01-30T12:54:57Z</time>
      </trkpt>
      <trkpt lat="62.63139746524" lon="18.004773235867">
        <ele>77.8</ele>
        <time>2018-01-30T12:54:58Z</time>
      </trkpt>
      <trkpt lat="62.631376594309" lon="18.004750018004">
        <ele>77.8</ele>
        <time>2018-01-30T12:54:59Z</time>
      </trkpt>
      <trkpt lat="62.631349269315" lon="18.004745072683">
        <ele>78</ele>
        <time>2018-01-30T12:55:00Z</time>
      </trkpt>
      <trkpt lat="62.631324375072" lon="18.004715903671">
        <ele>78</ele>
        <time>2018-01-30T12:55:01Z</time>
      </trkpt>
      <trkpt lat="62.631303252684" lon="18.00470928197">
        <ele>78.2</ele>
        <time>2018-01-30T12:55:02Z</time>
      </trkpt>
      <trkpt lat="62.631284980142" lon="18.004695535654">
        <ele>78.4</ele>
        <time>2018-01-30T12:55:03Z</time>
      </trkpt>
      <trkpt lat="62.631270730912" lon="18.004677011655">
        <ele>78.4</ele>
        <time>2018-01-30T12:55:04Z</time>
      </trkpt>
      <trkpt lat="62.631251536361" lon="18.00465228505">
        <ele>78.4</ele>
        <time>2018-01-30T12:55:05Z</time>
      </trkpt>
      <trkpt lat="62.631230749249" lon="18.00462546297">
        <ele>78.4</ele>
        <time>2018-01-30T12:55:06Z</time>
      </trkpt>
      <trkpt lat="62.631214320725" lon="18.004602077469">
        <ele>78.6</ele>
        <time>2018-01-30T12:55:07Z</time>
      </trkpt>
      <trkpt lat="62.631194958536" lon="18.004587157687">
        <ele>78.6</ele>
        <time>2018-01-30T12:55:08Z</time>
      </trkpt>
      <trkpt lat="62.631176602175" lon="18.004566370575">
        <ele>78.8</ele>
        <time>2018-01-30T12:55:09Z</time>
      </trkpt>
      <trkpt lat="62.631159335461" lon="18.004553294811">
        <ele>78.8</ele>
        <time>2018-01-30T12:55:10Z</time>
      </trkpt>
      <trkpt lat="62.631140643824" lon="18.004525550722">
        <ele>79</ele>
        <time>2018-01-30T12:55:11Z</time>
      </trkpt>
      <trkpt lat="62.63112170073" lon="18.004521359772">
        <ele>79</ele>
        <time>2018-01-30T12:55:12Z</time>
      </trkpt>
      <trkpt lat="62.631105858939" lon="18.004493196588">
        <ele>79.2</ele>
        <time>2018-01-30T12:55:13Z</time>
      </trkpt>
      <trkpt lat="62.631089095139" lon="18.004478444444">
        <ele>79.2</ele>
        <time>2018-01-30T12:55:14Z</time>
      </trkpt>
      <trkpt lat="62.63107057114" lon="18.004451538545">
        <ele>79.2</ele>
        <time>2018-01-30T12:55:15Z</time>
      </trkpt>
      <trkpt lat="62.631050035485" lon="18.004431421985">
        <ele>79.4</ele>
        <time>2018-01-30T12:55:16Z</time>
      </trkpt>
      <trkpt lat="62.631030673296" lon="18.004414825823">
        <ele>79.6</ele>
        <time>2018-01-30T12:55:17Z</time>
      </trkpt>
      <trkpt lat="62.631011478745" lon="18.004379202748">
        <ele>79.8</ele>
        <time>2018-01-30T12:55:18Z</time>
      </trkpt>
      <trkpt lat="62.6309984868" lon="18.004366965174">
        <ele>80</ele>
        <time>2018-01-30T12:55:19Z</time>
      </trkpt>
      <trkpt lat="62.630975604213" lon="18.004330587728">
        <ele>80.2</ele>
        <time>2018-01-30T12:55:20Z</time>
      </trkpt>
      <trkpt lat="62.630959510965" lon="18.004308962426">
        <ele>80.2</ele>
        <time>2018-01-30T12:55:21Z</time>
      </trkpt>
      <trkpt lat="62.630941992794" lon="18.004273004075">
        <ele>80.2</ele>
        <time>2018-01-30T12:55:22Z</time>
      </trkpt>
      <trkpt lat="62.630921289501" lon="18.004247606918">
        <ele>80.4</ele>
        <time>2018-01-30T12:55:23Z</time>
      </trkpt>
      <trkpt lat="62.630905196253" lon="18.004204943047">
        <ele>80.4</ele>
        <time>2018-01-30T12:55:24Z</time>
      </trkpt>
      <trkpt lat="62.630889438281" lon="18.00415523838">
        <ele>80.4</ele>
        <time>2018-01-30T12:55:25Z</time>
      </trkpt>
      <trkpt lat="62.63087778744" lon="18.004119531486">
        <ele>80.6</ele>
        <time>2018-01-30T12:55:26Z</time>
      </trkpt>
      <trkpt lat="62.630874853775" lon="18.004099498745">
        <ele>80.8</ele>
        <time>2018-01-30T12:55:27Z</time>
      </trkpt>
      <trkpt lat="62.630872590662" lon="18.004085333334">
        <ele>81</ele>
        <time>2018-01-30T12:55:28Z</time>
      </trkpt>
      <trkpt lat="62.63086856735" lon="18.004062283109">
        <ele>81.2</ele>
        <time>2018-01-30T12:55:29Z</time>
      </trkpt>
      <trkpt lat="62.630861526554" lon="18.004036885952">
        <ele>81.2</ele>
        <time>2018-01-30T12:55:30Z</time>
      </trkpt>
      <trkpt lat="62.630849037523" lon="18.003996736651">
        <ele>81.6</ele>
        <time>2018-01-30T12:55:31Z</time>
      </trkpt>
      <trkpt lat="62.630839649795" lon="18.003978464109">
        <ele>81.8</ele>
        <time>2018-01-30T12:55:32Z</time>
      </trkpt>
      <trkpt lat="62.630834620655" lon="18.003948037812">
        <ele>82</ele>
        <time>2018-01-30T12:55:33Z</time>
      </trkpt>
      <trkpt lat="62.630832776637" lon="18.003931190193">
        <ele>82.2</ele>
        <time>2018-01-30T12:55:34Z</time>
      </trkpt>
      <trkpt lat="62.630829759153" lon="18.003891292349">
        <ele>82</ele>
        <time>2018-01-30T12:55:35Z</time>
      </trkpt>
      <trkpt lat="62.630828585687" lon="18.003858016206">
        <ele>82.2</ele>
        <time>2018-01-30T12:55:36Z</time>
      </trkpt>
      <trkpt lat="62.630824646194" lon="18.003809652643">
        <ele>82.2</ele>
        <time>2018-01-30T12:55:37Z</time>
      </trkpt>
      <trkpt lat="62.630816348113" lon="18.003766988772">
        <ele>82.4</ele>
        <time>2018-01-30T12:55:38Z</time>
      </trkpt>
      <trkpt lat="62.630815090828" lon="18.003716278277">
        <ele>82.4</ele>
        <time>2018-01-30T12:55:39Z</time>
      </trkpt>
      <trkpt lat="62.63081659957" lon="18.003662466479">
        <ele>82.4</ele>
        <time>2018-01-30T12:55:40Z</time>
      </trkpt>
      <trkpt lat="62.630814839371" lon="18.003610750156">
        <ele>82.6</ele>
        <time>2018-01-30T12:55:41Z</time>
      </trkpt>
      <trkpt lat="62.630818695045" lon="18.003555345797">
        <ele>82.6</ele>
        <time>2018-01-30T12:55:42Z</time>
      </trkpt>
      <trkpt lat="62.630822047805" lon="18.003508574795">
        <ele>82.4</ele>
        <time>2018-01-30T12:55:43Z</time>
      </trkpt>
      <trkpt lat="62.630824813832" lon="18.003467503485">
        <ele>82.6</ele>
        <time>2018-01-30T12:55:44Z</time>
      </trkpt>
      <trkpt lat="62.630831938447" lon="18.003413272592">
        <ele>82.8</ele>
        <time>2018-01-30T12:55:45Z</time>
      </trkpt>
      <trkpt lat="62.630829675334" lon="18.003365244305">
        <ele>83</ele>
        <time>2018-01-30T12:55:46Z</time>
      </trkpt>
      <trkpt lat="62.63083420156" lon="18.003312438335">
        <ele>83</ele>
        <time>2018-01-30T12:55:47Z</time>
      </trkpt>
      <trkpt lat="62.630836548492" lon="18.003251166646">
        <ele>83.2</ele>
        <time>2018-01-30T12:55:48Z</time>
      </trkpt>
      <trkpt lat="62.630838560148" lon="18.003207999861">
        <ele>83.4</ele>
        <time>2018-01-30T12:55:49Z</time>
      </trkpt>
      <trkpt lat="62.630842332003" lon="18.003143291593">
        <ele>83.6</ele>
        <time>2018-01-30T12:55:50Z</time>
      </trkpt>
      <trkpt lat="62.630832273723" lon="18.00308738432">
        <ele>83.6</ele>
        <time>2018-01-30T12:55:51Z</time>
      </trkpt>
      <trkpt lat="62.63083587794" lon="18.003038434024">
        <ele>83.8</ele>
        <time>2018-01-30T12:55:52Z</time>
      </trkpt>
      <trkpt lat="62.630834788293" lon="18.002979090172">
        <ele>83.8</ele>
        <time>2018-01-30T12:55:53Z</time>
      </trkpt>
      <trkpt lat="62.63082833423" lon="18.002940449613">
        <ele>84</ele>
        <time>2018-01-30T12:55:54Z</time>
      </trkpt>
      <trkpt lat="62.630828837144" lon="18.002881608675">
        <ele>84</ele>
        <time>2018-01-30T12:55:55Z</time>
      </trkpt>
      <trkpt lat="62.630821796348" lon="18.002846320876">
        <ele>84.2</ele>
        <time>2018-01-30T12:55:56Z</time>
      </trkpt>
      <trkpt lat="62.630820371425" lon="18.002800304245">
        <ele>84.2</ele>
        <time>2018-01-30T12:55:57Z</time>
      </trkpt>
      <trkpt lat="62.63081492319" lon="18.002758646202">
        <ele>84.6</ele>
        <time>2018-01-30T12:55:58Z</time>
      </trkpt>
      <trkpt lat="62.630812995353" lon="18.002710617915">
        <ele>84.8</ele>
        <time>2018-01-30T12:55:59Z</time>
      </trkpt>
      <trkpt lat="62.630809977869" lon="18.002663008723">
        <ele>84.8</ele>
        <time>2018-01-30T12:56:00Z</time>
      </trkpt>
      <trkpt lat="62.63080486491" lon="18.002624284345">
        <ele>85</ele>
        <time>2018-01-30T12:56:01Z</time>
      </trkpt>
      <trkpt lat="62.630804613453" lon="18.002574328221">
        <ele>85</ele>
        <time>2018-01-30T12:56:02Z</time>
      </trkpt>
      <trkpt lat="62.630799751951" lon="18.002532167264">
        <ele>85.2</ele>
        <time>2018-01-30T12:56:03Z</time>
      </trkpt>
      <trkpt lat="62.630799584313" lon="18.002490090126">
        <ele>85.2</ele>
        <time>2018-01-30T12:56:04Z</time>
      </trkpt>
      <trkpt lat="62.630804529634" lon="18.002429069894">
        <ele>85.4</ele>
        <time>2018-01-30T12:56:05Z</time>
      </trkpt>
      <trkpt lat="62.630804110539" lon="18.002383891453">
        <ele>85.4</ele>
        <time>2018-01-30T12:56:06Z</time>
      </trkpt>
      <trkpt lat="62.630796650648" lon="18.002342149591">
        <ele>85.6</ele>
        <time>2018-01-30T12:56:07Z</time>
      </trkpt>
      <trkpt lat="62.630789190757" lon="18.002294708037">
        <ele>85.6</ele>
        <time>2018-01-30T12:56:08Z</time>
      </trkpt>
      <trkpt lat="62.630785837997" lon="18.002245590103">
        <ele>85.8</ele>
        <time>2018-01-30T12:56:09Z</time>
      </trkpt>
      <trkpt lat="62.630777120821" lon="18.002207955372">
        <ele>85.8</ele>
        <time>2018-01-30T12:56:10Z</time>
      </trkpt>
      <trkpt lat="62.630774773889" lon="18.002156574325">
        <ele>86</ele>
        <time>2018-01-30T12:56:11Z</time>
      </trkpt>
      <trkpt lat="62.630765637618" lon="18.002119861603">
        <ele>86</ele>
        <time>2018-01-30T12:56:12Z</time>
      </trkpt>
      <trkpt lat="62.630762703953" lon="18.002067139452">
        <ele>86.2</ele>
        <time>2018-01-30T12:56:13Z</time>
      </trkpt>
      <trkpt lat="62.630757339537" lon="18.002029756178">
        <ele>86.4</ele>
        <time>2018-01-30T12:56:14Z</time>
      </trkpt>
      <trkpt lat="62.630758177727" lon="18.001972172525">
        <ele>86.4</ele>
        <time>2018-01-30T12:56:15Z</time>
      </trkpt>
      <trkpt lat="62.630746023972" lon="18.001931855586">
        <ele>86.4</ele>
        <time>2018-01-30T12:56:16Z</time>
      </trkpt>
      <trkpt lat="62.63074283885" lon="18.001871422087">
        <ele>86.4</ele>
        <time>2018-01-30T12:56:17Z</time>
      </trkpt>
      <trkpt lat="62.63074283885" lon="18.001822639429">
        <ele>86.6</ele>
        <time>2018-01-30T12:56:18Z</time>
      </trkpt>
      <trkpt lat="62.630740408099" lon="18.001776287522">
        <ele>86.6</ele>
        <time>2018-01-30T12:56:19Z</time>
      </trkpt>
      <trkpt lat="62.630741413927" lon="18.001712249806">
        <ele>86.6</ele>
        <time>2018-01-30T12:56:20Z</time>
      </trkpt>
      <trkpt lat="62.630737893529" lon="18.001663970062">
        <ele>86.6</ele>
        <time>2018-01-30T12:56:21Z</time>
      </trkpt>
      <trkpt lat="62.630741330108" lon="18.001608398065">
        <ele>86.6</ele>
        <time>2018-01-30T12:56:22Z</time>
      </trkpt>
      <trkpt lat="62.630737642072" lon="18.001556933199">
        <ele>86.6</ele>
        <time>2018-01-30T12:56:23Z</time>
      </trkpt>
      <trkpt lat="62.630738312624" lon="18.001500103917">
        <ele>86.8</ele>
        <time>2018-01-30T12:56:24Z</time>
      </trkpt>
      <trkpt lat="62.630730182181" lon="18.001452159449">
        <ele>86.8</ele>
        <time>2018-01-30T12:56:25Z</time>
      </trkpt>
      <trkpt lat="62.630722973747" lon="18.001392731778">
        <ele>87</ele>
        <time>2018-01-30T12:56:26Z</time>
      </trkpt>
      <trkpt lat="62.630711658182" lon="18.001346296052">
        <ele>87.2</ele>
        <time>2018-01-30T12:56:27Z</time>
      </trkpt>
      <trkpt lat="62.630708053965" lon="18.001286533105">
        <ele>87</ele>
        <time>2018-01-30T12:56:28Z</time>
      </trkpt>
      <trkpt lat="62.630700845531" lon="18.001232050755">
        <ele>87.2</ele>
        <time>2018-01-30T12:56:29Z</time>
      </trkpt>
      <trkpt lat="62.630694559106" lon="18.001175556749">
        <ele>87.2</ele>
        <time>2018-01-30T12:56:30Z</time>
      </trkpt>
      <trkpt lat="62.630690619613" lon="18.001125516806">
        <ele>87.2</ele>
        <time>2018-01-30T12:56:31Z</time>
      </trkpt>
      <trkpt lat="62.630686763939" lon="18.001095090509">
        <ele>87.4</ele>
        <time>2018-01-30T12:56:32Z</time>
      </trkpt>
      <trkpt lat="62.630673436718" lon="18.001020156323">
        <ele>87.4</ele>
        <time>2018-01-30T12:56:33Z</time>
      </trkpt>
      <trkpt lat="62.630668575216" lon="18.00097849828">
        <ele>87.4</ele>
        <time>2018-01-30T12:56:34Z</time>
      </trkpt>
      <trkpt lat="62.630659774221" lon="18.000910185795">
        <ele>87.4</ele>
        <time>2018-01-30T12:56:35Z</time>
      </trkpt>
      <trkpt lat="62.630648207199" lon="18.000868360114">
        <ele>87.6</ele>
        <time>2018-01-30T12:56:36Z</time>
      </trkpt>
      <trkpt lat="62.630636723996" lon="18.00081253666">
        <ele>87.6</ele>
        <time>2018-01-30T12:56:37Z</time>
      </trkpt>
      <trkpt lat="62.630629431743" lon="18.00076308345">
        <ele>87.6</ele>
        <time>2018-01-30T12:56:38Z</time>
      </trkpt>
      <trkpt lat="62.630623480594" lon="18.000698459001">
        <ele>87.8</ele>
        <time>2018-01-30T12:56:39Z</time>
      </trkpt>
      <trkpt lat="62.630608225536" lon="18.000661075727">
        <ele>87.8</ele>
        <time>2018-01-30T12:56:40Z</time>
      </trkpt>
      <trkpt lat="62.630597999618" lon="18.000604916997">
        <ele>88</ele>
        <time>2018-01-30T12:56:41Z</time>
      </trkpt>
      <trkpt lat="62.630581654913" lon="18.000544232041">
        <ele>88</ele>
        <time>2018-01-30T12:56:42Z</time>
      </trkpt>
      <trkpt lat="62.630575117031" lon="18.000492599537">
        <ele>88.2</ele>
        <time>2018-01-30T12:56:43Z</time>
      </trkpt>
      <trkpt lat="62.630565477846" lon="18.000442643413">
        <ele>88.2</ele>
        <time>2018-01-30T12:56:44Z</time>
      </trkpt>
      <trkpt lat="62.630550390426" lon="18.000397548791">
        <ele>88.4</ele>
        <time>2018-01-30T12:56:45Z</time>
      </trkpt>
      <trkpt lat="62.630538823404" lon="18.000355304015">
        <ele>88.4</ele>
        <time>2018-01-30T12:56:46Z</time>
      </trkpt>
      <trkpt lat="62.630516276093" lon="18.000277100888">
        <ele>88.6</ele>
        <time>2018-01-30T12:56:47Z</time>
      </trkpt>
      <trkpt lat="62.630502948872" lon="18.000220690701">
        <ele>88.6</ele>
        <time>2018-01-30T12:56:48Z</time>
      </trkpt>
      <trkpt lat="62.630492136221" lon="18.000164196695">
        <ele>88.8</ele>
        <time>2018-01-30T12:56:49Z</time>
      </trkpt>
      <trkpt lat="62.630479982466" lon="18.000115497856">
        <ele>89</ele>
        <time>2018-01-30T12:56:50Z</time>
      </trkpt>
      <trkpt lat="62.630473109308" lon="18.000061853696">
        <ele>89</ele>
        <time>2018-01-30T12:56:51Z</time>
      </trkpt>
      <trkpt lat="62.630463134847" lon="18.000009047726">
        <ele>89</ele>
        <time>2018-01-30T12:56:52Z</time>
      </trkpt>
      <trkpt lat="62.630447628332" lon="17.999956409394">
        <ele>89.2</ele>
        <time>2018-01-30T12:56:53Z</time>
      </trkpt>
      <trkpt lat="62.630435977491" lon="17.999906285632">
        <ele>89.2</ele>
        <time>2018-01-30T12:56:54Z</time>
      </trkpt>
      <trkpt lat="62.630428182324" lon="17.999845935952">
        <ele>89.2</ele>
        <time>2018-01-30T12:56:55Z</time>
      </trkpt>
      <trkpt lat="62.630407981945" lon="17.999799751683">
        <ele>89.4</ele>
        <time>2018-01-30T12:56:56Z</time>
      </trkpt>
      <trkpt lat="62.630396834018" lon="17.99974719717">
        <ele>89.4</ele>
        <time>2018-01-30T12:56:57Z</time>
      </trkpt>
      <trkpt lat="62.630385602272" lon="17.999698917426">
        <ele>89.6</ele>
        <time>2018-01-30T12:56:58Z</time>
      </trkpt>
      <trkpt lat="62.630374286707" lon="17.999661366514">
        <ele>89.6</ele>
        <time>2018-01-30T12:56:59Z</time>
      </trkpt>
      <trkpt lat="62.630362216771" lon="17.999607470897">
        <ele>89.8</ele>
        <time>2018-01-30T12:57:00Z</time>
      </trkpt>
      <trkpt lat="62.630345285333" lon="17.999568159786">
        <ele>89.8</ele>
        <time>2018-01-30T12:57:01Z</time>
      </trkpt>
      <trkpt lat="62.630332544845" lon="17.999512839246">
        <ele>90</ele>
        <time>2018-01-30T12:57:02Z</time>
      </trkpt>
      <trkpt lat="62.630317205968" lon="17.999480401293">
        <ele>90.2</ele>
        <time>2018-01-30T12:57:03Z</time>
      </trkpt>
      <trkpt lat="62.630306560955" lon="17.999426421857">
        <ele>90.2</ele>
        <time>2018-01-30T12:57:04Z</time>
      </trkpt>
      <trkpt lat="62.630288036956" lon="17.999364228159">
        <ele>90.4</ele>
        <time>2018-01-30T12:57:05Z</time>
      </trkpt>
      <trkpt lat="62.630280660884" lon="17.999302705013">
        <ele>90.4</ele>
        <time>2018-01-30T12:57:06Z</time>
      </trkpt>
      <trkpt lat="62.630265154369" lon="17.999250318138">
        <ele>90.4</ele>
        <time>2018-01-30T12:57:07Z</time>
      </trkpt>
      <trkpt lat="62.630258448849" lon="17.999190303734">
        <ele>90.6</ele>
        <time>2018-01-30T12:57:08Z</time>
      </trkpt>
      <trkpt lat="62.630250569863" lon="17.999138000678">
        <ele>90.6</ele>
        <time>2018-01-30T12:57:09Z</time>
      </trkpt>
      <trkpt lat="62.630243696705" lon="17.999091229676">
        <ele>90.8</ele>
        <time>2018-01-30T12:57:10Z</time>
      </trkpt>
      <trkpt lat="62.630242607058" lon="17.999030963815">
        <ele>90.8</ele>
        <time>2018-01-30T12:57:11Z</time>
      </trkpt>
      <trkpt lat="62.630232213502" lon="17.998990143962">
        <ele>90.8</ele>
        <time>2018-01-30T12:57:12Z</time>
      </trkpt>
      <trkpt lat="62.630230285665" lon="17.998925603332">
        <ele>91</ele>
        <time>2018-01-30T12:57:13Z</time>
      </trkpt>
      <trkpt lat="62.630221065575" lon="17.998876569217">
        <ele>91.2</ele>
        <time>2018-01-30T12:57:14Z</time>
      </trkpt>
      <trkpt lat="62.630220311204" lon="17.998806831809">
        <ele>91.4</ele>
        <time>2018-01-30T12:57:15Z</time>
      </trkpt>
      <trkpt lat="62.63020975001" lon="17.998754444934">
        <ele>91.4</ele>
        <time>2018-01-30T12:57:16Z</time>
      </trkpt>
      <trkpt lat="62.63020807363" lon="17.998683785517">
        <ele>91.4</ele>
        <time>2018-01-30T12:57:17Z</time>
      </trkpt>
      <trkpt lat="62.630202373938" lon="17.998611365901">
        <ele>91.6</ele>
        <time>2018-01-30T12:57:18Z</time>
      </trkpt>
      <trkpt lat="62.630199104997" lon="17.998564008166">
        <ele>91.4</ele>
        <time>2018-01-30T12:57:19Z</time>
      </trkpt>
      <trkpt lat="62.630199775549" lon="17.998494689853">
        <ele>91.4</ele>
        <time>2018-01-30T12:57:20Z</time>
      </trkpt>
      <trkpt lat="62.630209247096" lon="17.998436016553">
        <ele>91.4</ele>
        <time>2018-01-30T12:57:21Z</time>
      </trkpt>
      <trkpt lat="62.630215198245" lon="17.998374409588">
        <ele>91.4</ele>
        <time>2018-01-30T12:57:22Z</time>
      </trkpt>
      <trkpt lat="62.630214946788" lon="17.998291931692">
        <ele>91.4</ele>
        <time>2018-01-30T12:57:23Z</time>
      </trkpt>
      <trkpt lat="62.630218467186" lon="17.998227474881">
        <ele>91.4</ele>
        <time>2018-01-30T12:57:24Z</time>
      </trkpt>
      <trkpt lat="62.630224166878" lon="17.998151786324">
        <ele>91.4</ele>
        <time>2018-01-30T12:57:25Z</time>
      </trkpt>
      <trkpt lat="62.630233470787" lon="17.998091185187">
        <ele>91.6</ele>
        <time>2018-01-30T12:57:26Z</time>
      </trkpt>
      <trkpt lat="62.630241936506" lon="17.998028572394">
        <ele>91.6</ele>
        <time>2018-01-30T12:57:27Z</time>
      </trkpt>
      <trkpt lat="62.630245456904" lon="17.997973670949">
        <ele>91.6</ele>
        <time>2018-01-30T12:57:28Z</time>
      </trkpt>
      <trkpt lat="62.630251827148" lon="17.997912566898">
        <ele>91.8</ele>
        <time>2018-01-30T12:57:29Z</time>
      </trkpt>
      <trkpt lat="62.630264651455" lon="17.997854145055">
        <ele>91.8</ele>
        <time>2018-01-30T12:57:30Z</time>
      </trkpt>
      <trkpt lat="62.630276972848" lon="17.997802344913">
        <ele>91.8</ele>
        <time>2018-01-30T12:57:31Z</time>
      </trkpt>
      <trkpt lat="62.630288875146" lon="17.997736211722">
        <ele>92</ele>
        <time>2018-01-30T12:57:32Z</time>
      </trkpt>
      <trkpt lat="62.630287282585" lon="17.997678125155">
        <ele>92.2</ele>
        <time>2018-01-30T12:57:33Z</time>
      </trkpt>
      <trkpt lat="62.630291557354" lon="17.997624397176">
        <ele>92.2</ele>
        <time>2018-01-30T12:57:34Z</time>
      </trkpt>
      <trkpt lat="62.630301783272" lon="17.9975402429">
        <ele>92.4</ele>
        <time>2018-01-30T12:57:35Z</time>
      </trkpt>
      <trkpt lat="62.630309326982" lon="17.997472768605">
        <ele>92.4</ele>
        <time>2018-01-30T12:57:36Z</time>
      </trkpt>
      <trkpt lat="62.6303279348" lon="17.997396577134">
        <ele>92.4</ele>
        <time>2018-01-30T12:57:37Z</time>
      </trkpt>
      <trkpt lat="62.630341597297" lon="17.997321978224">
        <ele>92.4</ele>
        <time>2018-01-30T12:57:38Z</time>
      </trkpt>
      <trkpt lat="62.630360456572" lon="17.997267244417">
        <ele>92.4</ele>
        <time>2018-01-30T12:57:39Z</time>
      </trkpt>
      <trkpt lat="62.630382500969" lon="17.997209828402">
        <ele>92.4</ele>
        <time>2018-01-30T12:57:40Z</time>
      </trkpt>
      <trkpt lat="62.630395744371" lon="17.997169595282">
        <ele>92.4</ele>
        <time>2018-01-30T12:57:41Z</time>
      </trkpt>
      <trkpt lat="62.630420387157" lon="17.997113352733">
        <ele>92.2</ele>
        <time>2018-01-30T12:57:42Z</time>
      </trkpt>
      <trkpt lat="62.630439330251" lon="17.997069599215">
        <ele>92.4</ele>
        <time>2018-01-30T12:57:43Z</time>
      </trkpt>
      <trkpt lat="62.630460033544" lon="17.997026935344">
        <ele>92.4</ele>
        <time>2018-01-30T12:57:44Z</time>
      </trkpt>
      <trkpt lat="62.630480317742" lon="17.996971782442">
        <ele>92.6</ele>
        <time>2018-01-30T12:57:45Z</time>
      </trkpt>
      <trkpt lat="62.630502362139" lon="17.996920233757">
        <ele>92.6</ele>
        <time>2018-01-30T12:57:46Z</time>
      </trkpt>
      <trkpt lat="62.630520969957" lon="17.996873546574">
        <ele>92.6</ele>
        <time>2018-01-30T12:57:47Z</time>
      </trkpt>
      <trkpt lat="62.630544355458" lon="17.99682442864">
        <ele>92.6</ele>
        <time>2018-01-30T12:57:48Z</time>
      </trkpt>
      <trkpt lat="62.630560029611" lon="17.996787715918">
        <ele>92.6</ele>
        <time>2018-01-30T12:57:49Z</time>
      </trkpt>
      <trkpt lat="62.630582996017" lon="17.996734155577">
        <ele>92.6</ele>
        <time>2018-01-30T12:57:50Z</time>
      </trkpt>
      <trkpt lat="62.630599173084" lon="17.99667355444">
        <ele>92.6</ele>
        <time>2018-01-30T12:57:51Z</time>
      </trkpt>
      <trkpt lat="62.630606549156" lon="17.996613707674">
        <ele>92.6</ele>
        <time>2018-01-30T12:57:52Z</time>
      </trkpt>
      <trkpt lat="62.630617529445" lon="17.996539611678">
        <ele>92.6</ele>
        <time>2018-01-30T12:57:53Z</time>
      </trkpt>
      <trkpt lat="62.630614009047" lon="17.996471131555">
        <ele>92.6</ele>
        <time>2018-01-30T12:57:54Z</time>
      </trkpt>
      <trkpt lat="62.630625576069" lon="17.996427294218">
        <ele>92.6</ele>
        <time>2018-01-30T12:57:55Z</time>
      </trkpt>
      <trkpt lat="62.630644686801" lon="17.996360322837">
        <ele>92.8</ele>
        <time>2018-01-30T12:57:56Z</time>
      </trkpt>
      <trkpt lat="62.630654745081" lon="17.996287232669">
        <ele>92.8</ele>
        <time>2018-01-30T12:57:57Z</time>
      </trkpt>
      <trkpt lat="62.630673520537" lon="17.996230822482">
        <ele>93</ele>
        <time>2018-01-30T12:57:58Z</time>
      </trkpt>
      <trkpt lat="62.630692295993" lon="17.996157899952">
        <ele>93</ele>
        <time>2018-01-30T12:57:59Z</time>
      </trkpt>
      <trkpt lat="62.630712999286" lon="17.996107692371">
        <ele>93</ele>
        <time>2018-01-30T12:58:00Z</time>
      </trkpt>
      <trkpt lat="62.630738480262" lon="17.996055473134">
        <ele>93</ele>
        <time>2018-01-30T12:58:01Z</time>
      </trkpt>
      <trkpt lat="62.630764799428" lon="17.996013647453">
        <ele>93</ele>
        <time>2018-01-30T12:58:02Z</time>
      </trkpt>
      <trkpt lat="62.630791118594" lon="17.995978527292">
        <ele>93</ele>
        <time>2018-01-30T12:58:03Z</time>
      </trkpt>
      <trkpt lat="62.630820706701" lon="17.995949693556">
        <ele>93</ele>
        <time>2018-01-30T12:58:04Z</time>
      </trkpt>
      <trkpt lat="62.630852725559" lon="17.995883811822">
        <ele>93</ele>
        <time>2018-01-30T12:58:05Z</time>
      </trkpt>
      <trkpt lat="62.630874769956" lon="17.995855732457">
        <ele>93</ele>
        <time>2018-01-30T12:58:06Z</time>
      </trkpt>
      <trkpt lat="62.630912907601" lon="17.995807787989">
        <ele>93.2</ele>
        <time>2018-01-30T12:58:07Z</time>
      </trkpt>
      <trkpt lat="62.630932018333" lon="17.995766716679">
        <ele>93</ele>
        <time>2018-01-30T12:58:08Z</time>
      </trkpt>
      <trkpt lat="62.63095909187" lon="17.995734194907">
        <ele>93</ele>
        <time>2018-01-30T12:58:09Z</time>
      </trkpt>
      <trkpt lat="62.630992284194" lon="17.995701756954">
        <ele>93</ele>
        <time>2018-01-30T12:58:10Z</time>
      </trkpt>
      <trkpt lat="62.631017094618" lon="17.995672671761">
        <ele>92.8</ele>
        <time>2018-01-30T12:58:11Z</time>
      </trkpt>
      <trkpt lat="62.631045090164" lon="17.995640820541">
        <ele>93</ele>
        <time>2018-01-30T12:58:12Z</time>
      </trkpt>
      <trkpt lat="62.63106889476" lon="17.995607712036">
        <ele>93</ele>
        <time>2018-01-30T12:58:13Z</time>
      </trkpt>
      <trkpt lat="62.631093034632" lon="17.995573681522">
        <ele>93.2</ele>
        <time>2018-01-30T12:58:14Z</time>
      </trkpt>
      <trkpt lat="62.63111750978" lon="17.995528838357">
        <ele>93.2</ele>
        <time>2018-01-30T12:58:15Z</time>
      </trkpt>
      <trkpt lat="62.631144834774" lon="17.995507213055">
        <ele>93.4</ele>
        <time>2018-01-30T12:58:16Z</time>
      </trkpt>
      <trkpt lat="62.631180876944" lon="17.995463710994">
        <ele>93.4</ele>
        <time>2018-01-30T12:58:17Z</time>
      </trkpt>
      <trkpt lat="62.631213147259" lon="17.995434458163">
        <ele>93.4</ele>
        <time>2018-01-30T12:58:18Z</time>
      </trkpt>
      <trkpt lat="62.631230497792" lon="17.995409647739">
        <ele>93.4</ele>
        <time>2018-01-30T12:58:19Z</time>
      </trkpt>
      <trkpt lat="62.631257906605" lon="17.995373773207">
        <ele>93.4</ele>
        <time>2018-01-30T12:58:20Z</time>
      </trkpt>
      <trkpt lat="62.631268970713" lon="17.995349884792">
        <ele>93.4</ele>
        <time>2018-01-30T12:58:21Z</time>
      </trkpt>
      <trkpt lat="62.631294451689" lon="17.995305712179">
        <ele>93.6</ele>
        <time>2018-01-30T12:58:22Z</time>
      </trkpt>
      <trkpt lat="62.63131616081" lon="17.995259024996">
        <ele>93.6</ele>
        <time>2018-01-30T12:58:23Z</time>
      </trkpt>
      <trkpt lat="62.631328314565" lon="17.995200435515">
        <ele>93.8</ele>
        <time>2018-01-30T12:58:24Z</time>
      </trkpt>
      <trkpt lat="62.631349436953" lon="17.99515643054">
        <ele>93.8</ele>
        <time>2018-01-30T12:58:25Z</time>
      </trkpt>
      <trkpt lat="62.631370307884" lon="17.995099014525">
        <ele>93.8</ele>
        <time>2018-01-30T12:58:26Z</time>
      </trkpt>
      <trkpt lat="62.631392855195" lon="17.995031372592">
        <ele>94</ele>
        <time>2018-01-30T12:58:27Z</time>
      </trkpt>
      <trkpt lat="62.631407104425" lon="17.994992648214">
        <ele>93.8</ele>
        <time>2018-01-30T12:58:28Z</time>
      </trkpt>
      <trkpt lat="62.631426215157" lon="17.994933555819">
        <ele>93.8</ele>
        <time>2018-01-30T12:58:29Z</time>
      </trkpt>
      <trkpt lat="62.631436608713" lon="17.994886365722">
        <ele>93.8</ele>
        <time>2018-01-30T12:58:30Z</time>
      </trkpt>
      <trkpt lat="62.631447589002" lon="17.994830290811">
        <ele>93.8</ele>
        <time>2018-01-30T12:58:31Z</time>
      </trkpt>
      <trkpt lat="62.63145865311" lon="17.994737419359">
        <ele>93.8</ele>
        <time>2018-01-30T12:58:32Z</time>
      </trkpt>
      <trkpt lat="62.631460078033" lon="17.994672375815">
        <ele>93.8</ele>
        <time>2018-01-30T12:58:33Z</time>
      </trkpt>
      <trkpt lat="62.631471393598" lon="17.994591322842">
        <ele>93.8</ele>
        <time>2018-01-30T12:58:34Z</time>
      </trkpt>
      <trkpt lat="62.631487570665" lon="17.994506917109">
        <ele>93.8</ele>
        <time>2018-01-30T12:58:35Z</time>
      </trkpt>
      <trkpt lat="62.631487067751" lon="17.99444899818">
        <ele>93.8</ele>
        <time>2018-01-30T12:58:36Z</time>
      </trkpt>
      <trkpt lat="62.631485810466" lon="17.994367190836">
        <ele>93.6</ele>
        <time>2018-01-30T12:58:37Z</time>
      </trkpt>
      <trkpt lat="62.631479859317" lon="17.99430902045">
        <ele>93.4</ele>
        <time>2018-01-30T12:58:38Z</time>
      </trkpt>
      <trkpt lat="62.631467454105" lon="17.994201480673">
        <ele>93.4</ele>
        <time>2018-01-30T12:58:39Z</time>
      </trkpt>
      <trkpt lat="62.631456641454" lon="17.994137359138">
        <ele>93.4</ele>
        <time>2018-01-30T12:58:40Z</time>
      </trkpt>
      <trkpt lat="62.63144440388" lon="17.994037865985">
        <ele>93.4</ele>
        <time>2018-01-30T12:58:41Z</time>
      </trkpt>
      <trkpt lat="62.631437530722" lon="17.993963937627">
        <ele>93.2</ele>
        <time>2018-01-30T12:58:42Z</time>
      </trkpt>
      <trkpt lat="62.631429903193" lon="17.993891350373">
        <ele>93</ele>
        <time>2018-01-30T12:58:43Z</time>
      </trkpt>
      <trkpt lat="62.631419928732" lon="17.993811303228">
        <ele>93</ele>
        <time>2018-01-30T12:58:44Z</time>
      </trkpt>
      <trkpt lat="62.631415234868" lon="17.993756988516">
        <ele>93</ele>
        <time>2018-01-30T12:58:45Z</time>
      </trkpt>
      <trkpt lat="62.631409535176" lon="17.993673756249">
        <ele>92.8</ele>
        <time>2018-01-30T12:58:46Z</time>
      </trkpt>
      <trkpt lat="62.63140668533" lon="17.993610975818">
        <ele>92.6</ele>
        <time>2018-01-30T12:58:47Z</time>
      </trkpt>
      <trkpt lat="62.63140417076" lon="17.993526570085">
        <ele>92.8</ele>
        <time>2018-01-30T12:58:48Z</time>
      </trkpt>
      <trkpt lat="62.631409702814" lon="17.993451300623">
        <ele>92.8</ele>
        <time>2018-01-30T12:58:49Z</time>
      </trkpt>
      <trkpt lat="62.63141590542" lon="17.993375779704">
        <ele>92.8</ele>
        <time>2018-01-30T12:58:50Z</time>
      </trkpt>
      <trkpt lat="62.631431411935" lon="17.993273352886">
        <ele>92.6</ele>
        <time>2018-01-30T12:58:51Z</time>
      </trkpt>
      <trkpt lat="62.631452534323" lon="17.993185342936">
        <ele>92.6</ele>
        <time>2018-01-30T12:58:52Z</time>
      </trkpt>
      <trkpt lat="62.631461586775" lon="17.993090124552">
        <ele>92.4</ele>
        <time>2018-01-30T12:58:53Z</time>
      </trkpt>
      <trkpt lat="62.631481032783" lon="17.993008401027">
        <ele>92.4</ele>
        <time>2018-01-30T12:58:54Z</time>
      </trkpt>
      <trkpt lat="62.631496539298" lon="17.992912512091">
        <ele>92.2</ele>
        <time>2018-01-30T12:58:55Z</time>
      </trkpt>
      <trkpt lat="62.631513889831" lon="17.992831794394">
        <ele>92</ele>
        <time>2018-01-30T12:58:56Z</time>
      </trkpt>
      <trkpt lat="62.631539370807" lon="17.992780497166">
        <ele>91.6</ele>
        <time>2018-01-30T12:58:57Z</time>
      </trkpt>
      <trkpt lat="62.631549512906" lon="17.992742191883">
        <ele>91.6</ele>
        <time>2018-01-30T12:58:58Z</time>
      </trkpt>
      <trkpt lat="62.631559571186" lon="17.992706652627">
        <ele>91.4</ele>
        <time>2018-01-30T12:58:59Z</time>
      </trkpt>
      <trkpt lat="62.631569713285" lon="17.992643620739">
        <ele>91.4</ele>
        <time>2018-01-30T12:59:00Z</time>
      </trkpt>
      <trkpt lat="62.631583291963" lon="17.992593748434">
        <ele>91.6</ele>
        <time>2018-01-30T12:59:01Z</time>
      </trkpt>
      <trkpt lat="62.631602235057" lon="17.992525603587">
        <ele>91.6</ele>
        <time>2018-01-30T12:59:02Z</time>
      </trkpt>
      <trkpt lat="62.631621010513" lon="17.992470199228">
        <ele>91.6</ele>
        <time>2018-01-30T12:59:03Z</time>
      </trkpt>
      <trkpt lat="62.631640875616" lon="17.992446143175">
        <ele>91.8</ele>
        <time>2018-01-30T12:59:04Z</time>
      </trkpt>
      <trkpt lat="62.631682868935" lon="17.992386464047">
        <ele>91.8</ele>
        <time>2018-01-30T12:59:05Z</time>
      </trkpt>
      <trkpt lat="62.631712876137" lon="17.9923686106">
        <ele>91.8</ele>
        <time>2018-01-30T12:59:06Z</time>
      </trkpt>
      <trkpt lat="62.631744308262" lon="17.992334160991">
        <ele>91.8</ele>
        <time>2018-01-30T12:59:07Z</time>
      </trkpt>
      <trkpt lat="62.631776913853" lon="17.992329550946">
        <ele>91.6</ele>
        <time>2018-01-30T12:59:08Z</time>
      </trkpt>
      <trkpt lat="62.631804406485" lon="17.992303483237">
        <ele>91.6</ele>
        <time>2018-01-30T12:59:09Z</time>
      </trkpt>
      <trkpt lat="62.63183332404" lon="17.992296107165">
        <ele>91.6</ele>
        <time>2018-01-30T12:59:10Z</time>
      </trkpt>
      <trkpt lat="62.631856960998" lon="17.992289904559">
        <ele>91.6</ele>
        <time>2018-01-30T12:59:11Z</time>
      </trkpt>
      <trkpt lat="62.631879173033" lon="17.992268530714">
        <ele>91.6</ele>
        <time>2018-01-30T12:59:12Z</time>
      </trkpt>
      <trkpt lat="62.631901049792" lon="17.992262747203">
        <ele>91.6</ele>
        <time>2018-01-30T12:59:13Z</time>
      </trkpt>
      <trkpt lat="62.631923178008" lon="17.992257215149">
        <ele>91.8</ele>
        <time>2018-01-30T12:59:14Z</time>
      </trkpt>
      <trkpt lat="62.631943462206" lon="17.992236511856">
        <ele>91.8</ele>
        <time>2018-01-30T12:59:15Z</time>
      </trkpt>
      <trkpt lat="62.63196743444" lon="17.992222933178">
        <ele>92.2</ele>
        <time>2018-01-30T12:59:16Z</time>
      </trkpt>
      <trkpt lat="62.631986964267" lon="17.99218923794">
        <ele>92.2</ele>
        <time>2018-01-30T12:59:17Z</time>
      </trkpt>
      <trkpt lat="62.632014792175" lon="17.992190662863">
        <ele>92.4</ele>
        <time>2018-01-30T12:59:18Z</time>
      </trkpt>
      <trkpt lat="62.632037171848" lon="17.992168031733">
        <ele>92.6</ele>
        <time>2018-01-30T12:59:19Z</time>
      </trkpt>
      <trkpt lat="62.632062569005" lon="17.992154704512">
        <ele>92.6</ele>
        <time>2018-01-30T12:59:20Z</time>
      </trkpt>
      <trkpt lat="62.632092408569" lon="17.99215151939">
        <ele>92.8</ele>
        <time>2018-01-30T12:59:21Z</time>
      </trkpt>
      <trkpt lat="62.632106154885" lon="17.992115728677">
        <ele>92.8</ele>
        <time>2018-01-30T12:59:22Z</time>
      </trkpt>
      <trkpt lat="62.632137670829" lon="17.992110196623">
        <ele>92.8</ele>
        <time>2018-01-30T12:59:23Z</time>
      </trkpt>
      <trkpt lat="62.632161223968" lon="17.992094019556">
        <ele>92.8</ele>
        <time>2018-01-30T12:59:24Z</time>
      </trkpt>
      <trkpt lat="62.63219123117" lon="17.99209284609">
        <ele>93</ele>
        <time>2018-01-30T12:59:25Z</time>
      </trkpt>
      <trkpt lat="62.632213359386" lon="17.99208865514">
        <ele>93</ele>
        <time>2018-01-30T12:59:26Z</time>
      </trkpt>
      <trkpt lat="62.632237834534" lon="17.992087062579">
        <ele>93.2</ele>
        <time>2018-01-30T12:59:27Z</time>
      </trkpt>
      <trkpt lat="62.632266919727" lon="17.992072813349">
        <ele>93.2</ele>
        <time>2018-01-30T12:59:28Z</time>
      </trkpt>
      <trkpt lat="62.632299860594" lon="17.992051020409">
        <ele>93.2</ele>
        <time>2018-01-30T12:59:29Z</time>
      </trkpt>
      <trkpt lat="62.632326850312" lon="17.992032580229">
        <ele>93.4</ele>
        <time>2018-01-30T12:59:30Z</time>
      </trkpt>
      <trkpt lat="62.632362389568" lon="17.99201405623">
        <ele>93.4</ele>
        <time>2018-01-30T12:59:31Z</time>
      </trkpt>
      <trkpt lat="62.632388457277" lon="17.99199058691">
        <ele>93.4</ele>
        <time>2018-01-30T12:59:32Z</time>
      </trkpt>
      <trkpt lat="62.632424583266" lon="17.991970386531">
        <ele>93.4</ele>
        <time>2018-01-30T12:59:33Z</time>
      </trkpt>
      <trkpt lat="62.632449477509" lon="17.991958148957">
        <ele>93.4</ele>
        <time>2018-01-30T12:59:34Z</time>
      </trkpt>
      <trkpt lat="62.632490800276" lon="17.991940630786">
        <ele>93</ele>
        <time>2018-01-30T12:59:35Z</time>
      </trkpt>
      <trkpt lat="62.632528770283" lon="17.991923447891">
        <ele>92.8</ele>
        <time>2018-01-30T12:59:36Z</time>
      </trkpt>
      <trkpt lat="62.632568668127" lon="17.991946079021">
        <ele>93</ele>
        <time>2018-01-30T12:59:37Z</time>
      </trkpt>
      <trkpt lat="62.632602698641" lon="17.99194364827">
        <ele>92.8</ele>
        <time>2018-01-30T12:59:38Z</time>
      </trkpt>
      <trkpt lat="62.632624994495" lon="17.991914563077">
        <ele>92.8</ele>
        <time>2018-01-30T12:59:39Z</time>
      </trkpt>
      <trkpt lat="62.632640836286" lon="17.99188078402">
        <ele>92.8</ele>
        <time>2018-01-30T12:59:40Z</time>
      </trkpt>
      <trkpt lat="62.632646116883" lon="17.991833929199">
        <ele>93</ele>
        <time>2018-01-30T12:59:41Z</time>
      </trkpt>
      <trkpt lat="62.632657851543" lon="17.991763521239">
        <ele>93</ele>
        <time>2018-01-30T12:59:42Z</time>
      </trkpt>
      <trkpt lat="62.632666652538" lon="17.991693280917">
        <ele>93</ele>
        <time>2018-01-30T12:59:43Z</time>
      </trkpt>
      <trkpt lat="62.632676459361" lon="17.991638211834">
        <ele>92.8</ele>
        <time>2018-01-30T12:59:44Z</time>
      </trkpt>
      <trkpt lat="62.632690373315" lon="17.991579370896">
        <ele>93</ele>
        <time>2018-01-30T12:59:45Z</time>
      </trkpt>
      <trkpt lat="62.632708478219" lon="17.99154466983">
        <ele>92.8</ele>
        <time>2018-01-30T12:59:46Z</time>
      </trkpt>
      <trkpt lat="62.632735300299" lon="17.991496809181">
        <ele>92.8</ele>
        <time>2018-01-30T12:59:47Z</time>
      </trkpt>
      <trkpt lat="62.632748208425" lon="17.991449451446">
        <ele>92.8</ele>
        <time>2018-01-30T12:59:48Z</time>
      </trkpt>
      <trkpt lat="62.632763798759" lon="17.991407793403">
        <ele>92.8</ele>
        <time>2018-01-30T12:59:49Z</time>
      </trkpt>
      <trkpt lat="62.632779053817" lon="17.991358759288">
        <ele>92.8</ele>
        <time>2018-01-30T12:59:50Z</time>
      </trkpt>
      <trkpt lat="62.632792800133" lon="17.991300672721">
        <ele>92.8</ele>
        <time>2018-01-30T12:59:51Z</time>
      </trkpt>
      <trkpt lat="62.632815515082" lon="17.991260942515">
        <ele>92.8</ele>
        <time>2018-01-30T12:59:52Z</time>
      </trkpt>
      <trkpt lat="62.63284418118" lon="17.991217356635">
        <ele>92.6</ele>
        <time>2018-01-30T12:59:53Z</time>
      </trkpt>
      <trkpt lat="62.632862118446" lon="17.991160694991">
        <ele>92.6</ele>
        <time>2018-01-30T12:59:54Z</time>
      </trkpt>
      <trkpt lat="62.632883911386" lon="17.991093891248">
        <ele>92.4</ele>
        <time>2018-01-30T12:59:55Z</time>
      </trkpt>
      <trkpt lat="62.632896484236" lon="17.991042510201">
        <ele>92.6</ele>
        <time>2018-01-30T12:59:56Z</time>
      </trkpt>
      <trkpt lat="62.632916852253" lon="17.990989704231">
        <ele>92.6</ele>
        <time>2018-01-30T12:59:57Z</time>
      </trkpt>
      <trkpt lat="62.632922635764" lon="17.990937736451">
        <ele>92.6</ele>
        <time>2018-01-30T12:59:58Z</time>
      </trkpt>
      <trkpt lat="62.63293135294" lon="17.990877889685">
        <ele>92.6</ele>
        <time>2018-01-30T12:59:59Z</time>
      </trkpt>
      <trkpt lat="62.632955492812" lon="17.990802787861">
        <ele>92.6</ele>
        <time>2018-01-30T13:00:00Z</time>
      </trkpt>
      <trkpt lat="62.632969658223" lon="17.990747048226">
        <ele>92.4</ele>
        <time>2018-01-30T13:00:01Z</time>
      </trkpt>
      <trkpt lat="62.632990110059" lon="17.990698852301">
        <ele>92.4</ele>
        <time>2018-01-30T13:00:02Z</time>
      </trkpt>
      <trkpt lat="62.633009975162" lon="17.990624169572">
        <ele>92.4</ele>
        <time>2018-01-30T13:00:03Z</time>
      </trkpt>
      <trkpt lat="62.633034869405" lon="17.990587792126">
        <ele>92.4</ele>
        <time>2018-01-30T13:00:04Z</time>
      </trkpt>
      <trkpt lat="62.633059260734" lon="17.990546050264">
        <ele>92.4</ele>
        <time>2018-01-30T13:00:05Z</time>
      </trkpt>
      <trkpt lat="62.633074767249" lon="17.990487293145">
        <ele>92.4</ele>
        <time>2018-01-30T13:00:06Z</time>
      </trkpt>
      <trkpt lat="62.633101840786" lon="17.990441025057">
        <ele>92.6</ele>
        <time>2018-01-30T13:00:07Z</time>
      </trkpt>
      <trkpt lat="62.633128914323" lon="17.990400791937">
        <ele>92.4</ele>
        <time>2018-01-30T13:00:08Z</time>
      </trkpt>
      <trkpt lat="62.633147773598" lon="17.99037204202">
        <ele>92.4</ele>
        <time>2018-01-30T13:00:09Z</time>
      </trkpt>
      <trkpt lat="62.63318280994" lon="17.990344297931">
        <ele>92.4</ele>
        <time>2018-01-30T13:00:10Z</time>
      </trkpt>
      <trkpt lat="62.633211056943" lon="17.990322085896">
        <ele>92.4</ele>
        <time>2018-01-30T13:00:11Z</time>
      </trkpt>
      <trkpt lat="62.63324315962" lon="17.99031001596">
        <ele>92.4</ele>
        <time>2018-01-30T13:00:12Z</time>
      </trkpt>
      <trkpt lat="62.633273250641" lon="17.99029995768">
        <ele>92.2</ele>
        <time>2018-01-30T13:00:13Z</time>
      </trkpt>
      <trkpt lat="62.633302922567" lon="17.9902898994">
        <ele>92.4</ele>
        <time>2018-01-30T13:00:14Z</time>
      </trkpt>
      <trkpt lat="62.633331337208" lon="17.990272800324">
        <ele>92.4</ele>
        <time>2018-01-30T13:00:15Z</time>
      </trkpt>
      <trkpt lat="62.633362936971" lon="17.990252683764">
        <ele>92.4</ele>
        <time>2018-01-30T13:00:16Z</time>
      </trkpt>
      <trkpt lat="62.633391267793" lon="17.990236087602">
        <ele>92.6</ele>
        <time>2018-01-30T13:00:17Z</time>
      </trkpt>
      <trkpt lat="62.633417754597" lon="17.990212115368">
        <ele>92.8</ele>
        <time>2018-01-30T13:00:18Z</time>
      </trkpt>
      <trkpt lat="62.633442229745" lon="17.990188059315">
        <ele>92.8</ele>
        <time>2018-01-30T13:00:19Z</time>
      </trkpt>
      <trkpt lat="62.63346444178" lon="17.990138019372">
        <ele>93</ele>
        <time>2018-01-30T13:00:20Z</time>
      </trkpt>
      <trkpt lat="62.633494532801" lon="17.99010298303">
        <ele>93</ele>
        <time>2018-01-30T13:00:21Z</time>
      </trkpt>
      <trkpt lat="62.633518002121" lon="17.990073143466">
        <ele>92.8</ele>
        <time>2018-01-30T13:00:22Z</time>
      </trkpt>
      <trkpt lat="62.633551697359" lon="17.990005417714">
        <ele>92.8</ele>
        <time>2018-01-30T13:00:23Z</time>
      </trkpt>
      <trkpt lat="62.633584470588" lon="17.989947163509">
        <ele>92.8</ele>
        <time>2018-01-30T13:00:24Z</time>
      </trkpt>
      <trkpt lat="62.633606598804" lon="17.989889328399">
        <ele>92.6</ele>
        <time>2018-01-30T13:00:25Z</time>
      </trkpt>
      <trkpt lat="62.633627385916" lon="17.989828224348">
        <ele>92.6</ele>
        <time>2018-01-30T13:00:26Z</time>
      </trkpt>
      <trkpt lat="62.633648340666" lon="17.98972328296">
        <ele>92.4</ele>
        <time>2018-01-30T13:00:27Z</time>
      </trkpt>
      <trkpt lat="62.63367650385" lon="17.98965371319">
        <ele>92.4</ele>
        <time>2018-01-30T13:00:28Z</time>
      </trkpt>
      <trkpt lat="62.633713216572" lon="17.989601577772">
        <ele>92.2</ele>
        <time>2018-01-30T13:00:29Z</time>
      </trkpt>
      <trkpt lat="62.633742804679" lon="17.989555142046">
        <ele>91.8</ele>
        <time>2018-01-30T13:00:30Z</time>
      </trkpt>
      <trkpt lat="62.633770213492" lon="17.989515998573">
        <ele>91.8</ele>
        <time>2018-01-30T13:00:31Z</time>
      </trkpt>
      <trkpt lat="62.633799466323" lon="17.989481297507">
        <ele>91.6</ele>
        <time>2018-01-30T13:00:32Z</time>
      </trkpt>
      <trkpt lat="62.633835257036" lon="17.989448440459">
        <ele>91.4</ele>
        <time>2018-01-30T13:00:33Z</time>
      </trkpt>
      <trkpt lat="62.633862246754" lon="17.989421702198">
        <ele>91.4</ele>
        <time>2018-01-30T13:00:34Z</time>
      </trkpt>
      <trkpt lat="62.633899797666" lon="17.98939471248">
        <ele>91.4</ele>
        <time>2018-01-30T13:00:35Z</time>
      </trkpt>
      <trkpt lat="62.633928463764" lon="17.989375685567">
        <ele>91.4</ele>
        <time>2018-01-30T13:00:36Z</time>
      </trkpt>
      <trkpt lat="62.633962661916" lon="17.989334111343">
        <ele>91.6</ele>
        <time>2018-01-30T13:00:37Z</time>
      </trkpt>
      <trkpt lat="62.634002811217" lon="17.989280634821">
        <ele>91.6</ele>
        <time>2018-01-30T13:00:38Z</time>
      </trkpt>
      <trkpt lat="62.634032818419" lon="17.9892421619">
        <ele>91.4</ele>
        <time>2018-01-30T13:00:39Z</time>
      </trkpt>
      <trkpt lat="62.634074727919" lon="17.989196145269">
        <ele>91.4</ele>
        <time>2018-01-30T13:00:40Z</time>
      </trkpt>
      <trkpt lat="62.634102136732" lon="17.989150715371">
        <ele>91.2</ele>
        <time>2018-01-30T13:00:41Z</time>
      </trkpt>
      <trkpt lat="62.634141028748" lon="17.989105956025">
        <ele>91</ele>
        <time>2018-01-30T13:00:42Z</time>
      </trkpt>
      <trkpt lat="62.634171706502" lon="17.989064297982">
        <ele>90.6</ele>
        <time>2018-01-30T13:00:43Z</time>
      </trkpt>
      <trkpt lat="62.6342003726" lon="17.988999841171">
        <ele>90.4</ele>
        <time>2018-01-30T13:00:44Z</time>
      </trkpt>
      <trkpt lat="62.634223087549" lon="17.988926331908">
        <ele>90.2</ele>
        <time>2018-01-30T13:00:45Z</time>
      </trkpt>
      <trkpt lat="62.634245970136" lon="17.988880818191">
        <ele>90</ele>
        <time>2018-01-30T13:00:46Z</time>
      </trkpt>
      <trkpt lat="62.634265919058" lon="17.988820887606">
        <ele>89.8</ele>
        <time>2018-01-30T13:00:47Z</time>
      </trkpt>
      <trkpt lat="62.634283940143" lon="17.988772021129">
        <ele>89.8</ele>
        <time>2018-01-30T13:00:48Z</time>
      </trkpt>
      <trkpt lat="62.634302799418" lon="17.988717203503">
        <ele>90</ele>
        <time>2018-01-30T13:00:49Z</time>
      </trkpt>
      <trkpt lat="62.634334063905" lon="17.988652830511">
        <ele>90</ele>
        <time>2018-01-30T13:00:50Z</time>
      </trkpt>
      <trkpt lat="62.634372369188" lon="17.988603125844">
        <ele>90</ele>
        <time>2018-01-30T13:00:51Z</time>
      </trkpt>
      <trkpt lat="62.63440237639" lon="17.98856490438">
        <ele>90</ele>
        <time>2018-01-30T13:00:52Z</time>
      </trkpt>
      <trkpt lat="62.634434730524" lon="17.988532131151">
        <ele>90</ele>
        <time>2018-01-30T13:00:53Z</time>
      </trkpt>
      <trkpt lat="62.634461133509" lon="17.98849868737">
        <ele>89.6</ele>
        <time>2018-01-30T13:00:54Z</time>
      </trkpt>
      <trkpt lat="62.634502540095" lon="17.98846599796">
        <ele>89.4</ele>
        <time>2018-01-30T13:00:55Z</time>
      </trkpt>
      <trkpt lat="62.634548808183" lon="17.988448982703">
        <ele>89.4</ele>
        <time>2018-01-30T13:00:56Z</time>
      </trkpt>
      <trkpt lat="62.634597255565" lon="17.988435655482">
        <ele>89.2</ele>
        <time>2018-01-30T13:00:57Z</time>
      </trkpt>
      <trkpt lat="62.634633297735" lon="17.988429369057">
        <ele>88.8</ele>
        <time>2018-01-30T13:00:58Z</time>
      </trkpt>
      <trkpt lat="62.634677135072" lon="17.988401541149">
        <ele>88.4</ele>
        <time>2018-01-30T13:00:59Z</time>
      </trkpt>
      <trkpt lat="62.634719966581" lon="17.988373294146">
        <ele>88.4</ele>
        <time>2018-01-30T13:01:00Z</time>
      </trkpt>
      <trkpt lat="62.634759529149" lon="17.988364996065">
        <ele>88</ele>
        <time>2018-01-30T13:01:01Z</time>
      </trkpt>
      <trkpt lat="62.634801606287" lon="17.988341023831">
        <ele>87.4</ele>
        <time>2018-01-30T13:01:02Z</time>
      </trkpt>
      <trkpt lat="62.634845192167" lon="17.988314201751">
        <ele>87</ele>
        <time>2018-01-30T13:01:03Z</time>
      </trkpt>
      <trkpt lat="62.634880060871" lon="17.988284613644">
        <ele>87</ele>
        <time>2018-01-30T13:01:04Z</time>
      </trkpt>
      <trkpt lat="62.634917444145" lon="17.988245637809">
        <ele>86.6</ele>
        <time>2018-01-30T13:01:05Z</time>
      </trkpt>
      <trkpt lat="62.634948792451" lon="17.988203225395">
        <ele>86.6</ele>
        <time>2018-01-30T13:01:06Z</time>
      </trkpt>
      <trkpt lat="62.634976368902" lon="17.988145306466">
        <ele>86.6</ele>
        <time>2018-01-30T13:01:07Z</time>
      </trkpt>
      <trkpt lat="62.63500000586" lon="17.988076155791">
        <ele>86.4</ele>
        <time>2018-01-30T13:01:08Z</time>
      </trkpt>
      <trkpt lat="62.63501760785" lon="17.988013542998">
        <ele>86.4</ele>
        <time>2018-01-30T13:01:09Z</time>
      </trkpt>
      <trkpt lat="62.635033868736" lon="17.987945146694">
        <ele>86.2</ele>
        <time>2018-01-30T13:01:10Z</time>
      </trkpt>
      <trkpt lat="62.635045184301" lon="17.98787758858">
        <ele>86.2</ele>
        <time>2018-01-30T13:01:11Z</time>
      </trkpt>
      <trkpt lat="62.635057086599" lon="17.98781388614">
        <ele>86.2</ele>
        <time>2018-01-30T13:01:12Z</time>
      </trkpt>
      <trkpt lat="62.635064462671" lon="17.987745908931">
        <ele>86</ele>
        <time>2018-01-30T13:01:13Z</time>
      </trkpt>
      <trkpt lat="62.635068821259" lon="17.987697545368">
        <ele>85.8</ele>
        <time>2018-01-30T13:01:14Z</time>
      </trkpt>
      <trkpt lat="62.635067647793" lon="17.987644320303">
        <ele>85.6</ele>
        <time>2018-01-30T13:01:15Z</time>
      </trkpt>
      <trkpt lat="62.63505113545" lon="17.987611547074">
        <ele>85.6</ele>
        <time>2018-01-30T13:01:16Z</time>
      </trkpt>
      <trkpt lat="62.635032024718" lon="17.987607439943">
        <ele>85.6</ele>
        <time>2018-01-30T13:01:17Z</time>
      </trkpt>
      <trkpt lat="62.635018865135" lon="17.98764624814">
        <ele>85.4</ele>
        <time>2018-01-30T13:01:18Z</time>
      </trkpt>
      <trkpt lat="62.635010734692" lon="17.98768145212">
        <ele>85.4</ele>
        <time>2018-01-30T13:01:19Z</time>
      </trkpt>
      <trkpt lat="62.634990701951" lon="17.987711207865">
        <ele>85.4</ele>
        <time>2018-01-30T13:01:20Z</time>
      </trkpt>
      <trkpt lat="62.634977290911" lon="17.987759906704">
        <ele>85.2</ele>
        <time>2018-01-30T13:01:21Z</time>
      </trkpt>
      <trkpt lat="62.634960527111" lon="17.987772144278">
        <ele>85.2</ele>
        <time>2018-01-30T13:01:22Z</time>
      </trkpt>
      <trkpt lat="62.634949295365" lon="17.987804498412">
        <ele>85</ele>
        <time>2018-01-30T13:01:23Z</time>
      </trkpt>
      <trkpt lat="62.634932280108" lon="17.987835259985">
        <ele>85.2</ele>
        <time>2018-01-30T13:01:24Z</time>
      </trkpt>
      <trkpt lat="62.634912582643" lon="17.987877504761">
        <ele>85.2</ele>
        <time>2018-01-30T13:01:25Z</time>
      </trkpt>
      <trkpt lat="62.634891208798" lon="17.987904662117">
        <ele>85.4</ele>
        <time>2018-01-30T13:01:26Z</time>
      </trkpt>
      <trkpt lat="62.634868829125" lon="17.987929891636">
        <ele>85.4</ele>
        <time>2018-01-30T13:01:27Z</time>
      </trkpt>
      <trkpt lat="62.634863632347" lon="17.987945649608">
        <ele>85.4</ele>
        <time>2018-01-30T13:01:28Z</time>
      </trkpt>
      <trkpt lat="62.634835804439" lon="17.987983368158">
        <ele>85.6</ele>
        <time>2018-01-30T13:01:29Z</time>
      </trkpt>
      <trkpt lat="62.634808479445" lon="17.987982865244">
        <ele>85.8</ele>
        <time>2018-01-30T13:01:30Z</time>
      </trkpt>
      <trkpt lat="62.634793559663" lon="17.98801421355">
        <ele>86</ele>
        <time>2018-01-30T13:01:31Z</time>
      </trkpt>
      <trkpt lat="62.63476279809" lon="17.988020751432">
        <ele>86.2</ele>
        <time>2018-01-30T13:01:32Z</time>
      </trkpt>
      <trkpt lat="62.634748884136" lon="17.988028546599">
        <ele>86.2</ele>
        <time>2018-01-30T13:01:33Z</time>
      </trkpt>
      <trkpt lat="62.634717200554" lon="17.988037515232">
        <ele>86.4</ele>
        <time>2018-01-30T13:01:34Z</time>
      </trkpt>
      <trkpt lat="62.634686690438" lon="17.988060900733">
        <ele>86.6</ele>
        <time>2018-01-30T13:01:35Z</time>
      </trkpt>
      <trkpt lat="62.634662299109" lon="17.988068444443">
        <ele>86.6</ele>
        <time>2018-01-30T13:01:36Z</time>
      </trkpt>
      <trkpt lat="62.634634890296" lon="17.988082609854">
        <ele>86.8</ele>
        <time>2018-01-30T13:01:37Z</time>
      </trkpt>
      <trkpt lat="62.634613432632" lon="17.988095769437">
        <ele>86.8</ele>
        <time>2018-01-30T13:01:38Z</time>
      </trkpt>
      <trkpt lat="62.634583257792" lon="17.988091913763">
        <ele>87</ele>
        <time>2018-01-30T13:01:39Z</time>
      </trkpt>
      <trkpt lat="62.634558531187" lon="17.988104235156">
        <ele>87</ele>
        <time>2018-01-30T13:01:40Z</time>
      </trkpt>
      <trkpt lat="62.634533804582" lon="17.988104654251">
        <ele>87.2</ele>
        <time>2018-01-30T13:01:41Z</time>
      </trkpt>
      <trkpt lat="62.634505641398" lon="17.988145306466">
        <ele>87.2</ele>
        <time>2018-01-30T13:01:42Z</time>
      </trkpt>
      <trkpt lat="62.634485608657" lon="17.988127117743">
        <ele>87.4</ele>
        <time>2018-01-30T13:01:43Z</time>
      </trkpt>
      <trkpt lat="62.634468341943" lon="17.988141115516">
        <ele>87.4</ele>
        <time>2018-01-30T13:01:44Z</time>
      </trkpt>
      <trkpt lat="62.634436490723" lon="17.988140696421">
        <ele>87.4</ele>
        <time>2018-01-30T13:01:45Z</time>
      </trkpt>
      <trkpt lat="62.634408578996" lon="17.988148240131">
        <ele>87.4</ele>
        <time>2018-01-30T13:01:46Z</time>
      </trkpt>
      <trkpt lat="62.634379409984" lon="17.988165506845">
        <ele>87.6</ele>
        <time>2018-01-30T13:01:47Z</time>
      </trkpt>
      <trkpt lat="62.634359963976" lon="17.988179504618">
        <ele>87.6</ele>
        <time>2018-01-30T13:01:48Z</time>
      </trkpt>
      <trkpt lat="62.634342361986" lon="17.988185120491">
        <ele>87.6</ele>
        <time>2018-01-30T13:01:49Z</time>
      </trkpt>
      <trkpt lat="62.634316964829" lon="17.988190317269">
        <ele>87.8</ele>
        <time>2018-01-30T13:01:50Z</time>
      </trkpt>
      <trkpt lat="62.634298608468" lon="17.988208505992">
        <ele>88</ele>
        <time>2018-01-30T13:01:51Z</time>
      </trkpt>
      <trkpt lat="62.634287041446" lon="17.988200962282">
        <ele>88</ele>
        <time>2018-01-30T13:01:52Z</time>
      </trkpt>
      <trkpt lat="62.634248400887" lon="17.988204901775">
        <ele>88.2</ele>
        <time>2018-01-30T13:01:53Z</time>
      </trkpt>
      <trkpt lat="62.634225602119" lon="17.9882111882">
        <ele>88.2</ele>
        <time>2018-01-30T13:01:54Z</time>
      </trkpt>
      <trkpt lat="62.634195427279" lon="17.988202135748">
        <ele>88.4</ele>
        <time>2018-01-30T13:01:55Z</time>
      </trkpt>
      <trkpt lat="62.63417187414" lon="17.988205488508">
        <ele>88.4</ele>
        <time>2018-01-30T13:01:56Z</time>
      </trkpt>
      <trkpt lat="62.634144800603" lon="17.988186713052">
        <ele>88.6</ele>
        <time>2018-01-30T13:01:57Z</time>
      </trkpt>
      <trkpt lat="62.634114541944" lon="17.988186629233">
        <ele>88.8</ele>
        <time>2018-01-30T13:01:58Z</time>
      </trkpt>
      <trkpt lat="62.63409056971" lon="17.98818101336">
        <ele>88.8</ele>
        <time>2018-01-30T13:01:59Z</time>
      </trkpt>
      <trkpt lat="62.634061568336" lon="17.988159471877">
        <ele>88.8</ele>
        <time>2018-01-30T13:02:00Z</time>
      </trkpt>
      <trkpt lat="62.634035752084" lon="17.988139774412">
        <ele>88.8</ele>
        <time>2018-01-30T13:02:01Z</time>
      </trkpt>
      <trkpt lat="62.634006666891" lon="17.988125525182">
        <ele>88.6</ele>
        <time>2018-01-30T13:02:02Z</time>
      </trkpt>
      <trkpt lat="62.633981856467" lon="17.988095937075">
        <ele>88.8</ele>
        <time>2018-01-30T13:02:03Z</time>
      </trkpt>
      <trkpt lat="62.633963751563" lon="17.988077580714">
        <ele>88.8</ele>
        <time>2018-01-30T13:02:04Z</time>
      </trkpt>
      <trkpt lat="62.633935420741" lon="17.988044807485">
        <ele>89</ele>
        <time>2018-01-30T13:02:05Z</time>
      </trkpt>
      <trkpt lat="62.633925278642" lon="17.988014045912">
        <ele>89</ele>
        <time>2018-01-30T13:02:06Z</time>
      </trkpt>
      <trkpt lat="62.633899713847" lon="17.987998539397">
        <ele>89.2</ele>
        <time>2018-01-30T13:02:07Z</time>
      </trkpt>
      <trkpt lat="62.633881106029" lon="17.987980518312">
        <ele>89.4</ele>
        <time>2018-01-30T13:02:08Z</time>
      </trkpt>
      <trkpt lat="62.633855708872" lon="17.98796727491">
        <ele>89.6</ele>
        <time>2018-01-30T13:02:09Z</time>
      </trkpt>
      <trkpt lat="62.633828132421" lon="17.987931987111">
        <ele>89.6</ele>
        <time>2018-01-30T13:02:10Z</time>
      </trkpt>
      <trkpt lat="62.633795778287" lon="17.987928801989">
        <ele>89.6</ele>
        <time>2018-01-30T13:02:11Z</time>
      </trkpt>
      <trkpt lat="62.633762753601" lon="17.98788932324">
        <ele>89.8</ele>
        <time>2018-01-30T13:02:12Z</time>
      </trkpt>
      <trkpt lat="62.633727717259" lon="17.987872307983">
        <ele>89.8</ele>
        <time>2018-01-30T13:02:13Z</time>
      </trkpt>
      <trkpt lat="62.633703661206" lon="17.987834673252">
        <ele>89.8</ele>
        <time>2018-01-30T13:02:14Z</time>
      </trkpt>
      <trkpt lat="62.633670720339" lon="17.987796200331">
        <ele>90</ele>
        <time>2018-01-30T13:02:15Z</time>
      </trkpt>
      <trkpt lat="62.633646831924" lon="17.987783627481">
        <ele>89.8</ele>
        <time>2018-01-30T13:02:16Z</time>
      </trkpt>
      <trkpt lat="62.633619674568" lon="17.987749596967">
        <ele>90</ele>
        <time>2018-01-30T13:02:17Z</time>
      </trkpt>
      <trkpt lat="62.633594947963" lon="17.987724283629">
        <ele>90</ele>
        <time>2018-01-30T13:02:18Z</time>
      </trkpt>
      <trkpt lat="62.633575418136" lon="17.987707352191">
        <ele>90.2</ele>
        <time>2018-01-30T13:02:19Z</time>
      </trkpt>
      <trkpt lat="62.633546332943" lon="17.98767307022">
        <ele>90.4</ele>
        <time>2018-01-30T13:02:20Z</time>
      </trkpt>
      <trkpt lat="62.633519007949" lon="17.987649684719">
        <ele>90.6</ele>
        <time>2018-01-30T13:02:21Z</time>
      </trkpt>
      <trkpt lat="62.633497047371" lon="17.987619090784">
        <ele>90.8</ele>
        <time>2018-01-30T13:02:22Z</time>
      </trkpt>
      <trkpt lat="62.633470225291" lon="17.987572319782">
        <ele>91</ele>
        <time>2018-01-30T13:02:23Z</time>
      </trkpt>
      <trkpt lat="62.633446923609" lon="17.98754398896">
        <ele>91</ele>
        <time>2018-01-30T13:02:24Z</time>
      </trkpt>
      <trkpt lat="62.633423119013" lon="17.987496044492">
        <ele>91.2</ele>
        <time>2018-01-30T13:02:25Z</time>
      </trkpt>
      <trkpt lat="62.633407025765" lon="17.987473748638">
        <ele>91.2</ele>
        <time>2018-01-30T13:02:26Z</time>
      </trkpt>
      <trkpt lat="62.633388753223" lon="17.98744424435">
        <ele>91.4</ele>
        <time>2018-01-30T13:02:27Z</time>
      </trkpt>
      <trkpt lat="62.633374168717" lon="17.987400071737">
        <ele>91.6</ele>
        <time>2018-01-30T13:02:28Z</time>
      </trkpt>
      <trkpt lat="62.633358997478" lon="17.987356988771">
        <ele>91.6</ele>
        <time>2018-01-30T13:02:29Z</time>
      </trkpt>
      <trkpt lat="62.633344664429" lon="17.987312816158">
        <ele>91.8</ele>
        <time>2018-01-30T13:02:30Z</time>
      </trkpt>
      <trkpt lat="62.633321278928" lon="17.987265290785">
        <ele>92.2</ele>
        <time>2018-01-30T13:02:31Z</time>
      </trkpt>
      <trkpt lat="62.633296217047" lon="17.987203097087">
        <ele>92.4</ele>
        <time>2018-01-30T13:02:32Z</time>
      </trkpt>
      <trkpt lat="62.63328339274" lon="17.987139813742">
        <ele>92.6</ele>
        <time>2018-01-30T13:02:33Z</time>
      </trkpt>
      <trkpt lat="62.633263611456" lon="17.987059598959">
        <ele>92.4</ele>
        <time>2018-01-30T13:02:34Z</time>
      </trkpt>
      <trkpt lat="62.633232933702" lon="17.986931942622">
        <ele>92.4</ele>
        <time>2018-01-30T13:02:35Z</time>
      </trkpt>
      <trkpt lat="62.633218600653" lon="17.98682649832">
        <ele>92.2</ele>
        <time>2018-01-30T13:02:36Z</time>
      </trkpt>
      <trkpt lat="62.63320711745" lon="17.986717868896">
        <ele>91.8</ele>
        <time>2018-01-30T13:02:37Z</time>
      </trkpt>
      <trkpt lat="62.633197729722" lon="17.986615022983">
        <ele>91.2</ele>
        <time>2018-01-30T13:02:38Z</time>
      </trkpt>
      <trkpt lat="62.633188090537" lon="17.986508740491">
        <ele>90.4</ele>
        <time>2018-01-30T13:02:39Z</time>
      </trkpt>
      <trkpt lat="62.633182223207" lon="17.986399608153">
        <ele>89.8</ele>
        <time>2018-01-30T13:02:40Z</time>
      </trkpt>
      <trkpt lat="62.633174092764" lon="17.986290559634">
        <ele>89.4</ele>
        <time>2018-01-30T13:02:41Z</time>
      </trkpt>
      <trkpt lat="62.633166800511" lon="17.986205567168">
        <ele>89.2</ele>
        <time>2018-01-30T13:02:42Z</time>
      </trkpt>
      <trkpt lat="62.633168979805" lon="17.986074055157">
        <ele>89</ele>
        <time>2018-01-30T13:02:43Z</time>
      </trkpt>
      <trkpt lat="62.633169817995" lon="17.985961737697">
        <ele>89</ele>
        <time>2018-01-30T13:02:44Z</time>
      </trkpt>
      <trkpt lat="62.633171745832" lon="17.985835171007">
        <ele>88.6</ele>
        <time>2018-01-30T13:02:45Z</time>
      </trkpt>
      <trkpt lat="62.63317023709" lon="17.985722350633">
        <ele>88</ele>
        <time>2018-01-30T13:02:46Z</time>
      </trkpt>
      <trkpt lat="62.633166465235" lon="17.985605674585">
        <ele>87.4</ele>
        <time>2018-01-30T13:02:47Z</time>
      </trkpt>
      <trkpt lat="62.633165375588" lon="17.985512132581">
        <ele>86.6</ele>
        <time>2018-01-30T13:02:48Z</time>
      </trkpt>
      <trkpt lat="62.633170069452" lon="17.98542336826">
        <ele>86.2</ele>
        <time>2018-01-30T13:02:49Z</time>
      </trkpt>
      <trkpt lat="62.633177361705" lon="17.985283222892">
        <ele>86</ele>
        <time>2018-01-30T13:02:50Z</time>
      </trkpt>
      <trkpt lat="62.633189766917" lon="17.985148777216">
        <ele>85.8</ele>
        <time>2018-01-30T13:02:51Z</time>
      </trkpt>
      <trkpt lat="62.633202842681" lon="17.985025060372">
        <ele>85.8</ele>
        <time>2018-01-30T13:02:52Z</time>
      </trkpt>
      <trkpt lat="62.633220947585" lon="17.984884160633">
        <ele>85.4</ele>
        <time>2018-01-30T13:02:53Z</time>
      </trkpt>
      <trkpt lat="62.633241902335" lon="17.984781147082">
        <ele>85</ele>
        <time>2018-01-30T13:02:54Z</time>
      </trkpt>
      <trkpt lat="62.633265623112" lon="17.984655837677">
        <ele>84.4</ele>
        <time>2018-01-30T13:02:55Z</time>
      </trkpt>
      <trkpt lat="62.633288338061" lon="17.98455416523">
        <ele>84</ele>
        <time>2018-01-30T13:02:56Z</time>
      </trkpt>
      <trkpt lat="62.63331105301" lon="17.984445619625">
        <ele>83.6</ele>
        <time>2018-01-30T13:02:57Z</time>
      </trkpt>
      <trkpt lat="62.633316249788" lon="17.984415780061">
        <ele>83.6</ele>
        <time>2018-01-30T13:02:58Z</time>
      </trkpt>
      <trkpt lat="62.633340892574" lon="17.98429097357">
        <ele>83.2</ele>
        <time>2018-01-30T13:02:59Z</time>
      </trkpt>
      <trkpt lat="62.633350783216" lon="17.984153342772">
        <ele>83.2</ele>
        <time>2018-01-30T13:03:00Z</time>
      </trkpt>
      <trkpt lat="62.633356399089" lon="17.984084946468">
        <ele>83.2</ele>
        <time>2018-01-30T13:03:01Z</time>
      </trkpt>
      <trkpt lat="62.633365116265" lon="17.983981346184">
        <ele>83.2</ele>
        <time>2018-01-30T13:03:02Z</time>
      </trkpt>
      <trkpt lat="62.633371318871" lon="17.9839196554">
        <ele>83.4</ele>
        <time>2018-01-30T13:03:03Z</time>
      </trkpt>
      <trkpt lat="62.633375509821" lon="17.983852935476">
        <ele>83.6</ele>
        <time>2018-01-30T13:03:04Z</time>
      </trkpt>
      <trkpt lat="62.633382718255" lon="17.983750257201">
        <ele>83.8</ele>
        <time>2018-01-30T13:03:05Z</time>
      </trkpt>
      <trkpt lat="62.633390848698" lon="17.983671802617">
        <ele>84.2</ele>
        <time>2018-01-30T13:03:06Z</time>
      </trkpt>
      <trkpt lat="62.633407277222" lon="17.983605082693">
        <ele>84.4</ele>
        <time>2018-01-30T13:03:07Z</time>
      </trkpt>
      <trkpt lat="62.633424627755" lon="17.983538027493">
        <ele>84.4</ele>
        <time>2018-01-30T13:03:08Z</time>
      </trkpt>
      <trkpt lat="62.633434434578" lon="17.983459824366">
        <ele>84.8</ele>
        <time>2018-01-30T13:03:09Z</time>
      </trkpt>
      <trkpt lat="62.633453210034" lon="17.9833832138">
        <ele>84.8</ele>
        <time>2018-01-30T13:03:10Z</time>
      </trkpt>
      <trkpt lat="62.633473158956" lon="17.983302244646">
        <ele>84.8</ele>
        <time>2018-01-30T13:03:11Z</time>
      </trkpt>
      <trkpt lat="62.633484642159" lon="17.983228819202">
        <ele>84.8</ele>
        <time>2018-01-30T13:03:12Z</time>
      </trkpt>
      <trkpt lat="62.633507440927" lon="17.983149023514">
        <ele>84.8</ele>
        <time>2018-01-30T13:03:13Z</time>
      </trkpt>
      <trkpt lat="62.633526551659" lon="17.983107952204">
        <ele>84.8</ele>
        <time>2018-01-30T13:03:14Z</time>
      </trkpt>
      <trkpt lat="62.633545075658" lon="17.983052464026">
        <ele>84.8</ele>
        <time>2018-01-30T13:03:15Z</time>
      </trkpt>
      <trkpt lat="62.63355664268" lon="17.982983648627">
        <ele>84.8</ele>
        <time>2018-01-30T13:03:16Z</time>
      </trkpt>
      <trkpt lat="62.633572484471" lon="17.982912486296">
        <ele>84.8</ele>
        <time>2018-01-30T13:03:17Z</time>
      </trkpt>
      <trkpt lat="62.633593690678" lon="17.982840653413">
        <ele>84.8</ele>
        <time>2018-01-30T13:03:18Z</time>
      </trkpt>
      <trkpt lat="62.63360106675" lon="17.982770832186">
        <ele>84.8</ele>
        <time>2018-01-30T13:03:19Z</time>
      </trkpt>
      <trkpt lat="62.633615651256" lon="17.982707967936">
        <ele>85</ele>
        <time>2018-01-30T13:03:20Z</time>
      </trkpt>
      <trkpt lat="62.633640964594" lon="17.982631692646">
        <ele>84.8</ele>
        <time>2018-01-30T13:03:21Z</time>
      </trkpt>
      <trkpt lat="62.6336471672" lon="17.982568996034">
        <ele>84.8</ele>
        <time>2018-01-30T13:03:22Z</time>
      </trkpt>
      <trkpt lat="62.633669546873" lon="17.982477298048">
        <ele>84.8</ele>
        <time>2018-01-30T13:03:23Z</time>
      </trkpt>
      <trkpt lat="62.633678934601" lon="17.982412086866">
        <ele>84.8</ele>
        <time>2018-01-30T13:03:24Z</time>
      </trkpt>
      <trkpt lat="62.633675078927" lon="17.982319215414">
        <ele>84.8</ele>
        <time>2018-01-30T13:03:25Z</time>
      </trkpt>
      <trkpt lat="62.633685556302" lon="17.982241682839">
        <ele>85</ele>
        <time>2018-01-30T13:03:26Z</time>
      </trkpt>
      <trkpt lat="62.633696704229" lon="17.982173370354">
        <ele>84.8</ele>
        <time>2018-01-30T13:03:27Z</time>
      </trkpt>
      <trkpt lat="62.633702571559" lon="17.982110422285">
        <ele>84.8</ele>
        <time>2018-01-30T13:03:28Z</time>
      </trkpt>
      <trkpt lat="62.633704583215" lon="17.982023585801">
        <ele>85</ele>
        <time>2018-01-30T13:03:29Z</time>
      </trkpt>
      <trkpt lat="62.633694860211" lon="17.981941359362">
        <ele>85</ele>
        <time>2018-01-30T13:03:30Z</time>
      </trkpt>
      <trkpt lat="62.633706343414" lon="17.981871789592">
        <ele>85</ele>
        <time>2018-01-30T13:03:31Z</time>
      </trkpt>
      <trkpt lat="62.633707097785" lon="17.981792832094">
        <ele>85</ele>
        <time>2018-01-30T13:03:32Z</time>
      </trkpt>
      <trkpt lat="62.633714306219" lon="17.981744049436">
        <ele>85.2</ele>
        <time>2018-01-30T13:03:33Z</time>
      </trkpt>
      <trkpt lat="62.633719586816" lon="17.981714209872">
        <ele>85.2</ele>
        <time>2018-01-30T13:03:34Z</time>
      </trkpt>
      <trkpt lat="62.633726627612" lon="17.981607340647">
        <ele>85.4</ele>
        <time>2018-01-30T13:03:35Z</time>
      </trkpt>
      <trkpt lat="62.633730231829" lon="17.981528718425">
        <ele>85.4</ele>
        <time>2018-01-30T13:03:36Z</time>
      </trkpt>
      <trkpt lat="62.633735344788" lon="17.981461411768">
        <ele>85.6</ele>
        <time>2018-01-30T13:03:37Z</time>
      </trkpt>
      <trkpt lat="62.633734506598" lon="17.98140257083">
        <ele>85.6</ele>
        <time>2018-01-30T13:03:38Z</time>
      </trkpt>
      <trkpt lat="62.633754539339" lon="17.981338952209">
        <ele>85.6</ele>
        <time>2018-01-30T13:03:39Z</time>
      </trkpt>
      <trkpt lat="62.633768118017" lon="17.981285978601">
        <ele>85.6</ele>
        <time>2018-01-30T13:03:40Z</time>
      </trkpt>
      <trkpt lat="62.633775997003" lon="17.98121481627">
        <ele>85.4</ele>
        <time>2018-01-30T13:03:41Z</time>
      </trkpt>
      <trkpt lat="62.633787480206" lon="17.981142312835">
        <ele>85.4</ele>
        <time>2018-01-30T13:03:42Z</time>
      </trkpt>
      <trkpt lat="62.633807345309" lon="17.981090512693">
        <ele>85.4</ele>
        <time>2018-01-30T13:03:43Z</time>
      </trkpt>
      <trkpt lat="62.633826456041" lon="17.981038461094">
        <ele>85.4</ele>
        <time>2018-01-30T13:03:44Z</time>
      </trkpt>
      <trkpt lat="62.633837603968" lon="17.980967717858">
        <ele>85.4</ele>
        <time>2018-01-30T13:03:45Z</time>
      </trkpt>
      <trkpt lat="62.633854786863" lon="17.980923461426">
        <ele>85.6</ele>
        <time>2018-01-30T13:03:46Z</time>
      </trkpt>
      <trkpt lat="62.633879848744" lon="17.980869565809">
        <ele>85.6</ele>
        <time>2018-01-30T13:03:47Z</time>
      </trkpt>
      <trkpt lat="62.63390197696" lon="17.980806031007">
        <ele>85.8</ele>
        <time>2018-01-30T13:03:48Z</time>
      </trkpt>
      <trkpt lat="62.633917148199" lon="17.980760852566">
        <ele>86</ele>
        <time>2018-01-30T13:03:49Z</time>
      </trkpt>
      <trkpt lat="62.63394137189" lon="17.98070687313">
        <ele>86.2</ele>
        <time>2018-01-30T13:03:50Z</time>
      </trkpt>
      <trkpt lat="62.633957716595" lon="17.980648283649">
        <ele>86.4</ele>
        <time>2018-01-30T13:03:51Z</time>
      </trkpt>
      <trkpt lat="62.633974145119" lon="17.980601009733">
        <ele>86.6</ele>
        <time>2018-01-30T13:03:52Z</time>
      </trkpt>
      <trkpt lat="62.633997446801" lon="17.980533451619">
        <ele>86.6</ele>
        <time>2018-01-30T13:03:53Z</time>
      </trkpt>
      <trkpt lat="62.634006834529" lon="17.980480310373">
        <ele>86.6</ele>
        <time>2018-01-30T13:03:54Z</time>
      </trkpt>
      <trkpt lat="62.634032986057" lon="17.980420966521">
        <ele>86.6</ele>
        <time>2018-01-30T13:03:55Z</time>
      </trkpt>
      <trkpt lat="62.634045810364" lon="17.980355336244">
        <ele>86.6</ele>
        <time>2018-01-30T13:03:56Z</time>
      </trkpt>
      <trkpt lat="62.634074811738" lon="17.980304961025">
        <ele>86.8</ele>
        <time>2018-01-30T13:03:57Z</time>
      </trkpt>
      <trkpt lat="62.634096017945" lon="17.980248634657">
        <ele>86.8</ele>
        <time>2018-01-30T13:03:58Z</time>
      </trkpt>
      <trkpt lat="62.634123175301" lon="17.980214771781">
        <ele>87</ele>
        <time>2018-01-30T13:03:59Z</time>
      </trkpt>
      <trkpt lat="62.634158211643" lon="17.980172610824">
        <ele>87</ele>
        <time>2018-01-30T13:04:00Z</time>
      </trkpt>
      <trkpt lat="62.634184698447" lon="17.980143441812">
        <ele>87</ele>
        <time>2018-01-30T13:04:01Z</time>
      </trkpt>
      <trkpt lat="62.63421294545" lon="17.980089210919">
        <ele>87</ele>
        <time>2018-01-30T13:04:02Z</time>
      </trkpt>
      <trkpt lat="62.63423473839" lon="17.980044535392">
        <ele>87</ele>
        <time>2018-01-30T13:04:03Z</time>
      </trkpt>
      <trkpt lat="62.634245215765" lon="17.979983850436">
        <ele>87</ele>
        <time>2018-01-30T13:04:04Z</time>
      </trkpt>
      <trkpt lat="62.634262901574" lon="17.979926602059">
        <ele>87</ele>
        <time>2018-01-30T13:04:05Z</time>
      </trkpt>
      <trkpt lat="62.634289975111" lon="17.979861893791">
        <ele>87</ele>
        <time>2018-01-30T13:04:06Z</time>
      </trkpt>
      <trkpt lat="62.634307744739" lon="17.979789725632">
        <ele>87</ele>
        <time>2018-01-30T13:04:07Z</time>
      </trkpt>
      <trkpt lat="62.634322413064" lon="17.979729878866">
        <ele>87</ele>
        <time>2018-01-30T13:04:08Z</time>
      </trkpt>
      <trkpt lat="62.634335572647" lon="17.979655028499">
        <ele>87</ele>
        <time>2018-01-30T13:04:09Z</time>
      </trkpt>
      <trkpt lat="62.634351162981" lon="17.979583195616">
        <ele>87</ele>
        <time>2018-01-30T13:04:10Z</time>
      </trkpt>
      <trkpt lat="62.634367675324" lon="17.979512620018">
        <ele>86.8</ele>
        <time>2018-01-30T13:04:11Z</time>
      </trkpt>
      <trkpt lat="62.634381086364" lon="17.979432321416">
        <ele>86.8</ele>
        <time>2018-01-30T13:04:12Z</time>
      </trkpt>
      <trkpt lat="62.634389468264" lon="17.979383035844">
        <ele>86.6</ele>
        <time>2018-01-30T13:04:13Z</time>
      </trkpt>
      <trkpt lat="62.634398604535" lon="17.97931463954">
        <ele>86.6</ele>
        <time>2018-01-30T13:04:14Z</time>
      </trkpt>
      <trkpt lat="62.634403046942" lon="17.979230317626">
        <ele>86.6</ele>
        <time>2018-01-30T13:04:15Z</time>
      </trkpt>
      <trkpt lat="62.634416290344" lon="17.979181451149">
        <ele>86.6</ele>
        <time>2018-01-30T13:04:16Z</time>
      </trkpt>
      <trkpt lat="62.634421906217" lon="17.979103248022">
        <ele>86.6</ele>
        <time>2018-01-30T13:04:17Z</time>
      </trkpt>
      <trkpt lat="62.634425258977" lon="17.979051783156">
        <ele>86.6</ele>
        <time>2018-01-30T13:04:18Z</time>
      </trkpt>
      <trkpt lat="62.634440765492" lon="17.978983805947">
        <ele>86.8</ele>
        <time>2018-01-30T13:04:19Z</time>
      </trkpt>
      <trkpt lat="62.634450907591" lon="17.978898981119">
        <ele>86.8</ele>
        <time>2018-01-30T13:04:20Z</time>
      </trkpt>
      <trkpt lat="62.634464989183" lon="17.978845588416">
        <ele>86.8</ele>
        <time>2018-01-30T13:04:21Z</time>
      </trkpt>
      <trkpt lat="62.634479992784" lon="17.978766211823">
        <ele>86.8</ele>
        <time>2018-01-30T13:04:22Z</time>
      </trkpt>
      <trkpt lat="62.634491140711" lon="17.978669149421">
        <ele>86.8</ele>
        <time>2018-01-30T13:04:23Z</time>
      </trkpt>
      <trkpt lat="62.634501869543" lon="17.978604776429">
        <ele>86.8</ele>
        <time>2018-01-30T13:04:24Z</time>
      </trkpt>
      <trkpt lat="62.634504216475" lon="17.978519783963">
        <ele>86.8</ele>
        <time>2018-01-30T13:04:25Z</time>
      </trkpt>
      <trkpt lat="62.634521734646" lon="17.978469408744">
        <ele>86.8</ele>
        <time>2018-01-30T13:04:26Z</time>
      </trkpt>
      <trkpt lat="62.634535229505" lon="17.97837502855">
        <ele>86.6</ele>
        <time>2018-01-30T13:04:27Z</time>
      </trkpt>
      <trkpt lat="62.634537576437" lon="17.978350301945">
        <ele>86.8</ele>
        <time>2018-01-30T13:04:28Z</time>
      </trkpt>
      <trkpt lat="62.634556100436" lon="17.978226333644">
        <ele>86.8</ele>
        <time>2018-01-30T13:04:29Z</time>
      </trkpt>
      <trkpt lat="62.634565069069" lon="17.978118793867">
        <ele>86.6</ele>
        <time>2018-01-30T13:04:30Z</time>
      </trkpt>
      <trkpt lat="62.634574959711" lon="17.978037070342">
        <ele>86.4</ele>
        <time>2018-01-30T13:04:31Z</time>
      </trkpt>
      <trkpt lat="62.634590298588" lon="17.977942690148">
        <ele>86.4</ele>
        <time>2018-01-30T13:04:32Z</time>
      </trkpt>
      <trkpt lat="62.634604631637" lon="17.977842861719">
        <ele>86</ele>
        <time>2018-01-30T13:04:33Z</time>
      </trkpt>
      <trkpt lat="62.634619383781" lon="17.977782512039">
        <ele>85.8</ele>
        <time>2018-01-30T13:04:34Z</time>
      </trkpt>
      <trkpt lat="62.634615025193" lon="17.977680923411">
        <ele>85.4</ele>
        <time>2018-01-30T13:04:35Z</time>
      </trkpt>
      <trkpt lat="62.634625754025" lon="17.977614371125">
        <ele>85.2</ele>
        <time>2018-01-30T13:04:36Z</time>
      </trkpt>
      <trkpt lat="62.634649558621" lon="17.977526025899">
        <ele>85</ele>
        <time>2018-01-30T13:04:37Z</time>
      </trkpt>
      <trkpt lat="62.634660371272" lon="17.977439943786">
        <ele>85</ele>
        <time>2018-01-30T13:04:38Z</time>
      </trkpt>
      <trkpt lat="62.634667747344" lon="17.977375319337">
        <ele>85</ele>
        <time>2018-01-30T13:04:39Z</time>
      </trkpt>
      <trkpt lat="62.634683840592" lon="17.977293260536">
        <ele>84.8</ele>
        <time>2018-01-30T13:04:40Z</time>
      </trkpt>
      <trkpt lat="62.634690294655" lon="17.977226624431">
        <ele>84.8</ele>
        <time>2018-01-30T13:04:41Z</time>
      </trkpt>
      <trkpt lat="62.634703789514" lon="17.977156467928">
        <ele>84.8</ele>
        <time>2018-01-30T13:04:42Z</time>
      </trkpt>
      <trkpt lat="62.634722062056" lon="17.977079941181">
        <ele>85</ele>
        <time>2018-01-30T13:04:43Z</time>
      </trkpt>
      <trkpt lat="62.634738993494" lon="17.977008275936">
        <ele>85</ele>
        <time>2018-01-30T13:04:44Z</time>
      </trkpt>
      <trkpt lat="62.63475106343" lon="17.97693334175">
        <ele>85</ele>
        <time>2018-01-30T13:04:45Z</time>
      </trkpt>
      <trkpt lat="62.634766821402" lon="17.976850444759">
        <ele>85</ele>
        <time>2018-01-30T13:04:46Z</time>
      </trkpt>
      <trkpt lat="62.634781405908" lon="17.976770062338">
        <ele>85</ele>
        <time>2018-01-30T13:04:47Z</time>
      </trkpt>
      <trkpt lat="62.634796996242" lon="17.976694122324">
        <ele>85</ele>
        <time>2018-01-30T13:04:48Z</time>
      </trkpt>
      <trkpt lat="62.634803617943" lon="17.976617260301">
        <ele>84.8</ele>
        <time>2018-01-30T13:04:49Z</time>
      </trkpt>
      <trkpt lat="62.634825746159" lon="17.976536374966">
        <ele>84.6</ele>
        <time>2018-01-30T13:04:50Z</time>
      </trkpt>
      <trkpt lat="62.634842090864" lon="17.976448700292">
        <ele>84.6</ele>
        <time>2018-01-30T13:04:51Z</time>
      </trkpt>
      <trkpt lat="62.634857178284" lon="17.976374771934">
        <ele>84.4</ele>
        <time>2018-01-30T13:04:52Z</time>
      </trkpt>
      <trkpt lat="62.634875618464" lon="17.976312326779">
        <ele>84.4</ele>
        <time>2018-01-30T13:04:53Z</time>
      </trkpt>
      <trkpt lat="62.634888694228" lon="17.976228591598">
        <ele>84.4</ele>
        <time>2018-01-30T13:04:54Z</time>
      </trkpt>
      <trkpt lat="62.634913588471" lon="17.976153070679">
        <ele>84.4</ele>
        <time>2018-01-30T13:04:55Z</time>
      </trkpt>
      <trkpt lat="62.634937309248" lon="17.976082327443">
        <ele>84.4</ele>
        <time>2018-01-30T13:04:56Z</time>
      </trkpt>
      <trkpt lat="62.634964550423" lon="17.975988450163">
        <ele>84.2</ele>
        <time>2018-01-30T13:04:57Z</time>
      </trkpt>
      <trkpt lat="62.634985421354" lon="17.975922316972">
        <ele>84</ele>
        <time>2018-01-30T13:04:58Z</time>
      </trkpt>
      <trkpt lat="62.635014506547" lon="17.975832295366">
        <ele>83.8</ele>
        <time>2018-01-30T13:04:59Z</time>
      </trkpt>
      <trkpt lat="62.635029510148" lon="17.975741184113">
        <ele>83.6</ele>
        <time>2018-01-30T13:05:00Z</time>
      </trkpt>
      <trkpt lat="62.635046525405" lon="17.975655269638">
        <ele>83.4</ele>
        <time>2018-01-30T13:05:01Z</time>
      </trkpt>
      <trkpt lat="62.635060187902" lon="17.975574551941">
        <ele>83.2</ele>
        <time>2018-01-30T13:05:02Z</time>
      </trkpt>
      <trkpt lat="62.635065803775" lon="17.975490732941">
        <ele>83.2</ele>
        <time>2018-01-30T13:05:03Z</time>
      </trkpt>
      <trkpt lat="62.635077370797" lon="17.975412781271">
        <ele>83.2</ele>
        <time>2018-01-30T13:05:04Z</time>
      </trkpt>
      <trkpt lat="62.63508969219" lon="17.975327453529">
        <ele>83</ele>
        <time>2018-01-30T13:05:05Z</time>
      </trkpt>
      <trkpt lat="62.635100672479" lon="17.975234833534">
        <ele>83</ele>
        <time>2018-01-30T13:05:06Z</time>
      </trkpt>
      <trkpt lat="62.635101175393" lon="17.975158642063">
        <ele>83</ele>
        <time>2018-01-30T13:05:07Z</time>
      </trkpt>
      <trkpt lat="62.635113245329" lon="17.975068788095">
        <ele>82.8</ele>
        <time>2018-01-30T13:05:08Z</time>
      </trkpt>
      <trkpt lat="62.635113496786" lon="17.974980107593">
        <ele>82.8</ele>
        <time>2018-01-30T13:05:09Z</time>
      </trkpt>
      <trkpt lat="62.635092961131" lon="17.974889666892">
        <ele>82.6</ele>
        <time>2018-01-30T13:05:10Z</time>
      </trkpt>
      <trkpt lat="62.635069491811" lon="17.974804506788">
        <ele>82.6</ele>
        <time>2018-01-30T13:05:11Z</time>
      </trkpt>
      <trkpt lat="62.635034036374" lon="17.974721945073">
        <ele>82.4</ele>
        <time>2018-01-30T13:05:12Z</time>
      </trkpt>
      <trkpt lat="62.635009561226" lon="17.974657152986">
        <ele>82.4</ele>
        <time>2018-01-30T13:05:13Z</time>
      </trkpt>
      <trkpt lat="62.634963293138" lon="17.974566963742">
        <ele>82</ele>
        <time>2018-01-30T13:05:14Z</time>
      </trkpt>
      <trkpt lat="62.634934291764" lon="17.974472835005">
        <ele>81.6</ele>
        <time>2018-01-30T13:05:15Z</time>
      </trkpt>
      <trkpt lat="62.634916773593" lon="17.974385830883">
        <ele>81</ele>
        <time>2018-01-30T13:05:16Z</time>
      </trkpt>
      <trkpt lat="62.63489774668" lon="17.974275944174">
        <ele>80.8</ele>
        <time>2018-01-30T13:05:17Z</time>
      </trkpt>
      <trkpt lat="62.634880647604" lon="17.974199082151">
        <ele>80.4</ele>
        <time>2018-01-30T13:05:18Z</time>
      </trkpt>
      <trkpt lat="62.634859525216" lon="17.97410277412">
        <ele>80</ele>
        <time>2018-01-30T13:05:19Z</time>
      </trkpt>
      <trkpt lat="62.634840246846" lon="17.974005208804">
        <ele>79.8</ele>
        <time>2018-01-30T13:05:20Z</time>
      </trkpt>
      <trkpt lat="62.634823818322" lon="17.973938069785">
        <ele>79.8</ele>
        <time>2018-01-30T13:05:21Z</time>
      </trkpt>
      <trkpt lat="62.634805713418" lon="17.973866907454">
        <ele>79.6</ele>
        <time>2018-01-30T13:05:22Z</time>
      </trkpt>
      <trkpt lat="62.634785177763" lon="17.973794404019">
        <ele>79.4</ele>
        <time>2018-01-30T13:05:23Z</time>
      </trkpt>
      <trkpt lat="62.634769084515" lon="17.973711171752">
        <ele>79.4</ele>
        <time>2018-01-30T13:05:24Z</time>
      </trkpt>
      <trkpt lat="62.634749638507" lon="17.973607571468">
        <ele>79.2</ele>
        <time>2018-01-30T13:05:25Z</time>
      </trkpt>
      <trkpt lat="62.63474100515" lon="17.97352190845">
        <ele>79.2</ele>
        <time>2018-01-30T13:05:26Z</time>
      </trkpt>
      <trkpt lat="62.634730527775" lon="17.973410512999">
        <ele>79</ele>
        <time>2018-01-30T13:05:27Z</time>
      </trkpt>
      <trkpt lat="62.634726420644" lon="17.973319569384">
        <ele>79</ele>
        <time>2018-01-30T13:05:28Z</time>
      </trkpt>
      <trkpt lat="62.634719966581" lon="17.973232313805">
        <ele>79</ele>
        <time>2018-01-30T13:05:29Z</time>
      </trkpt>
      <trkpt lat="62.634715943269" lon="17.973128964978">
        <ele>79</ele>
        <time>2018-01-30T13:05:30Z</time>
      </trkpt>
      <trkpt lat="62.634717116735" lon="17.973028549816">
        <ele>79</ele>
        <time>2018-01-30T13:05:31Z</time>
      </trkpt>
      <trkpt lat="62.634721307685" lon="17.972934840174">
        <ele>78.8</ele>
        <time>2018-01-30T13:05:32Z</time>
      </trkpt>
      <trkpt lat="62.634737149476" lon="17.972854457753">
        <ele>78.8</ele>
        <time>2018-01-30T13:05:33Z</time>
      </trkpt>
      <trkpt lat="62.634749470869" lon="17.972778098644">
        <ele>78.8</ele>
        <time>2018-01-30T13:05:34Z</time>
      </trkpt>
      <trkpt lat="62.634777466415" lon="17.972682377346">
        <ele>78.8</ele>
        <time>2018-01-30T13:05:35Z</time>
      </trkpt>
      <trkpt lat="62.634806886884" lon="17.972604006581">
        <ele>78.8</ele>
        <time>2018-01-30T13:05:36Z</time>
      </trkpt>
      <trkpt lat="62.634836726448" lon="17.972541645245">
        <ele>78.6</ele>
        <time>2018-01-30T13:05:37Z</time>
      </trkpt>
      <trkpt lat="62.634860531044" lon="17.972480205918">
        <ele>78.6</ele>
        <time>2018-01-30T13:05:38Z</time>
      </trkpt>
      <trkpt lat="62.634885425287" lon="17.972394039986">
        <ele>78.6</ele>
        <time>2018-01-30T13:05:39Z</time>
      </trkpt>
      <trkpt lat="62.63492708333" lon="17.972316675049">
        <ele>78.6</ele>
        <time>2018-01-30T13:05:40Z</time>
      </trkpt>
      <trkpt lat="62.634952564306" lon="17.972249033116">
        <ele>78.4</ele>
        <time>2018-01-30T13:05:41Z</time>
      </trkpt>
      <trkpt lat="62.634974943979" lon="17.972167644867">
        <ele>78.2</ele>
        <time>2018-01-30T13:05:42Z</time>
      </trkpt>
      <trkpt lat="62.63500084405" lon="17.972108887748">
        <ele>78.2</ele>
        <time>2018-01-30T13:05:43Z</time>
      </trkpt>
      <trkpt lat="62.635026073569" lon="17.972025823119">
        <ele>77.8</ele>
        <time>2018-01-30T13:05:44Z</time>
      </trkpt>
      <trkpt lat="62.635057673332" lon="17.971912416012">
        <ele>77.4</ele>
        <time>2018-01-30T13:05:45Z</time>
      </trkpt>
      <trkpt lat="62.635076867883" lon="17.971811749393">
        <ele>77.2</ele>
        <time>2018-01-30T13:05:46Z</time>
      </trkpt>
      <trkpt lat="62.63509975047" lon="17.971688367825">
        <ele>76.6</ele>
        <time>2018-01-30T13:05:47Z</time>
      </trkpt>
      <trkpt lat="62.635119112659" lon="17.971580241315">
        <ele>76.2</ele>
        <time>2018-01-30T13:05:48Z</time>
      </trkpt>
      <trkpt lat="62.635134702993" lon="17.971454512815">
        <ele>75.6</ele>
        <time>2018-01-30T13:05:49Z</time>
      </trkpt>
      <trkpt lat="62.635150712422" lon="17.971329790143">
        <ele>74.6</ele>
        <time>2018-01-30T13:05:50Z</time>
      </trkpt>
      <trkpt lat="62.635163620548" lon="17.971219316701">
        <ele>73.8</ele>
        <time>2018-01-30T13:05:51Z</time>
      </trkpt>
      <trkpt lat="62.63516848205" lon="17.97117246188">
        <ele>73.2</ele>
        <time>2018-01-30T13:05:52Z</time>
      </trkpt>
      <trkpt lat="62.635189688257" lon="17.970989904098">
        <ele>72.8</ele>
        <time>2018-01-30T13:05:53Z</time>
      </trkpt>
      <trkpt lat="62.635204021306" lon="17.97085981701">
        <ele>72.6</ele>
        <time>2018-01-30T13:05:54Z</time>
      </trkpt>
      <trkpt lat="62.635217516165" lon="17.970728891732">
        <ele>72.4</ele>
        <time>2018-01-30T13:05:55Z</time>
      </trkpt>
      <trkpt lat="62.635227909721" lon="17.97061506553">
        <ele>72</ele>
        <time>2018-01-30T13:05:56Z</time>
      </trkpt>
      <trkpt lat="62.635241656037" lon="17.970489923763">
        <ele>71.6</ele>
        <time>2018-01-30T13:05:57Z</time>
      </trkpt>
      <trkpt lat="62.635245511711" lon="17.970405685668">
        <ele>71.4</ele>
        <time>2018-01-30T13:05:58Z</time>
      </trkpt>
      <trkpt lat="62.635261185864" lon="17.970248357405">
        <ele>70.8</ele>
        <time>2018-01-30T13:05:59Z</time>
      </trkpt>
      <trkpt lat="62.635279374587" lon="17.970121455439">
        <ele>70.4</ele>
        <time>2018-01-30T13:06:00Z</time>
      </trkpt>
      <trkpt lat="62.635301921898" lon="17.970000420803">
        <ele>70</ele>
        <time>2018-01-30T13:06:01Z</time>
      </trkpt>
      <trkpt lat="62.635329833625" lon="17.969880140538">
        <ele>69.8</ele>
        <time>2018-01-30T13:06:02Z</time>
      </trkpt>
      <trkpt lat="62.635356739524" lon="17.969763967404">
        <ele>69.8</ele>
        <time>2018-01-30T13:06:03Z</time>
      </trkpt>
      <trkpt lat="62.635383813061" lon="17.969662797871">
        <ele>69.6</ele>
        <time>2018-01-30T13:06:04Z</time>
      </trkpt>
      <trkpt lat="62.63541826267" lon="17.969536650276">
        <ele>69.6</ele>
        <time>2018-01-30T13:06:05Z</time>
      </trkpt>
      <trkpt lat="62.63544676113" lon="17.969424332816">
        <ele>69.4</ele>
        <time>2018-01-30T13:06:06Z</time>
      </trkpt>
      <trkpt lat="62.635475427228" lon="17.9693100037">
        <ele>69.2</ele>
        <time>2018-01-30T13:06:07Z</time>
      </trkpt>
      <trkpt lat="62.635507026991" lon="17.969198021516">
        <ele>68.6</ele>
        <time>2018-01-30T13:06:08Z</time>
      </trkpt>
      <trkpt lat="62.635535357813" lon="17.969088134807">
        <ele>68.4</ele>
        <time>2018-01-30T13:06:09Z</time>
      </trkpt>
      <trkpt lat="62.635568047223" lon="17.968971123483">
        <ele>68</ele>
        <time>2018-01-30T13:06:10Z</time>
      </trkpt>
      <trkpt lat="62.63560182628" lon="17.968857800195">
        <ele>67.6</ele>
        <time>2018-01-30T13:06:11Z</time>
      </trkpt>
      <trkpt lat="62.635637114079" lon="17.968749589866">
        <ele>67</ele>
        <time>2018-01-30T13:06:12Z</time>
      </trkpt>
      <trkpt lat="62.635676257552" lon="17.968656802233">
        <ele>66.4</ele>
        <time>2018-01-30T13:06:13Z</time>
      </trkpt>
      <trkpt lat="62.635717580319" lon="17.968577760916">
        <ele>66</ele>
        <time>2018-01-30T13:06:14Z</time>
      </trkpt>
      <trkpt lat="62.63576527333" lon="17.968502994368">
        <ele>65.6</ele>
        <time>2018-01-30T13:06:15Z</time>
      </trkpt>
      <trkpt lat="62.635812547246" lon="17.968450942769">
        <ele>65</ele>
        <time>2018-01-30T13:06:16Z</time>
      </trkpt>
      <trkpt lat="62.635865772311" lon="17.968415822608">
        <ele>64.6</ele>
        <time>2018-01-30T13:06:17Z</time>
      </trkpt>
      <trkpt lat="62.635916734263" lon="17.968400148455">
        <ele>64</ele>
        <time>2018-01-30T13:06:18Z</time>
      </trkpt>
      <trkpt lat="62.635966187473" lon="17.968392520926">
        <ele>63.4</ele>
        <time>2018-01-30T13:06:19Z</time>
      </trkpt>
      <trkpt lat="62.636013796665" lon="17.968392772383">
        <ele>63</ele>
        <time>2018-01-30T13:06:20Z</time>
      </trkpt>
      <trkpt lat="62.636054951794" lon="17.968398639713">
        <ele>62.4</ele>
        <time>2018-01-30T13:06:21Z</time>
      </trkpt>
      <trkpt lat="62.636109685601" lon="17.968425126517">
        <ele>61.8</ele>
        <time>2018-01-30T13:06:23Z</time>
      </trkpt>
      <trkpt lat="62.636123264279" lon="17.968430574752">
        <ele>61.8</ele>
        <time>2018-01-30T13:06:24Z</time>
      </trkpt>
      <trkpt lat="62.636128628695" lon="17.968428730734">
        <ele>61.8</ele>
        <time>2018-01-30T13:06:25Z</time>
      </trkpt>
      <trkpt lat="62.636127036134" lon="17.96843660972">
        <ele>61.8</ele>
        <time>2018-01-30T13:06:26Z</time>
      </trkpt>
      <trkpt lat="62.63611228399" lon="17.968437028815">
        <ele>62</ele>
        <time>2018-01-30T13:06:28Z</time>
      </trkpt>
      <trkpt lat="62.636096526018" lon="17.968429652743">
        <ele>62.2</ele>
        <time>2018-01-30T13:06:29Z</time>
      </trkpt>
      <trkpt lat="62.636074900716" lon="17.968434346607">
        <ele>62.4</ele>
        <time>2018-01-30T13:06:30Z</time>
      </trkpt>
      <trkpt lat="62.636050090292" lon="17.968410709649">
        <ele>62.2</ele>
        <time>2018-01-30T13:06:31Z</time>
      </trkpt>
      <trkpt lat="62.636028800266" lon="17.968386485958">
        <ele>62</ele>
        <time>2018-01-30T13:06:32Z</time>
      </trkpt>
      <trkpt lat="62.636015221588" lon="17.968367542864">
        <ele>62</ele>
        <time>2018-01-30T13:06:33Z</time>
      </trkpt>
      <trkpt lat="62.635993847743" lon="17.968315826541">
        <ele>62</ele>
        <time>2018-01-30T13:06:34Z</time>
      </trkpt>
      <trkpt lat="62.63597230626" lon="17.968280119647">
        <ele>61.8</ele>
        <time>2018-01-30T13:06:35Z</time>
      </trkpt>
      <trkpt lat="62.63595973341" lon="17.968220943433">
        <ele>61.8</ele>
        <time>2018-01-30T13:06:36Z</time>
      </trkpt>
      <trkpt lat="62.635942550515" lon="17.968176687001">
        <ele>61.6</ele>
        <time>2018-01-30T13:06:37Z</time>
      </trkpt>
      <trkpt lat="62.635933246606" lon="17.968119438624">
        <ele>61.6</ele>
        <time>2018-01-30T13:06:38Z</time>
      </trkpt>
      <trkpt lat="62.635927211638" lon="17.968069650138">
        <ele>61.6</ele>
        <time>2018-01-30T13:06:39Z</time>
      </trkpt>
      <trkpt lat="62.635918578281" lon="17.968015670702">
        <ele>61.6</ele>
        <time>2018-01-30T13:06:40Z</time>
      </trkpt>
      <trkpt lat="62.635909358191" lon="17.967956578307">
        <ele>61.6</ele>
        <time>2018-01-30T13:06:41Z</time>
      </trkpt>
      <trkpt lat="62.635900724834" lon="17.967900838672">
        <ele>61.4</ele>
        <time>2018-01-30T13:06:42Z</time>
      </trkpt>
      <trkpt lat="62.635892929667" lon="17.967853145661">
        <ele>61.4</ele>
        <time>2018-01-30T13:06:43Z</time>
      </trkpt>
      <trkpt lat="62.635886224147" lon="17.967803524813">
        <ele>61.4</ele>
        <time>2018-01-30T13:06:45Z</time>
      </trkpt>
      <trkpt lat="62.635881195007" lon="17.967773349973">
        <ele>61.2</ele>
        <time>2018-01-30T13:06:46Z</time>
      </trkpt>
      <trkpt lat="62.635874992401" lon="17.967721046917">
        <ele>61.2</ele>
        <time>2018-01-30T13:06:47Z</time>
      </trkpt>
      <trkpt lat="62.63586417975" lon="17.967695314484">
        <ele>61</ele>
        <time>2018-01-30T13:06:48Z</time>
      </trkpt>
      <trkpt lat="62.635858060963" lon="17.967689279516">
        <ele>61</ele>
        <time>2018-01-30T13:06:49Z</time>
      </trkpt>
      <trkpt lat="62.635856300764" lon="17.967681903444">
        <ele>61.2</ele>
        <time>2018-01-30T13:06:50Z</time>
      </trkpt>
      <trkpt lat="62.635852864185" lon="17.967672683354">
        <ele>61.2</ele>
        <time>2018-01-30T13:06:51Z</time>
      </trkpt>
      <trkpt lat="62.635856803678" lon="17.967671677526">
        <ele>61.2</ele>
        <time>2018-01-30T13:06:52Z</time>
      </trkpt>
      <trkpt lat="62.635707941134" lon="17.967210421569">
        <ele>57.2</ele>
        <time>2018-01-30T13:08:55Z</time>
      </trkpt>
      <trkpt lat="62.635697044664" lon="17.967161471273">
        <ele>57</ele>
        <time>2018-01-30T13:08:56Z</time>
      </trkpt>
      <trkpt lat="62.635681286692" lon="17.967097852652">
        <ele>56.8</ele>
        <time>2018-01-30T13:08:57Z</time>
      </trkpt>
      <trkpt lat="62.635664355254" lon="17.967041107189">
        <ele>56.4</ele>
        <time>2018-01-30T13:08:58Z</time>
      </trkpt>
      <trkpt lat="62.635647842911" lon="17.966985367554">
        <ele>56.4</ele>
        <time>2018-01-30T13:08:59Z</time>
      </trkpt>
    </trkseg>
  </trk>
</gpx>